<?xml version="1.0" encoding="UTF-8" standalone="no" ?>
<gpx xmlns="http://www.topografix.com/GPX/1/1" xmlns:xsi="http://www.w3.org/2001/XMLSchema-instance" xsi:schemaLocation="http://www.topografix.com/GPX/1/1 http://www.topografix.com/GPX/1/1/gpx.xsd" version="1.1" creator="VisuGPX - https://www.visugpx.com">
  <metadata>
    <name>valberg - puget theniers</name>
    <desc><![CDATA[valberg - puget theniers
valberg - puget theniers]]></desc>
  </metadata>
  <trk>
    <name><![CDATA[Valberg - Pugets Theniers]]></name>
    <trkseg>
      <trkpt lat="44.09043" lon="6.96992">
        <ele>1547.599976</ele>
        <time>2011-10-09T07:14:41Z</time>
      </trkpt>
      <trkpt lat="44.09053" lon="6.97012">
        <ele>1550</ele>
        <time>2011-10-09T07:14:48Z</time>
      </trkpt>
      <trkpt lat="44.09061" lon="6.97029">
        <ele>1551.800049</ele>
        <time>2011-10-09T07:14:56Z</time>
      </trkpt>
      <trkpt lat="44.09064" lon="6.97035">
        <ele>1552.199951</ele>
        <time>2011-10-09T07:14:59Z</time>
      </trkpt>
      <trkpt lat="44.09067" lon="6.97043">
        <ele>1552.800049</ele>
        <time>2011-10-09T07:15:03Z</time>
      </trkpt>
      <trkpt lat="44.09071" lon="6.97054">
        <ele>1553.400024</ele>
        <time>2011-10-09T07:15:08Z</time>
      </trkpt>
      <trkpt lat="44.09073" lon="6.9706">
        <ele>1553.599976</ele>
        <time>2011-10-09T07:15:11Z</time>
      </trkpt>
      <trkpt lat="44.09074" lon="6.97069">
        <ele>1554</ele>
        <time>2011-10-09T07:15:15Z</time>
      </trkpt>
      <trkpt lat="44.0907" lon="6.97078">
        <ele>1554.599976</ele>
        <time>2011-10-09T07:15:19Z</time>
      </trkpt>
      <trkpt lat="44.09061" lon="6.97084">
        <ele>1555.599976</ele>
        <time>2011-10-09T07:15:23Z</time>
      </trkpt>
      <trkpt lat="44.09057" lon="6.97086">
        <ele>1556</ele>
        <time>2011-10-09T07:15:25Z</time>
      </trkpt>
      <trkpt lat="44.09052" lon="6.97088">
        <ele>1556.599976</ele>
        <time>2011-10-09T07:15:27Z</time>
      </trkpt>
      <trkpt lat="44.09046" lon="6.97092">
        <ele>1557.199951</ele>
        <time>2011-10-09T07:15:31Z</time>
      </trkpt>
      <trkpt lat="44.0904" lon="6.97092">
        <ele>1557.800049</ele>
        <time>2011-10-09T07:15:34Z</time>
      </trkpt>
      <trkpt lat="44.09031" lon="6.9709">
        <ele>1558.400024</ele>
        <time>2011-10-09T07:15:38Z</time>
      </trkpt>
      <trkpt lat="44.09022" lon="6.9709">
        <ele>1559.199951</ele>
        <time>2011-10-09T07:15:42Z</time>
      </trkpt>
      <trkpt lat="44.09016" lon="6.97089">
        <ele>1559.599976</ele>
        <time>2011-10-09T07:15:45Z</time>
      </trkpt>
      <trkpt lat="44.09009" lon="6.97088">
        <ele>1560</ele>
        <time>2011-10-09T07:15:49Z</time>
      </trkpt>
      <trkpt lat="44.09002" lon="6.97087">
        <ele>1560.400024</ele>
        <time>2011-10-09T07:15:53Z</time>
      </trkpt>
      <trkpt lat="44.08988" lon="6.97082">
        <ele>1561.800049</ele>
        <time>2011-10-09T07:16:00Z</time>
      </trkpt>
      <trkpt lat="44.08978" lon="6.97079">
        <ele>1563</ele>
        <time>2011-10-09T07:16:06Z</time>
      </trkpt>
      <trkpt lat="44.08972" lon="6.97077">
        <ele>1563.599976</ele>
        <time>2011-10-09T07:16:09Z</time>
      </trkpt>
      <trkpt lat="44.08966" lon="6.97076">
        <ele>1564.400024</ele>
        <time>2011-10-09T07:16:13Z</time>
      </trkpt>
      <trkpt lat="44.08952" lon="6.9707">
        <ele>1565.400024</ele>
        <time>2011-10-09T07:16:21Z</time>
      </trkpt>
      <trkpt lat="44.08948" lon="6.97067">
        <ele>1565.400024</ele>
        <time>2011-10-09T07:16:24Z</time>
      </trkpt>
      <trkpt lat="44.08942" lon="6.97064">
        <ele>1565.400024</ele>
        <time>2011-10-09T07:16:28Z</time>
      </trkpt>
      <trkpt lat="44.08931" lon="6.97057">
        <ele>1565.599976</ele>
        <time>2011-10-09T07:16:36Z</time>
      </trkpt>
      <trkpt lat="44.08926" lon="6.97052">
        <ele>1565.199951</ele>
        <time>2011-10-09T07:16:40Z</time>
      </trkpt>
      <trkpt lat="44.08921" lon="6.97048">
        <ele>1565</ele>
        <time>2011-10-09T07:16:44Z</time>
      </trkpt>
      <trkpt lat="44.08915" lon="6.97044">
        <ele>1564.599976</ele>
        <time>2011-10-09T07:16:48Z</time>
      </trkpt>
      <trkpt lat="44.08909" lon="6.97039">
        <ele>1564.400024</ele>
        <time>2011-10-09T07:16:52Z</time>
      </trkpt>
      <trkpt lat="44.08903" lon="6.97035">
        <ele>1564.400024</ele>
        <time>2011-10-09T07:16:56Z</time>
      </trkpt>
      <trkpt lat="44.0889" lon="6.97026">
        <ele>1564.400024</ele>
        <time>2011-10-09T07:17:05Z</time>
      </trkpt>
      <trkpt lat="44.08883" lon="6.97021">
        <ele>1564.400024</ele>
        <time>2011-10-09T07:17:09Z</time>
      </trkpt>
      <trkpt lat="44.08877" lon="6.97016">
        <ele>1564.599976</ele>
        <time>2011-10-09T07:17:13Z</time>
      </trkpt>
      <trkpt lat="44.08867" lon="6.97011">
        <ele>1565.199951</ele>
        <time>2011-10-09T07:17:19Z</time>
      </trkpt>
      <trkpt lat="44.08861" lon="6.97007">
        <ele>1565.599976</ele>
        <time>2011-10-09T07:17:23Z</time>
      </trkpt>
      <trkpt lat="44.08855" lon="6.97004">
        <ele>1566.400024</ele>
        <time>2011-10-09T07:17:27Z</time>
      </trkpt>
      <trkpt lat="44.08846" lon="6.97">
        <ele>1567.400024</ele>
        <time>2011-10-09T07:17:32Z</time>
      </trkpt>
      <trkpt lat="44.08838" lon="6.96997">
        <ele>1568</ele>
        <time>2011-10-09T07:17:36Z</time>
      </trkpt>
      <trkpt lat="44.08833" lon="6.96994">
        <ele>1568.199951</ele>
        <time>2011-10-09T07:17:39Z</time>
      </trkpt>
      <trkpt lat="44.08816" lon="6.96988">
        <ele>1564.599976</ele>
        <time>2011-10-09T07:17:47Z</time>
      </trkpt>
      <trkpt lat="44.08803" lon="6.96992">
        <ele>1564.199951</ele>
        <time>2011-10-09T07:17:53Z</time>
      </trkpt>
      <trkpt lat="44.088" lon="6.96998">
        <ele>1565</ele>
        <time>2011-10-09T07:17:55Z</time>
      </trkpt>
      <trkpt lat="44.08801" lon="6.97009">
        <ele>1567</ele>
        <time>2011-10-09T07:17:59Z</time>
      </trkpt>
      <trkpt lat="44.08805" lon="6.97014">
        <ele>1568.199951</ele>
        <time>2011-10-09T07:18:01Z</time>
      </trkpt>
      <trkpt lat="44.08818" lon="6.97015">
        <ele>1570.199951</ele>
        <time>2011-10-09T07:18:06Z</time>
      </trkpt>
      <trkpt lat="44.08833" lon="6.97016">
        <ele>1572.599976</ele>
        <time>2011-10-09T07:18:14Z</time>
      </trkpt>
      <trkpt lat="44.08838" lon="6.97019">
        <ele>1572.199951</ele>
        <time>2011-10-09T07:18:17Z</time>
      </trkpt>
      <trkpt lat="44.08845" lon="6.97024">
        <ele>1572</ele>
        <time>2011-10-09T07:18:21Z</time>
      </trkpt>
      <trkpt lat="44.08851" lon="6.9703">
        <ele>1572</ele>
        <time>2011-10-09T07:18:25Z</time>
      </trkpt>
      <trkpt lat="44.0886" lon="6.97043">
        <ele>1572.800049</ele>
        <time>2011-10-09T07:18:32Z</time>
      </trkpt>
      <trkpt lat="44.08863" lon="6.97048">
        <ele>1573.599976</ele>
        <time>2011-10-09T07:18:35Z</time>
      </trkpt>
      <trkpt lat="44.08866" lon="6.97055">
        <ele>1574.400024</ele>
        <time>2011-10-09T07:18:38Z</time>
      </trkpt>
      <trkpt lat="44.08873" lon="6.97069">
        <ele>1576.599976</ele>
        <time>2011-10-09T07:18:46Z</time>
      </trkpt>
      <trkpt lat="44.08876" lon="6.97076">
        <ele>1577.800049</ele>
        <time>2011-10-09T07:18:49Z</time>
      </trkpt>
      <trkpt lat="44.08878" lon="6.97085">
        <ele>1579.199951</ele>
        <time>2011-10-09T07:18:53Z</time>
      </trkpt>
      <trkpt lat="44.08885" lon="6.97099">
        <ele>1579.400024</ele>
        <time>2011-10-09T07:19:00Z</time>
      </trkpt>
      <trkpt lat="44.08889" lon="6.97108">
        <ele>1579.599976</ele>
        <time>2011-10-09T07:19:04Z</time>
      </trkpt>
      <trkpt lat="44.08893" lon="6.97117">
        <ele>1579.800049</ele>
        <time>2011-10-09T07:19:08Z</time>
      </trkpt>
      <trkpt lat="44.08901" lon="6.97132">
        <ele>1580.599976</ele>
        <time>2011-10-09T07:19:15Z</time>
      </trkpt>
      <trkpt lat="44.08905" lon="6.97139">
        <ele>1580.800049</ele>
        <time>2011-10-09T07:19:18Z</time>
      </trkpt>
      <trkpt lat="44.0891" lon="6.97147">
        <ele>1581.400024</ele>
        <time>2011-10-09T07:19:22Z</time>
      </trkpt>
      <trkpt lat="44.08915" lon="6.97155">
        <ele>1581.800049</ele>
        <time>2011-10-09T07:19:26Z</time>
      </trkpt>
      <trkpt lat="44.08922" lon="6.97167">
        <ele>1582.400024</ele>
        <time>2011-10-09T07:19:32Z</time>
      </trkpt>
      <trkpt lat="44.08929" lon="6.97177">
        <ele>1582.400024</ele>
        <time>2011-10-09T07:19:37Z</time>
      </trkpt>
      <trkpt lat="44.0893" lon="6.97184">
        <ele>1583</ele>
        <time>2011-10-09T07:19:41Z</time>
      </trkpt>
      <trkpt lat="44.08928" lon="6.97191">
        <ele>1583.599976</ele>
        <time>2011-10-09T07:19:45Z</time>
      </trkpt>
      <trkpt lat="44.08927" lon="6.97203">
        <ele>1584.599976</ele>
        <time>2011-10-09T07:20:25Z</time>
      </trkpt>
      <trkpt lat="44.08919" lon="6.97219">
        <ele>1586.599976</ele>
        <time>2011-10-09T07:20:30Z</time>
      </trkpt>
      <trkpt lat="44.08912" lon="6.97239">
        <ele>1587.599976</ele>
        <time>2011-10-09T07:20:34Z</time>
      </trkpt>
      <trkpt lat="44.08909" lon="6.97252">
        <ele>1588</ele>
        <time>2011-10-09T07:20:36Z</time>
      </trkpt>
      <trkpt lat="44.08906" lon="6.97266">
        <ele>1587.199951</ele>
        <time>2011-10-09T07:20:38Z</time>
      </trkpt>
      <trkpt lat="44.08902" lon="6.97281">
        <ele>1586.199951</ele>
        <time>2011-10-09T07:20:40Z</time>
      </trkpt>
      <trkpt lat="44.08898" lon="6.97297">
        <ele>1585</ele>
        <time>2011-10-09T07:20:42Z</time>
      </trkpt>
      <trkpt lat="44.08896" lon="6.97305">
        <ele>1584.400024</ele>
        <time>2011-10-09T07:20:43Z</time>
      </trkpt>
      <trkpt lat="44.08892" lon="6.97317">
        <ele>1583.599976</ele>
        <time>2011-10-09T07:20:44Z</time>
      </trkpt>
      <trkpt lat="44.08888" lon="6.97328">
        <ele>1582.800049</ele>
        <time>2011-10-09T07:20:45Z</time>
      </trkpt>
      <trkpt lat="44.08883" lon="6.97342">
        <ele>1581.800049</ele>
        <time>2011-10-09T07:20:47Z</time>
      </trkpt>
      <trkpt lat="44.0888" lon="6.97348">
        <ele>1581.400024</ele>
        <time>2011-10-09T07:20:49Z</time>
      </trkpt>
      <trkpt lat="44.08877" lon="6.97354">
        <ele>1581.199951</ele>
        <time>2011-10-09T07:20:51Z</time>
      </trkpt>
      <trkpt lat="44.08874" lon="6.97359">
        <ele>1581</ele>
        <time>2011-10-09T07:20:53Z</time>
      </trkpt>
      <trkpt lat="44.08871" lon="6.97365">
        <ele>1580.800049</ele>
        <time>2011-10-09T07:20:55Z</time>
      </trkpt>
      <trkpt lat="44.08864" lon="6.97378">
        <ele>1580.400024</ele>
        <time>2011-10-09T07:20:59Z</time>
      </trkpt>
      <trkpt lat="44.0886" lon="6.97385">
        <ele>1580.400024</ele>
        <time>2011-10-09T07:21:02Z</time>
      </trkpt>
      <trkpt lat="44.08858" lon="6.97401">
        <ele>1580.800049</ele>
        <time>2011-10-09T07:21:08Z</time>
      </trkpt>
      <trkpt lat="44.08857" lon="6.9741">
        <ele>1581</ele>
        <time>2011-10-09T07:21:11Z</time>
      </trkpt>
      <trkpt lat="44.08856" lon="6.9742">
        <ele>1581.599976</ele>
        <time>2011-10-09T07:21:15Z</time>
      </trkpt>
      <trkpt lat="44.08855" lon="6.97429">
        <ele>1582.400024</ele>
        <time>2011-10-09T07:21:19Z</time>
      </trkpt>
      <trkpt lat="44.08853" lon="6.97438">
        <ele>1583.400024</ele>
        <time>2011-10-09T07:21:23Z</time>
      </trkpt>
      <trkpt lat="44.08852" lon="6.97446">
        <ele>1584</ele>
        <time>2011-10-09T07:21:27Z</time>
      </trkpt>
      <trkpt lat="44.08852" lon="6.97459">
        <ele>1585.400024</ele>
        <time>2011-10-09T07:21:33Z</time>
      </trkpt>
      <trkpt lat="44.08851" lon="6.97467">
        <ele>1586.400024</ele>
        <time>2011-10-09T07:21:37Z</time>
      </trkpt>
      <trkpt lat="44.08848" lon="6.97474">
        <ele>1587.199951</ele>
        <time>2011-10-09T07:21:41Z</time>
      </trkpt>
      <trkpt lat="44.08846" lon="6.97481">
        <ele>1588.400024</ele>
        <time>2011-10-09T07:21:45Z</time>
      </trkpt>
      <trkpt lat="44.08844" lon="6.97489">
        <ele>1589.400024</ele>
        <time>2011-10-09T07:21:50Z</time>
      </trkpt>
      <trkpt lat="44.08843" lon="6.97496">
        <ele>1590.400024</ele>
        <time>2011-10-09T07:21:54Z</time>
      </trkpt>
      <trkpt lat="44.08844" lon="6.97505">
        <ele>1591</ele>
        <time>2011-10-09T07:21:58Z</time>
      </trkpt>
      <trkpt lat="44.08843" lon="6.97518">
        <ele>1591.599976</ele>
        <time>2011-10-09T07:22:03Z</time>
      </trkpt>
      <trkpt lat="44.0884" lon="6.97525">
        <ele>1592.400024</ele>
        <time>2011-10-09T07:22:07Z</time>
      </trkpt>
      <trkpt lat="44.08834" lon="6.97533">
        <ele>1593.400024</ele>
        <time>2011-10-09T07:22:11Z</time>
      </trkpt>
      <trkpt lat="44.08822" lon="6.97542">
        <ele>1594.599976</ele>
        <time>2011-10-09T07:22:18Z</time>
      </trkpt>
      <trkpt lat="44.08815" lon="6.97547">
        <ele>1595.199951</ele>
        <time>2011-10-09T07:22:23Z</time>
      </trkpt>
      <trkpt lat="44.08805" lon="6.97554">
        <ele>1596.400024</ele>
        <time>2011-10-09T07:22:30Z</time>
      </trkpt>
      <trkpt lat="44.08802" lon="6.97563">
        <ele>1597.199951</ele>
        <time>2011-10-09T07:22:35Z</time>
      </trkpt>
      <trkpt lat="44.08802" lon="6.97583">
        <ele>1598.400024</ele>
        <time>2011-10-09T07:22:43Z</time>
      </trkpt>
      <trkpt lat="44.088" lon="6.97599">
        <ele>1597.199951</ele>
        <time>2011-10-09T07:22:49Z</time>
      </trkpt>
      <trkpt lat="44.08793" lon="6.97611">
        <ele>1596.800049</ele>
        <time>2011-10-09T07:22:54Z</time>
      </trkpt>
      <trkpt lat="44.08781" lon="6.97619">
        <ele>1597.199951</ele>
        <time>2011-10-09T07:23:00Z</time>
      </trkpt>
      <trkpt lat="44.08781" lon="6.97626">
        <ele>1596.599976</ele>
        <time>2011-10-09T07:23:04Z</time>
      </trkpt>
      <trkpt lat="44.08779" lon="6.97637">
        <ele>1595.599976</ele>
        <time>2011-10-09T07:23:08Z</time>
      </trkpt>
      <trkpt lat="44.08772" lon="6.97648">
        <ele>1595.400024</ele>
        <time>2011-10-09T07:23:11Z</time>
      </trkpt>
      <trkpt lat="44.08761" lon="6.97654">
        <ele>1596</ele>
        <time>2011-10-09T07:23:13Z</time>
      </trkpt>
      <trkpt lat="44.08752" lon="6.97658">
        <ele>1596.400024</ele>
        <time>2011-10-09T07:23:15Z</time>
      </trkpt>
      <trkpt lat="44.08746" lon="6.97662">
        <ele>1596.800049</ele>
        <time>2011-10-09T07:23:18Z</time>
      </trkpt>
      <trkpt lat="44.08741" lon="6.97665">
        <ele>1597.199951</ele>
        <time>2011-10-09T07:23:21Z</time>
      </trkpt>
      <trkpt lat="44.08727" lon="6.97675">
        <ele>1597.800049</ele>
        <time>2011-10-09T07:23:28Z</time>
      </trkpt>
      <trkpt lat="44.08721" lon="6.9768">
        <ele>1598</ele>
        <time>2011-10-09T07:23:32Z</time>
      </trkpt>
      <trkpt lat="44.08717" lon="6.97684">
        <ele>1598</ele>
        <time>2011-10-09T07:23:36Z</time>
      </trkpt>
      <trkpt lat="44.08711" lon="6.97687">
        <ele>1598.199951</ele>
        <time>2011-10-09T07:23:40Z</time>
      </trkpt>
      <trkpt lat="44.08707" lon="6.97692">
        <ele>1598.199951</ele>
        <time>2011-10-09T07:23:45Z</time>
      </trkpt>
      <trkpt lat="44.08701" lon="6.97697">
        <ele>1598.199951</ele>
        <time>2011-10-09T07:23:50Z</time>
      </trkpt>
      <trkpt lat="44.08696" lon="6.97701">
        <ele>1598.199951</ele>
        <time>2011-10-09T07:23:54Z</time>
      </trkpt>
      <trkpt lat="44.08691" lon="6.97705">
        <ele>1598.400024</ele>
        <time>2011-10-09T07:23:58Z</time>
      </trkpt>
      <trkpt lat="44.08678" lon="6.97708">
        <ele>1599.400024</ele>
        <time>2011-10-09T07:24:05Z</time>
      </trkpt>
      <trkpt lat="44.08671" lon="6.97708">
        <ele>1600.400024</ele>
        <time>2011-10-09T07:24:09Z</time>
      </trkpt>
      <trkpt lat="44.08663" lon="6.97705">
        <ele>1601.400024</ele>
        <time>2011-10-09T07:24:13Z</time>
      </trkpt>
      <trkpt lat="44.08656" lon="6.97701">
        <ele>1602.199951</ele>
        <time>2011-10-09T07:24:17Z</time>
      </trkpt>
      <trkpt lat="44.08648" lon="6.97696">
        <ele>1603</ele>
        <time>2011-10-09T07:24:21Z</time>
      </trkpt>
      <trkpt lat="44.08641" lon="6.97692">
        <ele>1603.800049</ele>
        <time>2011-10-09T07:24:25Z</time>
      </trkpt>
      <trkpt lat="44.08631" lon="6.97683">
        <ele>1605.199951</ele>
        <time>2011-10-09T07:24:31Z</time>
      </trkpt>
      <trkpt lat="44.08624" lon="6.97677">
        <ele>1606</ele>
        <time>2011-10-09T07:24:35Z</time>
      </trkpt>
      <trkpt lat="44.08617" lon="6.97674">
        <ele>1606.599976</ele>
        <time>2011-10-09T07:24:39Z</time>
      </trkpt>
      <trkpt lat="44.08608" lon="6.9767">
        <ele>1607.199951</ele>
        <time>2011-10-09T07:24:43Z</time>
      </trkpt>
      <trkpt lat="44.08601" lon="6.97669">
        <ele>1607.400024</ele>
        <time>2011-10-09T07:24:47Z</time>
      </trkpt>
      <trkpt lat="44.08592" lon="6.97666">
        <ele>1607.800049</ele>
        <time>2011-10-09T07:24:52Z</time>
      </trkpt>
      <trkpt lat="44.08585" lon="6.97666">
        <ele>1608</ele>
        <time>2011-10-09T07:24:56Z</time>
      </trkpt>
      <trkpt lat="44.08579" lon="6.97666">
        <ele>1608.800049</ele>
        <time>2011-10-09T07:25:02Z</time>
      </trkpt>
      <trkpt lat="44.0857" lon="6.97668">
        <ele>1610.199951</ele>
        <time>2011-10-09T07:25:07Z</time>
      </trkpt>
      <trkpt lat="44.08565" lon="6.97668">
        <ele>1611</ele>
        <time>2011-10-09T07:25:09Z</time>
      </trkpt>
      <trkpt lat="44.08556" lon="6.97668">
        <ele>1612.599976</ele>
        <time>2011-10-09T07:25:13Z</time>
      </trkpt>
      <trkpt lat="44.08549" lon="6.9767">
        <ele>1613.800049</ele>
        <time>2011-10-09T07:25:17Z</time>
      </trkpt>
      <trkpt lat="44.08541" lon="6.97672">
        <ele>1615</ele>
        <time>2011-10-09T07:25:21Z</time>
      </trkpt>
      <trkpt lat="44.08533" lon="6.97675">
        <ele>1616</ele>
        <time>2011-10-09T07:25:25Z</time>
      </trkpt>
      <trkpt lat="44.08526" lon="6.9768">
        <ele>1616.599976</ele>
        <time>2011-10-09T07:25:29Z</time>
      </trkpt>
      <trkpt lat="44.08518" lon="6.97686">
        <ele>1617.199951</ele>
        <time>2011-10-09T07:25:33Z</time>
      </trkpt>
      <trkpt lat="44.08514" lon="6.97689">
        <ele>1617.400024</ele>
        <time>2011-10-09T07:25:35Z</time>
      </trkpt>
      <trkpt lat="44.0851" lon="6.97693">
        <ele>1617.599976</ele>
        <time>2011-10-09T07:25:37Z</time>
      </trkpt>
      <trkpt lat="44.08497" lon="6.97707">
        <ele>1618.199951</ele>
        <time>2011-10-09T07:25:43Z</time>
      </trkpt>
      <trkpt lat="44.08492" lon="6.97714">
        <ele>1618.400024</ele>
        <time>2011-10-09T07:25:46Z</time>
      </trkpt>
      <trkpt lat="44.08487" lon="6.97722">
        <ele>1618.800049</ele>
        <time>2011-10-09T07:25:49Z</time>
      </trkpt>
      <trkpt lat="44.08484" lon="6.97727">
        <ele>1619</ele>
        <time>2011-10-09T07:25:51Z</time>
      </trkpt>
      <trkpt lat="44.0848" lon="6.97735">
        <ele>1619.199951</ele>
        <time>2011-10-09T07:25:54Z</time>
      </trkpt>
      <trkpt lat="44.08475" lon="6.97746">
        <ele>1619.400024</ele>
        <time>2011-10-09T07:25:58Z</time>
      </trkpt>
      <trkpt lat="44.08472" lon="6.97757">
        <ele>1620.599976</ele>
        <time>2011-10-09T07:26:02Z</time>
      </trkpt>
      <trkpt lat="44.08469" lon="6.97766">
        <ele>1622</ele>
        <time>2011-10-09T07:26:05Z</time>
      </trkpt>
      <trkpt lat="44.08467" lon="6.97777">
        <ele>1623.400024</ele>
        <time>2011-10-09T07:26:09Z</time>
      </trkpt>
      <trkpt lat="44.08466" lon="6.97788">
        <ele>1624.400024</ele>
        <time>2011-10-09T07:26:13Z</time>
      </trkpt>
      <trkpt lat="44.08466" lon="6.978">
        <ele>1625.199951</ele>
        <time>2011-10-09T07:26:17Z</time>
      </trkpt>
      <trkpt lat="44.08467" lon="6.97811">
        <ele>1625.800049</ele>
        <time>2011-10-09T07:26:21Z</time>
      </trkpt>
      <trkpt lat="44.08475" lon="6.97835">
        <ele>1625.800049</ele>
        <time>2011-10-09T07:26:29Z</time>
      </trkpt>
      <trkpt lat="44.0848" lon="6.97845">
        <ele>1626.599976</ele>
        <time>2011-10-09T07:26:33Z</time>
      </trkpt>
      <trkpt lat="44.08484" lon="6.97854">
        <ele>1627.599976</ele>
        <time>2011-10-09T07:26:37Z</time>
      </trkpt>
      <trkpt lat="44.08487" lon="6.97861">
        <ele>1628.199951</ele>
        <time>2011-10-09T07:26:40Z</time>
      </trkpt>
      <trkpt lat="44.08492" lon="6.9787">
        <ele>1628.800049</ele>
        <time>2011-10-09T07:26:44Z</time>
      </trkpt>
      <trkpt lat="44.08498" lon="6.97878">
        <ele>1629.400024</ele>
        <time>2011-10-09T07:26:48Z</time>
      </trkpt>
      <trkpt lat="44.08502" lon="6.97884">
        <ele>1629.800049</ele>
        <time>2011-10-09T07:26:51Z</time>
      </trkpt>
      <trkpt lat="44.08509" lon="6.97892">
        <ele>1630.199951</ele>
        <time>2011-10-09T07:26:55Z</time>
      </trkpt>
      <trkpt lat="44.08515" lon="6.97901">
        <ele>1630.800049</ele>
        <time>2011-10-09T07:26:59Z</time>
      </trkpt>
      <trkpt lat="44.08527" lon="6.97918">
        <ele>1632.199951</ele>
        <time>2011-10-09T07:27:07Z</time>
      </trkpt>
      <trkpt lat="44.08534" lon="6.97926">
        <ele>1631.800049</ele>
        <time>2011-10-09T07:27:11Z</time>
      </trkpt>
      <trkpt lat="44.08537" lon="6.97936">
        <ele>1632.400024</ele>
        <time>2011-10-09T07:27:15Z</time>
      </trkpt>
      <trkpt lat="44.08523" lon="6.9792">
        <ele>1633.199951</ele>
        <time>2011-10-09T07:27:26Z</time>
      </trkpt>
      <trkpt lat="44.08516" lon="6.97912">
        <ele>1633</ele>
        <time>2011-10-09T07:27:30Z</time>
      </trkpt>
      <trkpt lat="44.08508" lon="6.97906">
        <ele>1633.199951</ele>
        <time>2011-10-09T07:27:34Z</time>
      </trkpt>
      <trkpt lat="44.08501" lon="6.97901">
        <ele>1633.599976</ele>
        <time>2011-10-09T07:27:37Z</time>
      </trkpt>
      <trkpt lat="44.08497" lon="6.97899">
        <ele>1633.800049</ele>
        <time>2011-10-09T07:27:39Z</time>
      </trkpt>
      <trkpt lat="44.08492" lon="6.97896">
        <ele>1634</ele>
        <time>2011-10-09T07:27:41Z</time>
      </trkpt>
      <trkpt lat="44.08488" lon="6.97894">
        <ele>1634.400024</ele>
        <time>2011-10-09T07:27:43Z</time>
      </trkpt>
      <trkpt lat="44.08473" lon="6.97889">
        <ele>1635.599976</ele>
        <time>2011-10-09T07:27:50Z</time>
      </trkpt>
      <trkpt lat="44.08465" lon="6.97885">
        <ele>1636.400024</ele>
        <time>2011-10-09T07:27:54Z</time>
      </trkpt>
      <trkpt lat="44.08457" lon="6.9788">
        <ele>1637</ele>
        <time>2011-10-09T07:27:58Z</time>
      </trkpt>
      <trkpt lat="44.08449" lon="6.97873">
        <ele>1637.400024</ele>
        <time>2011-10-09T07:28:03Z</time>
      </trkpt>
      <trkpt lat="44.08442" lon="6.97866">
        <ele>1637.599976</ele>
        <time>2011-10-09T07:28:07Z</time>
      </trkpt>
      <trkpt lat="44.08438" lon="6.97861">
        <ele>1637.599976</ele>
        <time>2011-10-09T07:28:09Z</time>
      </trkpt>
      <trkpt lat="44.08434" lon="6.97857">
        <ele>1638</ele>
        <time>2011-10-09T07:28:11Z</time>
      </trkpt>
      <trkpt lat="44.08423" lon="6.97839">
        <ele>1638.199951</ele>
        <time>2011-10-09T07:28:18Z</time>
      </trkpt>
      <trkpt lat="44.08418" lon="6.9783">
        <ele>1638.400024</ele>
        <time>2011-10-09T07:28:21Z</time>
      </trkpt>
      <trkpt lat="44.08416" lon="6.97823">
        <ele>1638.599976</ele>
        <time>2011-10-09T07:28:23Z</time>
      </trkpt>
      <trkpt lat="44.08413" lon="6.97815">
        <ele>1638.199951</ele>
        <time>2011-10-09T07:28:25Z</time>
      </trkpt>
      <trkpt lat="44.08411" lon="6.97806">
        <ele>1637.800049</ele>
        <time>2011-10-09T07:28:27Z</time>
      </trkpt>
      <trkpt lat="44.08409" lon="6.97768">
        <ele>1636.400024</ele>
        <time>2011-10-09T07:28:35Z</time>
      </trkpt>
      <trkpt lat="44.08413" lon="6.97711">
        <ele>1635.800049</ele>
        <time>2011-10-09T07:28:48Z</time>
      </trkpt>
      <trkpt lat="44.08417" lon="6.9768">
        <ele>1635.800049</ele>
        <time>2011-10-09T07:28:55Z</time>
      </trkpt>
      <trkpt lat="44.08426" lon="6.97656">
        <ele>1635.599976</ele>
        <time>2011-10-09T07:29:03Z</time>
      </trkpt>
      <trkpt lat="44.0843" lon="6.97644">
        <ele>1636.199951</ele>
        <time>2011-10-09T07:29:32Z</time>
      </trkpt>
      <trkpt lat="44.08434" lon="6.97632">
        <ele>1637</ele>
        <time>2011-10-09T07:29:36Z</time>
      </trkpt>
      <trkpt lat="44.08435" lon="6.97626">
        <ele>1637.599976</ele>
        <time>2011-10-09T07:29:38Z</time>
      </trkpt>
      <trkpt lat="44.08437" lon="6.97614">
        <ele>1638.599976</ele>
        <time>2011-10-09T07:29:42Z</time>
      </trkpt>
      <trkpt lat="44.08438" lon="6.97597">
        <ele>1640.599976</ele>
        <time>2011-10-09T07:29:48Z</time>
      </trkpt>
      <trkpt lat="44.08435" lon="6.97585">
        <ele>1642</ele>
        <time>2011-10-09T07:29:52Z</time>
      </trkpt>
      <trkpt lat="44.08433" lon="6.97579">
        <ele>1642.599976</ele>
        <time>2011-10-09T07:29:54Z</time>
      </trkpt>
      <trkpt lat="44.0843" lon="6.97573">
        <ele>1643</ele>
        <time>2011-10-09T07:29:56Z</time>
      </trkpt>
      <trkpt lat="44.08428" lon="6.97568">
        <ele>1643.599976</ele>
        <time>2011-10-09T07:29:58Z</time>
      </trkpt>
      <trkpt lat="44.08425" lon="6.97562">
        <ele>1644</ele>
        <time>2011-10-09T07:30:00Z</time>
      </trkpt>
      <trkpt lat="44.08414" lon="6.97535">
        <ele>1646.199951</ele>
        <time>2011-10-09T07:30:10Z</time>
      </trkpt>
      <trkpt lat="44.0841" lon="6.97527">
        <ele>1646.400024</ele>
        <time>2011-10-09T07:30:13Z</time>
      </trkpt>
      <trkpt lat="44.08408" lon="6.97521">
        <ele>1646.599976</ele>
        <time>2011-10-09T07:30:15Z</time>
      </trkpt>
      <trkpt lat="44.08405" lon="6.97516">
        <ele>1646.800049</ele>
        <time>2011-10-09T07:30:17Z</time>
      </trkpt>
      <trkpt lat="44.08398" lon="6.97497">
        <ele>1647.800049</ele>
        <time>2011-10-09T07:30:23Z</time>
      </trkpt>
      <trkpt lat="44.08395" lon="6.97486">
        <ele>1648.199951</ele>
        <time>2011-10-09T07:30:27Z</time>
      </trkpt>
      <trkpt lat="44.08393" lon="6.97479">
        <ele>1648.400024</ele>
        <time>2011-10-09T07:30:29Z</time>
      </trkpt>
      <trkpt lat="44.08391" lon="6.97473">
        <ele>1648.800049</ele>
        <time>2011-10-09T07:30:31Z</time>
      </trkpt>
      <trkpt lat="44.08385" lon="6.97452">
        <ele>1649.800049</ele>
        <time>2011-10-09T07:30:38Z</time>
      </trkpt>
      <trkpt lat="44.08381" lon="6.97441">
        <ele>1650.599976</ele>
        <time>2011-10-09T07:30:42Z</time>
      </trkpt>
      <trkpt lat="44.08379" lon="6.97435">
        <ele>1651</ele>
        <time>2011-10-09T07:30:44Z</time>
      </trkpt>
      <trkpt lat="44.08376" lon="6.97429">
        <ele>1651.400024</ele>
        <time>2011-10-09T07:30:46Z</time>
      </trkpt>
      <trkpt lat="44.08365" lon="6.97405">
        <ele>1654</ele>
        <time>2011-10-09T07:30:54Z</time>
      </trkpt>
      <trkpt lat="44.08362" lon="6.97399">
        <ele>1654.599976</ele>
        <time>2011-10-09T07:30:56Z</time>
      </trkpt>
      <trkpt lat="44.08359" lon="6.97394">
        <ele>1655.199951</ele>
        <time>2011-10-09T07:30:58Z</time>
      </trkpt>
      <trkpt lat="44.08355" lon="6.97389">
        <ele>1655.800049</ele>
        <time>2011-10-09T07:31:00Z</time>
      </trkpt>
      <trkpt lat="44.08351" lon="6.97384">
        <ele>1656.599976</ele>
        <time>2011-10-09T07:31:02Z</time>
      </trkpt>
      <trkpt lat="44.08347" lon="6.97379">
        <ele>1657</ele>
        <time>2011-10-09T07:31:04Z</time>
      </trkpt>
      <trkpt lat="44.08334" lon="6.97362">
        <ele>1658.800049</ele>
        <time>2011-10-09T07:31:11Z</time>
      </trkpt>
      <trkpt lat="44.0833" lon="6.97357">
        <ele>1659.199951</ele>
        <time>2011-10-09T07:31:13Z</time>
      </trkpt>
      <trkpt lat="44.08326" lon="6.97352">
        <ele>1659.400024</ele>
        <time>2011-10-09T07:31:15Z</time>
      </trkpt>
      <trkpt lat="44.08319" lon="6.97345">
        <ele>1659.599976</ele>
        <time>2011-10-09T07:31:19Z</time>
      </trkpt>
      <trkpt lat="44.08307" lon="6.97334">
        <ele>1660</ele>
        <time>2011-10-09T07:31:25Z</time>
      </trkpt>
      <trkpt lat="44.08302" lon="6.9733">
        <ele>1659.800049</ele>
        <time>2011-10-09T07:31:27Z</time>
      </trkpt>
      <trkpt lat="44.08298" lon="6.97327">
        <ele>1659.599976</ele>
        <time>2011-10-09T07:31:29Z</time>
      </trkpt>
      <trkpt lat="44.08293" lon="6.97324">
        <ele>1659.400024</ele>
        <time>2011-10-09T07:31:31Z</time>
      </trkpt>
      <trkpt lat="44.08288" lon="6.9732">
        <ele>1659.400024</ele>
        <time>2011-10-09T07:31:33Z</time>
      </trkpt>
      <trkpt lat="44.08276" lon="6.97306">
        <ele>1659.400024</ele>
        <time>2011-10-09T07:31:39Z</time>
      </trkpt>
      <trkpt lat="44.0827" lon="6.97298">
        <ele>1659.599976</ele>
        <time>2011-10-09T07:31:43Z</time>
      </trkpt>
      <trkpt lat="44.08264" lon="6.97288">
        <ele>1660</ele>
        <time>2011-10-09T07:31:47Z</time>
      </trkpt>
      <trkpt lat="44.0826" lon="6.97278">
        <ele>1660.400024</ele>
        <time>2011-10-09T07:31:50Z</time>
      </trkpt>
      <trkpt lat="44.08257" lon="6.97272">
        <ele>1660.599976</ele>
        <time>2011-10-09T07:31:52Z</time>
      </trkpt>
      <trkpt lat="44.08254" lon="6.97265">
        <ele>1661</ele>
        <time>2011-10-09T07:31:54Z</time>
      </trkpt>
      <trkpt lat="44.08251" lon="6.97259">
        <ele>1661.199951</ele>
        <time>2011-10-09T07:31:56Z</time>
      </trkpt>
      <trkpt lat="44.08248" lon="6.97253">
        <ele>1661.199951</ele>
        <time>2011-10-09T07:31:58Z</time>
      </trkpt>
      <trkpt lat="44.08234" lon="6.9723">
        <ele>1659.599976</ele>
        <time>2011-10-09T07:32:07Z</time>
      </trkpt>
      <trkpt lat="44.08228" lon="6.97223">
        <ele>1658.800049</ele>
        <time>2011-10-09T07:32:13Z</time>
      </trkpt>
      <trkpt lat="44.08218" lon="6.97216">
        <ele>1657.400024</ele>
        <time>2011-10-09T07:32:19Z</time>
      </trkpt>
      <trkpt lat="44.082" lon="6.97203">
        <ele>1655.199951</ele>
        <time>2011-10-09T07:32:26Z</time>
      </trkpt>
      <trkpt lat="44.08182" lon="6.97182">
        <ele>1653.800049</ele>
        <time>2011-10-09T07:32:35Z</time>
      </trkpt>
      <trkpt lat="44.08173" lon="6.97155">
        <ele>1654</ele>
        <time>2011-10-09T07:32:42Z</time>
      </trkpt>
      <trkpt lat="44.08169" lon="6.97129">
        <ele>1654</ele>
        <time>2011-10-09T07:32:48Z</time>
      </trkpt>
      <trkpt lat="44.08157" lon="6.9711">
        <ele>1654</ele>
        <time>2011-10-09T07:32:52Z</time>
      </trkpt>
      <trkpt lat="44.08141" lon="6.97092">
        <ele>1654.800049</ele>
        <time>2011-10-09T07:32:54Z</time>
      </trkpt>
      <trkpt lat="44.08132" lon="6.97082">
        <ele>1655.199951</ele>
        <time>2011-10-09T07:32:56Z</time>
      </trkpt>
      <trkpt lat="44.08125" lon="6.97075">
        <ele>1654.599976</ele>
        <time>2011-10-09T07:32:58Z</time>
      </trkpt>
      <trkpt lat="44.08118" lon="6.97068">
        <ele>1654.199951</ele>
        <time>2011-10-09T07:33:00Z</time>
      </trkpt>
      <trkpt lat="44.08106" lon="6.97066">
        <ele>1654.199951</ele>
        <time>2011-10-09T07:33:04Z</time>
      </trkpt>
      <trkpt lat="44.08084" lon="6.97062">
        <ele>1654.400024</ele>
        <time>2011-10-09T07:33:08Z</time>
      </trkpt>
      <trkpt lat="44.08077" lon="6.97059">
        <ele>1654</ele>
        <time>2011-10-09T07:33:09Z</time>
      </trkpt>
      <trkpt lat="44.08071" lon="6.97055">
        <ele>1653.599976</ele>
        <time>2011-10-09T07:33:10Z</time>
      </trkpt>
      <trkpt lat="44.08058" lon="6.97044">
        <ele>1652.800049</ele>
        <time>2011-10-09T07:33:12Z</time>
      </trkpt>
      <trkpt lat="44.08046" lon="6.97032">
        <ele>1652</ele>
        <time>2011-10-09T07:33:14Z</time>
      </trkpt>
      <trkpt lat="44.08032" lon="6.97021">
        <ele>1651.400024</ele>
        <time>2011-10-09T07:33:16Z</time>
      </trkpt>
      <trkpt lat="44.08018" lon="6.97012">
        <ele>1651</ele>
        <time>2011-10-09T07:33:18Z</time>
      </trkpt>
      <trkpt lat="44.08012" lon="6.97009">
        <ele>1651</ele>
        <time>2011-10-09T07:33:19Z</time>
      </trkpt>
      <trkpt lat="44.08005" lon="6.97007">
        <ele>1651</ele>
        <time>2011-10-09T07:33:20Z</time>
      </trkpt>
      <trkpt lat="44.07994" lon="6.97004">
        <ele>1651</ele>
        <time>2011-10-09T07:33:22Z</time>
      </trkpt>
      <trkpt lat="44.07982" lon="6.97001">
        <ele>1651.199951</ele>
        <time>2011-10-09T07:33:24Z</time>
      </trkpt>
      <trkpt lat="44.07977" lon="6.96999">
        <ele>1651.199951</ele>
        <time>2011-10-09T07:33:25Z</time>
      </trkpt>
      <trkpt lat="44.07967" lon="6.96993">
        <ele>1651.800049</ele>
        <time>2011-10-09T07:33:27Z</time>
      </trkpt>
      <trkpt lat="44.07953" lon="6.9698">
        <ele>1652.800049</ele>
        <time>2011-10-09T07:33:32Z</time>
      </trkpt>
      <trkpt lat="44.07949" lon="6.96977">
        <ele>1653.199951</ele>
        <time>2011-10-09T07:33:34Z</time>
      </trkpt>
      <trkpt lat="44.07945" lon="6.96974">
        <ele>1653.599976</ele>
        <time>2011-10-09T07:33:36Z</time>
      </trkpt>
      <trkpt lat="44.07938" lon="6.96971">
        <ele>1654.199951</ele>
        <time>2011-10-09T07:33:39Z</time>
      </trkpt>
      <trkpt lat="44.0793" lon="6.96964">
        <ele>1655.199951</ele>
        <time>2011-10-09T07:33:43Z</time>
      </trkpt>
      <trkpt lat="44.07925" lon="6.96959">
        <ele>1655.800049</ele>
        <time>2011-10-09T07:33:46Z</time>
      </trkpt>
      <trkpt lat="44.07918" lon="6.96954">
        <ele>1656.800049</ele>
        <time>2011-10-09T07:33:50Z</time>
      </trkpt>
      <trkpt lat="44.07913" lon="6.96952">
        <ele>1657.599976</ele>
        <time>2011-10-09T07:33:53Z</time>
      </trkpt>
      <trkpt lat="44.07906" lon="6.96949">
        <ele>1659</ele>
        <time>2011-10-09T07:33:57Z</time>
      </trkpt>
      <trkpt lat="44.079" lon="6.96947">
        <ele>1660</ele>
        <time>2011-10-09T07:34:01Z</time>
      </trkpt>
      <trkpt lat="44.07893" lon="6.96947">
        <ele>1660.800049</ele>
        <time>2011-10-09T07:34:05Z</time>
      </trkpt>
      <trkpt lat="44.07887" lon="6.96945">
        <ele>1662</ele>
        <time>2011-10-09T07:34:09Z</time>
      </trkpt>
      <trkpt lat="44.07879" lon="6.96943">
        <ele>1663.400024</ele>
        <time>2011-10-09T07:34:13Z</time>
      </trkpt>
      <trkpt lat="44.07866" lon="6.96941">
        <ele>1665.400024</ele>
        <time>2011-10-09T07:34:20Z</time>
      </trkpt>
      <trkpt lat="44.07859" lon="6.96942">
        <ele>1666.400024</ele>
        <time>2011-10-09T07:34:24Z</time>
      </trkpt>
      <trkpt lat="44.07852" lon="6.96943">
        <ele>1667.199951</ele>
        <time>2011-10-09T07:34:28Z</time>
      </trkpt>
      <trkpt lat="44.07846" lon="6.96945">
        <ele>1667.800049</ele>
        <time>2011-10-09T07:34:32Z</time>
      </trkpt>
      <trkpt lat="44.0784" lon="6.96947">
        <ele>1668.199951</ele>
        <time>2011-10-09T07:34:36Z</time>
      </trkpt>
      <trkpt lat="44.07834" lon="6.96951">
        <ele>1668.599976</ele>
        <time>2011-10-09T07:34:40Z</time>
      </trkpt>
      <trkpt lat="44.07826" lon="6.96956">
        <ele>1669</ele>
        <time>2011-10-09T07:34:45Z</time>
      </trkpt>
      <trkpt lat="44.07821" lon="6.96962">
        <ele>1669.199951</ele>
        <time>2011-10-09T07:34:49Z</time>
      </trkpt>
      <trkpt lat="44.07815" lon="6.96967">
        <ele>1669.400024</ele>
        <time>2011-10-09T07:34:53Z</time>
      </trkpt>
      <trkpt lat="44.07808" lon="6.96972">
        <ele>1669.800049</ele>
        <time>2011-10-09T07:34:57Z</time>
      </trkpt>
      <trkpt lat="44.07802" lon="6.96976">
        <ele>1670.400024</ele>
        <time>2011-10-09T07:35:01Z</time>
      </trkpt>
      <trkpt lat="44.07796" lon="6.96979">
        <ele>1670.800049</ele>
        <time>2011-10-09T07:35:05Z</time>
      </trkpt>
      <trkpt lat="44.0779" lon="6.96983">
        <ele>1671.400024</ele>
        <time>2011-10-09T07:35:09Z</time>
      </trkpt>
      <trkpt lat="44.07783" lon="6.96985">
        <ele>1672.400024</ele>
        <time>2011-10-09T07:35:13Z</time>
      </trkpt>
      <trkpt lat="44.07776" lon="6.96987">
        <ele>1673.400024</ele>
        <time>2011-10-09T07:35:17Z</time>
      </trkpt>
      <trkpt lat="44.07768" lon="6.96989">
        <ele>1674.400024</ele>
        <time>2011-10-09T07:35:22Z</time>
      </trkpt>
      <trkpt lat="44.07762" lon="6.96991">
        <ele>1675.199951</ele>
        <time>2011-10-09T07:35:26Z</time>
      </trkpt>
      <trkpt lat="44.07756" lon="6.96991">
        <ele>1676.199951</ele>
        <time>2011-10-09T07:35:30Z</time>
      </trkpt>
      <trkpt lat="44.07741" lon="6.96987">
        <ele>1679</ele>
        <time>2011-10-09T07:35:39Z</time>
      </trkpt>
      <trkpt lat="44.07726" lon="6.96982">
        <ele>1681.199951</ele>
        <time>2011-10-09T07:35:47Z</time>
      </trkpt>
      <trkpt lat="44.07719" lon="6.96979">
        <ele>1682.400024</ele>
        <time>2011-10-09T07:35:51Z</time>
      </trkpt>
      <trkpt lat="44.07711" lon="6.96977">
        <ele>1683.199951</ele>
        <time>2011-10-09T07:35:55Z</time>
      </trkpt>
      <trkpt lat="44.07695" lon="6.96976">
        <ele>1685</ele>
        <time>2011-10-09T07:36:04Z</time>
      </trkpt>
      <trkpt lat="44.07687" lon="6.96976">
        <ele>1685.800049</ele>
        <time>2011-10-09T07:36:08Z</time>
      </trkpt>
      <trkpt lat="44.0768" lon="6.96976">
        <ele>1686.400024</ele>
        <time>2011-10-09T07:36:12Z</time>
      </trkpt>
      <trkpt lat="44.0766" lon="6.96976">
        <ele>1688.400024</ele>
        <time>2011-10-09T07:36:23Z</time>
      </trkpt>
      <trkpt lat="44.07652" lon="6.96976">
        <ele>1689.199951</ele>
        <time>2011-10-09T07:36:27Z</time>
      </trkpt>
      <trkpt lat="44.07645" lon="6.96976">
        <ele>1689.800049</ele>
        <time>2011-10-09T07:36:31Z</time>
      </trkpt>
      <trkpt lat="44.07638" lon="6.96976">
        <ele>1690.400024</ele>
        <time>2011-10-09T07:36:35Z</time>
      </trkpt>
      <trkpt lat="44.0763" lon="6.96976">
        <ele>1691.199951</ele>
        <time>2011-10-09T07:36:39Z</time>
      </trkpt>
      <trkpt lat="44.07623" lon="6.96976">
        <ele>1691.800049</ele>
        <time>2011-10-09T07:36:43Z</time>
      </trkpt>
      <trkpt lat="44.07609" lon="6.96974">
        <ele>1693.199951</ele>
        <time>2011-10-09T07:36:49Z</time>
      </trkpt>
      <trkpt lat="44.07601" lon="6.96977">
        <ele>1693.800049</ele>
        <time>2011-10-09T07:36:53Z</time>
      </trkpt>
      <trkpt lat="44.07593" lon="6.9698">
        <ele>1694.400024</ele>
        <time>2011-10-09T07:36:57Z</time>
      </trkpt>
      <trkpt lat="44.07589" lon="6.96982">
        <ele>1694.800049</ele>
        <time>2011-10-09T07:36:59Z</time>
      </trkpt>
      <trkpt lat="44.0758" lon="6.96988">
        <ele>1695.400024</ele>
        <time>2011-10-09T07:37:04Z</time>
      </trkpt>
      <trkpt lat="44.07575" lon="6.96993">
        <ele>1695.800049</ele>
        <time>2011-10-09T07:37:08Z</time>
      </trkpt>
      <trkpt lat="44.07568" lon="6.96997">
        <ele>1696.199951</ele>
        <time>2011-10-09T07:37:12Z</time>
      </trkpt>
      <trkpt lat="44.07562" lon="6.97001">
        <ele>1696.800049</ele>
        <time>2011-10-09T07:37:15Z</time>
      </trkpt>
      <trkpt lat="44.07557" lon="6.97007">
        <ele>1697.599976</ele>
        <time>2011-10-09T07:37:19Z</time>
      </trkpt>
      <trkpt lat="44.07553" lon="6.97013">
        <ele>1698.400024</ele>
        <time>2011-10-09T07:37:23Z</time>
      </trkpt>
      <trkpt lat="44.07547" lon="6.9702">
        <ele>1699.199951</ele>
        <time>2011-10-09T07:37:27Z</time>
      </trkpt>
      <trkpt lat="44.07543" lon="6.97025">
        <ele>1699.800049</ele>
        <time>2011-10-09T07:37:30Z</time>
      </trkpt>
      <trkpt lat="44.07537" lon="6.97034">
        <ele>1700.599976</ele>
        <time>2011-10-09T07:37:35Z</time>
      </trkpt>
      <trkpt lat="44.07534" lon="6.97041">
        <ele>1701.199951</ele>
        <time>2011-10-09T07:37:39Z</time>
      </trkpt>
      <trkpt lat="44.07529" lon="6.97047">
        <ele>1701.599976</ele>
        <time>2011-10-09T07:37:43Z</time>
      </trkpt>
      <trkpt lat="44.07526" lon="6.97052">
        <ele>1702</ele>
        <time>2011-10-09T07:37:46Z</time>
      </trkpt>
      <trkpt lat="44.07522" lon="6.9706">
        <ele>1702.199951</ele>
        <time>2011-10-09T07:37:50Z</time>
      </trkpt>
      <trkpt lat="44.07515" lon="6.97081">
        <ele>1703</ele>
        <time>2011-10-09T07:38:00Z</time>
      </trkpt>
      <trkpt lat="44.07504" lon="6.97107">
        <ele>1702.599976</ele>
        <time>2011-10-09T07:38:11Z</time>
      </trkpt>
      <trkpt lat="44.07491" lon="6.97126">
        <ele>1702.199951</ele>
        <time>2011-10-09T07:38:20Z</time>
      </trkpt>
      <trkpt lat="44.07477" lon="6.97142">
        <ele>1701.599976</ele>
        <time>2011-10-09T07:38:28Z</time>
      </trkpt>
      <trkpt lat="44.07472" lon="6.97148">
        <ele>1701.400024</ele>
        <time>2011-10-09T07:38:31Z</time>
      </trkpt>
      <trkpt lat="44.07466" lon="6.97157">
        <ele>1701.199951</ele>
        <time>2011-10-09T07:38:35Z</time>
      </trkpt>
      <trkpt lat="44.07458" lon="6.97164">
        <ele>1701</ele>
        <time>2011-10-09T07:38:39Z</time>
      </trkpt>
      <trkpt lat="44.07439" lon="6.97178">
        <ele>1700.800049</ele>
        <time>2011-10-09T07:38:48Z</time>
      </trkpt>
      <trkpt lat="44.07418" lon="6.97185">
        <ele>1700.800049</ele>
        <time>2011-10-09T07:38:56Z</time>
      </trkpt>
      <trkpt lat="44.07396" lon="6.9719">
        <ele>1701</ele>
        <time>2011-10-09T07:39:04Z</time>
      </trkpt>
      <trkpt lat="44.0737" lon="6.97196">
        <ele>1701.199951</ele>
        <time>2011-10-09T07:39:13Z</time>
      </trkpt>
      <trkpt lat="44.07348" lon="6.97199">
        <ele>1701.400024</ele>
        <time>2011-10-09T07:39:20Z</time>
      </trkpt>
      <trkpt lat="44.07324" lon="6.97204">
        <ele>1702.199951</ele>
        <time>2011-10-09T07:39:27Z</time>
      </trkpt>
      <trkpt lat="44.07302" lon="6.97215">
        <ele>1704.400024</ele>
        <time>2011-10-09T07:39:35Z</time>
      </trkpt>
      <trkpt lat="44.07281" lon="6.97227">
        <ele>1706.400024</ele>
        <time>2011-10-09T07:39:44Z</time>
      </trkpt>
      <trkpt lat="44.07274" lon="6.9723">
        <ele>1707</ele>
        <time>2011-10-09T07:39:47Z</time>
      </trkpt>
      <trkpt lat="44.0727" lon="6.97233">
        <ele>1707.400024</ele>
        <time>2011-10-09T07:39:49Z</time>
      </trkpt>
      <trkpt lat="44.07265" lon="6.97235">
        <ele>1708</ele>
        <time>2011-10-09T07:39:51Z</time>
      </trkpt>
      <trkpt lat="44.07261" lon="6.97238">
        <ele>1708.400024</ele>
        <time>2011-10-09T07:39:53Z</time>
      </trkpt>
      <trkpt lat="44.07251" lon="6.97244">
        <ele>1709.400024</ele>
        <time>2011-10-09T07:39:57Z</time>
      </trkpt>
      <trkpt lat="44.07247" lon="6.97246">
        <ele>1709.800049</ele>
        <time>2011-10-09T07:39:59Z</time>
      </trkpt>
      <trkpt lat="44.07242" lon="6.97249">
        <ele>1710</ele>
        <time>2011-10-09T07:40:01Z</time>
      </trkpt>
      <trkpt lat="44.07234" lon="6.97251">
        <ele>1710.400024</ele>
        <time>2011-10-09T07:40:05Z</time>
      </trkpt>
      <trkpt lat="44.07228" lon="6.97253">
        <ele>1710.599976</ele>
        <time>2011-10-09T07:40:08Z</time>
      </trkpt>
      <trkpt lat="44.07221" lon="6.97253">
        <ele>1710.599976</ele>
        <time>2011-10-09T07:40:12Z</time>
      </trkpt>
      <trkpt lat="44.07205" lon="6.97253">
        <ele>1711</ele>
        <time>2011-10-09T07:40:21Z</time>
      </trkpt>
      <trkpt lat="44.07201" lon="6.97244">
        <ele>1711.199951</ele>
        <time>2011-10-09T07:46:45Z</time>
      </trkpt>
      <trkpt lat="44.07196" lon="6.97238">
        <ele>1711.599976</ele>
        <time>2011-10-09T07:46:48Z</time>
      </trkpt>
      <trkpt lat="44.0719" lon="6.97233">
        <ele>1712.199951</ele>
        <time>2011-10-09T07:46:51Z</time>
      </trkpt>
      <trkpt lat="44.07185" lon="6.97228">
        <ele>1712.800049</ele>
        <time>2011-10-09T07:46:54Z</time>
      </trkpt>
      <trkpt lat="44.07176" lon="6.97216">
        <ele>1714.400024</ele>
        <time>2011-10-09T07:47:00Z</time>
      </trkpt>
      <trkpt lat="44.07171" lon="6.97212">
        <ele>1715.199951</ele>
        <time>2011-10-09T07:47:03Z</time>
      </trkpt>
      <trkpt lat="44.07162" lon="6.97209">
        <ele>1716</ele>
        <time>2011-10-09T07:47:07Z</time>
      </trkpt>
      <trkpt lat="44.07154" lon="6.97214">
        <ele>1715.599976</ele>
        <time>2011-10-09T07:47:11Z</time>
      </trkpt>
      <trkpt lat="44.07146" lon="6.9722">
        <ele>1715</ele>
        <time>2011-10-09T07:47:15Z</time>
      </trkpt>
      <trkpt lat="44.07137" lon="6.97223">
        <ele>1714.599976</ele>
        <time>2011-10-09T07:47:19Z</time>
      </trkpt>
      <trkpt lat="44.07129" lon="6.97225">
        <ele>1714.400024</ele>
        <time>2011-10-09T07:47:23Z</time>
      </trkpt>
      <trkpt lat="44.07121" lon="6.97226">
        <ele>1714.400024</ele>
        <time>2011-10-09T07:47:27Z</time>
      </trkpt>
      <trkpt lat="44.07112" lon="6.97227">
        <ele>1714.199951</ele>
        <time>2011-10-09T07:47:32Z</time>
      </trkpt>
      <trkpt lat="44.07105" lon="6.97226">
        <ele>1714.400024</ele>
        <time>2011-10-09T07:47:36Z</time>
      </trkpt>
      <trkpt lat="44.07099" lon="6.97224">
        <ele>1714.800049</ele>
        <time>2011-10-09T07:47:40Z</time>
      </trkpt>
      <trkpt lat="44.07084" lon="6.97215">
        <ele>1716.599976</ele>
        <time>2011-10-09T07:47:47Z</time>
      </trkpt>
      <trkpt lat="44.07079" lon="6.97213">
        <ele>1717</ele>
        <time>2011-10-09T07:47:49Z</time>
      </trkpt>
      <trkpt lat="44.07075" lon="6.9721">
        <ele>1717.400024</ele>
        <time>2011-10-09T07:47:51Z</time>
      </trkpt>
      <trkpt lat="44.07067" lon="6.97206">
        <ele>1718.199951</ele>
        <time>2011-10-09T07:47:55Z</time>
      </trkpt>
      <trkpt lat="44.07049" lon="6.97201">
        <ele>1719</ele>
        <time>2011-10-09T07:48:03Z</time>
      </trkpt>
      <trkpt lat="44.07034" lon="6.97198">
        <ele>1719.599976</ele>
        <time>2011-10-09T07:48:10Z</time>
      </trkpt>
      <trkpt lat="44.07025" lon="6.97195">
        <ele>1720.199951</ele>
        <time>2011-10-09T07:48:14Z</time>
      </trkpt>
      <trkpt lat="44.07018" lon="6.9719">
        <ele>1721.199951</ele>
        <time>2011-10-09T07:48:18Z</time>
      </trkpt>
      <trkpt lat="44.07005" lon="6.97174">
        <ele>1724.400024</ele>
        <time>2011-10-09T07:48:26Z</time>
      </trkpt>
      <trkpt lat="44.07002" lon="6.97167">
        <ele>1725.800049</ele>
        <time>2011-10-09T07:48:29Z</time>
      </trkpt>
      <trkpt lat="44.06998" lon="6.97157">
        <ele>1725.800049</ele>
        <time>2011-10-09T07:48:33Z</time>
      </trkpt>
      <trkpt lat="44.06997" lon="6.97147">
        <ele>1725.599976</ele>
        <time>2011-10-09T07:48:37Z</time>
      </trkpt>
      <trkpt lat="44.06995" lon="6.97137">
        <ele>1725.199951</ele>
        <time>2011-10-09T07:48:41Z</time>
      </trkpt>
      <trkpt lat="44.0699" lon="6.9713">
        <ele>1724.599976</ele>
        <time>2011-10-09T07:48:45Z</time>
      </trkpt>
      <trkpt lat="44.06981" lon="6.97119">
        <ele>1723.199951</ele>
        <time>2011-10-09T07:48:52Z</time>
      </trkpt>
      <trkpt lat="44.06976" lon="6.97113">
        <ele>1722.599976</ele>
        <time>2011-10-09T07:48:55Z</time>
      </trkpt>
      <trkpt lat="44.06972" lon="6.97109">
        <ele>1721.800049</ele>
        <time>2011-10-09T07:48:58Z</time>
      </trkpt>
      <trkpt lat="44.06967" lon="6.97102">
        <ele>1721.199951</ele>
        <time>2011-10-09T07:49:02Z</time>
      </trkpt>
      <trkpt lat="44.06962" lon="6.971">
        <ele>1720.400024</ele>
        <time>2011-10-09T07:49:06Z</time>
      </trkpt>
      <trkpt lat="44.06957" lon="6.97102">
        <ele>1719.599976</ele>
        <time>2011-10-09T07:52:47Z</time>
      </trkpt>
      <trkpt lat="44.06948" lon="6.97111">
        <ele>1718.599976</ele>
        <time>2011-10-09T07:52:55Z</time>
      </trkpt>
      <trkpt lat="44.06946" lon="6.9712">
        <ele>1718.599976</ele>
        <time>2011-10-09T07:52:59Z</time>
      </trkpt>
      <trkpt lat="44.06943" lon="6.97134">
        <ele>1718.599976</ele>
        <time>2011-10-09T07:53:04Z</time>
      </trkpt>
      <trkpt lat="44.0694" lon="6.97143">
        <ele>1718.599976</ele>
        <time>2011-10-09T07:53:08Z</time>
      </trkpt>
      <trkpt lat="44.06934" lon="6.97154">
        <ele>1718.199951</ele>
        <time>2011-10-09T07:53:12Z</time>
      </trkpt>
      <trkpt lat="44.06925" lon="6.97164">
        <ele>1717.800049</ele>
        <time>2011-10-09T07:53:15Z</time>
      </trkpt>
      <trkpt lat="44.06921" lon="6.97168">
        <ele>1717.199951</ele>
        <time>2011-10-09T07:53:16Z</time>
      </trkpt>
      <trkpt lat="44.0689" lon="6.97192">
        <ele>1710.400024</ele>
        <time>2011-10-09T07:53:19Z</time>
      </trkpt>
      <trkpt lat="44.06869" lon="6.97206">
        <ele>1707.400024</ele>
        <time>2011-10-09T07:53:21Z</time>
      </trkpt>
      <trkpt lat="44.06851" lon="6.97217">
        <ele>1705.800049</ele>
        <time>2011-10-09T07:53:23Z</time>
      </trkpt>
      <trkpt lat="44.06842" lon="6.97221">
        <ele>1705.199951</ele>
        <time>2011-10-09T07:53:24Z</time>
      </trkpt>
      <trkpt lat="44.06835" lon="6.97223">
        <ele>1704.800049</ele>
        <time>2011-10-09T07:53:25Z</time>
      </trkpt>
      <trkpt lat="44.06824" lon="6.97228">
        <ele>1703.800049</ele>
        <time>2011-10-09T07:53:27Z</time>
      </trkpt>
      <trkpt lat="44.06819" lon="6.9723">
        <ele>1703.400024</ele>
        <time>2011-10-09T07:53:29Z</time>
      </trkpt>
      <trkpt lat="44.06812" lon="6.9725">
        <ele>1706.199951</ele>
        <time>2011-10-09T07:53:37Z</time>
      </trkpt>
      <trkpt lat="44.06806" lon="6.97262">
        <ele>1705</ele>
        <time>2011-10-09T07:53:42Z</time>
      </trkpt>
      <trkpt lat="44.06802" lon="6.97267">
        <ele>1704.400024</ele>
        <time>2011-10-09T07:53:44Z</time>
      </trkpt>
      <trkpt lat="44.06798" lon="6.97271">
        <ele>1704</ele>
        <time>2011-10-09T07:53:46Z</time>
      </trkpt>
      <trkpt lat="44.06792" lon="6.9728">
        <ele>1703.400024</ele>
        <time>2011-10-09T07:53:50Z</time>
      </trkpt>
      <trkpt lat="44.06785" lon="6.97287">
        <ele>1702.800049</ele>
        <time>2011-10-09T07:53:55Z</time>
      </trkpt>
      <trkpt lat="44.0678" lon="6.97293">
        <ele>1702.400024</ele>
        <time>2011-10-09T07:53:59Z</time>
      </trkpt>
      <trkpt lat="44.06776" lon="6.97298">
        <ele>1702.199951</ele>
        <time>2011-10-09T07:54:03Z</time>
      </trkpt>
      <trkpt lat="44.06771" lon="6.97303">
        <ele>1702</ele>
        <time>2011-10-09T07:54:07Z</time>
      </trkpt>
      <trkpt lat="44.06761" lon="6.97301">
        <ele>1702</ele>
        <time>2011-10-09T07:54:14Z</time>
      </trkpt>
      <trkpt lat="44.0676" lon="6.97312">
        <ele>1701.800049</ele>
        <time>2011-10-09T07:54:27Z</time>
      </trkpt>
      <trkpt lat="44.06762" lon="6.97322">
        <ele>1701.599976</ele>
        <time>2011-10-09T07:54:30Z</time>
      </trkpt>
      <trkpt lat="44.06763" lon="6.97341">
        <ele>1700.599976</ele>
        <time>2011-10-09T07:54:36Z</time>
      </trkpt>
      <trkpt lat="44.06765" lon="6.97352">
        <ele>1699.199951</ele>
        <time>2011-10-09T07:54:40Z</time>
      </trkpt>
      <trkpt lat="44.06764" lon="6.97359">
        <ele>1698.400024</ele>
        <time>2011-10-09T07:54:42Z</time>
      </trkpt>
      <trkpt lat="44.06761" lon="6.97366">
        <ele>1697.800049</ele>
        <time>2011-10-09T07:54:46Z</time>
      </trkpt>
      <trkpt lat="44.06758" lon="6.97396">
        <ele>1694.599976</ele>
        <time>2011-10-09T07:55:05Z</time>
      </trkpt>
      <trkpt lat="44.06757" lon="6.9741">
        <ele>1693</ele>
        <time>2011-10-09T07:55:07Z</time>
      </trkpt>
      <trkpt lat="44.06755" lon="6.97418">
        <ele>1692.400024</ele>
        <time>2011-10-09T07:55:08Z</time>
      </trkpt>
      <trkpt lat="44.06752" lon="6.97433">
        <ele>1691.599976</ele>
        <time>2011-10-09T07:55:10Z</time>
      </trkpt>
      <trkpt lat="44.0675" lon="6.97441">
        <ele>1691</ele>
        <time>2011-10-09T07:55:11Z</time>
      </trkpt>
      <trkpt lat="44.06746" lon="6.97459">
        <ele>1688.599976</ele>
        <time>2011-10-09T07:55:13Z</time>
      </trkpt>
      <trkpt lat="44.06743" lon="6.97478">
        <ele>1686.400024</ele>
        <time>2011-10-09T07:55:15Z</time>
      </trkpt>
      <trkpt lat="44.06742" lon="6.97489">
        <ele>1685.400024</ele>
        <time>2011-10-09T07:55:16Z</time>
      </trkpt>
      <trkpt lat="44.0674" lon="6.97499">
        <ele>1684.400024</ele>
        <time>2011-10-09T07:55:17Z</time>
      </trkpt>
      <trkpt lat="44.06739" lon="6.97509">
        <ele>1682.800049</ele>
        <time>2011-10-09T07:55:18Z</time>
      </trkpt>
      <trkpt lat="44.06736" lon="6.97518">
        <ele>1681.199951</ele>
        <time>2011-10-09T07:55:19Z</time>
      </trkpt>
      <trkpt lat="44.06735" lon="6.97527">
        <ele>1679.800049</ele>
        <time>2011-10-09T07:55:20Z</time>
      </trkpt>
      <trkpt lat="44.06733" lon="6.97535">
        <ele>1678.599976</ele>
        <time>2011-10-09T07:55:21Z</time>
      </trkpt>
      <trkpt lat="44.06725" lon="6.9755">
        <ele>1676.199951</ele>
        <time>2011-10-09T07:55:24Z</time>
      </trkpt>
      <trkpt lat="44.06721" lon="6.97553">
        <ele>1675.400024</ele>
        <time>2011-10-09T07:55:27Z</time>
      </trkpt>
      <trkpt lat="44.06718" lon="6.97559">
        <ele>1674.599976</ele>
        <time>2011-10-09T07:56:09Z</time>
      </trkpt>
      <trkpt lat="44.06713" lon="6.97565">
        <ele>1673.599976</ele>
        <time>2011-10-09T07:56:32Z</time>
      </trkpt>
      <trkpt lat="44.06705" lon="6.9757">
        <ele>1672.800049</ele>
        <time>2011-10-09T07:56:36Z</time>
      </trkpt>
      <trkpt lat="44.067" lon="6.97574">
        <ele>1672.400024</ele>
        <time>2011-10-09T07:56:40Z</time>
      </trkpt>
      <trkpt lat="44.06694" lon="6.97577">
        <ele>1672</ele>
        <time>2011-10-09T07:56:48Z</time>
      </trkpt>
      <trkpt lat="44.06688" lon="6.97577">
        <ele>1671.599976</ele>
        <time>2011-10-09T07:56:51Z</time>
      </trkpt>
      <trkpt lat="44.06682" lon="6.97572">
        <ele>1671.199951</ele>
        <time>2011-10-09T07:56:55Z</time>
      </trkpt>
      <trkpt lat="44.0668" lon="6.97564">
        <ele>1671</ele>
        <time>2011-10-09T07:56:59Z</time>
      </trkpt>
      <trkpt lat="44.06676" lon="6.97569">
        <ele>1670.800049</ele>
        <time>2011-10-09T07:57:03Z</time>
      </trkpt>
      <trkpt lat="44.06671" lon="6.97575">
        <ele>1670.599976</ele>
        <time>2011-10-09T07:57:05Z</time>
      </trkpt>
      <trkpt lat="44.06665" lon="6.97582">
        <ele>1670</ele>
        <time>2011-10-09T07:57:07Z</time>
      </trkpt>
      <trkpt lat="44.06658" lon="6.97594">
        <ele>1665</ele>
        <time>2011-10-09T07:57:10Z</time>
      </trkpt>
      <trkpt lat="44.06655" lon="6.97599">
        <ele>1662.599976</ele>
        <time>2011-10-09T07:57:11Z</time>
      </trkpt>
      <trkpt lat="44.0665" lon="6.97607">
        <ele>1659.400024</ele>
        <time>2011-10-09T07:57:13Z</time>
      </trkpt>
      <trkpt lat="44.06641" lon="6.9762">
        <ele>1654.400024</ele>
        <time>2011-10-09T07:57:16Z</time>
      </trkpt>
      <trkpt lat="44.06631" lon="6.97634">
        <ele>1649.800049</ele>
        <time>2011-10-09T07:57:19Z</time>
      </trkpt>
      <trkpt lat="44.06627" lon="6.97641">
        <ele>1648</ele>
        <time>2011-10-09T07:57:21Z</time>
      </trkpt>
      <trkpt lat="44.06622" lon="6.9764">
        <ele>1647</ele>
        <time>2011-10-09T07:57:26Z</time>
      </trkpt>
      <trkpt lat="44.06621" lon="6.97631">
        <ele>1647</ele>
        <time>2011-10-09T07:57:31Z</time>
      </trkpt>
      <trkpt lat="44.06616" lon="6.97629">
        <ele>1645.599976</ele>
        <time>2011-10-09T07:57:34Z</time>
      </trkpt>
      <trkpt lat="44.06607" lon="6.97631">
        <ele>1643</ele>
        <time>2011-10-09T07:57:37Z</time>
      </trkpt>
      <trkpt lat="44.066" lon="6.97635">
        <ele>1641</ele>
        <time>2011-10-09T07:57:39Z</time>
      </trkpt>
      <trkpt lat="44.06596" lon="6.9764">
        <ele>1640</ele>
        <time>2011-10-09T07:57:42Z</time>
      </trkpt>
      <trkpt lat="44.06588" lon="6.97645">
        <ele>1638</ele>
        <time>2011-10-09T07:57:47Z</time>
      </trkpt>
      <trkpt lat="44.06579" lon="6.97646">
        <ele>1635.400024</ele>
        <time>2011-10-09T07:57:50Z</time>
      </trkpt>
      <trkpt lat="44.06573" lon="6.97652">
        <ele>1633.800049</ele>
        <time>2011-10-09T07:57:54Z</time>
      </trkpt>
      <trkpt lat="44.06565" lon="6.97653">
        <ele>1630.599976</ele>
        <time>2011-10-09T07:57:58Z</time>
      </trkpt>
      <trkpt lat="44.0656" lon="6.97652">
        <ele>1628.400024</ele>
        <time>2011-10-09T07:58:00Z</time>
      </trkpt>
      <trkpt lat="44.06555" lon="6.97654">
        <ele>1626.800049</ele>
        <time>2011-10-09T07:58:02Z</time>
      </trkpt>
      <trkpt lat="44.06551" lon="6.97658">
        <ele>1625.599976</ele>
        <time>2011-10-09T07:58:04Z</time>
      </trkpt>
      <trkpt lat="44.06547" lon="6.97665">
        <ele>1625</ele>
        <time>2011-10-09T07:58:08Z</time>
      </trkpt>
      <trkpt lat="44.06544" lon="6.97657">
        <ele>1623</ele>
        <time>2011-10-09T07:58:19Z</time>
      </trkpt>
      <trkpt lat="44.0654" lon="6.97654">
        <ele>1620.599976</ele>
        <time>2011-10-09T07:58:22Z</time>
      </trkpt>
      <trkpt lat="44.06533" lon="6.97657">
        <ele>1618.400024</ele>
        <time>2011-10-09T07:58:25Z</time>
      </trkpt>
      <trkpt lat="44.06529" lon="6.97662">
        <ele>1618</ele>
        <time>2011-10-09T07:58:27Z</time>
      </trkpt>
      <trkpt lat="44.06526" lon="6.97669">
        <ele>1617</ele>
        <time>2011-10-09T07:58:31Z</time>
      </trkpt>
      <trkpt lat="44.06517" lon="6.97673">
        <ele>1613</ele>
        <time>2011-10-09T07:58:35Z</time>
      </trkpt>
      <trkpt lat="44.06511" lon="6.97678">
        <ele>1609.800049</ele>
        <time>2011-10-09T07:58:37Z</time>
      </trkpt>
      <trkpt lat="44.06505" lon="6.97685">
        <ele>1605.800049</ele>
        <time>2011-10-09T07:58:40Z</time>
      </trkpt>
      <trkpt lat="44.06496" lon="6.97691">
        <ele>1601.800049</ele>
        <time>2011-10-09T07:58:46Z</time>
      </trkpt>
      <trkpt lat="44.06491" lon="6.97691">
        <ele>1600.800049</ele>
        <time>2011-10-09T07:58:48Z</time>
      </trkpt>
      <trkpt lat="44.06483" lon="6.97692">
        <ele>1598.800049</ele>
        <time>2011-10-09T07:58:52Z</time>
      </trkpt>
      <trkpt lat="44.06476" lon="6.97692">
        <ele>1596.800049</ele>
        <time>2011-10-09T07:58:55Z</time>
      </trkpt>
      <trkpt lat="44.06468" lon="6.97692">
        <ele>1594.800049</ele>
        <time>2011-10-09T07:58:58Z</time>
      </trkpt>
      <trkpt lat="44.0646" lon="6.9769">
        <ele>1593</ele>
        <time>2011-10-09T07:59:01Z</time>
      </trkpt>
      <trkpt lat="44.06455" lon="6.97691">
        <ele>1591.800049</ele>
        <time>2011-10-09T07:59:03Z</time>
      </trkpt>
      <trkpt lat="44.06449" lon="6.97693">
        <ele>1590.199951</ele>
        <time>2011-10-09T07:59:06Z</time>
      </trkpt>
      <trkpt lat="44.06439" lon="6.97691">
        <ele>1587.800049</ele>
        <time>2011-10-09T07:59:10Z</time>
      </trkpt>
      <trkpt lat="44.06434" lon="6.97691">
        <ele>1586.599976</ele>
        <time>2011-10-09T07:59:12Z</time>
      </trkpt>
      <trkpt lat="44.06426" lon="6.9769">
        <ele>1584.599976</ele>
        <time>2011-10-09T07:59:16Z</time>
      </trkpt>
      <trkpt lat="44.0642" lon="6.9769">
        <ele>1583</ele>
        <time>2011-10-09T07:59:19Z</time>
      </trkpt>
      <trkpt lat="44.06413" lon="6.97694">
        <ele>1580.800049</ele>
        <time>2011-10-09T07:59:22Z</time>
      </trkpt>
      <trkpt lat="44.06404" lon="6.97698">
        <ele>1576.400024</ele>
        <time>2011-10-09T07:59:26Z</time>
      </trkpt>
      <trkpt lat="44.06398" lon="6.977">
        <ele>1573.400024</ele>
        <time>2011-10-09T07:59:28Z</time>
      </trkpt>
      <trkpt lat="44.06393" lon="6.97704">
        <ele>1571</ele>
        <time>2011-10-09T07:59:31Z</time>
      </trkpt>
      <trkpt lat="44.06392" lon="6.97696">
        <ele>1569.599976</ele>
        <time>2011-10-09T07:59:39Z</time>
      </trkpt>
      <trkpt lat="44.06395" lon="6.97689">
        <ele>1570.400024</ele>
        <time>2011-10-09T07:59:42Z</time>
      </trkpt>
      <trkpt lat="44.06391" lon="6.97678">
        <ele>1567.400024</ele>
        <time>2011-10-09T08:00:07Z</time>
      </trkpt>
      <trkpt lat="44.06391" lon="6.9767">
        <ele>1566.199951</ele>
        <time>2011-10-09T08:00:11Z</time>
      </trkpt>
      <trkpt lat="44.06386" lon="6.97672">
        <ele>1563.800049</ele>
        <time>2011-10-09T08:00:17Z</time>
      </trkpt>
      <trkpt lat="44.06379" lon="6.97672">
        <ele>1560</ele>
        <time>2011-10-09T08:00:21Z</time>
      </trkpt>
      <trkpt lat="44.06377" lon="6.97665">
        <ele>1557.800049</ele>
        <time>2011-10-09T08:00:27Z</time>
      </trkpt>
      <trkpt lat="44.06378" lon="6.97655">
        <ele>1553.199951</ele>
        <time>2011-10-09T08:00:36Z</time>
      </trkpt>
      <trkpt lat="44.06369" lon="6.97655">
        <ele>1548.199951</ele>
        <time>2011-10-09T08:00:46Z</time>
      </trkpt>
      <trkpt lat="44.06361" lon="6.97657">
        <ele>1545.199951</ele>
        <time>2011-10-09T08:00:49Z</time>
      </trkpt>
      <trkpt lat="44.06355" lon="6.9766">
        <ele>1543.400024</ele>
        <time>2011-10-09T08:00:52Z</time>
      </trkpt>
      <trkpt lat="44.06354" lon="6.97653">
        <ele>1538.599976</ele>
        <time>2011-10-09T08:00:57Z</time>
      </trkpt>
      <trkpt lat="44.06359" lon="6.97644">
        <ele>1537.199951</ele>
        <time>2011-10-09T08:01:01Z</time>
      </trkpt>
      <trkpt lat="44.06364" lon="6.97629">
        <ele>1532.599976</ele>
        <time>2011-10-09T08:01:05Z</time>
      </trkpt>
      <trkpt lat="44.06366" lon="6.97623">
        <ele>1530.199951</ele>
        <time>2011-10-09T08:01:06Z</time>
      </trkpt>
      <trkpt lat="44.06369" lon="6.97611">
        <ele>1526.400024</ele>
        <time>2011-10-09T08:01:08Z</time>
      </trkpt>
      <trkpt lat="44.06374" lon="6.97604">
        <ele>1525.800049</ele>
        <time>2011-10-09T08:01:11Z</time>
      </trkpt>
      <trkpt lat="44.0638" lon="6.976">
        <ele>1527.400024</ele>
        <time>2011-10-09T08:01:15Z</time>
      </trkpt>
      <trkpt lat="44.06386" lon="6.97594">
        <ele>1527.599976</ele>
        <time>2011-10-09T08:01:17Z</time>
      </trkpt>
      <trkpt lat="44.0639" lon="6.97589">
        <ele>1527.599976</ele>
        <time>2011-10-09T08:01:18Z</time>
      </trkpt>
      <trkpt lat="44.06396" lon="6.9758">
        <ele>1526.800049</ele>
        <time>2011-10-09T08:01:20Z</time>
      </trkpt>
      <trkpt lat="44.06401" lon="6.97566">
        <ele>1524</ele>
        <time>2011-10-09T08:01:23Z</time>
      </trkpt>
      <trkpt lat="44.06406" lon="6.97552">
        <ele>1521.800049</ele>
        <time>2011-10-09T08:01:26Z</time>
      </trkpt>
      <trkpt lat="44.06409" lon="6.97544">
        <ele>1520</ele>
        <time>2011-10-09T08:01:30Z</time>
      </trkpt>
      <trkpt lat="44.06413" lon="6.97539">
        <ele>1520.199951</ele>
        <time>2011-10-09T08:01:34Z</time>
      </trkpt>
      <trkpt lat="44.06415" lon="6.97529">
        <ele>1517.400024</ele>
        <time>2011-10-09T08:01:37Z</time>
      </trkpt>
      <trkpt lat="44.06417" lon="6.97521">
        <ele>1515.199951</ele>
        <time>2011-10-09T08:01:39Z</time>
      </trkpt>
      <trkpt lat="44.0642" lon="6.97512">
        <ele>1513</ele>
        <time>2011-10-09T08:01:41Z</time>
      </trkpt>
      <trkpt lat="44.06422" lon="6.97503">
        <ele>1510.599976</ele>
        <time>2011-10-09T08:01:43Z</time>
      </trkpt>
      <trkpt lat="44.06425" lon="6.97491">
        <ele>1509</ele>
        <time>2011-10-09T08:01:46Z</time>
      </trkpt>
      <trkpt lat="44.0643" lon="6.97483">
        <ele>1509.400024</ele>
        <time>2011-10-09T08:01:49Z</time>
      </trkpt>
      <trkpt lat="44.06434" lon="6.97471">
        <ele>1508.400024</ele>
        <time>2011-10-09T08:01:52Z</time>
      </trkpt>
      <trkpt lat="44.06435" lon="6.97461">
        <ele>1505.800049</ele>
        <time>2011-10-09T08:01:54Z</time>
      </trkpt>
      <trkpt lat="44.06435" lon="6.97453">
        <ele>1503.400024</ele>
        <time>2011-10-09T08:01:56Z</time>
      </trkpt>
      <trkpt lat="44.06434" lon="6.97445">
        <ele>1500.800049</ele>
        <time>2011-10-09T08:01:58Z</time>
      </trkpt>
      <trkpt lat="44.06435" lon="6.97438">
        <ele>1499</ele>
        <time>2011-10-09T08:02:01Z</time>
      </trkpt>
      <trkpt lat="44.06441" lon="6.97434">
        <ele>1501.400024</ele>
        <time>2011-10-09T08:02:06Z</time>
      </trkpt>
      <trkpt lat="44.06445" lon="6.97423">
        <ele>1501.599976</ele>
        <time>2011-10-09T08:02:11Z</time>
      </trkpt>
      <trkpt lat="44.06446" lon="6.97413">
        <ele>1500</ele>
        <time>2011-10-09T08:02:13Z</time>
      </trkpt>
      <trkpt lat="44.06446" lon="6.97404">
        <ele>1500.599976</ele>
        <time>2011-10-09T08:02:15Z</time>
      </trkpt>
      <trkpt lat="44.06445" lon="6.97397">
        <ele>1499.800049</ele>
        <time>2011-10-09T08:02:17Z</time>
      </trkpt>
      <trkpt lat="44.0644" lon="6.97388">
        <ele>1496.800049</ele>
        <time>2011-10-09T08:02:21Z</time>
      </trkpt>
      <trkpt lat="44.06437" lon="6.97382">
        <ele>1495</ele>
        <time>2011-10-09T08:02:28Z</time>
      </trkpt>
      <trkpt lat="44.06435" lon="6.97376">
        <ele>1493.800049</ele>
        <time>2011-10-09T08:02:33Z</time>
      </trkpt>
      <trkpt lat="44.06432" lon="6.97367">
        <ele>1491.199951</ele>
        <time>2011-10-09T08:02:47Z</time>
      </trkpt>
      <trkpt lat="44.0643" lon="6.97361">
        <ele>1490.199951</ele>
        <time>2011-10-09T08:02:57Z</time>
      </trkpt>
      <trkpt lat="44.06425" lon="6.97361">
        <ele>1486.400024</ele>
        <time>2011-10-09T08:03:03Z</time>
      </trkpt>
      <trkpt lat="44.0642" lon="6.97361">
        <ele>1482.599976</ele>
        <time>2011-10-09T08:03:08Z</time>
      </trkpt>
      <trkpt lat="44.06414" lon="6.97364">
        <ele>1478.800049</ele>
        <time>2011-10-09T08:03:14Z</time>
      </trkpt>
      <trkpt lat="44.06408" lon="6.97364">
        <ele>1474</ele>
        <time>2011-10-09T08:03:18Z</time>
      </trkpt>
      <trkpt lat="44.06402" lon="6.97362">
        <ele>1469.199951</ele>
        <time>2011-10-09T08:03:22Z</time>
      </trkpt>
      <trkpt lat="44.06397" lon="6.97358">
        <ele>1464.800049</ele>
        <time>2011-10-09T08:03:26Z</time>
      </trkpt>
      <trkpt lat="44.06387" lon="6.97353">
        <ele>1457</ele>
        <time>2011-10-09T08:03:33Z</time>
      </trkpt>
      <trkpt lat="44.06382" lon="6.9735">
        <ele>1453.400024</ele>
        <time>2011-10-09T08:03:37Z</time>
      </trkpt>
      <trkpt lat="44.06384" lon="6.97343">
        <ele>1454.400024</ele>
        <time>2011-10-09T08:03:41Z</time>
      </trkpt>
      <trkpt lat="44.06388" lon="6.97338">
        <ele>1457.599976</ele>
        <time>2011-10-09T08:03:44Z</time>
      </trkpt>
      <trkpt lat="44.06392" lon="6.97333">
        <ele>1460.800049</ele>
        <time>2011-10-09T08:03:48Z</time>
      </trkpt>
      <trkpt lat="44.06396" lon="6.9732">
        <ele>1464.800049</ele>
        <time>2011-10-09T08:04:04Z</time>
      </trkpt>
      <trkpt lat="44.06395" lon="6.97313">
        <ele>1463.800049</ele>
        <time>2011-10-09T08:04:15Z</time>
      </trkpt>
      <trkpt lat="44.06397" lon="6.97306">
        <ele>1465.599976</ele>
        <time>2011-10-09T08:04:21Z</time>
      </trkpt>
      <trkpt lat="44.064" lon="6.97298">
        <ele>1467.800049</ele>
        <time>2011-10-09T08:04:25Z</time>
      </trkpt>
      <trkpt lat="44.06401" lon="6.97287">
        <ele>1469</ele>
        <time>2011-10-09T08:04:29Z</time>
      </trkpt>
      <trkpt lat="44.06402" lon="6.97275">
        <ele>1470.400024</ele>
        <time>2011-10-09T08:04:33Z</time>
      </trkpt>
      <trkpt lat="44.06403" lon="6.97268">
        <ele>1470.800049</ele>
        <time>2011-10-09T08:04:38Z</time>
      </trkpt>
      <trkpt lat="44.06407" lon="6.97262">
        <ele>1474.400024</ele>
        <time>2011-10-09T08:04:50Z</time>
      </trkpt>
      <trkpt lat="44.0641" lon="6.97257">
        <ele>1477</ele>
        <time>2011-10-09T08:04:56Z</time>
      </trkpt>
      <trkpt lat="44.06412" lon="6.97246">
        <ele>1478</ele>
        <time>2011-10-09T08:05:21Z</time>
      </trkpt>
      <trkpt lat="44.06413" lon="6.97234">
        <ele>1476.199951</ele>
        <time>2011-10-09T08:05:25Z</time>
      </trkpt>
      <trkpt lat="44.06413" lon="6.97225">
        <ele>1474.599976</ele>
        <time>2011-10-09T08:05:29Z</time>
      </trkpt>
      <trkpt lat="44.06413" lon="6.97214">
        <ele>1472</ele>
        <time>2011-10-09T08:05:33Z</time>
      </trkpt>
      <trkpt lat="44.06414" lon="6.97205">
        <ele>1471.400024</ele>
        <time>2011-10-09T08:05:37Z</time>
      </trkpt>
      <trkpt lat="44.06416" lon="6.97197">
        <ele>1470.800049</ele>
        <time>2011-10-09T08:05:41Z</time>
      </trkpt>
      <trkpt lat="44.06416" lon="6.97189">
        <ele>1469</ele>
        <time>2011-10-09T08:05:44Z</time>
      </trkpt>
      <trkpt lat="44.06416" lon="6.97181">
        <ele>1467.599976</ele>
        <time>2011-10-09T08:05:48Z</time>
      </trkpt>
      <trkpt lat="44.06418" lon="6.97173">
        <ele>1467.199951</ele>
        <time>2011-10-09T08:06:11Z</time>
      </trkpt>
      <trkpt lat="44.06418" lon="6.97164">
        <ele>1465.599976</ele>
        <time>2011-10-09T08:06:15Z</time>
      </trkpt>
      <trkpt lat="44.0642" lon="6.97156">
        <ele>1466.400024</ele>
        <time>2011-10-09T08:06:20Z</time>
      </trkpt>
      <trkpt lat="44.0642" lon="6.97149">
        <ele>1464.800049</ele>
        <time>2011-10-09T08:06:30Z</time>
      </trkpt>
      <trkpt lat="44.06426" lon="6.97145">
        <ele>1469</ele>
        <time>2011-10-09T08:06:39Z</time>
      </trkpt>
      <trkpt lat="44.06433" lon="6.97139">
        <ele>1473.400024</ele>
        <time>2011-10-09T08:06:49Z</time>
      </trkpt>
      <trkpt lat="44.06437" lon="6.97136">
        <ele>1476.599976</ele>
        <time>2011-10-09T08:06:56Z</time>
      </trkpt>
      <trkpt lat="44.06442" lon="6.97133">
        <ele>1479.800049</ele>
        <time>2011-10-09T08:07:05Z</time>
      </trkpt>
      <trkpt lat="44.06448" lon="6.97133">
        <ele>1484.599976</ele>
        <time>2011-10-09T08:07:13Z</time>
      </trkpt>
      <trkpt lat="44.06451" lon="6.9713">
        <ele>1486.800049</ele>
        <time>2011-10-09T08:07:21Z</time>
      </trkpt>
      <trkpt lat="44.06455" lon="6.97123">
        <ele>1487.800049</ele>
        <time>2011-10-09T08:07:28Z</time>
      </trkpt>
      <trkpt lat="44.06459" lon="6.97113">
        <ele>1488</ele>
        <time>2011-10-09T08:07:39Z</time>
      </trkpt>
      <trkpt lat="44.06463" lon="6.97107">
        <ele>1489</ele>
        <time>2011-10-09T08:07:45Z</time>
      </trkpt>
      <trkpt lat="44.06466" lon="6.97097">
        <ele>1488</ele>
        <time>2011-10-09T08:07:53Z</time>
      </trkpt>
      <trkpt lat="44.06468" lon="6.9709">
        <ele>1487</ele>
        <time>2011-10-09T08:07:57Z</time>
      </trkpt>
      <trkpt lat="44.0647" lon="6.97082">
        <ele>1486</ele>
        <time>2011-10-09T08:08:03Z</time>
      </trkpt>
      <trkpt lat="44.06467" lon="6.97073">
        <ele>1484.199951</ele>
        <time>2011-10-09T08:08:08Z</time>
      </trkpt>
      <trkpt lat="44.06468" lon="6.9706">
        <ele>1485</ele>
        <time>2011-10-09T08:08:18Z</time>
      </trkpt>
      <trkpt lat="44.0647" lon="6.97053">
        <ele>1486.400024</ele>
        <time>2011-10-09T08:08:27Z</time>
      </trkpt>
      <trkpt lat="44.06471" lon="6.97047">
        <ele>1487.599976</ele>
        <time>2011-10-09T08:08:35Z</time>
      </trkpt>
      <trkpt lat="44.06474" lon="6.97037">
        <ele>1489.199951</ele>
        <time>2011-10-09T08:08:42Z</time>
      </trkpt>
      <trkpt lat="44.06475" lon="6.97028">
        <ele>1490.199951</ele>
        <time>2011-10-09T08:08:48Z</time>
      </trkpt>
      <trkpt lat="44.06475" lon="6.9702">
        <ele>1490.400024</ele>
        <time>2011-10-09T08:08:56Z</time>
      </trkpt>
      <trkpt lat="44.06475" lon="6.97014">
        <ele>1490</ele>
        <time>2011-10-09T08:09:02Z</time>
      </trkpt>
      <trkpt lat="44.06474" lon="6.97006">
        <ele>1489.599976</ele>
        <time>2011-10-09T08:09:11Z</time>
      </trkpt>
      <trkpt lat="44.06475" lon="6.96998">
        <ele>1490.199951</ele>
        <time>2011-10-09T08:09:18Z</time>
      </trkpt>
      <trkpt lat="44.06476" lon="6.96992">
        <ele>1490.800049</ele>
        <time>2011-10-09T08:09:24Z</time>
      </trkpt>
      <trkpt lat="44.06475" lon="6.96985">
        <ele>1490</ele>
        <time>2011-10-09T08:09:31Z</time>
      </trkpt>
      <trkpt lat="44.06476" lon="6.96975">
        <ele>1490.599976</ele>
        <time>2011-10-09T08:09:42Z</time>
      </trkpt>
      <trkpt lat="44.06471" lon="6.96967">
        <ele>1488.199951</ele>
        <time>2011-10-09T08:09:54Z</time>
      </trkpt>
      <trkpt lat="44.0647" lon="6.96958">
        <ele>1487.599976</ele>
        <time>2011-10-09T08:10:07Z</time>
      </trkpt>
      <trkpt lat="44.06468" lon="6.96952">
        <ele>1486.800049</ele>
        <time>2011-10-09T08:10:15Z</time>
      </trkpt>
      <trkpt lat="44.06475" lon="6.96952">
        <ele>1489.599976</ele>
        <time>2011-10-09T08:10:29Z</time>
      </trkpt>
      <trkpt lat="44.06475" lon="6.96945">
        <ele>1489.400024</ele>
        <time>2011-10-09T08:10:35Z</time>
      </trkpt>
      <trkpt lat="44.06473" lon="6.96939">
        <ele>1488.800049</ele>
        <time>2011-10-09T08:10:41Z</time>
      </trkpt>
      <trkpt lat="44.06478" lon="6.96931">
        <ele>1490.800049</ele>
        <time>2011-10-09T08:11:00Z</time>
      </trkpt>
      <trkpt lat="44.06474" lon="6.9692">
        <ele>1489.199951</ele>
        <time>2011-10-09T08:18:10Z</time>
      </trkpt>
      <trkpt lat="44.06473" lon="6.96911">
        <ele>1486.199951</ele>
        <time>2011-10-09T08:18:14Z</time>
      </trkpt>
      <trkpt lat="44.06473" lon="6.96904">
        <ele>1482.400024</ele>
        <time>2011-10-09T08:18:18Z</time>
      </trkpt>
      <trkpt lat="44.0648" lon="6.96899">
        <ele>1483.199951</ele>
        <time>2011-10-09T08:18:23Z</time>
      </trkpt>
      <trkpt lat="44.06488" lon="6.96901">
        <ele>1486.800049</ele>
        <time>2011-10-09T08:18:27Z</time>
      </trkpt>
      <trkpt lat="44.06494" lon="6.96901">
        <ele>1489.199951</ele>
        <time>2011-10-09T08:18:30Z</time>
      </trkpt>
      <trkpt lat="44.06499" lon="6.96901">
        <ele>1491.199951</ele>
        <time>2011-10-09T08:18:38Z</time>
      </trkpt>
      <trkpt lat="44.06505" lon="6.96898">
        <ele>1490.400024</ele>
        <time>2011-10-09T08:18:47Z</time>
      </trkpt>
      <trkpt lat="44.06511" lon="6.96896">
        <ele>1489.199951</ele>
        <time>2011-10-09T08:18:50Z</time>
      </trkpt>
      <trkpt lat="44.06518" lon="6.96895">
        <ele>1489.199951</ele>
        <time>2011-10-09T08:18:52Z</time>
      </trkpt>
      <trkpt lat="44.06534" lon="6.96896">
        <ele>1490.400024</ele>
        <time>2011-10-09T08:18:55Z</time>
      </trkpt>
      <trkpt lat="44.06541" lon="6.96898">
        <ele>1491.599976</ele>
        <time>2011-10-09T08:18:57Z</time>
      </trkpt>
      <trkpt lat="44.06548" lon="6.96899">
        <ele>1492.400024</ele>
        <time>2011-10-09T08:18:59Z</time>
      </trkpt>
      <trkpt lat="44.06555" lon="6.96899">
        <ele>1492.800049</ele>
        <time>2011-10-09T08:19:01Z</time>
      </trkpt>
      <trkpt lat="44.06568" lon="6.96898">
        <ele>1492.800049</ele>
        <time>2011-10-09T08:19:04Z</time>
      </trkpt>
      <trkpt lat="44.06581" lon="6.96894">
        <ele>1491.800049</ele>
        <time>2011-10-09T08:19:05Z</time>
      </trkpt>
      <trkpt lat="44.06594" lon="6.9689">
        <ele>1492.400024</ele>
        <time>2011-10-09T08:19:08Z</time>
      </trkpt>
      <trkpt lat="44.066" lon="6.96888">
        <ele>1493.199951</ele>
        <time>2011-10-09T08:19:09Z</time>
      </trkpt>
      <trkpt lat="44.06605" lon="6.96885">
        <ele>1493.199951</ele>
        <time>2011-10-09T08:19:11Z</time>
      </trkpt>
      <trkpt lat="44.06616" lon="6.96875">
        <ele>1492</ele>
        <time>2011-10-09T08:19:13Z</time>
      </trkpt>
      <trkpt lat="44.06621" lon="6.96869">
        <ele>1490.599976</ele>
        <time>2011-10-09T08:19:14Z</time>
      </trkpt>
      <trkpt lat="44.06627" lon="6.96861">
        <ele>1489</ele>
        <time>2011-10-09T08:19:16Z</time>
      </trkpt>
      <trkpt lat="44.06632" lon="6.96859">
        <ele>1489.400024</ele>
        <time>2011-10-09T08:19:18Z</time>
      </trkpt>
      <trkpt lat="44.06637" lon="6.96853">
        <ele>1488.400024</ele>
        <time>2011-10-09T08:19:20Z</time>
      </trkpt>
      <trkpt lat="44.06643" lon="6.96841">
        <ele>1485.199951</ele>
        <time>2011-10-09T08:19:24Z</time>
      </trkpt>
      <trkpt lat="44.06644" lon="6.96834">
        <ele>1483.199951</ele>
        <time>2011-10-09T08:19:27Z</time>
      </trkpt>
      <trkpt lat="44.06646" lon="6.96827">
        <ele>1481.199951</ele>
        <time>2011-10-09T08:19:29Z</time>
      </trkpt>
      <trkpt lat="44.0665" lon="6.96809">
        <ele>1475.199951</ele>
        <time>2011-10-09T08:19:32Z</time>
      </trkpt>
      <trkpt lat="44.06654" lon="6.968">
        <ele>1473</ele>
        <time>2011-10-09T08:19:34Z</time>
      </trkpt>
      <trkpt lat="44.06656" lon="6.96793">
        <ele>1471</ele>
        <time>2011-10-09T08:19:35Z</time>
      </trkpt>
      <trkpt lat="44.06665" lon="6.9678">
        <ele>1468.599976</ele>
        <time>2011-10-09T08:19:38Z</time>
      </trkpt>
      <trkpt lat="44.06677" lon="6.96758">
        <ele>1465.400024</ele>
        <time>2011-10-09T08:19:40Z</time>
      </trkpt>
      <trkpt lat="44.06686" lon="6.96746">
        <ele>1465.199951</ele>
        <time>2011-10-09T08:19:42Z</time>
      </trkpt>
      <trkpt lat="44.06691" lon="6.96727">
        <ele>1460.599976</ele>
        <time>2011-10-09T08:19:45Z</time>
      </trkpt>
      <trkpt lat="44.06698" lon="6.96704">
        <ele>1454.800049</ele>
        <time>2011-10-09T08:19:47Z</time>
      </trkpt>
      <trkpt lat="44.06694" lon="6.96698">
        <ele>1451.400024</ele>
        <time>2011-10-09T08:19:48Z</time>
      </trkpt>
      <trkpt lat="44.06702" lon="6.96674">
        <ele>1445.199951</ele>
        <time>2011-10-09T08:19:50Z</time>
      </trkpt>
      <trkpt lat="44.06707" lon="6.96643">
        <ele>1443.199951</ele>
        <time>2011-10-09T08:19:54Z</time>
      </trkpt>
      <trkpt lat="44.06705" lon="6.96637">
        <ele>1442.599976</ele>
        <time>2011-10-09T08:20:01Z</time>
      </trkpt>
      <trkpt lat="44.06712" lon="6.96638">
        <ele>1443.599976</ele>
        <time>2011-10-09T08:20:13Z</time>
      </trkpt>
      <trkpt lat="44.06722" lon="6.96627">
        <ele>1443.800049</ele>
        <time>2011-10-09T08:20:16Z</time>
      </trkpt>
      <trkpt lat="44.06725" lon="6.96621">
        <ele>1443.400024</ele>
        <time>2011-10-09T08:20:17Z</time>
      </trkpt>
      <trkpt lat="44.06732" lon="6.96607">
        <ele>1441.599976</ele>
        <time>2011-10-09T08:20:19Z</time>
      </trkpt>
      <trkpt lat="44.06743" lon="6.96597">
        <ele>1439</ele>
        <time>2011-10-09T08:20:22Z</time>
      </trkpt>
      <trkpt lat="44.0675" lon="6.96592">
        <ele>1437.199951</ele>
        <time>2011-10-09T08:20:25Z</time>
      </trkpt>
      <trkpt lat="44.06754" lon="6.96582">
        <ele>1436</ele>
        <time>2011-10-09T08:20:27Z</time>
      </trkpt>
      <trkpt lat="44.06762" lon="6.96566">
        <ele>1439.599976</ele>
        <time>2011-10-09T08:20:29Z</time>
      </trkpt>
      <trkpt lat="44.06767" lon="6.9656">
        <ele>1441</ele>
        <time>2011-10-09T08:20:30Z</time>
      </trkpt>
      <trkpt lat="44.06773" lon="6.96558">
        <ele>1442</ele>
        <time>2011-10-09T08:20:31Z</time>
      </trkpt>
      <trkpt lat="44.06783" lon="6.96559">
        <ele>1443.400024</ele>
        <time>2011-10-09T08:20:33Z</time>
      </trkpt>
      <trkpt lat="44.06791" lon="6.96557">
        <ele>1444.599976</ele>
        <time>2011-10-09T08:20:35Z</time>
      </trkpt>
      <trkpt lat="44.06795" lon="6.96553">
        <ele>1445.199951</ele>
        <time>2011-10-09T08:20:37Z</time>
      </trkpt>
      <trkpt lat="44.0681" lon="6.96553">
        <ele>1447</ele>
        <time>2011-10-09T08:20:41Z</time>
      </trkpt>
      <trkpt lat="44.06817" lon="6.96539">
        <ele>1447.199951</ele>
        <time>2011-10-09T08:20:45Z</time>
      </trkpt>
      <trkpt lat="44.06819" lon="6.96531">
        <ele>1447</ele>
        <time>2011-10-09T08:20:52Z</time>
      </trkpt>
      <trkpt lat="44.06823" lon="6.96526">
        <ele>1447</ele>
        <time>2011-10-09T08:20:59Z</time>
      </trkpt>
      <trkpt lat="44.06828" lon="6.9653">
        <ele>1447.599976</ele>
        <time>2011-10-09T08:21:08Z</time>
      </trkpt>
      <trkpt lat="44.06833" lon="6.96529">
        <ele>1447.599976</ele>
        <time>2011-10-09T08:21:10Z</time>
      </trkpt>
      <trkpt lat="44.06839" lon="6.96528">
        <ele>1448.400024</ele>
        <time>2011-10-09T08:21:14Z</time>
      </trkpt>
      <trkpt lat="44.06844" lon="6.96525">
        <ele>1448.599976</ele>
        <time>2011-10-09T08:21:18Z</time>
      </trkpt>
      <trkpt lat="44.06852" lon="6.96521">
        <ele>1449.199951</ele>
        <time>2011-10-09T08:21:28Z</time>
      </trkpt>
      <trkpt lat="44.06856" lon="6.96518">
        <ele>1449.199951</ele>
        <time>2011-10-09T08:21:37Z</time>
      </trkpt>
      <trkpt lat="44.0686" lon="6.96511">
        <ele>1448.400024</ele>
        <time>2011-10-09T08:21:43Z</time>
      </trkpt>
      <trkpt lat="44.06865" lon="6.96504">
        <ele>1447.400024</ele>
        <time>2011-10-09T08:21:47Z</time>
      </trkpt>
      <trkpt lat="44.06869" lon="6.96497">
        <ele>1447.599976</ele>
        <time>2011-10-09T08:21:53Z</time>
      </trkpt>
      <trkpt lat="44.06881" lon="6.96476">
        <ele>1451.199951</ele>
        <time>2011-10-09T08:22:01Z</time>
      </trkpt>
      <trkpt lat="44.06882" lon="6.96469">
        <ele>1452.199951</ele>
        <time>2011-10-09T08:22:06Z</time>
      </trkpt>
      <trkpt lat="44.06884" lon="6.96462">
        <ele>1453.199951</ele>
        <time>2011-10-09T08:22:10Z</time>
      </trkpt>
      <trkpt lat="44.06887" lon="6.96456">
        <ele>1453.800049</ele>
        <time>2011-10-09T08:22:16Z</time>
      </trkpt>
      <trkpt lat="44.06896" lon="6.96455">
        <ele>1453.400024</ele>
        <time>2011-10-09T08:22:21Z</time>
      </trkpt>
      <trkpt lat="44.06904" lon="6.96447">
        <ele>1453.599976</ele>
        <time>2011-10-09T08:22:26Z</time>
      </trkpt>
      <trkpt lat="44.06907" lon="6.96438">
        <ele>1454</ele>
        <time>2011-10-09T08:22:29Z</time>
      </trkpt>
      <trkpt lat="44.06906" lon="6.96411">
        <ele>1457.199951</ele>
        <time>2011-10-09T08:22:34Z</time>
      </trkpt>
      <trkpt lat="44.06905" lon="6.96396">
        <ele>1461</ele>
        <time>2011-10-09T08:22:39Z</time>
      </trkpt>
      <trkpt lat="44.06908" lon="6.96387">
        <ele>1462.599976</ele>
        <time>2011-10-09T08:22:44Z</time>
      </trkpt>
      <trkpt lat="44.06916" lon="6.96382">
        <ele>1461.800049</ele>
        <time>2011-10-09T08:22:48Z</time>
      </trkpt>
      <trkpt lat="44.06925" lon="6.96375">
        <ele>1463.800049</ele>
        <time>2011-10-09T08:22:51Z</time>
      </trkpt>
      <trkpt lat="44.0692" lon="6.96369">
        <ele>1465</ele>
        <time>2011-10-09T08:22:55Z</time>
      </trkpt>
      <trkpt lat="44.06921" lon="6.96359">
        <ele>1467</ele>
        <time>2011-10-09T08:23:06Z</time>
      </trkpt>
      <trkpt lat="44.06922" lon="6.96352">
        <ele>1468.400024</ele>
        <time>2011-10-09T08:23:12Z</time>
      </trkpt>
      <trkpt lat="44.06936" lon="6.9634">
        <ele>1470.199951</ele>
        <time>2011-10-09T08:23:20Z</time>
      </trkpt>
      <trkpt lat="44.06937" lon="6.96332">
        <ele>1471.400024</ele>
        <time>2011-10-09T08:23:25Z</time>
      </trkpt>
      <trkpt lat="44.0694" lon="6.96326">
        <ele>1472</ele>
        <time>2011-10-09T08:23:28Z</time>
      </trkpt>
      <trkpt lat="44.06944" lon="6.96318">
        <ele>1472.800049</ele>
        <time>2011-10-09T08:23:33Z</time>
      </trkpt>
      <trkpt lat="44.06952" lon="6.96297">
        <ele>1474.400024</ele>
        <time>2011-10-09T08:24:01Z</time>
      </trkpt>
      <trkpt lat="44.06956" lon="6.96288">
        <ele>1474.599976</ele>
        <time>2011-10-09T08:24:04Z</time>
      </trkpt>
      <trkpt lat="44.06956" lon="6.9628">
        <ele>1475.400024</ele>
        <time>2011-10-09T08:24:07Z</time>
      </trkpt>
      <trkpt lat="44.0696" lon="6.96276">
        <ele>1474.800049</ele>
        <time>2011-10-09T08:24:10Z</time>
      </trkpt>
      <trkpt lat="44.06965" lon="6.96267">
        <ele>1474.400024</ele>
        <time>2011-10-09T08:24:14Z</time>
      </trkpt>
      <trkpt lat="44.06969" lon="6.96252">
        <ele>1474</ele>
        <time>2011-10-09T08:24:20Z</time>
      </trkpt>
      <trkpt lat="44.06977" lon="6.96246">
        <ele>1472.199951</ele>
        <time>2011-10-09T08:24:24Z</time>
      </trkpt>
      <trkpt lat="44.06981" lon="6.96242">
        <ele>1471.199951</ele>
        <time>2011-10-09T08:24:26Z</time>
      </trkpt>
      <trkpt lat="44.06995" lon="6.96229">
        <ele>1468</ele>
        <time>2011-10-09T08:24:33Z</time>
      </trkpt>
      <trkpt lat="44.07001" lon="6.96224">
        <ele>1466.800049</ele>
        <time>2011-10-09T08:24:37Z</time>
      </trkpt>
      <trkpt lat="44.07008" lon="6.96224">
        <ele>1467.800049</ele>
        <time>2011-10-09T08:24:41Z</time>
      </trkpt>
      <trkpt lat="44.07022" lon="6.96221">
        <ele>1469.800049</ele>
        <time>2011-10-09T08:24:46Z</time>
      </trkpt>
      <trkpt lat="44.07041" lon="6.96209">
        <ele>1471.199951</ele>
        <time>2011-10-09T08:24:52Z</time>
      </trkpt>
      <trkpt lat="44.07044" lon="6.96205">
        <ele>1471</ele>
        <time>2011-10-09T08:24:54Z</time>
      </trkpt>
      <trkpt lat="44.07052" lon="6.96199">
        <ele>1470.400024</ele>
        <time>2011-10-09T08:24:58Z</time>
      </trkpt>
      <trkpt lat="44.07058" lon="6.96195">
        <ele>1470</ele>
        <time>2011-10-09T08:25:00Z</time>
      </trkpt>
      <trkpt lat="44.07078" lon="6.96185">
        <ele>1467.400024</ele>
        <time>2011-10-09T08:25:06Z</time>
      </trkpt>
      <trkpt lat="44.07094" lon="6.9618">
        <ele>1468.599976</ele>
        <time>2011-10-09T08:25:12Z</time>
      </trkpt>
      <trkpt lat="44.071" lon="6.96177">
        <ele>1469.599976</ele>
        <time>2011-10-09T08:25:14Z</time>
      </trkpt>
      <trkpt lat="44.07105" lon="6.96174">
        <ele>1469.800049</ele>
        <time>2011-10-09T08:25:16Z</time>
      </trkpt>
      <trkpt lat="44.07111" lon="6.96169">
        <ele>1469.800049</ele>
        <time>2011-10-09T08:25:18Z</time>
      </trkpt>
      <trkpt lat="44.07117" lon="6.96163">
        <ele>1470.400024</ele>
        <time>2011-10-09T08:25:20Z</time>
      </trkpt>
      <trkpt lat="44.07126" lon="6.96154">
        <ele>1472</ele>
        <time>2011-10-09T08:25:23Z</time>
      </trkpt>
      <trkpt lat="44.07133" lon="6.96141">
        <ele>1472.599976</ele>
        <time>2011-10-09T08:25:27Z</time>
      </trkpt>
      <trkpt lat="44.07138" lon="6.96134">
        <ele>1472.400024</ele>
        <time>2011-10-09T08:25:30Z</time>
      </trkpt>
      <trkpt lat="44.07143" lon="6.96128">
        <ele>1472.400024</ele>
        <time>2011-10-09T08:25:33Z</time>
      </trkpt>
      <trkpt lat="44.07147" lon="6.96124">
        <ele>1472.199951</ele>
        <time>2011-10-09T08:25:35Z</time>
      </trkpt>
      <trkpt lat="44.07159" lon="6.96106">
        <ele>1469.800049</ele>
        <time>2011-10-09T08:25:41Z</time>
      </trkpt>
      <trkpt lat="44.0717" lon="6.96091">
        <ele>1467.199951</ele>
        <time>2011-10-09T08:25:46Z</time>
      </trkpt>
      <trkpt lat="44.07174" lon="6.96086">
        <ele>1466.599976</ele>
        <time>2011-10-09T08:25:48Z</time>
      </trkpt>
      <trkpt lat="44.07179" lon="6.96081">
        <ele>1467.199951</ele>
        <time>2011-10-09T08:25:50Z</time>
      </trkpt>
      <trkpt lat="44.07184" lon="6.96078">
        <ele>1468.599976</ele>
        <time>2011-10-09T08:25:52Z</time>
      </trkpt>
      <trkpt lat="44.07189" lon="6.96074">
        <ele>1470</ele>
        <time>2011-10-09T08:25:54Z</time>
      </trkpt>
      <trkpt lat="44.07206" lon="6.96064">
        <ele>1473.599976</ele>
        <time>2011-10-09T08:26:01Z</time>
      </trkpt>
      <trkpt lat="44.07218" lon="6.96056">
        <ele>1476</ele>
        <time>2011-10-09T08:26:07Z</time>
      </trkpt>
      <trkpt lat="44.07222" lon="6.96052">
        <ele>1476.800049</ele>
        <time>2011-10-09T08:26:09Z</time>
      </trkpt>
      <trkpt lat="44.07226" lon="6.96048">
        <ele>1477.400024</ele>
        <time>2011-10-09T08:26:11Z</time>
      </trkpt>
      <trkpt lat="44.07232" lon="6.9604">
        <ele>1478.800049</ele>
        <time>2011-10-09T08:26:15Z</time>
      </trkpt>
      <trkpt lat="44.07243" lon="6.96027">
        <ele>1480.199951</ele>
        <time>2011-10-09T08:26:23Z</time>
      </trkpt>
      <trkpt lat="44.07251" lon="6.9602">
        <ele>1480.800049</ele>
        <time>2011-10-09T08:26:27Z</time>
      </trkpt>
      <trkpt lat="44.07257" lon="6.96014">
        <ele>1481.800049</ele>
        <time>2011-10-09T08:26:31Z</time>
      </trkpt>
      <trkpt lat="44.07264" lon="6.96009">
        <ele>1482.400024</ele>
        <time>2011-10-09T08:26:35Z</time>
      </trkpt>
      <trkpt lat="44.07271" lon="6.96003">
        <ele>1483</ele>
        <time>2011-10-09T08:26:40Z</time>
      </trkpt>
      <trkpt lat="44.07279" lon="6.95998">
        <ele>1483.800049</ele>
        <time>2011-10-09T08:26:44Z</time>
      </trkpt>
      <trkpt lat="44.07283" lon="6.95995">
        <ele>1484.599976</ele>
        <time>2011-10-09T08:26:46Z</time>
      </trkpt>
      <trkpt lat="44.07288" lon="6.95991">
        <ele>1485.400024</ele>
        <time>2011-10-09T08:26:48Z</time>
      </trkpt>
      <trkpt lat="44.07293" lon="6.95988">
        <ele>1486</ele>
        <time>2011-10-09T08:26:50Z</time>
      </trkpt>
      <trkpt lat="44.07297" lon="6.95984">
        <ele>1486.599976</ele>
        <time>2011-10-09T08:26:52Z</time>
      </trkpt>
      <trkpt lat="44.07314" lon="6.9597">
        <ele>1488</ele>
        <time>2011-10-09T08:26:59Z</time>
      </trkpt>
      <trkpt lat="44.07328" lon="6.95957">
        <ele>1488</ele>
        <time>2011-10-09T08:27:06Z</time>
      </trkpt>
      <trkpt lat="44.07336" lon="6.95949">
        <ele>1487.800049</ele>
        <time>2011-10-09T08:27:11Z</time>
      </trkpt>
      <trkpt lat="44.07342" lon="6.95944">
        <ele>1488.199951</ele>
        <time>2011-10-09T08:27:15Z</time>
      </trkpt>
      <trkpt lat="44.07348" lon="6.95939">
        <ele>1488.400024</ele>
        <time>2011-10-09T08:27:19Z</time>
      </trkpt>
      <trkpt lat="44.07355" lon="6.95935">
        <ele>1488.400024</ele>
        <time>2011-10-09T08:27:23Z</time>
      </trkpt>
      <trkpt lat="44.07362" lon="6.95932">
        <ele>1488.199951</ele>
        <time>2011-10-09T08:27:27Z</time>
      </trkpt>
      <trkpt lat="44.07369" lon="6.95932">
        <ele>1488</ele>
        <time>2011-10-09T08:27:31Z</time>
      </trkpt>
      <trkpt lat="44.07379" lon="6.95932">
        <ele>1488</ele>
        <time>2011-10-09T08:27:36Z</time>
      </trkpt>
      <trkpt lat="44.07398" lon="6.95921">
        <ele>1485.199951</ele>
        <time>2011-10-09T08:27:44Z</time>
      </trkpt>
      <trkpt lat="44.07402" lon="6.95917">
        <ele>1484.199951</ele>
        <time>2011-10-09T08:27:46Z</time>
      </trkpt>
      <trkpt lat="44.07406" lon="6.95914">
        <ele>1484.599976</ele>
        <time>2011-10-09T08:27:48Z</time>
      </trkpt>
      <trkpt lat="44.0741" lon="6.9591">
        <ele>1485.400024</ele>
        <time>2011-10-09T08:27:50Z</time>
      </trkpt>
      <trkpt lat="44.07417" lon="6.95903">
        <ele>1486.599976</ele>
        <time>2011-10-09T08:27:54Z</time>
      </trkpt>
      <trkpt lat="44.07434" lon="6.95895">
        <ele>1489.199951</ele>
        <time>2011-10-09T08:28:02Z</time>
      </trkpt>
      <trkpt lat="44.07453" lon="6.95887">
        <ele>1490.599976</ele>
        <time>2011-10-09T08:28:10Z</time>
      </trkpt>
      <trkpt lat="44.07469" lon="6.95883">
        <ele>1490.800049</ele>
        <time>2011-10-09T08:28:17Z</time>
      </trkpt>
      <trkpt lat="44.07478" lon="6.9588">
        <ele>1491</ele>
        <time>2011-10-09T08:28:21Z</time>
      </trkpt>
      <trkpt lat="44.07482" lon="6.95878">
        <ele>1491</ele>
        <time>2011-10-09T08:28:23Z</time>
      </trkpt>
      <trkpt lat="44.07501" lon="6.9587">
        <ele>1490.599976</ele>
        <time>2011-10-09T08:28:33Z</time>
      </trkpt>
      <trkpt lat="44.0751" lon="6.95866">
        <ele>1491.199951</ele>
        <time>2011-10-09T08:28:38Z</time>
      </trkpt>
      <trkpt lat="44.07516" lon="6.95864">
        <ele>1491.400024</ele>
        <time>2011-10-09T08:28:42Z</time>
      </trkpt>
      <trkpt lat="44.07521" lon="6.95862">
        <ele>1491.599976</ele>
        <time>2011-10-09T08:28:46Z</time>
      </trkpt>
      <trkpt lat="44.07526" lon="6.95857">
        <ele>1491.400024</ele>
        <time>2011-10-09T08:28:50Z</time>
      </trkpt>
      <trkpt lat="44.07531" lon="6.9585">
        <ele>1491</ele>
        <time>2011-10-09T08:28:54Z</time>
      </trkpt>
      <trkpt lat="44.07536" lon="6.95843">
        <ele>1490.199951</ele>
        <time>2011-10-09T08:28:58Z</time>
      </trkpt>
      <trkpt lat="44.07543" lon="6.95838">
        <ele>1489.400024</ele>
        <time>2011-10-09T08:29:02Z</time>
      </trkpt>
      <trkpt lat="44.07557" lon="6.95824">
        <ele>1490.400024</ele>
        <time>2011-10-09T08:29:11Z</time>
      </trkpt>
      <trkpt lat="44.0756" lon="6.95815">
        <ele>1492.800049</ele>
        <time>2011-10-09T08:29:17Z</time>
      </trkpt>
      <trkpt lat="44.07552" lon="6.95819">
        <ele>1492.199951</ele>
        <time>2011-10-09T08:29:22Z</time>
      </trkpt>
      <trkpt lat="44.07548" lon="6.95825">
        <ele>1491</ele>
        <time>2011-10-09T08:29:27Z</time>
      </trkpt>
      <trkpt lat="44.07534" lon="6.95826">
        <ele>1491.599976</ele>
        <time>2011-10-09T08:32:50Z</time>
      </trkpt>
      <trkpt lat="44.07521" lon="6.95827">
        <ele>1492.400024</ele>
        <time>2011-10-09T08:32:56Z</time>
      </trkpt>
      <trkpt lat="44.07507" lon="6.95829">
        <ele>1492.800049</ele>
        <time>2011-10-09T08:33:02Z</time>
      </trkpt>
      <trkpt lat="44.07484" lon="6.95831">
        <ele>1495.400024</ele>
        <time>2011-10-09T08:33:11Z</time>
      </trkpt>
      <trkpt lat="44.07477" lon="6.95832">
        <ele>1496.199951</ele>
        <time>2011-10-09T08:33:14Z</time>
      </trkpt>
      <trkpt lat="44.07472" lon="6.95834">
        <ele>1496.599976</ele>
        <time>2011-10-09T08:33:16Z</time>
      </trkpt>
      <trkpt lat="44.07466" lon="6.95836">
        <ele>1497.199951</ele>
        <time>2011-10-09T08:33:18Z</time>
      </trkpt>
      <trkpt lat="44.07461" lon="6.95838">
        <ele>1497.800049</ele>
        <time>2011-10-09T08:33:20Z</time>
      </trkpt>
      <trkpt lat="44.07455" lon="6.95839">
        <ele>1498.400024</ele>
        <time>2011-10-09T08:33:22Z</time>
      </trkpt>
      <trkpt lat="44.07445" lon="6.95843">
        <ele>1499.199951</ele>
        <time>2011-10-09T08:33:26Z</time>
      </trkpt>
      <trkpt lat="44.07436" lon="6.95848">
        <ele>1499.599976</ele>
        <time>2011-10-09T08:33:29Z</time>
      </trkpt>
      <trkpt lat="44.07431" lon="6.95849">
        <ele>1499.800049</ele>
        <time>2011-10-09T08:33:31Z</time>
      </trkpt>
      <trkpt lat="44.07425" lon="6.95852">
        <ele>1499.800049</ele>
        <time>2011-10-09T08:33:33Z</time>
      </trkpt>
      <trkpt lat="44.0742" lon="6.95854">
        <ele>1499.800049</ele>
        <time>2011-10-09T08:33:35Z</time>
      </trkpt>
      <trkpt lat="44.07415" lon="6.95857">
        <ele>1499.599976</ele>
        <time>2011-10-09T08:33:37Z</time>
      </trkpt>
      <trkpt lat="44.07411" lon="6.9586">
        <ele>1499.800049</ele>
        <time>2011-10-09T08:33:39Z</time>
      </trkpt>
      <trkpt lat="44.07407" lon="6.95862">
        <ele>1499.800049</ele>
        <time>2011-10-09T08:33:41Z</time>
      </trkpt>
      <trkpt lat="44.07398" lon="6.95867">
        <ele>1499.800049</ele>
        <time>2011-10-09T08:33:45Z</time>
      </trkpt>
      <trkpt lat="44.07388" lon="6.95874">
        <ele>1499.400024</ele>
        <time>2011-10-09T08:33:51Z</time>
      </trkpt>
      <trkpt lat="44.07383" lon="6.95877">
        <ele>1499.400024</ele>
        <time>2011-10-09T08:33:54Z</time>
      </trkpt>
      <trkpt lat="44.07374" lon="6.95879">
        <ele>1500.199951</ele>
        <time>2011-10-09T08:33:58Z</time>
      </trkpt>
      <trkpt lat="44.07358" lon="6.95882">
        <ele>1501.400024</ele>
        <time>2011-10-09T08:34:06Z</time>
      </trkpt>
      <trkpt lat="44.0735" lon="6.95883">
        <ele>1502</ele>
        <time>2011-10-09T08:34:10Z</time>
      </trkpt>
      <trkpt lat="44.07342" lon="6.95884">
        <ele>1502.800049</ele>
        <time>2011-10-09T08:34:14Z</time>
      </trkpt>
      <trkpt lat="44.07333" lon="6.95889">
        <ele>1502.199951</ele>
        <time>2011-10-09T08:34:19Z</time>
      </trkpt>
      <trkpt lat="44.07326" lon="6.95893">
        <ele>1501.599976</ele>
        <time>2011-10-09T08:34:22Z</time>
      </trkpt>
      <trkpt lat="44.07322" lon="6.95894">
        <ele>1501.800049</ele>
        <time>2011-10-09T08:34:24Z</time>
      </trkpt>
      <trkpt lat="44.07317" lon="6.95896">
        <ele>1502.400024</ele>
        <time>2011-10-09T08:34:26Z</time>
      </trkpt>
      <trkpt lat="44.07312" lon="6.95897">
        <ele>1502.800049</ele>
        <time>2011-10-09T08:34:28Z</time>
      </trkpt>
      <trkpt lat="44.07307" lon="6.95899">
        <ele>1503.199951</ele>
        <time>2011-10-09T08:34:30Z</time>
      </trkpt>
      <trkpt lat="44.07296" lon="6.95902">
        <ele>1503.800049</ele>
        <time>2011-10-09T08:34:34Z</time>
      </trkpt>
      <trkpt lat="44.07291" lon="6.95904">
        <ele>1504.199951</ele>
        <time>2011-10-09T08:34:36Z</time>
      </trkpt>
      <trkpt lat="44.07286" lon="6.95906">
        <ele>1504.599976</ele>
        <time>2011-10-09T08:34:38Z</time>
      </trkpt>
      <trkpt lat="44.07279" lon="6.95909">
        <ele>1504.800049</ele>
        <time>2011-10-09T08:34:42Z</time>
      </trkpt>
      <trkpt lat="44.07272" lon="6.95911">
        <ele>1505.199951</ele>
        <time>2011-10-09T08:34:47Z</time>
      </trkpt>
      <trkpt lat="44.07266" lon="6.95914">
        <ele>1505.599976</ele>
        <time>2011-10-09T08:34:51Z</time>
      </trkpt>
      <trkpt lat="44.07261" lon="6.95915">
        <ele>1506.199951</ele>
        <time>2011-10-09T08:34:53Z</time>
      </trkpt>
      <trkpt lat="44.07252" lon="6.95916">
        <ele>1507.599976</ele>
        <time>2011-10-09T08:34:57Z</time>
      </trkpt>
      <trkpt lat="44.07241" lon="6.95917">
        <ele>1508</ele>
        <time>2011-10-09T08:35:01Z</time>
      </trkpt>
      <trkpt lat="44.07224" lon="6.95923">
        <ele>1506.400024</ele>
        <time>2011-10-09T08:35:08Z</time>
      </trkpt>
      <trkpt lat="44.07219" lon="6.95926">
        <ele>1505.599976</ele>
        <time>2011-10-09T08:35:10Z</time>
      </trkpt>
      <trkpt lat="44.07213" lon="6.9593">
        <ele>1504.400024</ele>
        <time>2011-10-09T08:35:14Z</time>
      </trkpt>
      <trkpt lat="44.07205" lon="6.95934">
        <ele>1503.400024</ele>
        <time>2011-10-09T08:35:20Z</time>
      </trkpt>
      <trkpt lat="44.07198" lon="6.95937">
        <ele>1502.800049</ele>
        <time>2011-10-09T08:35:24Z</time>
      </trkpt>
      <trkpt lat="44.07189" lon="6.95941">
        <ele>1501.599976</ele>
        <time>2011-10-09T08:35:28Z</time>
      </trkpt>
      <trkpt lat="44.07176" lon="6.95947">
        <ele>1500.199951</ele>
        <time>2011-10-09T08:35:34Z</time>
      </trkpt>
      <trkpt lat="44.07168" lon="6.95948">
        <ele>1500.199951</ele>
        <time>2011-10-09T08:35:37Z</time>
      </trkpt>
      <trkpt lat="44.07163" lon="6.95948">
        <ele>1500.599976</ele>
        <time>2011-10-09T08:35:39Z</time>
      </trkpt>
      <trkpt lat="44.07158" lon="6.95946">
        <ele>1501.599976</ele>
        <time>2011-10-09T08:35:41Z</time>
      </trkpt>
      <trkpt lat="44.07154" lon="6.95944">
        <ele>1502.599976</ele>
        <time>2011-10-09T08:35:43Z</time>
      </trkpt>
      <trkpt lat="44.07143" lon="6.95935">
        <ele>1506.400024</ele>
        <time>2011-10-09T08:35:49Z</time>
      </trkpt>
      <trkpt lat="44.07139" lon="6.95916">
        <ele>1512.199951</ele>
        <time>2011-10-09T08:35:56Z</time>
      </trkpt>
      <trkpt lat="44.07138" lon="6.95906">
        <ele>1515.599976</ele>
        <time>2011-10-09T08:35:59Z</time>
      </trkpt>
      <trkpt lat="44.07138" lon="6.959">
        <ele>1517.800049</ele>
        <time>2011-10-09T08:36:01Z</time>
      </trkpt>
      <trkpt lat="44.07136" lon="6.95889">
        <ele>1521.400024</ele>
        <time>2011-10-09T08:36:05Z</time>
      </trkpt>
      <trkpt lat="44.07133" lon="6.95871">
        <ele>1527.800049</ele>
        <time>2011-10-09T08:36:12Z</time>
      </trkpt>
      <trkpt lat="44.07133" lon="6.9586">
        <ele>1531.599976</ele>
        <time>2011-10-09T08:36:16Z</time>
      </trkpt>
      <trkpt lat="44.07132" lon="6.95849">
        <ele>1535</ele>
        <time>2011-10-09T08:36:20Z</time>
      </trkpt>
      <trkpt lat="44.07131" lon="6.9584">
        <ele>1538.400024</ele>
        <time>2011-10-09T08:36:24Z</time>
      </trkpt>
      <trkpt lat="44.07129" lon="6.95831">
        <ele>1541.199951</ele>
        <time>2011-10-09T08:36:28Z</time>
      </trkpt>
      <trkpt lat="44.07124" lon="6.95829">
        <ele>1542.199951</ele>
        <time>2011-10-09T08:36:32Z</time>
      </trkpt>
      <trkpt lat="44.07117" lon="6.9584">
        <ele>1539.199951</ele>
        <time>2011-10-09T08:36:38Z</time>
      </trkpt>
      <trkpt lat="44.07111" lon="6.95846">
        <ele>1537.599976</ele>
        <time>2011-10-09T08:36:42Z</time>
      </trkpt>
      <trkpt lat="44.07107" lon="6.9585">
        <ele>1536.800049</ele>
        <time>2011-10-09T08:36:45Z</time>
      </trkpt>
      <trkpt lat="44.07101" lon="6.95853">
        <ele>1536.199951</ele>
        <time>2011-10-09T08:36:48Z</time>
      </trkpt>
      <trkpt lat="44.07097" lon="6.95856">
        <ele>1535.599976</ele>
        <time>2011-10-09T08:36:51Z</time>
      </trkpt>
      <trkpt lat="44.07089" lon="6.95864">
        <ele>1533.800049</ele>
        <time>2011-10-09T08:36:58Z</time>
      </trkpt>
      <trkpt lat="44.07084" lon="6.95869">
        <ele>1532.800049</ele>
        <time>2011-10-09T08:37:02Z</time>
      </trkpt>
      <trkpt lat="44.0708" lon="6.95875">
        <ele>1532.400024</ele>
        <time>2011-10-09T08:37:07Z</time>
      </trkpt>
      <trkpt lat="44.07078" lon="6.95884">
        <ele>1530.599976</ele>
        <time>2011-10-09T08:37:12Z</time>
      </trkpt>
      <trkpt lat="44.07079" lon="6.95892">
        <ele>1527.800049</ele>
        <time>2011-10-09T08:37:16Z</time>
      </trkpt>
      <trkpt lat="44.07078" lon="6.959">
        <ele>1525.599976</ele>
        <time>2011-10-09T08:37:22Z</time>
      </trkpt>
      <trkpt lat="44.07069" lon="6.95911">
        <ele>1526</ele>
        <time>2011-10-09T08:37:29Z</time>
      </trkpt>
      <trkpt lat="44.07063" lon="6.95915">
        <ele>1527.400024</ele>
        <time>2011-10-09T08:37:32Z</time>
      </trkpt>
      <trkpt lat="44.07057" lon="6.95921">
        <ele>1528.800049</ele>
        <time>2011-10-09T08:37:36Z</time>
      </trkpt>
      <trkpt lat="44.07052" lon="6.95925">
        <ele>1529.599976</ele>
        <time>2011-10-09T08:37:40Z</time>
      </trkpt>
      <trkpt lat="44.07045" lon="6.95933">
        <ele>1530.400024</ele>
        <time>2011-10-09T08:37:46Z</time>
      </trkpt>
      <trkpt lat="44.07039" lon="6.95939">
        <ele>1531</ele>
        <time>2011-10-09T08:37:51Z</time>
      </trkpt>
      <trkpt lat="44.07034" lon="6.95943">
        <ele>1531.800049</ele>
        <time>2011-10-09T08:37:55Z</time>
      </trkpt>
      <trkpt lat="44.07025" lon="6.95952">
        <ele>1533</ele>
        <time>2011-10-09T08:38:03Z</time>
      </trkpt>
      <trkpt lat="44.07017" lon="6.9596">
        <ele>1533.599976</ele>
        <time>2011-10-09T08:38:08Z</time>
      </trkpt>
      <trkpt lat="44.07012" lon="6.95966">
        <ele>1533.599976</ele>
        <time>2011-10-09T08:38:12Z</time>
      </trkpt>
      <trkpt lat="44.07007" lon="6.95971">
        <ele>1534</ele>
        <time>2011-10-09T08:38:16Z</time>
      </trkpt>
      <trkpt lat="44.06993" lon="6.95985">
        <ele>1535</ele>
        <time>2011-10-09T08:38:24Z</time>
      </trkpt>
      <trkpt lat="44.06985" lon="6.95991">
        <ele>1536.199951</ele>
        <time>2011-10-09T08:38:29Z</time>
      </trkpt>
      <trkpt lat="44.06978" lon="6.95995">
        <ele>1537.400024</ele>
        <time>2011-10-09T08:38:33Z</time>
      </trkpt>
      <trkpt lat="44.0697" lon="6.96">
        <ele>1538.599976</ele>
        <time>2011-10-09T08:38:37Z</time>
      </trkpt>
      <trkpt lat="44.06963" lon="6.96007">
        <ele>1539.599976</ele>
        <time>2011-10-09T08:38:43Z</time>
      </trkpt>
      <trkpt lat="44.06958" lon="6.96009">
        <ele>1540.599976</ele>
        <time>2011-10-09T08:38:45Z</time>
      </trkpt>
      <trkpt lat="44.06954" lon="6.96012">
        <ele>1541.599976</ele>
        <time>2011-10-09T08:38:47Z</time>
      </trkpt>
      <trkpt lat="44.06947" lon="6.96016">
        <ele>1543.199951</ele>
        <time>2011-10-09T08:38:51Z</time>
      </trkpt>
      <trkpt lat="44.06936" lon="6.96021">
        <ele>1546.199951</ele>
        <time>2011-10-09T08:38:57Z</time>
      </trkpt>
      <trkpt lat="44.0693" lon="6.96024">
        <ele>1547.800049</ele>
        <time>2011-10-09T08:39:01Z</time>
      </trkpt>
      <trkpt lat="44.06922" lon="6.96027">
        <ele>1549.800049</ele>
        <time>2011-10-09T08:39:05Z</time>
      </trkpt>
      <trkpt lat="44.06911" lon="6.96034">
        <ele>1551.400024</ele>
        <time>2011-10-09T08:39:11Z</time>
      </trkpt>
      <trkpt lat="44.06905" lon="6.96039">
        <ele>1551</ele>
        <time>2011-10-09T08:39:16Z</time>
      </trkpt>
      <trkpt lat="44.069" lon="6.96042">
        <ele>1551.400024</ele>
        <time>2011-10-09T08:39:20Z</time>
      </trkpt>
      <trkpt lat="44.06878" lon="6.96048">
        <ele>1554.199951</ele>
        <time>2011-10-09T08:39:27Z</time>
      </trkpt>
      <trkpt lat="44.06871" lon="6.9605">
        <ele>1555</ele>
        <time>2011-10-09T08:39:29Z</time>
      </trkpt>
      <trkpt lat="44.06866" lon="6.96051">
        <ele>1555.599976</ele>
        <time>2011-10-09T08:39:31Z</time>
      </trkpt>
      <trkpt lat="44.06859" lon="6.96056">
        <ele>1555.800049</ele>
        <time>2011-10-09T08:39:35Z</time>
      </trkpt>
      <trkpt lat="44.06847" lon="6.96063">
        <ele>1556.199951</ele>
        <time>2011-10-09T08:39:42Z</time>
      </trkpt>
      <trkpt lat="44.0684" lon="6.96068">
        <ele>1556.199951</ele>
        <time>2011-10-09T08:39:47Z</time>
      </trkpt>
      <trkpt lat="44.06832" lon="6.9607">
        <ele>1557.199951</ele>
        <time>2011-10-09T08:39:51Z</time>
      </trkpt>
      <trkpt lat="44.06824" lon="6.96075">
        <ele>1558.199951</ele>
        <time>2011-10-09T08:39:55Z</time>
      </trkpt>
      <trkpt lat="44.06819" lon="6.9608">
        <ele>1557.800049</ele>
        <time>2011-10-09T08:39:59Z</time>
      </trkpt>
      <trkpt lat="44.06813" lon="6.96089">
        <ele>1557.400024</ele>
        <time>2011-10-09T08:40:08Z</time>
      </trkpt>
      <trkpt lat="44.06809" lon="6.96095">
        <ele>1557.400024</ele>
        <time>2011-10-09T08:40:13Z</time>
      </trkpt>
      <trkpt lat="44.06804" lon="6.96098">
        <ele>1558</ele>
        <time>2011-10-09T08:40:15Z</time>
      </trkpt>
      <trkpt lat="44.06799" lon="6.96102">
        <ele>1558.599976</ele>
        <time>2011-10-09T08:40:17Z</time>
      </trkpt>
      <trkpt lat="44.06778" lon="6.9611">
        <ele>1562.400024</ele>
        <time>2011-10-09T08:40:23Z</time>
      </trkpt>
      <trkpt lat="44.06773" lon="6.96111">
        <ele>1563.599976</ele>
        <time>2011-10-09T08:40:25Z</time>
      </trkpt>
      <trkpt lat="44.06766" lon="6.96115">
        <ele>1565</ele>
        <time>2011-10-09T08:40:29Z</time>
      </trkpt>
      <trkpt lat="44.06757" lon="6.96123">
        <ele>1565.400024</ele>
        <time>2011-10-09T08:40:36Z</time>
      </trkpt>
      <trkpt lat="44.06754" lon="6.96129">
        <ele>1565</ele>
        <time>2011-10-09T08:40:40Z</time>
      </trkpt>
      <trkpt lat="44.0675" lon="6.96134">
        <ele>1565</ele>
        <time>2011-10-09T08:40:44Z</time>
      </trkpt>
      <trkpt lat="44.06746" lon="6.96138">
        <ele>1565.400024</ele>
        <time>2011-10-09T08:40:48Z</time>
      </trkpt>
      <trkpt lat="44.06742" lon="6.96142">
        <ele>1565.400024</ele>
        <time>2011-10-09T08:40:51Z</time>
      </trkpt>
      <trkpt lat="44.06738" lon="6.96147">
        <ele>1565.599976</ele>
        <time>2011-10-09T08:40:54Z</time>
      </trkpt>
      <trkpt lat="44.06726" lon="6.9616">
        <ele>1566.400024</ele>
        <time>2011-10-09T08:41:02Z</time>
      </trkpt>
      <trkpt lat="44.06723" lon="6.96166">
        <ele>1566.199951</ele>
        <time>2011-10-09T08:41:05Z</time>
      </trkpt>
      <trkpt lat="44.06717" lon="6.96173">
        <ele>1566.599976</ele>
        <time>2011-10-09T08:41:09Z</time>
      </trkpt>
      <trkpt lat="44.06709" lon="6.96182">
        <ele>1567.400024</ele>
        <time>2011-10-09T08:41:15Z</time>
      </trkpt>
      <trkpt lat="44.06704" lon="6.96187">
        <ele>1568</ele>
        <time>2011-10-09T08:41:18Z</time>
      </trkpt>
      <trkpt lat="44.06698" lon="6.96194">
        <ele>1568.599976</ele>
        <time>2011-10-09T08:41:22Z</time>
      </trkpt>
      <trkpt lat="44.06692" lon="6.96202">
        <ele>1569</ele>
        <time>2011-10-09T08:41:26Z</time>
      </trkpt>
      <trkpt lat="44.06687" lon="6.96209">
        <ele>1569</ele>
        <time>2011-10-09T08:41:30Z</time>
      </trkpt>
      <trkpt lat="44.06682" lon="6.96215">
        <ele>1569.400024</ele>
        <time>2011-10-09T08:41:34Z</time>
      </trkpt>
      <trkpt lat="44.06679" lon="6.9622">
        <ele>1569.599976</ele>
        <time>2011-10-09T08:41:37Z</time>
      </trkpt>
      <trkpt lat="44.06669" lon="6.9623">
        <ele>1571</ele>
        <time>2011-10-09T08:41:44Z</time>
      </trkpt>
      <trkpt lat="44.06663" lon="6.96236">
        <ele>1571.199951</ele>
        <time>2011-10-09T08:41:48Z</time>
      </trkpt>
      <trkpt lat="44.06656" lon="6.96245">
        <ele>1571.199951</ele>
        <time>2011-10-09T08:41:52Z</time>
      </trkpt>
      <trkpt lat="44.06651" lon="6.96248">
        <ele>1571.400024</ele>
        <time>2011-10-09T08:41:54Z</time>
      </trkpt>
      <trkpt lat="44.06639" lon="6.96258">
        <ele>1571.800049</ele>
        <time>2011-10-09T08:42:00Z</time>
      </trkpt>
      <trkpt lat="44.06632" lon="6.96263">
        <ele>1572.400024</ele>
        <time>2011-10-09T08:42:04Z</time>
      </trkpt>
      <trkpt lat="44.06626" lon="6.96264">
        <ele>1573.199951</ele>
        <time>2011-10-09T08:42:08Z</time>
      </trkpt>
      <trkpt lat="44.06615" lon="6.9627">
        <ele>1574.400024</ele>
        <time>2011-10-09T08:42:15Z</time>
      </trkpt>
      <trkpt lat="44.06609" lon="6.96276">
        <ele>1574.199951</ele>
        <time>2011-10-09T08:42:19Z</time>
      </trkpt>
      <trkpt lat="44.06605" lon="6.96281">
        <ele>1574</ele>
        <time>2011-10-09T08:42:23Z</time>
      </trkpt>
      <trkpt lat="44.06599" lon="6.96286">
        <ele>1574.199951</ele>
        <time>2011-10-09T08:42:28Z</time>
      </trkpt>
      <trkpt lat="44.06593" lon="6.96295">
        <ele>1573.400024</ele>
        <time>2011-10-09T08:42:32Z</time>
      </trkpt>
      <trkpt lat="44.06588" lon="6.963">
        <ele>1573.400024</ele>
        <time>2011-10-09T08:42:35Z</time>
      </trkpt>
      <trkpt lat="44.06576" lon="6.96311">
        <ele>1573.800049</ele>
        <time>2011-10-09T08:42:40Z</time>
      </trkpt>
      <trkpt lat="44.06571" lon="6.96315">
        <ele>1573.800049</ele>
        <time>2011-10-09T08:42:42Z</time>
      </trkpt>
      <trkpt lat="44.06567" lon="6.96318">
        <ele>1574</ele>
        <time>2011-10-09T08:42:44Z</time>
      </trkpt>
      <trkpt lat="44.0656" lon="6.96324">
        <ele>1574.199951</ele>
        <time>2011-10-09T08:42:48Z</time>
      </trkpt>
      <trkpt lat="44.06548" lon="6.96335">
        <ele>1574</ele>
        <time>2011-10-09T08:42:56Z</time>
      </trkpt>
      <trkpt lat="44.0654" lon="6.9634">
        <ele>1574</ele>
        <time>2011-10-09T08:43:00Z</time>
      </trkpt>
      <trkpt lat="44.06534" lon="6.96347">
        <ele>1573</ele>
        <time>2011-10-09T08:43:04Z</time>
      </trkpt>
      <trkpt lat="44.0653" lon="6.96352">
        <ele>1572.199951</ele>
        <time>2011-10-09T08:43:07Z</time>
      </trkpt>
      <trkpt lat="44.06524" lon="6.96356">
        <ele>1571.800049</ele>
        <time>2011-10-09T08:43:11Z</time>
      </trkpt>
      <trkpt lat="44.06512" lon="6.9636">
        <ele>1572.400024</ele>
        <time>2011-10-09T08:43:18Z</time>
      </trkpt>
      <trkpt lat="44.06505" lon="6.9636">
        <ele>1573.599976</ele>
        <time>2011-10-09T08:43:22Z</time>
      </trkpt>
      <trkpt lat="44.06497" lon="6.96359">
        <ele>1574.800049</ele>
        <time>2011-10-09T08:43:26Z</time>
      </trkpt>
      <trkpt lat="44.06488" lon="6.96355">
        <ele>1576.599976</ele>
        <time>2011-10-09T08:43:32Z</time>
      </trkpt>
      <trkpt lat="44.06482" lon="6.96352">
        <ele>1578.199951</ele>
        <time>2011-10-09T08:43:36Z</time>
      </trkpt>
      <trkpt lat="44.06476" lon="6.96348">
        <ele>1579.800049</ele>
        <time>2011-10-09T08:43:40Z</time>
      </trkpt>
      <trkpt lat="44.06471" lon="6.96345">
        <ele>1581</ele>
        <time>2011-10-09T08:43:43Z</time>
      </trkpt>
      <trkpt lat="44.06466" lon="6.96342">
        <ele>1582.599976</ele>
        <time>2011-10-09T08:43:47Z</time>
      </trkpt>
      <trkpt lat="44.06461" lon="6.96339">
        <ele>1584</ele>
        <time>2011-10-09T08:43:51Z</time>
      </trkpt>
      <trkpt lat="44.06452" lon="6.9634">
        <ele>1584</ele>
        <time>2011-10-09T08:45:11Z</time>
      </trkpt>
      <trkpt lat="44.06436" lon="6.9634">
        <ele>1584.199951</ele>
        <time>2011-10-09T08:45:16Z</time>
      </trkpt>
      <trkpt lat="44.06415" lon="6.9635">
        <ele>1580.199951</ele>
        <time>2011-10-09T08:45:21Z</time>
      </trkpt>
      <trkpt lat="44.06406" lon="6.96356">
        <ele>1575.599976</ele>
        <time>2011-10-09T08:45:23Z</time>
      </trkpt>
      <trkpt lat="44.06388" lon="6.96366">
        <ele>1568.199951</ele>
        <time>2011-10-09T08:45:25Z</time>
      </trkpt>
      <trkpt lat="44.06366" lon="6.96369">
        <ele>1563.400024</ele>
        <time>2011-10-09T08:45:28Z</time>
      </trkpt>
      <trkpt lat="44.06355" lon="6.96362">
        <ele>1563</ele>
        <time>2011-10-09T08:45:30Z</time>
      </trkpt>
      <trkpt lat="44.06343" lon="6.96353">
        <ele>1563</ele>
        <time>2011-10-09T08:45:32Z</time>
      </trkpt>
      <trkpt lat="44.06341" lon="6.96346">
        <ele>1564</ele>
        <time>2011-10-09T08:45:33Z</time>
      </trkpt>
      <trkpt lat="44.06335" lon="6.96332">
        <ele>1565.400024</ele>
        <time>2011-10-09T08:45:35Z</time>
      </trkpt>
      <trkpt lat="44.06333" lon="6.96325">
        <ele>1566</ele>
        <time>2011-10-09T08:45:36Z</time>
      </trkpt>
      <trkpt lat="44.0633" lon="6.96318">
        <ele>1566.400024</ele>
        <time>2011-10-09T08:45:37Z</time>
      </trkpt>
      <trkpt lat="44.06326" lon="6.963">
        <ele>1567.800049</ele>
        <time>2011-10-09T08:45:39Z</time>
      </trkpt>
      <trkpt lat="44.06325" lon="6.96291">
        <ele>1568.800049</ele>
        <time>2011-10-09T08:45:40Z</time>
      </trkpt>
      <trkpt lat="44.06323" lon="6.96282">
        <ele>1569.800049</ele>
        <time>2011-10-09T08:45:41Z</time>
      </trkpt>
      <trkpt lat="44.06321" lon="6.96274">
        <ele>1570.599976</ele>
        <time>2011-10-09T08:45:42Z</time>
      </trkpt>
      <trkpt lat="44.06316" lon="6.96259">
        <ele>1571</ele>
        <time>2011-10-09T08:45:44Z</time>
      </trkpt>
      <trkpt lat="44.06311" lon="6.96253">
        <ele>1570.400024</ele>
        <time>2011-10-09T08:45:45Z</time>
      </trkpt>
      <trkpt lat="44.06299" lon="6.96244">
        <ele>1568.400024</ele>
        <time>2011-10-09T08:45:47Z</time>
      </trkpt>
      <trkpt lat="44.06292" lon="6.9624">
        <ele>1567</ele>
        <time>2011-10-09T08:45:48Z</time>
      </trkpt>
      <trkpt lat="44.06285" lon="6.96236">
        <ele>1565.800049</ele>
        <time>2011-10-09T08:45:49Z</time>
      </trkpt>
      <trkpt lat="44.06279" lon="6.96231">
        <ele>1565.199951</ele>
        <time>2011-10-09T08:45:50Z</time>
      </trkpt>
      <trkpt lat="44.06265" lon="6.96217">
        <ele>1564.400024</ele>
        <time>2011-10-09T08:45:52Z</time>
      </trkpt>
      <trkpt lat="44.06258" lon="6.96212">
        <ele>1562.800049</ele>
        <time>2011-10-09T08:45:53Z</time>
      </trkpt>
      <trkpt lat="44.0625" lon="6.96208">
        <ele>1560.800049</ele>
        <time>2011-10-09T08:45:54Z</time>
      </trkpt>
      <trkpt lat="44.06241" lon="6.96204">
        <ele>1559.400024</ele>
        <time>2011-10-09T08:45:55Z</time>
      </trkpt>
      <trkpt lat="44.06222" lon="6.96185">
        <ele>1558.599976</ele>
        <time>2011-10-09T08:45:58Z</time>
      </trkpt>
      <trkpt lat="44.06212" lon="6.96169">
        <ele>1559.400024</ele>
        <time>2011-10-09T08:46:00Z</time>
      </trkpt>
      <trkpt lat="44.06202" lon="6.96156">
        <ele>1559.599976</ele>
        <time>2011-10-09T08:46:02Z</time>
      </trkpt>
      <trkpt lat="44.06197" lon="6.9615">
        <ele>1559.199951</ele>
        <time>2011-10-09T08:46:03Z</time>
      </trkpt>
      <trkpt lat="44.06192" lon="6.96145">
        <ele>1558.800049</ele>
        <time>2011-10-09T08:46:04Z</time>
      </trkpt>
      <trkpt lat="44.06182" lon="6.96136">
        <ele>1557</ele>
        <time>2011-10-09T08:46:06Z</time>
      </trkpt>
      <trkpt lat="44.06177" lon="6.96131">
        <ele>1556.199951</ele>
        <time>2011-10-09T08:46:07Z</time>
      </trkpt>
      <trkpt lat="44.06167" lon="6.96103">
        <ele>1558.400024</ele>
        <time>2011-10-09T08:46:11Z</time>
      </trkpt>
      <trkpt lat="44.06167" lon="6.96094">
        <ele>1560.400024</ele>
        <time>2011-10-09T08:46:12Z</time>
      </trkpt>
      <trkpt lat="44.06168" lon="6.96076">
        <ele>1565.400024</ele>
        <time>2011-10-09T08:46:14Z</time>
      </trkpt>
      <trkpt lat="44.06164" lon="6.96058">
        <ele>1568.199951</ele>
        <time>2011-10-09T08:46:17Z</time>
      </trkpt>
      <trkpt lat="44.06156" lon="6.96053">
        <ele>1567.199951</ele>
        <time>2011-10-09T08:46:19Z</time>
      </trkpt>
      <trkpt lat="44.06151" lon="6.96051">
        <ele>1566.400024</ele>
        <time>2011-10-09T08:46:20Z</time>
      </trkpt>
      <trkpt lat="44.06141" lon="6.96046">
        <ele>1564.599976</ele>
        <time>2011-10-09T08:46:22Z</time>
      </trkpt>
      <trkpt lat="44.06127" lon="6.9603">
        <ele>1563.199951</ele>
        <time>2011-10-09T08:46:25Z</time>
      </trkpt>
      <trkpt lat="44.06118" lon="6.96009">
        <ele>1563</ele>
        <time>2011-10-09T08:46:28Z</time>
      </trkpt>
      <trkpt lat="44.06116" lon="6.96002">
        <ele>1563.199951</ele>
        <time>2011-10-09T08:46:29Z</time>
      </trkpt>
      <trkpt lat="44.06113" lon="6.95995">
        <ele>1563</ele>
        <time>2011-10-09T08:46:30Z</time>
      </trkpt>
      <trkpt lat="44.06107" lon="6.9598">
        <ele>1563</ele>
        <time>2011-10-09T08:46:32Z</time>
      </trkpt>
      <trkpt lat="44.06101" lon="6.95964">
        <ele>1563</ele>
        <time>2011-10-09T08:46:34Z</time>
      </trkpt>
      <trkpt lat="44.06099" lon="6.95955">
        <ele>1563.400024</ele>
        <time>2011-10-09T08:46:35Z</time>
      </trkpt>
      <trkpt lat="44.06092" lon="6.95933">
        <ele>1563.800049</ele>
        <time>2011-10-09T08:46:38Z</time>
      </trkpt>
      <trkpt lat="44.06088" lon="6.95927">
        <ele>1563</ele>
        <time>2011-10-09T08:46:39Z</time>
      </trkpt>
      <trkpt lat="44.06078" lon="6.95914">
        <ele>1566.400024</ele>
        <time>2011-10-09T08:46:41Z</time>
      </trkpt>
      <trkpt lat="44.06073" lon="6.95905">
        <ele>1570.400024</ele>
        <time>2011-10-09T08:46:42Z</time>
      </trkpt>
      <trkpt lat="44.06069" lon="6.95897">
        <ele>1573.800049</ele>
        <time>2011-10-09T08:46:43Z</time>
      </trkpt>
      <trkpt lat="44.06065" lon="6.95889">
        <ele>1577</ele>
        <time>2011-10-09T08:46:44Z</time>
      </trkpt>
      <trkpt lat="44.06061" lon="6.95882">
        <ele>1579.800049</ele>
        <time>2011-10-09T08:46:45Z</time>
      </trkpt>
      <trkpt lat="44.06057" lon="6.95879">
        <ele>1582.199951</ele>
        <time>2011-10-09T08:46:46Z</time>
      </trkpt>
      <trkpt lat="44.06052" lon="6.95878">
        <ele>1584.199951</ele>
        <time>2011-10-09T08:46:47Z</time>
      </trkpt>
      <trkpt lat="44.06044" lon="6.95885">
        <ele>1586.599976</ele>
        <time>2011-10-09T08:46:49Z</time>
      </trkpt>
      <trkpt lat="44.06039" lon="6.95898">
        <ele>1586.800049</ele>
        <time>2011-10-09T08:46:51Z</time>
      </trkpt>
      <trkpt lat="44.06037" lon="6.95914">
        <ele>1586.199951</ele>
        <time>2011-10-09T08:46:53Z</time>
      </trkpt>
      <trkpt lat="44.06036" lon="6.95921">
        <ele>1585.599976</ele>
        <time>2011-10-09T08:46:54Z</time>
      </trkpt>
      <trkpt lat="44.06035" lon="6.95938">
        <ele>1584</ele>
        <time>2011-10-09T08:46:57Z</time>
      </trkpt>
      <trkpt lat="44.06032" lon="6.95948">
        <ele>1584.400024</ele>
        <time>2011-10-09T08:46:59Z</time>
      </trkpt>
      <trkpt lat="44.06025" lon="6.95963">
        <ele>1585.800049</ele>
        <time>2011-10-09T08:47:03Z</time>
      </trkpt>
      <trkpt lat="44.06022" lon="6.95985">
        <ele>1584.599976</ele>
        <time>2011-10-09T08:47:08Z</time>
      </trkpt>
      <trkpt lat="44.06021" lon="6.96">
        <ele>1583</ele>
        <time>2011-10-09T08:47:12Z</time>
      </trkpt>
      <trkpt lat="44.06024" lon="6.96008">
        <ele>1581</ele>
        <time>2011-10-09T08:47:16Z</time>
      </trkpt>
      <trkpt lat="44.06026" lon="6.96017">
        <ele>1580</ele>
        <time>2011-10-09T08:47:20Z</time>
      </trkpt>
      <trkpt lat="44.06028" lon="6.96023">
        <ele>1578.800049</ele>
        <time>2011-10-09T08:47:23Z</time>
      </trkpt>
      <trkpt lat="44.0603" lon="6.96029">
        <ele>1577.199951</ele>
        <time>2011-10-09T08:47:27Z</time>
      </trkpt>
      <trkpt lat="44.06025" lon="6.96039">
        <ele>1579.599976</ele>
        <time>2011-10-09T08:47:29Z</time>
      </trkpt>
      <trkpt lat="44.06024" lon="6.96047">
        <ele>1580.199951</ele>
        <time>2011-10-09T08:47:31Z</time>
      </trkpt>
      <trkpt lat="44.06026" lon="6.96059">
        <ele>1578.599976</ele>
        <time>2011-10-09T08:47:36Z</time>
      </trkpt>
      <trkpt lat="44.06021" lon="6.9607">
        <ele>1580.599976</ele>
        <time>2011-10-09T08:47:38Z</time>
      </trkpt>
      <trkpt lat="44.06022" lon="6.96083">
        <ele>1579.800049</ele>
        <time>2011-10-09T08:47:42Z</time>
      </trkpt>
      <trkpt lat="44.06024" lon="6.96094">
        <ele>1579.400024</ele>
        <time>2011-10-09T08:47:46Z</time>
      </trkpt>
      <trkpt lat="44.06025" lon="6.96102">
        <ele>1579.199951</ele>
        <time>2011-10-09T08:47:49Z</time>
      </trkpt>
      <trkpt lat="44.06026" lon="6.96115">
        <ele>1579.400024</ele>
        <time>2011-10-09T08:47:54Z</time>
      </trkpt>
      <trkpt lat="44.06026" lon="6.96128">
        <ele>1580</ele>
        <time>2011-10-09T08:47:58Z</time>
      </trkpt>
      <trkpt lat="44.06025" lon="6.96138">
        <ele>1581.400024</ele>
        <time>2011-10-09T08:48:02Z</time>
      </trkpt>
      <trkpt lat="44.06024" lon="6.96146">
        <ele>1582.400024</ele>
        <time>2011-10-09T08:48:05Z</time>
      </trkpt>
      <trkpt lat="44.06027" lon="6.96154">
        <ele>1581</ele>
        <time>2011-10-09T08:48:09Z</time>
      </trkpt>
      <trkpt lat="44.06033" lon="6.96156">
        <ele>1577.800049</ele>
        <time>2011-10-09T08:48:11Z</time>
      </trkpt>
      <trkpt lat="44.06037" lon="6.96164">
        <ele>1576</ele>
        <time>2011-10-09T08:48:16Z</time>
      </trkpt>
      <trkpt lat="44.0604" lon="6.96169">
        <ele>1574.199951</ele>
        <time>2011-10-09T08:48:20Z</time>
      </trkpt>
      <trkpt lat="44.06042" lon="6.96176">
        <ele>1572.800049</ele>
        <time>2011-10-09T08:48:24Z</time>
      </trkpt>
      <trkpt lat="44.06042" lon="6.96183">
        <ele>1573.199951</ele>
        <time>2011-10-09T08:48:28Z</time>
      </trkpt>
      <trkpt lat="44.06039" lon="6.96192">
        <ele>1575.400024</ele>
        <time>2011-10-09T08:48:32Z</time>
      </trkpt>
      <trkpt lat="44.06036" lon="6.96201">
        <ele>1577.800049</ele>
        <time>2011-10-09T08:48:34Z</time>
      </trkpt>
      <trkpt lat="44.06033" lon="6.96207">
        <ele>1580</ele>
        <time>2011-10-09T08:48:36Z</time>
      </trkpt>
      <trkpt lat="44.0603" lon="6.96213">
        <ele>1582</ele>
        <time>2011-10-09T08:48:41Z</time>
      </trkpt>
      <trkpt lat="44.06029" lon="6.96221">
        <ele>1583.199951</ele>
        <time>2011-10-09T08:48:44Z</time>
      </trkpt>
      <trkpt lat="44.06027" lon="6.96228">
        <ele>1585</ele>
        <time>2011-10-09T08:48:47Z</time>
      </trkpt>
      <trkpt lat="44.06025" lon="6.96237">
        <ele>1586.800049</ele>
        <time>2011-10-09T08:48:51Z</time>
      </trkpt>
      <trkpt lat="44.06023" lon="6.96245">
        <ele>1588</ele>
        <time>2011-10-09T08:48:55Z</time>
      </trkpt>
      <trkpt lat="44.06026" lon="6.96255">
        <ele>1586.599976</ele>
        <time>2011-10-09T08:49:00Z</time>
      </trkpt>
      <trkpt lat="44.06031" lon="6.96264">
        <ele>1584</ele>
        <time>2011-10-09T08:49:06Z</time>
      </trkpt>
      <trkpt lat="44.06033" lon="6.96271">
        <ele>1583</ele>
        <time>2011-10-09T08:49:09Z</time>
      </trkpt>
      <trkpt lat="44.06033" lon="6.96279">
        <ele>1583.400024</ele>
        <time>2011-10-09T08:49:14Z</time>
      </trkpt>
      <trkpt lat="44.06033" lon="6.96288">
        <ele>1583.400024</ele>
        <time>2011-10-09T08:49:17Z</time>
      </trkpt>
      <trkpt lat="44.06032" lon="6.96297">
        <ele>1584.599976</ele>
        <time>2011-10-09T08:49:20Z</time>
      </trkpt>
      <trkpt lat="44.06037" lon="6.9631">
        <ele>1582</ele>
        <time>2011-10-09T08:49:26Z</time>
      </trkpt>
      <trkpt lat="44.06038" lon="6.96319">
        <ele>1582.199951</ele>
        <time>2011-10-09T08:49:30Z</time>
      </trkpt>
      <trkpt lat="44.06038" lon="6.96326">
        <ele>1582.599976</ele>
        <time>2011-10-09T08:49:34Z</time>
      </trkpt>
      <trkpt lat="44.06038" lon="6.96337">
        <ele>1582.599976</ele>
        <time>2011-10-09T08:49:40Z</time>
      </trkpt>
      <trkpt lat="44.06038" lon="6.96346">
        <ele>1581.800049</ele>
        <time>2011-10-09T08:49:44Z</time>
      </trkpt>
      <trkpt lat="44.06042" lon="6.96353">
        <ele>1579</ele>
        <time>2011-10-09T08:49:47Z</time>
      </trkpt>
      <trkpt lat="44.06039" lon="6.96364">
        <ele>1579.599976</ele>
        <time>2011-10-09T08:49:53Z</time>
      </trkpt>
      <trkpt lat="44.06038" lon="6.96371">
        <ele>1579.599976</ele>
        <time>2011-10-09T08:49:57Z</time>
      </trkpt>
      <trkpt lat="44.06041" lon="6.96378">
        <ele>1577.800049</ele>
        <time>2011-10-09T08:50:01Z</time>
      </trkpt>
      <trkpt lat="44.06036" lon="6.96389">
        <ele>1579.400024</ele>
        <time>2011-10-09T08:50:07Z</time>
      </trkpt>
      <trkpt lat="44.06035" lon="6.96397">
        <ele>1579.400024</ele>
        <time>2011-10-09T08:50:11Z</time>
      </trkpt>
      <trkpt lat="44.0603" lon="6.96405">
        <ele>1580.800049</ele>
        <time>2011-10-09T08:50:15Z</time>
      </trkpt>
      <trkpt lat="44.06025" lon="6.96417">
        <ele>1582</ele>
        <time>2011-10-09T08:50:20Z</time>
      </trkpt>
      <trkpt lat="44.06021" lon="6.96421">
        <ele>1582.800049</ele>
        <time>2011-10-09T08:50:24Z</time>
      </trkpt>
      <trkpt lat="44.06017" lon="6.96431">
        <ele>1581.199951</ele>
        <time>2011-10-09T08:50:28Z</time>
      </trkpt>
      <trkpt lat="44.06012" lon="6.96437">
        <ele>1581.400024</ele>
        <time>2011-10-09T08:50:32Z</time>
      </trkpt>
      <trkpt lat="44.06007" lon="6.96443">
        <ele>1581.400024</ele>
        <time>2011-10-09T08:50:36Z</time>
      </trkpt>
      <trkpt lat="44.06" lon="6.96445">
        <ele>1583.199951</ele>
        <time>2011-10-09T08:50:40Z</time>
      </trkpt>
      <trkpt lat="44.05994" lon="6.96444">
        <ele>1585.400024</ele>
        <time>2011-10-09T08:50:44Z</time>
      </trkpt>
      <trkpt lat="44.0599" lon="6.96438">
        <ele>1588.400024</ele>
        <time>2011-10-09T08:50:48Z</time>
      </trkpt>
      <trkpt lat="44.05985" lon="6.96434">
        <ele>1591</ele>
        <time>2011-10-09T08:50:52Z</time>
      </trkpt>
      <trkpt lat="44.05981" lon="6.96429">
        <ele>1593.800049</ele>
        <time>2011-10-09T08:50:56Z</time>
      </trkpt>
      <trkpt lat="44.05977" lon="6.96425">
        <ele>1596</ele>
        <time>2011-10-09T08:51:00Z</time>
      </trkpt>
      <trkpt lat="44.0597" lon="6.96421">
        <ele>1599</ele>
        <time>2011-10-09T08:51:04Z</time>
      </trkpt>
      <trkpt lat="44.05963" lon="6.96416">
        <ele>1602.400024</ele>
        <time>2011-10-09T08:51:08Z</time>
      </trkpt>
      <trkpt lat="44.05958" lon="6.96411">
        <ele>1604.800049</ele>
        <time>2011-10-09T08:51:12Z</time>
      </trkpt>
      <trkpt lat="44.05954" lon="6.96407">
        <ele>1606.599976</ele>
        <time>2011-10-09T08:51:16Z</time>
      </trkpt>
      <trkpt lat="44.05948" lon="6.96404">
        <ele>1608.800049</ele>
        <time>2011-10-09T08:51:22Z</time>
      </trkpt>
      <trkpt lat="44.05938" lon="6.96406">
        <ele>1610.800049</ele>
        <time>2011-10-09T08:51:30Z</time>
      </trkpt>
      <trkpt lat="44.05931" lon="6.96409">
        <ele>1611.599976</ele>
        <time>2011-10-09T08:51:34Z</time>
      </trkpt>
      <trkpt lat="44.05927" lon="6.96415">
        <ele>1611</ele>
        <time>2011-10-09T08:51:38Z</time>
      </trkpt>
      <trkpt lat="44.05919" lon="6.96422">
        <ele>1610.599976</ele>
        <time>2011-10-09T08:51:42Z</time>
      </trkpt>
      <trkpt lat="44.05906" lon="6.96434">
        <ele>1611.400024</ele>
        <time>2011-10-09T08:51:49Z</time>
      </trkpt>
      <trkpt lat="44.05892" lon="6.96444">
        <ele>1614</ele>
        <time>2011-10-09T08:51:56Z</time>
      </trkpt>
      <trkpt lat="44.05886" lon="6.96449">
        <ele>1614.599976</ele>
        <time>2011-10-09T08:51:59Z</time>
      </trkpt>
      <trkpt lat="44.05882" lon="6.96454">
        <ele>1614.800049</ele>
        <time>2011-10-09T08:52:01Z</time>
      </trkpt>
      <trkpt lat="44.05878" lon="6.96458">
        <ele>1615.199951</ele>
        <time>2011-10-09T08:52:03Z</time>
      </trkpt>
      <trkpt lat="44.05874" lon="6.96463">
        <ele>1615.400024</ele>
        <time>2011-10-09T08:52:05Z</time>
      </trkpt>
      <trkpt lat="44.05866" lon="6.96476">
        <ele>1614.800049</ele>
        <time>2011-10-09T08:52:11Z</time>
      </trkpt>
      <trkpt lat="44.0586" lon="6.96494">
        <ele>1612</ele>
        <time>2011-10-09T08:52:17Z</time>
      </trkpt>
      <trkpt lat="44.05856" lon="6.96503">
        <ele>1611.199951</ele>
        <time>2011-10-09T08:52:21Z</time>
      </trkpt>
      <trkpt lat="44.05851" lon="6.96512">
        <ele>1611.400024</ele>
        <time>2011-10-09T08:52:25Z</time>
      </trkpt>
      <trkpt lat="44.05848" lon="6.96518">
        <ele>1611.400024</ele>
        <time>2011-10-09T08:52:27Z</time>
      </trkpt>
      <trkpt lat="44.05839" lon="6.96531">
        <ele>1612</ele>
        <time>2011-10-09T08:52:32Z</time>
      </trkpt>
      <trkpt lat="44.05836" lon="6.96536">
        <ele>1612.599976</ele>
        <time>2011-10-09T08:52:34Z</time>
      </trkpt>
      <trkpt lat="44.05832" lon="6.9654">
        <ele>1613.400024</ele>
        <time>2011-10-09T08:52:36Z</time>
      </trkpt>
      <trkpt lat="44.05828" lon="6.96544">
        <ele>1614.400024</ele>
        <time>2011-10-09T08:52:38Z</time>
      </trkpt>
      <trkpt lat="44.05824" lon="6.96548">
        <ele>1615.400024</ele>
        <time>2011-10-09T08:52:40Z</time>
      </trkpt>
      <trkpt lat="44.05814" lon="6.96555">
        <ele>1618.599976</ele>
        <time>2011-10-09T08:52:45Z</time>
      </trkpt>
      <trkpt lat="44.0581" lon="6.96559">
        <ele>1619.599976</ele>
        <time>2011-10-09T08:52:47Z</time>
      </trkpt>
      <trkpt lat="44.05806" lon="6.96563">
        <ele>1620.400024</ele>
        <time>2011-10-09T08:52:49Z</time>
      </trkpt>
      <trkpt lat="44.05802" lon="6.96567">
        <ele>1621.199951</ele>
        <time>2011-10-09T08:52:51Z</time>
      </trkpt>
      <trkpt lat="44.05793" lon="6.96589">
        <ele>1620.400024</ele>
        <time>2011-10-09T08:53:00Z</time>
      </trkpt>
      <trkpt lat="44.0579" lon="6.966">
        <ele>1619.800049</ele>
        <time>2011-10-09T08:53:04Z</time>
      </trkpt>
      <trkpt lat="44.05788" lon="6.96611">
        <ele>1618.599976</ele>
        <time>2011-10-09T08:53:08Z</time>
      </trkpt>
      <trkpt lat="44.05784" lon="6.96628">
        <ele>1617.400024</ele>
        <time>2011-10-09T08:53:15Z</time>
      </trkpt>
      <trkpt lat="44.0578" lon="6.96647">
        <ele>1615.599976</ele>
        <time>2011-10-09T08:53:21Z</time>
      </trkpt>
      <trkpt lat="44.05778" lon="6.96653">
        <ele>1615.199951</ele>
        <time>2011-10-09T08:53:23Z</time>
      </trkpt>
      <trkpt lat="44.05775" lon="6.96659">
        <ele>1615.199951</ele>
        <time>2011-10-09T08:53:25Z</time>
      </trkpt>
      <trkpt lat="44.05773" lon="6.96665">
        <ele>1615</ele>
        <time>2011-10-09T08:53:27Z</time>
      </trkpt>
      <trkpt lat="44.05762" lon="6.96687">
        <ele>1613.599976</ele>
        <time>2011-10-09T08:53:36Z</time>
      </trkpt>
      <trkpt lat="44.05758" lon="6.96691">
        <ele>1613.800049</ele>
        <time>2011-10-09T08:53:38Z</time>
      </trkpt>
      <trkpt lat="44.05754" lon="6.96694">
        <ele>1614</ele>
        <time>2011-10-09T08:53:40Z</time>
      </trkpt>
      <trkpt lat="44.0575" lon="6.96697">
        <ele>1614.400024</ele>
        <time>2011-10-09T08:53:42Z</time>
      </trkpt>
      <trkpt lat="44.0574" lon="6.96702">
        <ele>1613.400024</ele>
        <time>2011-10-09T08:53:47Z</time>
      </trkpt>
      <trkpt lat="44.05723" lon="6.96706">
        <ele>1612.800049</ele>
        <time>2011-10-09T08:53:56Z</time>
      </trkpt>
      <trkpt lat="44.05714" lon="6.96705">
        <ele>1613.199951</ele>
        <time>2011-10-09T08:54:00Z</time>
      </trkpt>
      <trkpt lat="44.0571" lon="6.96704">
        <ele>1614</ele>
        <time>2011-10-09T08:54:02Z</time>
      </trkpt>
      <trkpt lat="44.05705" lon="6.96702">
        <ele>1615</ele>
        <time>2011-10-09T08:54:04Z</time>
      </trkpt>
      <trkpt lat="44.05692" lon="6.96695">
        <ele>1618.599976</ele>
        <time>2011-10-09T08:54:10Z</time>
      </trkpt>
      <trkpt lat="44.05684" lon="6.96691">
        <ele>1621.400024</ele>
        <time>2011-10-09T08:54:14Z</time>
      </trkpt>
      <trkpt lat="44.05676" lon="6.96687">
        <ele>1623.800049</ele>
        <time>2011-10-09T08:54:18Z</time>
      </trkpt>
      <trkpt lat="44.05664" lon="6.96684">
        <ele>1626.400024</ele>
        <time>2011-10-09T08:54:24Z</time>
      </trkpt>
      <trkpt lat="44.05656" lon="6.96683">
        <ele>1627.199951</ele>
        <time>2011-10-09T08:54:28Z</time>
      </trkpt>
      <trkpt lat="44.05649" lon="6.96682">
        <ele>1627.800049</ele>
        <time>2011-10-09T08:54:32Z</time>
      </trkpt>
      <trkpt lat="44.05637" lon="6.96685">
        <ele>1626.599976</ele>
        <time>2011-10-09T08:54:38Z</time>
      </trkpt>
      <trkpt lat="44.05628" lon="6.96686">
        <ele>1626.599976</ele>
        <time>2011-10-09T08:54:42Z</time>
      </trkpt>
      <trkpt lat="44.05621" lon="6.96686">
        <ele>1627</ele>
        <time>2011-10-09T08:54:46Z</time>
      </trkpt>
      <trkpt lat="44.05613" lon="6.96686">
        <ele>1627.199951</ele>
        <time>2011-10-09T08:54:51Z</time>
      </trkpt>
      <trkpt lat="44.05607" lon="6.96688">
        <ele>1626.599976</ele>
        <time>2011-10-09T08:54:55Z</time>
      </trkpt>
      <trkpt lat="44.05599" lon="6.96687">
        <ele>1627</ele>
        <time>2011-10-09T08:54:59Z</time>
      </trkpt>
      <trkpt lat="44.05588" lon="6.96683">
        <ele>1629.400024</ele>
        <time>2011-10-09T08:55:04Z</time>
      </trkpt>
      <trkpt lat="44.05582" lon="6.96677">
        <ele>1632.199951</ele>
        <time>2011-10-09T08:55:08Z</time>
      </trkpt>
      <trkpt lat="44.05576" lon="6.96673">
        <ele>1633.599976</ele>
        <time>2011-10-09T08:55:12Z</time>
      </trkpt>
      <trkpt lat="44.05569" lon="6.96673">
        <ele>1632.800049</ele>
        <time>2011-10-09T08:55:16Z</time>
      </trkpt>
      <trkpt lat="44.05561" lon="6.96677">
        <ele>1630</ele>
        <time>2011-10-09T08:55:20Z</time>
      </trkpt>
      <trkpt lat="44.05556" lon="6.96682">
        <ele>1627.199951</ele>
        <time>2011-10-09T08:55:24Z</time>
      </trkpt>
      <trkpt lat="44.0555" lon="6.96687">
        <ele>1624.400024</ele>
        <time>2011-10-09T08:55:29Z</time>
      </trkpt>
      <trkpt lat="44.05546" lon="6.96692">
        <ele>1621.800049</ele>
        <time>2011-10-09T08:55:36Z</time>
      </trkpt>
      <trkpt lat="44.0554" lon="6.96694">
        <ele>1620</ele>
        <time>2011-10-09T08:55:41Z</time>
      </trkpt>
      <trkpt lat="44.05533" lon="6.96694">
        <ele>1619.599976</ele>
        <time>2011-10-09T08:55:45Z</time>
      </trkpt>
      <trkpt lat="44.05528" lon="6.96692">
        <ele>1620</ele>
        <time>2011-10-09T08:55:48Z</time>
      </trkpt>
      <trkpt lat="44.05522" lon="6.96683">
        <ele>1624</ele>
        <time>2011-10-09T08:55:54Z</time>
      </trkpt>
      <trkpt lat="44.05512" lon="6.96668">
        <ele>1630.400024</ele>
        <time>2011-10-09T08:56:02Z</time>
      </trkpt>
      <trkpt lat="44.05507" lon="6.96661">
        <ele>1633.800049</ele>
        <time>2011-10-09T08:56:06Z</time>
      </trkpt>
      <trkpt lat="44.05504" lon="6.96655">
        <ele>1637</ele>
        <time>2011-10-09T08:56:09Z</time>
      </trkpt>
      <trkpt lat="44.05498" lon="6.96646">
        <ele>1641.599976</ele>
        <time>2011-10-09T08:56:13Z</time>
      </trkpt>
      <trkpt lat="44.05493" lon="6.96642">
        <ele>1643.199951</ele>
        <time>2011-10-09T08:56:15Z</time>
      </trkpt>
      <trkpt lat="44.05488" lon="6.96637">
        <ele>1645.400024</ele>
        <time>2011-10-09T08:56:17Z</time>
      </trkpt>
      <trkpt lat="44.0547" lon="6.9662">
        <ele>1652</ele>
        <time>2011-10-09T08:56:23Z</time>
      </trkpt>
      <trkpt lat="44.05456" lon="6.96613">
        <ele>1653.599976</ele>
        <time>2011-10-09T08:56:26Z</time>
      </trkpt>
      <trkpt lat="44.05442" lon="6.96609">
        <ele>1653.599976</ele>
        <time>2011-10-09T08:56:27Z</time>
      </trkpt>
      <trkpt lat="44.05431" lon="6.966">
        <ele>1656.400024</ele>
        <time>2011-10-09T08:56:29Z</time>
      </trkpt>
      <trkpt lat="44.05424" lon="6.96599">
        <ele>1655.599976</ele>
        <time>2011-10-09T08:56:30Z</time>
      </trkpt>
      <trkpt lat="44.0542" lon="6.966">
        <ele>1654.400024</ele>
        <time>2011-10-09T08:56:31Z</time>
      </trkpt>
      <trkpt lat="44.05409" lon="6.96601">
        <ele>1654.800049</ele>
        <time>2011-10-09T08:56:33Z</time>
      </trkpt>
      <trkpt lat="44.05403" lon="6.96607">
        <ele>1652.800049</ele>
        <time>2011-10-09T08:56:35Z</time>
      </trkpt>
      <trkpt lat="44.05398" lon="6.96611">
        <ele>1651.599976</ele>
        <time>2011-10-09T08:56:38Z</time>
      </trkpt>
      <trkpt lat="44.05393" lon="6.96613">
        <ele>1651.599976</ele>
        <time>2011-10-09T08:56:43Z</time>
      </trkpt>
      <trkpt lat="44.05388" lon="6.96616">
        <ele>1650.599976</ele>
        <time>2011-10-09T08:56:45Z</time>
      </trkpt>
      <trkpt lat="44.05383" lon="6.96621">
        <ele>1648.599976</ele>
        <time>2011-10-09T08:56:48Z</time>
      </trkpt>
      <trkpt lat="44.05377" lon="6.96627">
        <ele>1646.599976</ele>
        <time>2011-10-09T08:56:51Z</time>
      </trkpt>
      <trkpt lat="44.0537" lon="6.96631">
        <ele>1645.199951</ele>
        <time>2011-10-09T08:56:54Z</time>
      </trkpt>
      <trkpt lat="44.05364" lon="6.96635">
        <ele>1644.199951</ele>
        <time>2011-10-09T08:56:56Z</time>
      </trkpt>
      <trkpt lat="44.05358" lon="6.96639">
        <ele>1642.599976</ele>
        <time>2011-10-09T08:56:58Z</time>
      </trkpt>
      <trkpt lat="44.05353" lon="6.96643">
        <ele>1641.199951</ele>
        <time>2011-10-09T08:57:00Z</time>
      </trkpt>
      <trkpt lat="44.05331" lon="6.96652">
        <ele>1638.400024</ele>
        <time>2011-10-09T08:57:08Z</time>
      </trkpt>
      <trkpt lat="44.05324" lon="6.96654">
        <ele>1636</ele>
        <time>2011-10-09T08:57:11Z</time>
      </trkpt>
      <trkpt lat="44.05318" lon="6.96657">
        <ele>1633.400024</ele>
        <time>2011-10-09T08:57:19Z</time>
      </trkpt>
      <trkpt lat="44.05297" lon="6.96654">
        <ele>1631.800049</ele>
        <time>2011-10-09T08:57:28Z</time>
      </trkpt>
      <trkpt lat="44.05278" lon="6.96642">
        <ele>1635.599976</ele>
        <time>2011-10-09T08:57:37Z</time>
      </trkpt>
      <trkpt lat="44.05272" lon="6.96634">
        <ele>1638.400024</ele>
        <time>2011-10-09T08:57:41Z</time>
      </trkpt>
      <trkpt lat="44.05265" lon="6.96627">
        <ele>1640.800049</ele>
        <time>2011-10-09T08:57:45Z</time>
      </trkpt>
      <trkpt lat="44.05255" lon="6.96611">
        <ele>1647</ele>
        <time>2011-10-09T08:57:53Z</time>
      </trkpt>
      <trkpt lat="44.05253" lon="6.96604">
        <ele>1649.599976</ele>
        <time>2011-10-09T08:57:55Z</time>
      </trkpt>
      <trkpt lat="44.05248" lon="6.96596">
        <ele>1652.599976</ele>
        <time>2011-10-09T08:57:57Z</time>
      </trkpt>
      <trkpt lat="44.05242" lon="6.96587">
        <ele>1655.800049</ele>
        <time>2011-10-09T08:57:59Z</time>
      </trkpt>
      <trkpt lat="44.05234" lon="6.96579">
        <ele>1658.599976</ele>
        <time>2011-10-09T08:58:01Z</time>
      </trkpt>
      <trkpt lat="44.05229" lon="6.96576">
        <ele>1659.800049</ele>
        <time>2011-10-09T08:58:02Z</time>
      </trkpt>
      <trkpt lat="44.05213" lon="6.96569">
        <ele>1661</ele>
        <time>2011-10-09T08:58:05Z</time>
      </trkpt>
      <trkpt lat="44.05207" lon="6.9657">
        <ele>1659.800049</ele>
        <time>2011-10-09T08:58:06Z</time>
      </trkpt>
      <trkpt lat="44.05194" lon="6.96574">
        <ele>1655.599976</ele>
        <time>2011-10-09T08:58:08Z</time>
      </trkpt>
      <trkpt lat="44.05176" lon="6.96586">
        <ele>1646</ele>
        <time>2011-10-09T08:58:11Z</time>
      </trkpt>
      <trkpt lat="44.0517" lon="6.9659">
        <ele>1643.199951</ele>
        <time>2011-10-09T08:58:12Z</time>
      </trkpt>
      <trkpt lat="44.05164" lon="6.96591">
        <ele>1641.400024</ele>
        <time>2011-10-09T08:58:13Z</time>
      </trkpt>
      <trkpt lat="44.05158" lon="6.96592">
        <ele>1640.800049</ele>
        <time>2011-10-09T08:58:14Z</time>
      </trkpt>
      <trkpt lat="44.05145" lon="6.96592">
        <ele>1640.599976</ele>
        <time>2011-10-09T08:58:16Z</time>
      </trkpt>
      <trkpt lat="44.05131" lon="6.96592">
        <ele>1639.800049</ele>
        <time>2011-10-09T08:58:18Z</time>
      </trkpt>
      <trkpt lat="44.05124" lon="6.96594">
        <ele>1638.599976</ele>
        <time>2011-10-09T08:58:19Z</time>
      </trkpt>
      <trkpt lat="44.0511" lon="6.966">
        <ele>1634.599976</ele>
        <time>2011-10-09T08:58:21Z</time>
      </trkpt>
      <trkpt lat="44.05096" lon="6.96607">
        <ele>1630.400024</ele>
        <time>2011-10-09T08:58:23Z</time>
      </trkpt>
      <trkpt lat="44.05089" lon="6.96609">
        <ele>1629</ele>
        <time>2011-10-09T08:58:24Z</time>
      </trkpt>
      <trkpt lat="44.05075" lon="6.96612">
        <ele>1624.199951</ele>
        <time>2011-10-09T08:58:26Z</time>
      </trkpt>
      <trkpt lat="44.05067" lon="6.96614">
        <ele>1621</ele>
        <time>2011-10-09T08:58:27Z</time>
      </trkpt>
      <trkpt lat="44.05052" lon="6.96616">
        <ele>1614.800049</ele>
        <time>2011-10-09T08:58:29Z</time>
      </trkpt>
      <trkpt lat="44.05045" lon="6.96617">
        <ele>1612.199951</ele>
        <time>2011-10-09T08:58:30Z</time>
      </trkpt>
      <trkpt lat="44.05037" lon="6.96617">
        <ele>1609.800049</ele>
        <time>2011-10-09T08:58:31Z</time>
      </trkpt>
      <trkpt lat="44.05023" lon="6.96615">
        <ele>1606</ele>
        <time>2011-10-09T08:58:33Z</time>
      </trkpt>
      <trkpt lat="44.05017" lon="6.96613">
        <ele>1604.599976</ele>
        <time>2011-10-09T08:58:34Z</time>
      </trkpt>
      <trkpt lat="44.05012" lon="6.96611">
        <ele>1603.400024</ele>
        <time>2011-10-09T08:58:35Z</time>
      </trkpt>
      <trkpt lat="44.05002" lon="6.96606">
        <ele>1601.199951</ele>
        <time>2011-10-09T08:58:38Z</time>
      </trkpt>
      <trkpt lat="44.05001" lon="6.96598">
        <ele>1602.800049</ele>
        <time>2011-10-09T09:07:45Z</time>
      </trkpt>
      <trkpt lat="44.05" lon="6.96577">
        <ele>1606.800049</ele>
        <time>2011-10-09T09:07:49Z</time>
      </trkpt>
      <trkpt lat="44.05" lon="6.9657">
        <ele>1607.800049</ele>
        <time>2011-10-09T09:07:50Z</time>
      </trkpt>
      <trkpt lat="44.04999" lon="6.96542">
        <ele>1611.199951</ele>
        <time>2011-10-09T09:07:52Z</time>
      </trkpt>
      <trkpt lat="44.04995" lon="6.96527">
        <ele>1611.199951</ele>
        <time>2011-10-09T09:07:54Z</time>
      </trkpt>
      <trkpt lat="44.04992" lon="6.96511">
        <ele>1611</ele>
        <time>2011-10-09T09:07:56Z</time>
      </trkpt>
      <trkpt lat="44.04989" lon="6.96494">
        <ele>1610.800049</ele>
        <time>2011-10-09T09:07:58Z</time>
      </trkpt>
      <trkpt lat="44.04988" lon="6.96486">
        <ele>1610.800049</ele>
        <time>2011-10-09T09:07:59Z</time>
      </trkpt>
      <trkpt lat="44.04988" lon="6.96477">
        <ele>1611.599976</ele>
        <time>2011-10-09T09:08:00Z</time>
      </trkpt>
      <trkpt lat="44.04987" lon="6.96457">
        <ele>1613</ele>
        <time>2011-10-09T09:08:02Z</time>
      </trkpt>
      <trkpt lat="44.04985" lon="6.96447">
        <ele>1612.599976</ele>
        <time>2011-10-09T09:08:03Z</time>
      </trkpt>
      <trkpt lat="44.04982" lon="6.96438">
        <ele>1611.199951</ele>
        <time>2011-10-09T09:08:04Z</time>
      </trkpt>
      <trkpt lat="44.04973" lon="6.9642">
        <ele>1606.400024</ele>
        <time>2011-10-09T09:08:06Z</time>
      </trkpt>
      <trkpt lat="44.04969" lon="6.96411">
        <ele>1604</ele>
        <time>2011-10-09T09:08:07Z</time>
      </trkpt>
      <trkpt lat="44.04959" lon="6.96381">
        <ele>1599.199951</ele>
        <time>2011-10-09T09:08:10Z</time>
      </trkpt>
      <trkpt lat="44.04955" lon="6.96371">
        <ele>1597.599976</ele>
        <time>2011-10-09T09:08:11Z</time>
      </trkpt>
      <trkpt lat="44.04948" lon="6.96348">
        <ele>1594.800049</ele>
        <time>2011-10-09T09:08:13Z</time>
      </trkpt>
      <trkpt lat="44.04946" lon="6.96339">
        <ele>1594</ele>
        <time>2011-10-09T09:08:14Z</time>
      </trkpt>
      <trkpt lat="44.04942" lon="6.96319">
        <ele>1593.400024</ele>
        <time>2011-10-09T09:08:16Z</time>
      </trkpt>
      <trkpt lat="44.0494" lon="6.9631">
        <ele>1593.400024</ele>
        <time>2011-10-09T09:08:17Z</time>
      </trkpt>
      <trkpt lat="44.04939" lon="6.96301">
        <ele>1593.800049</ele>
        <time>2011-10-09T09:08:18Z</time>
      </trkpt>
      <trkpt lat="44.04939" lon="6.96293">
        <ele>1594.199951</ele>
        <time>2011-10-09T09:08:19Z</time>
      </trkpt>
      <trkpt lat="44.04939" lon="6.96285">
        <ele>1595.400024</ele>
        <time>2011-10-09T09:08:20Z</time>
      </trkpt>
      <trkpt lat="44.04939" lon="6.96276">
        <ele>1596.599976</ele>
        <time>2011-10-09T09:08:21Z</time>
      </trkpt>
      <trkpt lat="44.04937" lon="6.96259">
        <ele>1597</ele>
        <time>2011-10-09T09:08:23Z</time>
      </trkpt>
      <trkpt lat="44.04932" lon="6.9624">
        <ele>1595.400024</ele>
        <time>2011-10-09T09:08:25Z</time>
      </trkpt>
      <trkpt lat="44.04931" lon="6.9623">
        <ele>1595.199951</ele>
        <time>2011-10-09T09:08:26Z</time>
      </trkpt>
      <trkpt lat="44.04931" lon="6.9622">
        <ele>1595.800049</ele>
        <time>2011-10-09T09:08:27Z</time>
      </trkpt>
      <trkpt lat="44.04933" lon="6.96202">
        <ele>1598.599976</ele>
        <time>2011-10-09T09:08:29Z</time>
      </trkpt>
      <trkpt lat="44.04934" lon="6.96194">
        <ele>1599.400024</ele>
        <time>2011-10-09T09:08:30Z</time>
      </trkpt>
      <trkpt lat="44.04933" lon="6.96187">
        <ele>1599.599976</ele>
        <time>2011-10-09T09:08:31Z</time>
      </trkpt>
      <trkpt lat="44.04927" lon="6.96176">
        <ele>1596.599976</ele>
        <time>2011-10-09T09:08:33Z</time>
      </trkpt>
      <trkpt lat="44.04922" lon="6.96172">
        <ele>1594</ele>
        <time>2011-10-09T09:08:34Z</time>
      </trkpt>
      <trkpt lat="44.04918" lon="6.96168">
        <ele>1591.400024</ele>
        <time>2011-10-09T09:08:35Z</time>
      </trkpt>
      <trkpt lat="44.04909" lon="6.96158">
        <ele>1588.599976</ele>
        <time>2011-10-09T09:08:37Z</time>
      </trkpt>
      <trkpt lat="44.04906" lon="6.96152">
        <ele>1588</ele>
        <time>2011-10-09T09:08:38Z</time>
      </trkpt>
      <trkpt lat="44.04903" lon="6.96146">
        <ele>1587.800049</ele>
        <time>2011-10-09T09:08:39Z</time>
      </trkpt>
      <trkpt lat="44.04901" lon="6.96139">
        <ele>1587.800049</ele>
        <time>2011-10-09T09:08:40Z</time>
      </trkpt>
      <trkpt lat="44.04899" lon="6.96132">
        <ele>1588.199951</ele>
        <time>2011-10-09T09:08:41Z</time>
      </trkpt>
      <trkpt lat="44.04897" lon="6.96116">
        <ele>1590</ele>
        <time>2011-10-09T09:08:43Z</time>
      </trkpt>
      <trkpt lat="44.0489" lon="6.9609">
        <ele>1591.400024</ele>
        <time>2011-10-09T09:08:46Z</time>
      </trkpt>
      <trkpt lat="44.04887" lon="6.96082">
        <ele>1591.199951</ele>
        <time>2011-10-09T09:08:47Z</time>
      </trkpt>
      <trkpt lat="44.04875" lon="6.96056">
        <ele>1589.800049</ele>
        <time>2011-10-09T09:08:50Z</time>
      </trkpt>
      <trkpt lat="44.0487" lon="6.96048">
        <ele>1589</ele>
        <time>2011-10-09T09:08:51Z</time>
      </trkpt>
      <trkpt lat="44.04865" lon="6.96041">
        <ele>1587.800049</ele>
        <time>2011-10-09T09:08:52Z</time>
      </trkpt>
      <trkpt lat="44.04858" lon="6.96036">
        <ele>1585.800049</ele>
        <time>2011-10-09T09:08:53Z</time>
      </trkpt>
      <trkpt lat="44.04844" lon="6.96032">
        <ele>1579.400024</ele>
        <time>2011-10-09T09:08:55Z</time>
      </trkpt>
      <trkpt lat="44.04829" lon="6.96036">
        <ele>1572.599976</ele>
        <time>2011-10-09T09:08:57Z</time>
      </trkpt>
      <trkpt lat="44.04824" lon="6.96039">
        <ele>1570.199951</ele>
        <time>2011-10-09T09:08:58Z</time>
      </trkpt>
      <trkpt lat="44.04818" lon="6.96042">
        <ele>1568.199951</ele>
        <time>2011-10-09T09:08:59Z</time>
      </trkpt>
      <trkpt lat="44.04807" lon="6.96035">
        <ele>1566.400024</ele>
        <time>2011-10-09T09:09:02Z</time>
      </trkpt>
      <trkpt lat="44.04805" lon="6.96019">
        <ele>1568.800049</ele>
        <time>2011-10-09T09:09:04Z</time>
      </trkpt>
      <trkpt lat="44.04805" lon="6.96011">
        <ele>1570.400024</ele>
        <time>2011-10-09T09:09:05Z</time>
      </trkpt>
      <trkpt lat="44.04804" lon="6.95994">
        <ele>1573</ele>
        <time>2011-10-09T09:09:07Z</time>
      </trkpt>
      <trkpt lat="44.04803" lon="6.95986">
        <ele>1574.199951</ele>
        <time>2011-10-09T09:09:08Z</time>
      </trkpt>
      <trkpt lat="44.04805" lon="6.95961">
        <ele>1578.800049</ele>
        <time>2011-10-09T09:09:11Z</time>
      </trkpt>
      <trkpt lat="44.04805" lon="6.95954">
        <ele>1580</ele>
        <time>2011-10-09T09:09:12Z</time>
      </trkpt>
      <trkpt lat="44.04799" lon="6.95945">
        <ele>1579.599976</ele>
        <time>2011-10-09T09:09:14Z</time>
      </trkpt>
      <trkpt lat="44.04794" lon="6.95943">
        <ele>1578.199951</ele>
        <time>2011-10-09T09:09:15Z</time>
      </trkpt>
      <trkpt lat="44.04788" lon="6.95942">
        <ele>1576.400024</ele>
        <time>2011-10-09T09:09:16Z</time>
      </trkpt>
      <trkpt lat="44.04782" lon="6.9594">
        <ele>1575</ele>
        <time>2011-10-09T09:09:17Z</time>
      </trkpt>
      <trkpt lat="44.04777" lon="6.95938">
        <ele>1573.599976</ele>
        <time>2011-10-09T09:09:18Z</time>
      </trkpt>
      <trkpt lat="44.04768" lon="6.95932">
        <ele>1571.599976</ele>
        <time>2011-10-09T09:09:20Z</time>
      </trkpt>
      <trkpt lat="44.04751" lon="6.95929">
        <ele>1566.400024</ele>
        <time>2011-10-09T09:09:24Z</time>
      </trkpt>
      <trkpt lat="44.04741" lon="6.95923">
        <ele>1564.400024</ele>
        <time>2011-10-09T09:09:28Z</time>
      </trkpt>
      <trkpt lat="44.04735" lon="6.95908">
        <ele>1564</ele>
        <time>2011-10-09T09:09:33Z</time>
      </trkpt>
      <trkpt lat="44.04734" lon="6.95901">
        <ele>1563.599976</ele>
        <time>2011-10-09T09:09:38Z</time>
      </trkpt>
      <trkpt lat="44.04731" lon="6.95888">
        <ele>1562.800049</ele>
        <time>2011-10-09T09:09:50Z</time>
      </trkpt>
      <trkpt lat="44.04728" lon="6.95861">
        <ele>1562.400024</ele>
        <time>2011-10-09T09:09:54Z</time>
      </trkpt>
      <trkpt lat="44.04727" lon="6.95847">
        <ele>1562.599976</ele>
        <time>2011-10-09T09:09:56Z</time>
      </trkpt>
      <trkpt lat="44.04729" lon="6.95831">
        <ele>1563.400024</ele>
        <time>2011-10-09T09:09:58Z</time>
      </trkpt>
      <trkpt lat="44.04732" lon="6.95815">
        <ele>1564.199951</ele>
        <time>2011-10-09T09:10:00Z</time>
      </trkpt>
      <trkpt lat="44.04734" lon="6.95799">
        <ele>1565.400024</ele>
        <time>2011-10-09T09:10:02Z</time>
      </trkpt>
      <trkpt lat="44.04735" lon="6.95791">
        <ele>1565.800049</ele>
        <time>2011-10-09T09:10:03Z</time>
      </trkpt>
      <trkpt lat="44.04735" lon="6.95782">
        <ele>1565.800049</ele>
        <time>2011-10-09T09:10:04Z</time>
      </trkpt>
      <trkpt lat="44.04735" lon="6.95772">
        <ele>1565.599976</ele>
        <time>2011-10-09T09:10:05Z</time>
      </trkpt>
      <trkpt lat="44.04735" lon="6.95742">
        <ele>1566</ele>
        <time>2011-10-09T09:10:08Z</time>
      </trkpt>
      <trkpt lat="44.04737" lon="6.9572">
        <ele>1566.199951</ele>
        <time>2011-10-09T09:10:10Z</time>
      </trkpt>
      <trkpt lat="44.04736" lon="6.95708">
        <ele>1566</ele>
        <time>2011-10-09T09:10:11Z</time>
      </trkpt>
      <trkpt lat="44.04734" lon="6.95697">
        <ele>1565.400024</ele>
        <time>2011-10-09T09:10:12Z</time>
      </trkpt>
      <trkpt lat="44.0473" lon="6.95678">
        <ele>1563.800049</ele>
        <time>2011-10-09T09:10:14Z</time>
      </trkpt>
      <trkpt lat="44.04729" lon="6.95669">
        <ele>1563.199951</ele>
        <time>2011-10-09T09:10:15Z</time>
      </trkpt>
      <trkpt lat="44.04728" lon="6.9566">
        <ele>1564.199951</ele>
        <time>2011-10-09T09:10:16Z</time>
      </trkpt>
      <trkpt lat="44.04728" lon="6.95649">
        <ele>1566</ele>
        <time>2011-10-09T09:10:17Z</time>
      </trkpt>
      <trkpt lat="44.04723" lon="6.95624">
        <ele>1568.800049</ele>
        <time>2011-10-09T09:10:20Z</time>
      </trkpt>
      <trkpt lat="44.04716" lon="6.95616">
        <ele>1568.199951</ele>
        <time>2011-10-09T09:10:22Z</time>
      </trkpt>
      <trkpt lat="44.04704" lon="6.95599">
        <ele>1568.400024</ele>
        <time>2011-10-09T09:10:28Z</time>
      </trkpt>
      <trkpt lat="44.04697" lon="6.95585">
        <ele>1569.400024</ele>
        <time>2011-10-09T09:10:32Z</time>
      </trkpt>
      <trkpt lat="44.0469" lon="6.95579">
        <ele>1568.800049</ele>
        <time>2011-10-09T09:10:35Z</time>
      </trkpt>
      <trkpt lat="44.04684" lon="6.95576">
        <ele>1568</ele>
        <time>2011-10-09T09:10:37Z</time>
      </trkpt>
      <trkpt lat="44.04679" lon="6.95574">
        <ele>1567.199951</ele>
        <time>2011-10-09T09:10:39Z</time>
      </trkpt>
      <trkpt lat="44.04673" lon="6.95573">
        <ele>1566</ele>
        <time>2011-10-09T09:10:42Z</time>
      </trkpt>
      <trkpt lat="44.04666" lon="6.95569">
        <ele>1564.800049</ele>
        <time>2011-10-09T09:10:46Z</time>
      </trkpt>
      <trkpt lat="44.0466" lon="6.95566">
        <ele>1564.599976</ele>
        <time>2011-10-09T09:10:49Z</time>
      </trkpt>
      <trkpt lat="44.04655" lon="6.95558">
        <ele>1565</ele>
        <time>2011-10-09T09:10:53Z</time>
      </trkpt>
      <trkpt lat="44.04652" lon="6.9555">
        <ele>1565.800049</ele>
        <time>2011-10-09T09:10:57Z</time>
      </trkpt>
      <trkpt lat="44.0465" lon="6.95543">
        <ele>1566.800049</ele>
        <time>2011-10-09T09:11:01Z</time>
      </trkpt>
      <trkpt lat="44.04649" lon="6.95536">
        <ele>1567.800049</ele>
        <time>2011-10-09T09:11:05Z</time>
      </trkpt>
      <trkpt lat="44.04648" lon="6.95528">
        <ele>1569.599976</ele>
        <time>2011-10-09T09:11:09Z</time>
      </trkpt>
      <trkpt lat="44.04649" lon="6.95516">
        <ele>1572.199951</ele>
        <time>2011-10-09T09:11:14Z</time>
      </trkpt>
      <trkpt lat="44.04648" lon="6.95507">
        <ele>1573.800049</ele>
        <time>2011-10-09T09:11:18Z</time>
      </trkpt>
      <trkpt lat="44.04648" lon="6.95498">
        <ele>1575.800049</ele>
        <time>2011-10-09T09:11:23Z</time>
      </trkpt>
      <trkpt lat="44.04649" lon="6.95491">
        <ele>1577</ele>
        <time>2011-10-09T09:11:27Z</time>
      </trkpt>
      <trkpt lat="44.04648" lon="6.9548">
        <ele>1578.800049</ele>
        <time>2011-10-09T09:11:33Z</time>
      </trkpt>
      <trkpt lat="44.04647" lon="6.95472">
        <ele>1579.800049</ele>
        <time>2011-10-09T09:11:37Z</time>
      </trkpt>
      <trkpt lat="44.04646" lon="6.95464">
        <ele>1580.800049</ele>
        <time>2011-10-09T09:11:41Z</time>
      </trkpt>
      <trkpt lat="44.04641" lon="6.95459">
        <ele>1580.199951</ele>
        <time>2011-10-09T09:11:46Z</time>
      </trkpt>
      <trkpt lat="44.04636" lon="6.95457">
        <ele>1578.800049</ele>
        <time>2011-10-09T09:11:50Z</time>
      </trkpt>
      <trkpt lat="44.04629" lon="6.95458">
        <ele>1576.599976</ele>
        <time>2011-10-09T09:11:56Z</time>
      </trkpt>
      <trkpt lat="44.04624" lon="6.95454">
        <ele>1575.800049</ele>
        <time>2011-10-09T09:12:00Z</time>
      </trkpt>
      <trkpt lat="44.04622" lon="6.95448">
        <ele>1576</ele>
        <time>2011-10-09T09:12:04Z</time>
      </trkpt>
      <trkpt lat="44.0462" lon="6.95435">
        <ele>1577.800049</ele>
        <time>2011-10-09T09:12:10Z</time>
      </trkpt>
      <trkpt lat="44.04619" lon="6.95428">
        <ele>1578.599976</ele>
        <time>2011-10-09T09:12:13Z</time>
      </trkpt>
      <trkpt lat="44.04617" lon="6.95418">
        <ele>1579.599976</ele>
        <time>2011-10-09T09:12:17Z</time>
      </trkpt>
      <trkpt lat="44.04616" lon="6.95411">
        <ele>1580.400024</ele>
        <time>2011-10-09T09:12:21Z</time>
      </trkpt>
      <trkpt lat="44.04615" lon="6.95403">
        <ele>1581.800049</ele>
        <time>2011-10-09T09:12:25Z</time>
      </trkpt>
      <trkpt lat="44.04615" lon="6.95394">
        <ele>1583.199951</ele>
        <time>2011-10-09T09:12:29Z</time>
      </trkpt>
      <trkpt lat="44.04616" lon="6.95381">
        <ele>1586</ele>
        <time>2011-10-09T09:12:35Z</time>
      </trkpt>
      <trkpt lat="44.04619" lon="6.95372">
        <ele>1588.599976</ele>
        <time>2011-10-09T09:12:39Z</time>
      </trkpt>
      <trkpt lat="44.04621" lon="6.95363">
        <ele>1591</ele>
        <time>2011-10-09T09:12:43Z</time>
      </trkpt>
      <trkpt lat="44.04621" lon="6.95346">
        <ele>1594</ele>
        <time>2011-10-09T09:12:49Z</time>
      </trkpt>
      <trkpt lat="44.04619" lon="6.95338">
        <ele>1594.800049</ele>
        <time>2011-10-09T09:12:52Z</time>
      </trkpt>
      <trkpt lat="44.04618" lon="6.95328">
        <ele>1596.400024</ele>
        <time>2011-10-09T09:12:56Z</time>
      </trkpt>
      <trkpt lat="44.04616" lon="6.95318">
        <ele>1597.800049</ele>
        <time>2011-10-09T09:13:00Z</time>
      </trkpt>
      <trkpt lat="44.04604" lon="6.95302">
        <ele>1597.400024</ele>
        <time>2011-10-09T09:13:08Z</time>
      </trkpt>
      <trkpt lat="44.04598" lon="6.95299">
        <ele>1596.800049</ele>
        <time>2011-10-09T09:13:11Z</time>
      </trkpt>
      <trkpt lat="44.04592" lon="6.95293">
        <ele>1596.199951</ele>
        <time>2011-10-09T09:13:15Z</time>
      </trkpt>
      <trkpt lat="44.04575" lon="6.95293">
        <ele>1593.199951</ele>
        <time>2011-10-09T09:13:23Z</time>
      </trkpt>
      <trkpt lat="44.04563" lon="6.95303">
        <ele>1589.800049</ele>
        <time>2011-10-09T09:13:29Z</time>
      </trkpt>
      <trkpt lat="44.04549" lon="6.95312">
        <ele>1586.400024</ele>
        <time>2011-10-09T09:13:35Z</time>
      </trkpt>
      <trkpt lat="44.04544" lon="6.95314">
        <ele>1585.400024</ele>
        <time>2011-10-09T09:13:37Z</time>
      </trkpt>
      <trkpt lat="44.04539" lon="6.95316">
        <ele>1584.599976</ele>
        <time>2011-10-09T09:13:39Z</time>
      </trkpt>
      <trkpt lat="44.04534" lon="6.95315">
        <ele>1584.199951</ele>
        <time>2011-10-09T09:13:41Z</time>
      </trkpt>
      <trkpt lat="44.0453" lon="6.95313">
        <ele>1584.199951</ele>
        <time>2011-10-09T09:13:43Z</time>
      </trkpt>
      <trkpt lat="44.04521" lon="6.95297">
        <ele>1585.800049</ele>
        <time>2011-10-09T09:13:49Z</time>
      </trkpt>
      <trkpt lat="44.04517" lon="6.9528">
        <ele>1587.800049</ele>
        <time>2011-10-09T09:13:54Z</time>
      </trkpt>
      <trkpt lat="44.04516" lon="6.95274">
        <ele>1588.599976</ele>
        <time>2011-10-09T09:13:56Z</time>
      </trkpt>
      <trkpt lat="44.04514" lon="6.95267">
        <ele>1589.599976</ele>
        <time>2011-10-09T09:13:58Z</time>
      </trkpt>
      <trkpt lat="44.04514" lon="6.9526">
        <ele>1590.599976</ele>
        <time>2011-10-09T09:14:00Z</time>
      </trkpt>
      <trkpt lat="44.04515" lon="6.95253">
        <ele>1591.599976</ele>
        <time>2011-10-09T09:14:02Z</time>
      </trkpt>
      <trkpt lat="44.04518" lon="6.95224">
        <ele>1596</ele>
        <time>2011-10-09T09:14:10Z</time>
      </trkpt>
      <trkpt lat="44.04518" lon="6.95212">
        <ele>1597.599976</ele>
        <time>2011-10-09T09:14:13Z</time>
      </trkpt>
      <trkpt lat="44.04517" lon="6.95204">
        <ele>1598.400024</ele>
        <time>2011-10-09T09:14:15Z</time>
      </trkpt>
      <trkpt lat="44.04516" lon="6.95196">
        <ele>1599.199951</ele>
        <time>2011-10-09T09:14:17Z</time>
      </trkpt>
      <trkpt lat="44.04515" lon="6.95189">
        <ele>1599.800049</ele>
        <time>2011-10-09T09:14:19Z</time>
      </trkpt>
      <trkpt lat="44.04507" lon="6.95167">
        <ele>1600</ele>
        <time>2011-10-09T09:14:25Z</time>
      </trkpt>
      <trkpt lat="44.04494" lon="6.95144">
        <ele>1600</ele>
        <time>2011-10-09T09:14:33Z</time>
      </trkpt>
      <trkpt lat="44.04482" lon="6.95129">
        <ele>1599.199951</ele>
        <time>2011-10-09T09:14:39Z</time>
      </trkpt>
      <trkpt lat="44.04478" lon="6.95124">
        <ele>1598.800049</ele>
        <time>2011-10-09T09:14:41Z</time>
      </trkpt>
      <trkpt lat="44.04475" lon="6.95119">
        <ele>1598.599976</ele>
        <time>2011-10-09T09:14:43Z</time>
      </trkpt>
      <trkpt lat="44.04472" lon="6.95114">
        <ele>1598.800049</ele>
        <time>2011-10-09T09:14:45Z</time>
      </trkpt>
      <trkpt lat="44.0447" lon="6.95108">
        <ele>1599.199951</ele>
        <time>2011-10-09T09:14:47Z</time>
      </trkpt>
      <trkpt lat="44.04461" lon="6.9507">
        <ele>1604.599976</ele>
        <time>2011-10-09T09:14:58Z</time>
      </trkpt>
      <trkpt lat="44.04455" lon="6.95049">
        <ele>1608</ele>
        <time>2011-10-09T09:15:04Z</time>
      </trkpt>
      <trkpt lat="44.04438" lon="6.95031">
        <ele>1607.599976</ele>
        <time>2011-10-09T09:15:11Z</time>
      </trkpt>
      <trkpt lat="44.04434" lon="6.95026">
        <ele>1608</ele>
        <time>2011-10-09T09:15:13Z</time>
      </trkpt>
      <trkpt lat="44.04431" lon="6.9502">
        <ele>1608.400024</ele>
        <time>2011-10-09T09:15:15Z</time>
      </trkpt>
      <trkpt lat="44.04428" lon="6.95015">
        <ele>1609</ele>
        <time>2011-10-09T09:15:17Z</time>
      </trkpt>
      <trkpt lat="44.04424" lon="6.95009">
        <ele>1609.400024</ele>
        <time>2011-10-09T09:15:19Z</time>
      </trkpt>
      <trkpt lat="44.04421" lon="6.95004">
        <ele>1610</ele>
        <time>2011-10-09T09:15:21Z</time>
      </trkpt>
      <trkpt lat="44.04418" lon="6.94999">
        <ele>1610.599976</ele>
        <time>2011-10-09T09:15:23Z</time>
      </trkpt>
      <trkpt lat="44.04414" lon="6.94994">
        <ele>1611.199951</ele>
        <time>2011-10-09T09:15:25Z</time>
      </trkpt>
      <trkpt lat="44.04411" lon="6.94989">
        <ele>1611.800049</ele>
        <time>2011-10-09T09:15:27Z</time>
      </trkpt>
      <trkpt lat="44.04408" lon="6.94984">
        <ele>1612.199951</ele>
        <time>2011-10-09T09:15:29Z</time>
      </trkpt>
      <trkpt lat="44.04399" lon="6.94971">
        <ele>1613.800049</ele>
        <time>2011-10-09T09:15:34Z</time>
      </trkpt>
      <trkpt lat="44.04396" lon="6.94965">
        <ele>1614.599976</ele>
        <time>2011-10-09T09:15:36Z</time>
      </trkpt>
      <trkpt lat="44.04394" lon="6.94959">
        <ele>1615.599976</ele>
        <time>2011-10-09T09:15:38Z</time>
      </trkpt>
      <trkpt lat="44.04391" lon="6.94954">
        <ele>1616.800049</ele>
        <time>2011-10-09T09:15:40Z</time>
      </trkpt>
      <trkpt lat="44.04389" lon="6.94948">
        <ele>1618</ele>
        <time>2011-10-09T09:15:42Z</time>
      </trkpt>
      <trkpt lat="44.04382" lon="6.94929">
        <ele>1621.400024</ele>
        <time>2011-10-09T09:15:48Z</time>
      </trkpt>
      <trkpt lat="44.04375" lon="6.9491">
        <ele>1624.400024</ele>
        <time>2011-10-09T09:15:54Z</time>
      </trkpt>
      <trkpt lat="44.04368" lon="6.94902">
        <ele>1624</ele>
        <time>2011-10-09T09:15:58Z</time>
      </trkpt>
      <trkpt lat="44.04362" lon="6.94903">
        <ele>1622</ele>
        <time>2011-10-09T09:16:00Z</time>
      </trkpt>
      <trkpt lat="44.04357" lon="6.94907">
        <ele>1619.599976</ele>
        <time>2011-10-09T09:16:02Z</time>
      </trkpt>
      <trkpt lat="44.0435" lon="6.94912">
        <ele>1616.199951</ele>
        <time>2011-10-09T09:16:05Z</time>
      </trkpt>
      <trkpt lat="44.04342" lon="6.94912">
        <ele>1613.599976</ele>
        <time>2011-10-09T09:16:09Z</time>
      </trkpt>
      <trkpt lat="44.04336" lon="6.94905">
        <ele>1612.800049</ele>
        <time>2011-10-09T09:16:13Z</time>
      </trkpt>
      <trkpt lat="44.04331" lon="6.94899">
        <ele>1613</ele>
        <time>2011-10-09T09:16:17Z</time>
      </trkpt>
      <trkpt lat="44.04324" lon="6.94889">
        <ele>1613.800049</ele>
        <time>2011-10-09T09:16:22Z</time>
      </trkpt>
      <trkpt lat="44.04319" lon="6.94882">
        <ele>1614.199951</ele>
        <time>2011-10-09T09:16:26Z</time>
      </trkpt>
      <trkpt lat="44.04314" lon="6.94874">
        <ele>1614.599976</ele>
        <time>2011-10-09T09:16:30Z</time>
      </trkpt>
      <trkpt lat="44.04309" lon="6.94867">
        <ele>1615.199951</ele>
        <time>2011-10-09T09:16:34Z</time>
      </trkpt>
      <trkpt lat="44.04305" lon="6.9486">
        <ele>1615.599976</ele>
        <time>2011-10-09T09:16:38Z</time>
      </trkpt>
      <trkpt lat="44.043" lon="6.94853">
        <ele>1615.800049</ele>
        <time>2011-10-09T09:16:42Z</time>
      </trkpt>
      <trkpt lat="44.04296" lon="6.94846">
        <ele>1616.199951</ele>
        <time>2011-10-09T09:16:46Z</time>
      </trkpt>
      <trkpt lat="44.0429" lon="6.94831">
        <ele>1617.199951</ele>
        <time>2011-10-09T09:16:53Z</time>
      </trkpt>
      <trkpt lat="44.0429" lon="6.94821">
        <ele>1617.199951</ele>
        <time>2011-10-09T09:16:57Z</time>
      </trkpt>
      <trkpt lat="44.04292" lon="6.94811">
        <ele>1617.800049</ele>
        <time>2011-10-09T09:17:01Z</time>
      </trkpt>
      <trkpt lat="44.04297" lon="6.94794">
        <ele>1619</ele>
        <time>2011-10-09T09:17:08Z</time>
      </trkpt>
      <trkpt lat="44.04301" lon="6.94784">
        <ele>1620</ele>
        <time>2011-10-09T09:17:12Z</time>
      </trkpt>
      <trkpt lat="44.04306" lon="6.94775">
        <ele>1621.400024</ele>
        <time>2011-10-09T09:17:16Z</time>
      </trkpt>
      <trkpt lat="44.0432" lon="6.94758">
        <ele>1625.800049</ele>
        <time>2011-10-09T09:17:24Z</time>
      </trkpt>
      <trkpt lat="44.04324" lon="6.94752">
        <ele>1627.199951</ele>
        <time>2011-10-09T09:17:26Z</time>
      </trkpt>
      <trkpt lat="44.04327" lon="6.94746">
        <ele>1627.599976</ele>
        <time>2011-10-09T09:17:28Z</time>
      </trkpt>
      <trkpt lat="44.0433" lon="6.94739">
        <ele>1627.400024</ele>
        <time>2011-10-09T09:17:30Z</time>
      </trkpt>
      <trkpt lat="44.04333" lon="6.94733">
        <ele>1627.199951</ele>
        <time>2011-10-09T09:17:32Z</time>
      </trkpt>
      <trkpt lat="44.04335" lon="6.94727">
        <ele>1627.199951</ele>
        <time>2011-10-09T09:17:34Z</time>
      </trkpt>
      <trkpt lat="44.04345" lon="6.94702">
        <ele>1627.599976</ele>
        <time>2011-10-09T09:17:42Z</time>
      </trkpt>
      <trkpt lat="44.04348" lon="6.94696">
        <ele>1627.800049</ele>
        <time>2011-10-09T09:17:44Z</time>
      </trkpt>
      <trkpt lat="44.04351" lon="6.94689">
        <ele>1628</ele>
        <time>2011-10-09T09:17:46Z</time>
      </trkpt>
      <trkpt lat="44.04353" lon="6.94683">
        <ele>1628.199951</ele>
        <time>2011-10-09T09:17:48Z</time>
      </trkpt>
      <trkpt lat="44.04356" lon="6.94676">
        <ele>1628.400024</ele>
        <time>2011-10-09T09:17:50Z</time>
      </trkpt>
      <trkpt lat="44.04366" lon="6.9465">
        <ele>1628.800049</ele>
        <time>2011-10-09T09:17:58Z</time>
      </trkpt>
      <trkpt lat="44.04376" lon="6.9462">
        <ele>1628.800049</ele>
        <time>2011-10-09T09:18:06Z</time>
      </trkpt>
      <trkpt lat="44.04381" lon="6.94612">
        <ele>1629.400024</ele>
        <time>2011-10-09T09:18:09Z</time>
      </trkpt>
      <trkpt lat="44.04385" lon="6.94608">
        <ele>1630.400024</ele>
        <time>2011-10-09T09:18:11Z</time>
      </trkpt>
      <trkpt lat="44.04389" lon="6.94606">
        <ele>1631.800049</ele>
        <time>2011-10-09T09:18:13Z</time>
      </trkpt>
      <trkpt lat="44.04394" lon="6.94604">
        <ele>1633.199951</ele>
        <time>2011-10-09T09:18:15Z</time>
      </trkpt>
      <trkpt lat="44.04399" lon="6.946">
        <ele>1634.599976</ele>
        <time>2011-10-09T09:18:17Z</time>
      </trkpt>
      <trkpt lat="44.04406" lon="6.94578">
        <ele>1635.599976</ele>
        <time>2011-10-09T09:18:24Z</time>
      </trkpt>
      <trkpt lat="44.0441" lon="6.94568">
        <ele>1638.800049</ele>
        <time>2011-10-09T09:18:28Z</time>
      </trkpt>
      <trkpt lat="44.04414" lon="6.9456">
        <ele>1641.199951</ele>
        <time>2011-10-09T09:18:31Z</time>
      </trkpt>
      <trkpt lat="44.04415" lon="6.9455">
        <ele>1643</ele>
        <time>2011-10-09T09:18:35Z</time>
      </trkpt>
      <trkpt lat="44.0441" lon="6.94539">
        <ele>1642.800049</ele>
        <time>2011-10-09T09:18:40Z</time>
      </trkpt>
      <trkpt lat="44.04406" lon="6.94534">
        <ele>1642</ele>
        <time>2011-10-09T09:18:42Z</time>
      </trkpt>
      <trkpt lat="44.04399" lon="6.9453">
        <ele>1640</ele>
        <time>2011-10-09T09:18:46Z</time>
      </trkpt>
      <trkpt lat="44.04395" lon="6.94523">
        <ele>1639.599976</ele>
        <time>2011-10-09T09:18:50Z</time>
      </trkpt>
      <trkpt lat="44.04393" lon="6.94514">
        <ele>1640</ele>
        <time>2011-10-09T09:18:54Z</time>
      </trkpt>
      <trkpt lat="44.04391" lon="6.94506">
        <ele>1640.400024</ele>
        <time>2011-10-09T09:18:58Z</time>
      </trkpt>
      <trkpt lat="44.04388" lon="6.94497">
        <ele>1641.199951</ele>
        <time>2011-10-09T09:19:03Z</time>
      </trkpt>
      <trkpt lat="44.04386" lon="6.94489">
        <ele>1642.400024</ele>
        <time>2011-10-09T09:19:07Z</time>
      </trkpt>
      <trkpt lat="44.04383" lon="6.94481">
        <ele>1643.400024</ele>
        <time>2011-10-09T09:19:12Z</time>
      </trkpt>
      <trkpt lat="44.0438" lon="6.94474">
        <ele>1644</ele>
        <time>2011-10-09T09:19:16Z</time>
      </trkpt>
      <trkpt lat="44.04377" lon="6.94466">
        <ele>1644.599976</ele>
        <time>2011-10-09T09:19:21Z</time>
      </trkpt>
      <trkpt lat="44.04373" lon="6.94458">
        <ele>1644.800049</ele>
        <time>2011-10-09T09:19:26Z</time>
      </trkpt>
      <trkpt lat="44.0437" lon="6.94453">
        <ele>1645.199951</ele>
        <time>2011-10-09T09:19:30Z</time>
      </trkpt>
      <trkpt lat="44.04368" lon="6.94446">
        <ele>1646</ele>
        <time>2011-10-09T09:19:34Z</time>
      </trkpt>
      <trkpt lat="44.04367" lon="6.94438">
        <ele>1647.199951</ele>
        <time>2011-10-09T09:19:38Z</time>
      </trkpt>
      <trkpt lat="44.04365" lon="6.94431">
        <ele>1648.199951</ele>
        <time>2011-10-09T09:19:42Z</time>
      </trkpt>
      <trkpt lat="44.04364" lon="6.94424">
        <ele>1649.400024</ele>
        <time>2011-10-09T09:19:46Z</time>
      </trkpt>
      <trkpt lat="44.04364" lon="6.94409">
        <ele>1651.400024</ele>
        <time>2011-10-09T09:19:55Z</time>
      </trkpt>
      <trkpt lat="44.04365" lon="6.9439">
        <ele>1653.599976</ele>
        <time>2011-10-09T09:20:03Z</time>
      </trkpt>
      <trkpt lat="44.04365" lon="6.94364">
        <ele>1655.400024</ele>
        <time>2011-10-09T09:20:10Z</time>
      </trkpt>
      <trkpt lat="44.04364" lon="6.94327">
        <ele>1656.800049</ele>
        <time>2011-10-09T09:20:19Z</time>
      </trkpt>
      <trkpt lat="44.04364" lon="6.94319">
        <ele>1657</ele>
        <time>2011-10-09T09:20:21Z</time>
      </trkpt>
      <trkpt lat="44.04364" lon="6.94311">
        <ele>1657</ele>
        <time>2011-10-09T09:20:23Z</time>
      </trkpt>
      <trkpt lat="44.04365" lon="6.94304">
        <ele>1657.400024</ele>
        <time>2011-10-09T09:20:25Z</time>
      </trkpt>
      <trkpt lat="44.04365" lon="6.94295">
        <ele>1657.400024</ele>
        <time>2011-10-09T09:20:27Z</time>
      </trkpt>
      <trkpt lat="44.04363" lon="6.94265">
        <ele>1656.199951</ele>
        <time>2011-10-09T09:20:34Z</time>
      </trkpt>
      <trkpt lat="44.04363" lon="6.94257">
        <ele>1655.800049</ele>
        <time>2011-10-09T09:20:36Z</time>
      </trkpt>
      <trkpt lat="44.04363" lon="6.94249">
        <ele>1655.599976</ele>
        <time>2011-10-09T09:20:38Z</time>
      </trkpt>
      <trkpt lat="44.04363" lon="6.9424">
        <ele>1655.400024</ele>
        <time>2011-10-09T09:20:40Z</time>
      </trkpt>
      <trkpt lat="44.04364" lon="6.94231">
        <ele>1655.199951</ele>
        <time>2011-10-09T09:20:42Z</time>
      </trkpt>
      <trkpt lat="44.04369" lon="6.9419">
        <ele>1655.400024</ele>
        <time>2011-10-09T09:20:52Z</time>
      </trkpt>
      <trkpt lat="44.04371" lon="6.94183">
        <ele>1655.599976</ele>
        <time>2011-10-09T09:20:54Z</time>
      </trkpt>
      <trkpt lat="44.04373" lon="6.94176">
        <ele>1656.199951</ele>
        <time>2011-10-09T09:20:56Z</time>
      </trkpt>
      <trkpt lat="44.04378" lon="6.94163">
        <ele>1657.400024</ele>
        <time>2011-10-09T09:21:00Z</time>
      </trkpt>
      <trkpt lat="44.04386" lon="6.94148">
        <ele>1659.800049</ele>
        <time>2011-10-09T09:21:05Z</time>
      </trkpt>
      <trkpt lat="44.04391" lon="6.94142">
        <ele>1661</ele>
        <time>2011-10-09T09:21:07Z</time>
      </trkpt>
      <trkpt lat="44.04395" lon="6.94137">
        <ele>1662.599976</ele>
        <time>2011-10-09T09:21:09Z</time>
      </trkpt>
      <trkpt lat="44.044" lon="6.94132">
        <ele>1664.199951</ele>
        <time>2011-10-09T09:21:11Z</time>
      </trkpt>
      <trkpt lat="44.04405" lon="6.94127">
        <ele>1665.800049</ele>
        <time>2011-10-09T09:21:13Z</time>
      </trkpt>
      <trkpt lat="44.04409" lon="6.94122">
        <ele>1667.199951</ele>
        <time>2011-10-09T09:21:15Z</time>
      </trkpt>
      <trkpt lat="44.04407" lon="6.94105">
        <ele>1665.199951</ele>
        <time>2011-10-09T09:21:20Z</time>
      </trkpt>
      <trkpt lat="44.04401" lon="6.94095">
        <ele>1662.400024</ele>
        <time>2011-10-09T09:21:23Z</time>
      </trkpt>
      <trkpt lat="44.04401" lon="6.94088">
        <ele>1661.800049</ele>
        <time>2011-10-09T09:21:25Z</time>
      </trkpt>
      <trkpt lat="44.04402" lon="6.94081">
        <ele>1662</ele>
        <time>2011-10-09T09:21:27Z</time>
      </trkpt>
      <trkpt lat="44.04403" lon="6.94074">
        <ele>1662</ele>
        <time>2011-10-09T09:21:29Z</time>
      </trkpt>
      <trkpt lat="44.04402" lon="6.94057">
        <ele>1661.400024</ele>
        <time>2011-10-09T09:21:33Z</time>
      </trkpt>
      <trkpt lat="44.04405" lon="6.94033">
        <ele>1661.800049</ele>
        <time>2011-10-09T09:21:38Z</time>
      </trkpt>
      <trkpt lat="44.04409" lon="6.94004">
        <ele>1663</ele>
        <time>2011-10-09T09:21:44Z</time>
      </trkpt>
      <trkpt lat="44.04419" lon="6.93962">
        <ele>1661</ele>
        <time>2011-10-09T09:21:53Z</time>
      </trkpt>
      <trkpt lat="44.04429" lon="6.93936">
        <ele>1662.800049</ele>
        <time>2011-10-09T09:21:59Z</time>
      </trkpt>
      <trkpt lat="44.0444" lon="6.93924">
        <ele>1669</ele>
        <time>2011-10-09T09:22:03Z</time>
      </trkpt>
      <trkpt lat="44.04454" lon="6.93903">
        <ele>1674</ele>
        <time>2011-10-09T09:22:08Z</time>
      </trkpt>
      <trkpt lat="44.04454" lon="6.93886">
        <ele>1670.599976</ele>
        <time>2011-10-09T09:22:11Z</time>
      </trkpt>
      <trkpt lat="44.04456" lon="6.93833">
        <ele>1660</ele>
        <time>2011-10-09T09:22:18Z</time>
      </trkpt>
      <trkpt lat="44.04459" lon="6.93825">
        <ele>1659</ele>
        <time>2011-10-09T09:22:19Z</time>
      </trkpt>
      <trkpt lat="44.04482" lon="6.93781">
        <ele>1655.599976</ele>
        <time>2011-10-09T09:22:27Z</time>
      </trkpt>
      <trkpt lat="44.04486" lon="6.93775">
        <ele>1655.199951</ele>
        <time>2011-10-09T09:22:28Z</time>
      </trkpt>
      <trkpt lat="44.04491" lon="6.93769">
        <ele>1654.599976</ele>
        <time>2011-10-09T09:22:29Z</time>
      </trkpt>
      <trkpt lat="44.04503" lon="6.93756">
        <ele>1653.599976</ele>
        <time>2011-10-09T09:22:31Z</time>
      </trkpt>
      <trkpt lat="44.04515" lon="6.93741">
        <ele>1654</ele>
        <time>2011-10-09T09:22:33Z</time>
      </trkpt>
      <trkpt lat="44.04528" lon="6.93722">
        <ele>1653.800049</ele>
        <time>2011-10-09T09:22:35Z</time>
      </trkpt>
      <trkpt lat="44.04534" lon="6.93712">
        <ele>1653.199951</ele>
        <time>2011-10-09T09:22:36Z</time>
      </trkpt>
      <trkpt lat="44.0454" lon="6.93702">
        <ele>1652.199951</ele>
        <time>2011-10-09T09:22:37Z</time>
      </trkpt>
      <trkpt lat="44.04545" lon="6.93693">
        <ele>1651.400024</ele>
        <time>2011-10-09T09:22:38Z</time>
      </trkpt>
      <trkpt lat="44.0455" lon="6.93685">
        <ele>1650.400024</ele>
        <time>2011-10-09T09:22:39Z</time>
      </trkpt>
      <trkpt lat="44.04555" lon="6.93677">
        <ele>1649.400024</ele>
        <time>2011-10-09T09:22:40Z</time>
      </trkpt>
      <trkpt lat="44.04565" lon="6.93664">
        <ele>1649.199951</ele>
        <time>2011-10-09T09:22:42Z</time>
      </trkpt>
      <trkpt lat="44.0457" lon="6.93657">
        <ele>1651.599976</ele>
        <time>2011-10-09T09:22:43Z</time>
      </trkpt>
      <trkpt lat="44.04577" lon="6.93643">
        <ele>1655.599976</ele>
        <time>2011-10-09T09:22:45Z</time>
      </trkpt>
      <trkpt lat="44.04575" lon="6.93629">
        <ele>1657.400024</ele>
        <time>2011-10-09T09:22:47Z</time>
      </trkpt>
      <trkpt lat="44.0457" lon="6.93621">
        <ele>1657.199951</ele>
        <time>2011-10-09T09:22:49Z</time>
      </trkpt>
      <trkpt lat="44.04563" lon="6.93618">
        <ele>1656.199951</ele>
        <time>2011-10-09T09:22:51Z</time>
      </trkpt>
      <trkpt lat="44.04557" lon="6.93617">
        <ele>1655.199951</ele>
        <time>2011-10-09T09:22:53Z</time>
      </trkpt>
      <trkpt lat="44.04546" lon="6.93612">
        <ele>1653.599976</ele>
        <time>2011-10-09T09:22:58Z</time>
      </trkpt>
      <trkpt lat="44.04532" lon="6.93604">
        <ele>1652.199951</ele>
        <time>2011-10-09T09:23:05Z</time>
      </trkpt>
      <trkpt lat="44.04523" lon="6.93603">
        <ele>1650.800049</ele>
        <time>2011-10-09T09:23:09Z</time>
      </trkpt>
      <trkpt lat="44.04514" lon="6.93603">
        <ele>1648.800049</ele>
        <time>2011-10-09T09:23:13Z</time>
      </trkpt>
      <trkpt lat="44.04507" lon="6.93601">
        <ele>1647.800049</ele>
        <time>2011-10-09T09:23:16Z</time>
      </trkpt>
      <trkpt lat="44.04501" lon="6.93594">
        <ele>1648.400024</ele>
        <time>2011-10-09T09:23:20Z</time>
      </trkpt>
      <trkpt lat="44.04497" lon="6.93589">
        <ele>1648.599976</ele>
        <time>2011-10-09T09:23:22Z</time>
      </trkpt>
      <trkpt lat="44.0449" lon="6.93571">
        <ele>1651</ele>
        <time>2011-10-09T09:23:28Z</time>
      </trkpt>
      <trkpt lat="44.04489" lon="6.93564">
        <ele>1652.599976</ele>
        <time>2011-10-09T09:23:30Z</time>
      </trkpt>
      <trkpt lat="44.04489" lon="6.93557">
        <ele>1654.199951</ele>
        <time>2011-10-09T09:23:32Z</time>
      </trkpt>
      <trkpt lat="44.04488" lon="6.9355">
        <ele>1655.599976</ele>
        <time>2011-10-09T09:23:34Z</time>
      </trkpt>
      <trkpt lat="44.04487" lon="6.93543">
        <ele>1657.199951</ele>
        <time>2011-10-09T09:23:36Z</time>
      </trkpt>
      <trkpt lat="44.04486" lon="6.93537">
        <ele>1658.599976</ele>
        <time>2011-10-09T09:23:38Z</time>
      </trkpt>
      <trkpt lat="44.04483" lon="6.93517">
        <ele>1662.400024</ele>
        <time>2011-10-09T09:23:44Z</time>
      </trkpt>
      <trkpt lat="44.04481" lon="6.93511">
        <ele>1663.599976</ele>
        <time>2011-10-09T09:23:46Z</time>
      </trkpt>
      <trkpt lat="44.0448" lon="6.93505">
        <ele>1664.199951</ele>
        <time>2011-10-09T09:23:48Z</time>
      </trkpt>
      <trkpt lat="44.04477" lon="6.93499">
        <ele>1664.400024</ele>
        <time>2011-10-09T09:23:50Z</time>
      </trkpt>
      <trkpt lat="44.04474" lon="6.93494">
        <ele>1664.400024</ele>
        <time>2011-10-09T09:23:52Z</time>
      </trkpt>
      <trkpt lat="44.04469" lon="6.9347">
        <ele>1667.400024</ele>
        <time>2011-10-09T09:24:00Z</time>
      </trkpt>
      <trkpt lat="44.04466" lon="6.9346">
        <ele>1668.400024</ele>
        <time>2011-10-09T09:24:04Z</time>
      </trkpt>
      <trkpt lat="44.04461" lon="6.9345">
        <ele>1668.199951</ele>
        <time>2011-10-09T09:24:08Z</time>
      </trkpt>
      <trkpt lat="44.04459" lon="6.9344">
        <ele>1668.800049</ele>
        <time>2011-10-09T09:24:11Z</time>
      </trkpt>
      <trkpt lat="44.04456" lon="6.93433">
        <ele>1669.400024</ele>
        <time>2011-10-09T09:24:13Z</time>
      </trkpt>
      <trkpt lat="44.04454" lon="6.93426">
        <ele>1669.800049</ele>
        <time>2011-10-09T09:24:15Z</time>
      </trkpt>
      <trkpt lat="44.04452" lon="6.93419">
        <ele>1669.800049</ele>
        <time>2011-10-09T09:24:17Z</time>
      </trkpt>
      <trkpt lat="44.04449" lon="6.93412">
        <ele>1669.400024</ele>
        <time>2011-10-09T09:24:19Z</time>
      </trkpt>
      <trkpt lat="44.04445" lon="6.93393">
        <ele>1668.800049</ele>
        <time>2011-10-09T09:24:25Z</time>
      </trkpt>
      <trkpt lat="44.04443" lon="6.93379">
        <ele>1669.800049</ele>
        <time>2011-10-09T09:24:29Z</time>
      </trkpt>
      <trkpt lat="44.04443" lon="6.93372">
        <ele>1670.199951</ele>
        <time>2011-10-09T09:24:31Z</time>
      </trkpt>
      <trkpt lat="44.04442" lon="6.93365">
        <ele>1670</ele>
        <time>2011-10-09T09:24:33Z</time>
      </trkpt>
      <trkpt lat="44.0444" lon="6.93358">
        <ele>1670</ele>
        <time>2011-10-09T09:24:35Z</time>
      </trkpt>
      <trkpt lat="44.04439" lon="6.93348">
        <ele>1670.400024</ele>
        <time>2011-10-09T09:24:38Z</time>
      </trkpt>
      <trkpt lat="44.04437" lon="6.93336">
        <ele>1670.400024</ele>
        <time>2011-10-09T09:24:42Z</time>
      </trkpt>
      <trkpt lat="44.04436" lon="6.93329">
        <ele>1670.599976</ele>
        <time>2011-10-09T09:24:44Z</time>
      </trkpt>
      <trkpt lat="44.04436" lon="6.93322">
        <ele>1671</ele>
        <time>2011-10-09T09:24:46Z</time>
      </trkpt>
      <trkpt lat="44.04433" lon="6.93297">
        <ele>1672</ele>
        <time>2011-10-09T09:24:53Z</time>
      </trkpt>
      <trkpt lat="44.04434" lon="6.9329">
        <ele>1673.199951</ele>
        <time>2011-10-09T09:24:55Z</time>
      </trkpt>
      <trkpt lat="44.04435" lon="6.93283">
        <ele>1674.599976</ele>
        <time>2011-10-09T09:24:57Z</time>
      </trkpt>
      <trkpt lat="44.04436" lon="6.93276">
        <ele>1676.199951</ele>
        <time>2011-10-09T09:24:59Z</time>
      </trkpt>
      <trkpt lat="44.04437" lon="6.93268">
        <ele>1677.199951</ele>
        <time>2011-10-09T09:25:01Z</time>
      </trkpt>
      <trkpt lat="44.04431" lon="6.93247">
        <ele>1675.599976</ele>
        <time>2011-10-09T09:25:07Z</time>
      </trkpt>
      <trkpt lat="44.04428" lon="6.93241">
        <ele>1674.599976</ele>
        <time>2011-10-09T09:25:09Z</time>
      </trkpt>
      <trkpt lat="44.04426" lon="6.93235">
        <ele>1674.199951</ele>
        <time>2011-10-09T09:25:11Z</time>
      </trkpt>
      <trkpt lat="44.04424" lon="6.93227">
        <ele>1674</ele>
        <time>2011-10-09T09:25:13Z</time>
      </trkpt>
      <trkpt lat="44.04423" lon="6.93219">
        <ele>1674</ele>
        <time>2011-10-09T09:25:15Z</time>
      </trkpt>
      <trkpt lat="44.04421" lon="6.93212">
        <ele>1674</ele>
        <time>2011-10-09T09:25:17Z</time>
      </trkpt>
      <trkpt lat="44.04414" lon="6.93189">
        <ele>1674.400024</ele>
        <time>2011-10-09T09:25:24Z</time>
      </trkpt>
      <trkpt lat="44.04414" lon="6.93178">
        <ele>1675.599976</ele>
        <time>2011-10-09T09:25:27Z</time>
      </trkpt>
      <trkpt lat="44.04414" lon="6.93171">
        <ele>1676.599976</ele>
        <time>2011-10-09T09:25:29Z</time>
      </trkpt>
      <trkpt lat="44.04413" lon="6.93163">
        <ele>1677.400024</ele>
        <time>2011-10-09T09:25:31Z</time>
      </trkpt>
      <trkpt lat="44.04412" lon="6.93155">
        <ele>1678</ele>
        <time>2011-10-09T09:25:33Z</time>
      </trkpt>
      <trkpt lat="44.04407" lon="6.93127">
        <ele>1680.199951</ele>
        <time>2011-10-09T09:25:40Z</time>
      </trkpt>
      <trkpt lat="44.04398" lon="6.93112">
        <ele>1681.199951</ele>
        <time>2011-10-09T09:25:45Z</time>
      </trkpt>
      <trkpt lat="44.0439" lon="6.93098">
        <ele>1682</ele>
        <time>2011-10-09T09:25:50Z</time>
      </trkpt>
      <trkpt lat="44.04387" lon="6.93092">
        <ele>1682.400024</ele>
        <time>2011-10-09T09:25:52Z</time>
      </trkpt>
      <trkpt lat="44.04386" lon="6.93086">
        <ele>1682.599976</ele>
        <time>2011-10-09T09:25:54Z</time>
      </trkpt>
      <trkpt lat="44.04385" lon="6.93079">
        <ele>1683</ele>
        <time>2011-10-09T09:25:56Z</time>
      </trkpt>
      <trkpt lat="44.04383" lon="6.93072">
        <ele>1683.400024</ele>
        <time>2011-10-09T09:25:58Z</time>
      </trkpt>
      <trkpt lat="44.04378" lon="6.93048">
        <ele>1684.199951</ele>
        <time>2011-10-09T09:26:05Z</time>
      </trkpt>
      <trkpt lat="44.04377" lon="6.93042">
        <ele>1684.599976</ele>
        <time>2011-10-09T09:26:07Z</time>
      </trkpt>
      <trkpt lat="44.04376" lon="6.93035">
        <ele>1684.800049</ele>
        <time>2011-10-09T09:26:09Z</time>
      </trkpt>
      <trkpt lat="44.04377" lon="6.93026">
        <ele>1685.400024</ele>
        <time>2011-10-09T09:26:12Z</time>
      </trkpt>
      <trkpt lat="44.04382" lon="6.93018">
        <ele>1686.199951</ele>
        <time>2011-10-09T09:26:15Z</time>
      </trkpt>
      <trkpt lat="44.04386" lon="6.93009">
        <ele>1687</ele>
        <time>2011-10-09T09:26:18Z</time>
      </trkpt>
      <trkpt lat="44.04386" lon="6.92999">
        <ele>1687.599976</ele>
        <time>2011-10-09T09:26:21Z</time>
      </trkpt>
      <trkpt lat="44.04382" lon="6.92994">
        <ele>1687</ele>
        <time>2011-10-09T09:26:23Z</time>
      </trkpt>
      <trkpt lat="44.04374" lon="6.92988">
        <ele>1686.199951</ele>
        <time>2011-10-09T09:26:27Z</time>
      </trkpt>
      <trkpt lat="44.04369" lon="6.92975">
        <ele>1685.599976</ele>
        <time>2011-10-09T09:26:32Z</time>
      </trkpt>
      <trkpt lat="44.04369" lon="6.92948">
        <ele>1685.400024</ele>
        <time>2011-10-09T09:26:39Z</time>
      </trkpt>
      <trkpt lat="44.04369" lon="6.92941">
        <ele>1685.199951</ele>
        <time>2011-10-09T09:26:41Z</time>
      </trkpt>
      <trkpt lat="44.04368" lon="6.92933">
        <ele>1685.199951</ele>
        <time>2011-10-09T09:26:43Z</time>
      </trkpt>
      <trkpt lat="44.04367" lon="6.92926">
        <ele>1685</ele>
        <time>2011-10-09T09:26:45Z</time>
      </trkpt>
      <trkpt lat="44.04366" lon="6.92918">
        <ele>1684.800049</ele>
        <time>2011-10-09T09:26:47Z</time>
      </trkpt>
      <trkpt lat="44.04363" lon="6.92896">
        <ele>1686</ele>
        <time>2011-10-09T09:26:53Z</time>
      </trkpt>
      <trkpt lat="44.04362" lon="6.92889">
        <ele>1686.400024</ele>
        <time>2011-10-09T09:26:55Z</time>
      </trkpt>
      <trkpt lat="44.0436" lon="6.9288">
        <ele>1687</ele>
        <time>2011-10-09T09:26:59Z</time>
      </trkpt>
      <trkpt lat="44.04356" lon="6.92869">
        <ele>1687.400024</ele>
        <time>2011-10-09T09:27:03Z</time>
      </trkpt>
      <trkpt lat="44.04354" lon="6.92858">
        <ele>1688</ele>
        <time>2011-10-09T09:27:07Z</time>
      </trkpt>
      <trkpt lat="44.0435" lon="6.92849">
        <ele>1688.199951</ele>
        <time>2011-10-09T09:27:11Z</time>
      </trkpt>
      <trkpt lat="44.04343" lon="6.92847">
        <ele>1687.800049</ele>
        <time>2011-10-09T09:27:15Z</time>
      </trkpt>
      <trkpt lat="44.04334" lon="6.92852">
        <ele>1686.800049</ele>
        <time>2011-10-09T09:27:19Z</time>
      </trkpt>
      <trkpt lat="44.04331" lon="6.92857">
        <ele>1687</ele>
        <time>2011-10-09T09:27:21Z</time>
      </trkpt>
      <trkpt lat="44.04326" lon="6.92876">
        <ele>1687.199951</ele>
        <time>2011-10-09T09:27:27Z</time>
      </trkpt>
      <trkpt lat="44.04323" lon="6.92887">
        <ele>1687.199951</ele>
        <time>2011-10-09T09:27:32Z</time>
      </trkpt>
      <trkpt lat="44.04317" lon="6.92886">
        <ele>1688.800049</ele>
        <time>2011-10-09T09:27:35Z</time>
      </trkpt>
      <trkpt lat="44.04314" lon="6.92879">
        <ele>1689.800049</ele>
        <time>2011-10-09T09:27:38Z</time>
      </trkpt>
      <trkpt lat="44.04314" lon="6.92867">
        <ele>1690.599976</ele>
        <time>2011-10-09T09:27:42Z</time>
      </trkpt>
      <trkpt lat="44.04314" lon="6.92858">
        <ele>1691</ele>
        <time>2011-10-09T09:27:46Z</time>
      </trkpt>
      <trkpt lat="44.04314" lon="6.92848">
        <ele>1691.599976</ele>
        <time>2011-10-09T09:27:51Z</time>
      </trkpt>
      <trkpt lat="44.04313" lon="6.92839">
        <ele>1692.199951</ele>
        <time>2011-10-09T09:27:55Z</time>
      </trkpt>
      <trkpt lat="44.04311" lon="6.92829">
        <ele>1693.599976</ele>
        <time>2011-10-09T09:28:00Z</time>
      </trkpt>
      <trkpt lat="44.0431" lon="6.92821">
        <ele>1694.800049</ele>
        <time>2011-10-09T09:28:04Z</time>
      </trkpt>
      <trkpt lat="44.0431" lon="6.92813">
        <ele>1695.599976</ele>
        <time>2011-10-09T09:28:08Z</time>
      </trkpt>
      <trkpt lat="44.0431" lon="6.92803">
        <ele>1696.800049</ele>
        <time>2011-10-09T09:28:13Z</time>
      </trkpt>
      <trkpt lat="44.04312" lon="6.92794">
        <ele>1697.400024</ele>
        <time>2011-10-09T09:28:18Z</time>
      </trkpt>
      <trkpt lat="44.04312" lon="6.92786">
        <ele>1698.400024</ele>
        <time>2011-10-09T09:28:22Z</time>
      </trkpt>
      <trkpt lat="44.0431" lon="6.92776">
        <ele>1700</ele>
        <time>2011-10-09T09:28:27Z</time>
      </trkpt>
      <trkpt lat="44.04308" lon="6.92768">
        <ele>1701.400024</ele>
        <time>2011-10-09T09:28:31Z</time>
      </trkpt>
      <trkpt lat="44.04306" lon="6.92761">
        <ele>1702.800049</ele>
        <time>2011-10-09T09:28:35Z</time>
      </trkpt>
      <trkpt lat="44.04306" lon="6.92753">
        <ele>1703.800049</ele>
        <time>2011-10-09T09:28:39Z</time>
      </trkpt>
      <trkpt lat="44.04305" lon="6.92746">
        <ele>1704.599976</ele>
        <time>2011-10-09T09:28:43Z</time>
      </trkpt>
      <trkpt lat="44.04305" lon="6.92737">
        <ele>1705.400024</ele>
        <time>2011-10-09T09:28:48Z</time>
      </trkpt>
      <trkpt lat="44.04305" lon="6.92729">
        <ele>1706</ele>
        <time>2011-10-09T09:28:52Z</time>
      </trkpt>
      <trkpt lat="44.04305" lon="6.92721">
        <ele>1706.400024</ele>
        <time>2011-10-09T09:28:56Z</time>
      </trkpt>
      <trkpt lat="44.04303" lon="6.92714">
        <ele>1707.400024</ele>
        <time>2011-10-09T09:29:01Z</time>
      </trkpt>
      <trkpt lat="44.043" lon="6.92708">
        <ele>1708.199951</ele>
        <time>2011-10-09T09:29:04Z</time>
      </trkpt>
      <trkpt lat="44.04294" lon="6.92698">
        <ele>1709.800049</ele>
        <time>2011-10-09T09:29:10Z</time>
      </trkpt>
      <trkpt lat="44.04289" lon="6.92692">
        <ele>1710.599976</ele>
        <time>2011-10-09T09:29:14Z</time>
      </trkpt>
      <trkpt lat="44.04286" lon="6.92686">
        <ele>1711.400024</ele>
        <time>2011-10-09T09:29:18Z</time>
      </trkpt>
      <trkpt lat="44.0428" lon="6.92679">
        <ele>1712.199951</ele>
        <time>2011-10-09T09:29:23Z</time>
      </trkpt>
      <trkpt lat="44.04276" lon="6.92673">
        <ele>1712.599976</ele>
        <time>2011-10-09T09:29:27Z</time>
      </trkpt>
      <trkpt lat="44.04272" lon="6.92668">
        <ele>1713</ele>
        <time>2011-10-09T09:29:31Z</time>
      </trkpt>
      <trkpt lat="44.04268" lon="6.92662">
        <ele>1713.800049</ele>
        <time>2011-10-09T09:29:35Z</time>
      </trkpt>
      <trkpt lat="44.04264" lon="6.92656">
        <ele>1714.800049</ele>
        <time>2011-10-09T09:29:39Z</time>
      </trkpt>
      <trkpt lat="44.04258" lon="6.92648">
        <ele>1715.800049</ele>
        <time>2011-10-09T09:29:45Z</time>
      </trkpt>
      <trkpt lat="44.04254" lon="6.92641">
        <ele>1716.599976</ele>
        <time>2011-10-09T09:29:49Z</time>
      </trkpt>
      <trkpt lat="44.0425" lon="6.92635">
        <ele>1717.199951</ele>
        <time>2011-10-09T09:29:53Z</time>
      </trkpt>
      <trkpt lat="44.04238" lon="6.92622">
        <ele>1721.599976</ele>
        <time>2011-10-09T09:30:02Z</time>
      </trkpt>
      <trkpt lat="44.04234" lon="6.92616">
        <ele>1723</ele>
        <time>2011-10-09T09:30:06Z</time>
      </trkpt>
      <trkpt lat="44.04229" lon="6.92608">
        <ele>1724.599976</ele>
        <time>2011-10-09T09:30:10Z</time>
      </trkpt>
      <trkpt lat="44.04226" lon="6.92602">
        <ele>1725.400024</ele>
        <time>2011-10-09T09:30:13Z</time>
      </trkpt>
      <trkpt lat="44.04225" lon="6.92587">
        <ele>1726</ele>
        <time>2011-10-09T09:30:19Z</time>
      </trkpt>
      <trkpt lat="44.04219" lon="6.92603">
        <ele>1727.199951</ele>
        <time>2011-10-09T09:39:59Z</time>
      </trkpt>
      <trkpt lat="44.04211" lon="6.92609">
        <ele>1729.199951</ele>
        <time>2011-10-09T09:40:06Z</time>
      </trkpt>
      <trkpt lat="44.04205" lon="6.92611">
        <ele>1731</ele>
        <time>2011-10-09T09:40:11Z</time>
      </trkpt>
      <trkpt lat="44.04215" lon="6.92623">
        <ele>1728.199951</ele>
        <time>2011-10-09T09:40:19Z</time>
      </trkpt>
      <trkpt lat="44.04224" lon="6.92635">
        <ele>1725.599976</ele>
        <time>2011-10-09T09:40:24Z</time>
      </trkpt>
      <trkpt lat="44.04229" lon="6.92645">
        <ele>1723.599976</ele>
        <time>2011-10-09T09:40:28Z</time>
      </trkpt>
      <trkpt lat="44.04233" lon="6.92657">
        <ele>1721.800049</ele>
        <time>2011-10-09T09:40:32Z</time>
      </trkpt>
      <trkpt lat="44.04245" lon="6.92695">
        <ele>1718.199951</ele>
        <time>2011-10-09T09:40:43Z</time>
      </trkpt>
      <trkpt lat="44.04244" lon="6.92719">
        <ele>1719.599976</ele>
        <time>2011-10-09T09:40:49Z</time>
      </trkpt>
      <trkpt lat="44.04237" lon="6.92742">
        <ele>1723.599976</ele>
        <time>2011-10-09T09:40:55Z</time>
      </trkpt>
      <trkpt lat="44.04235" lon="6.92748">
        <ele>1724.599976</ele>
        <time>2011-10-09T09:40:57Z</time>
      </trkpt>
      <trkpt lat="44.04232" lon="6.92759">
        <ele>1724.599976</ele>
        <time>2011-10-09T09:41:01Z</time>
      </trkpt>
      <trkpt lat="44.04228" lon="6.92779">
        <ele>1724</ele>
        <time>2011-10-09T09:41:09Z</time>
      </trkpt>
      <trkpt lat="44.04224" lon="6.92788">
        <ele>1724.199951</ele>
        <time>2011-10-09T09:41:13Z</time>
      </trkpt>
      <trkpt lat="44.04219" lon="6.92798">
        <ele>1725</ele>
        <time>2011-10-09T09:41:17Z</time>
      </trkpt>
      <trkpt lat="44.04215" lon="6.92808">
        <ele>1725.400024</ele>
        <time>2011-10-09T09:41:21Z</time>
      </trkpt>
      <trkpt lat="44.0421" lon="6.92817">
        <ele>1726.599976</ele>
        <time>2011-10-09T09:41:25Z</time>
      </trkpt>
      <trkpt lat="44.04205" lon="6.92827">
        <ele>1727.599976</ele>
        <time>2011-10-09T09:41:29Z</time>
      </trkpt>
      <trkpt lat="44.04193" lon="6.92842">
        <ele>1732</ele>
        <time>2011-10-09T09:41:37Z</time>
      </trkpt>
      <trkpt lat="44.04187" lon="6.92847">
        <ele>1734.400024</ele>
        <time>2011-10-09T09:41:40Z</time>
      </trkpt>
      <trkpt lat="44.04183" lon="6.92861">
        <ele>1735.400024</ele>
        <time>2011-10-09T09:41:45Z</time>
      </trkpt>
      <trkpt lat="44.04182" lon="6.92872">
        <ele>1735.400024</ele>
        <time>2011-10-09T09:41:49Z</time>
      </trkpt>
      <trkpt lat="44.04179" lon="6.92882">
        <ele>1736.199951</ele>
        <time>2011-10-09T09:41:53Z</time>
      </trkpt>
      <trkpt lat="44.04177" lon="6.92899">
        <ele>1736.400024</ele>
        <time>2011-10-09T09:41:59Z</time>
      </trkpt>
      <trkpt lat="44.04183" lon="6.92923">
        <ele>1733.400024</ele>
        <time>2011-10-09T09:42:06Z</time>
      </trkpt>
      <trkpt lat="44.04187" lon="6.92932">
        <ele>1732.400024</ele>
        <time>2011-10-09T09:42:09Z</time>
      </trkpt>
      <trkpt lat="44.04191" lon="6.92941">
        <ele>1731.599976</ele>
        <time>2011-10-09T09:42:13Z</time>
      </trkpt>
      <trkpt lat="44.04192" lon="6.92951">
        <ele>1731.599976</ele>
        <time>2011-10-09T09:42:17Z</time>
      </trkpt>
      <trkpt lat="44.04192" lon="6.92962">
        <ele>1732.599976</ele>
        <time>2011-10-09T09:42:21Z</time>
      </trkpt>
      <trkpt lat="44.04191" lon="6.92972">
        <ele>1733.400024</ele>
        <time>2011-10-09T09:42:25Z</time>
      </trkpt>
      <trkpt lat="44.04191" lon="6.9298">
        <ele>1734.199951</ele>
        <time>2011-10-09T09:42:29Z</time>
      </trkpt>
      <trkpt lat="44.04192" lon="6.9299">
        <ele>1734.199951</ele>
        <time>2011-10-09T09:42:33Z</time>
      </trkpt>
      <trkpt lat="44.04195" lon="6.92997">
        <ele>1734</ele>
        <time>2011-10-09T09:42:36Z</time>
      </trkpt>
      <trkpt lat="44.04196" lon="6.93005">
        <ele>1734.199951</ele>
        <time>2011-10-09T09:42:40Z</time>
      </trkpt>
      <trkpt lat="44.04196" lon="6.93014">
        <ele>1735.199951</ele>
        <time>2011-10-09T09:42:44Z</time>
      </trkpt>
      <trkpt lat="44.04196" lon="6.93022">
        <ele>1736</ele>
        <time>2011-10-09T09:42:47Z</time>
      </trkpt>
      <trkpt lat="44.04195" lon="6.93031">
        <ele>1737</ele>
        <time>2011-10-09T09:42:51Z</time>
      </trkpt>
      <trkpt lat="44.04195" lon="6.93039">
        <ele>1738.199951</ele>
        <time>2011-10-09T09:42:55Z</time>
      </trkpt>
      <trkpt lat="44.04194" lon="6.93047">
        <ele>1739.400024</ele>
        <time>2011-10-09T09:42:59Z</time>
      </trkpt>
      <trkpt lat="44.04194" lon="6.93055">
        <ele>1740.199951</ele>
        <time>2011-10-09T09:43:03Z</time>
      </trkpt>
      <trkpt lat="44.04193" lon="6.93067">
        <ele>1741.599976</ele>
        <time>2011-10-09T09:43:09Z</time>
      </trkpt>
      <trkpt lat="44.04193" lon="6.93075">
        <ele>1742.800049</ele>
        <time>2011-10-09T09:43:13Z</time>
      </trkpt>
      <trkpt lat="44.04191" lon="6.93083">
        <ele>1744.199951</ele>
        <time>2011-10-09T09:43:17Z</time>
      </trkpt>
      <trkpt lat="44.04186" lon="6.93093">
        <ele>1748</ele>
        <time>2011-10-09T09:43:23Z</time>
      </trkpt>
      <trkpt lat="44.04183" lon="6.93106">
        <ele>1751</ele>
        <time>2011-10-09T09:43:30Z</time>
      </trkpt>
      <trkpt lat="44.04181" lon="6.93118">
        <ele>1753.199951</ele>
        <time>2011-10-09T09:43:36Z</time>
      </trkpt>
      <trkpt lat="44.04178" lon="6.93122">
        <ele>1755.599976</ele>
        <time>2011-10-09T09:43:40Z</time>
      </trkpt>
      <trkpt lat="44.04172" lon="6.93125">
        <ele>1758.400024</ele>
        <time>2011-10-09T09:43:45Z</time>
      </trkpt>
      <trkpt lat="44.04167" lon="6.93126">
        <ele>1760.800049</ele>
        <time>2011-10-09T09:43:49Z</time>
      </trkpt>
      <trkpt lat="44.04168" lon="6.93113">
        <ele>1758.599976</ele>
        <time>2011-10-09T09:43:57Z</time>
      </trkpt>
      <trkpt lat="44.04171" lon="6.93107">
        <ele>1756.400024</ele>
        <time>2011-10-09T09:44:01Z</time>
      </trkpt>
      <trkpt lat="44.04168" lon="6.93089">
        <ele>1755.199951</ele>
        <time>2011-10-09T09:44:11Z</time>
      </trkpt>
      <trkpt lat="44.04164" lon="6.9308">
        <ele>1756.199951</ele>
        <time>2011-10-09T09:44:16Z</time>
      </trkpt>
      <trkpt lat="44.04163" lon="6.93073">
        <ele>1756</ele>
        <time>2011-10-09T09:44:21Z</time>
      </trkpt>
      <trkpt lat="44.0416" lon="6.93066">
        <ele>1756.400024</ele>
        <time>2011-10-09T09:44:26Z</time>
      </trkpt>
      <trkpt lat="44.04157" lon="6.93058">
        <ele>1757.199951</ele>
        <time>2011-10-09T09:44:32Z</time>
      </trkpt>
      <trkpt lat="44.04152" lon="6.93049">
        <ele>1758.599976</ele>
        <time>2011-10-09T09:44:39Z</time>
      </trkpt>
      <trkpt lat="44.04149" lon="6.93039">
        <ele>1759</ele>
        <time>2011-10-09T09:44:44Z</time>
      </trkpt>
      <trkpt lat="44.04147" lon="6.93031">
        <ele>1759.400024</ele>
        <time>2011-10-09T09:44:50Z</time>
      </trkpt>
      <trkpt lat="44.04143" lon="6.93042">
        <ele>1762.599976</ele>
        <time>2011-10-09T09:45:03Z</time>
      </trkpt>
      <trkpt lat="44.04146" lon="6.93049">
        <ele>1762.199951</ele>
        <time>2011-10-09T09:45:07Z</time>
      </trkpt>
      <trkpt lat="44.04146" lon="6.93057">
        <ele>1763</ele>
        <time>2011-10-09T09:45:11Z</time>
      </trkpt>
      <trkpt lat="44.04146" lon="6.93064">
        <ele>1764.199951</ele>
        <time>2011-10-09T09:45:15Z</time>
      </trkpt>
      <trkpt lat="44.04145" lon="6.93074">
        <ele>1766</ele>
        <time>2011-10-09T09:45:20Z</time>
      </trkpt>
      <trkpt lat="44.04144" lon="6.93082">
        <ele>1767.800049</ele>
        <time>2011-10-09T09:45:24Z</time>
      </trkpt>
      <trkpt lat="44.04143" lon="6.93088">
        <ele>1769.400024</ele>
        <time>2011-10-09T09:45:28Z</time>
      </trkpt>
      <trkpt lat="44.04141" lon="6.93095">
        <ele>1771</ele>
        <time>2011-10-09T09:45:32Z</time>
      </trkpt>
      <trkpt lat="44.04138" lon="6.93108">
        <ele>1774.599976</ele>
        <time>2011-10-09T09:45:39Z</time>
      </trkpt>
      <trkpt lat="44.04135" lon="6.93119">
        <ele>1777.599976</ele>
        <time>2011-10-09T09:45:45Z</time>
      </trkpt>
      <trkpt lat="44.04133" lon="6.93129">
        <ele>1780</ele>
        <time>2011-10-09T09:45:51Z</time>
      </trkpt>
      <trkpt lat="44.04133" lon="6.93136">
        <ele>1781</ele>
        <time>2011-10-09T09:45:55Z</time>
      </trkpt>
      <trkpt lat="44.04134" lon="6.93144">
        <ele>1781.400024</ele>
        <time>2011-10-09T09:45:59Z</time>
      </trkpt>
      <trkpt lat="44.04135" lon="6.93154">
        <ele>1782.199951</ele>
        <time>2011-10-09T09:46:05Z</time>
      </trkpt>
      <trkpt lat="44.04137" lon="6.9316">
        <ele>1782</ele>
        <time>2011-10-09T09:46:09Z</time>
      </trkpt>
      <trkpt lat="44.0414" lon="6.93168">
        <ele>1781.599976</ele>
        <time>2011-10-09T09:46:13Z</time>
      </trkpt>
      <trkpt lat="44.04142" lon="6.93177">
        <ele>1781.800049</ele>
        <time>2011-10-09T09:46:18Z</time>
      </trkpt>
      <trkpt lat="44.04143" lon="6.93184">
        <ele>1782.400024</ele>
        <time>2011-10-09T09:46:22Z</time>
      </trkpt>
      <trkpt lat="44.04143" lon="6.93191">
        <ele>1783.199951</ele>
        <time>2011-10-09T09:46:26Z</time>
      </trkpt>
      <trkpt lat="44.04144" lon="6.93203">
        <ele>1784.599976</ele>
        <time>2011-10-09T09:46:33Z</time>
      </trkpt>
      <trkpt lat="44.04147" lon="6.93212">
        <ele>1784.400024</ele>
        <time>2011-10-09T09:46:39Z</time>
      </trkpt>
      <trkpt lat="44.04149" lon="6.9322">
        <ele>1784.599976</ele>
        <time>2011-10-09T09:46:43Z</time>
      </trkpt>
      <trkpt lat="44.04151" lon="6.93228">
        <ele>1785</ele>
        <time>2011-10-09T09:46:47Z</time>
      </trkpt>
      <trkpt lat="44.04153" lon="6.93237">
        <ele>1785.800049</ele>
        <time>2011-10-09T09:46:51Z</time>
      </trkpt>
      <trkpt lat="44.04152" lon="6.93244">
        <ele>1787</ele>
        <time>2011-10-09T09:46:55Z</time>
      </trkpt>
      <trkpt lat="44.04151" lon="6.93253">
        <ele>1789</ele>
        <time>2011-10-09T09:47:01Z</time>
      </trkpt>
      <trkpt lat="44.04153" lon="6.9326">
        <ele>1789.400024</ele>
        <time>2011-10-09T09:47:06Z</time>
      </trkpt>
      <trkpt lat="44.04155" lon="6.93265">
        <ele>1789.400024</ele>
        <time>2011-10-09T09:47:10Z</time>
      </trkpt>
      <trkpt lat="44.0416" lon="6.93276">
        <ele>1789.199951</ele>
        <time>2011-10-09T09:47:17Z</time>
      </trkpt>
      <trkpt lat="44.04165" lon="6.93284">
        <ele>1789</ele>
        <time>2011-10-09T09:47:23Z</time>
      </trkpt>
      <trkpt lat="44.04172" lon="6.93296">
        <ele>1788</ele>
        <time>2011-10-09T09:47:32Z</time>
      </trkpt>
      <trkpt lat="44.04175" lon="6.93302">
        <ele>1787.599976</ele>
        <time>2011-10-09T09:47:36Z</time>
      </trkpt>
      <trkpt lat="44.04177" lon="6.93311">
        <ele>1788.199951</ele>
        <time>2011-10-09T09:47:40Z</time>
      </trkpt>
      <trkpt lat="44.04177" lon="6.93319">
        <ele>1789.400024</ele>
        <time>2011-10-09T09:47:45Z</time>
      </trkpt>
      <trkpt lat="44.04178" lon="6.93326">
        <ele>1790.199951</ele>
        <time>2011-10-09T09:47:49Z</time>
      </trkpt>
      <trkpt lat="44.04178" lon="6.93334">
        <ele>1791.599976</ele>
        <time>2011-10-09T09:47:53Z</time>
      </trkpt>
      <trkpt lat="44.04176" lon="6.93342">
        <ele>1792.599976</ele>
        <time>2011-10-09T09:47:57Z</time>
      </trkpt>
      <trkpt lat="44.04175" lon="6.93348">
        <ele>1793</ele>
        <time>2011-10-09T09:48:01Z</time>
      </trkpt>
      <trkpt lat="44.04175" lon="6.93356">
        <ele>1792.800049</ele>
        <time>2011-10-09T09:48:07Z</time>
      </trkpt>
      <trkpt lat="44.04172" lon="6.93372">
        <ele>1794.199951</ele>
        <time>2011-10-09T09:48:24Z</time>
      </trkpt>
      <trkpt lat="44.04171" lon="6.93379">
        <ele>1794.800049</ele>
        <time>2011-10-09T09:48:28Z</time>
      </trkpt>
      <trkpt lat="44.04169" lon="6.93388">
        <ele>1796</ele>
        <time>2011-10-09T09:48:33Z</time>
      </trkpt>
      <trkpt lat="44.04168" lon="6.93396">
        <ele>1796.400024</ele>
        <time>2011-10-09T09:48:40Z</time>
      </trkpt>
      <trkpt lat="44.04166" lon="6.93403">
        <ele>1797</ele>
        <time>2011-10-09T09:48:46Z</time>
      </trkpt>
      <trkpt lat="44.04165" lon="6.93411">
        <ele>1797.199951</ele>
        <time>2011-10-09T09:48:55Z</time>
      </trkpt>
      <trkpt lat="44.04162" lon="6.93417">
        <ele>1797</ele>
        <time>2011-10-09T09:49:01Z</time>
      </trkpt>
      <trkpt lat="44.04157" lon="6.93425">
        <ele>1794.199951</ele>
        <time>2011-10-09T09:49:08Z</time>
      </trkpt>
      <trkpt lat="44.04152" lon="6.93425">
        <ele>1794.400024</ele>
        <time>2011-10-09T09:49:12Z</time>
      </trkpt>
      <trkpt lat="44.04153" lon="6.93413">
        <ele>1797.800049</ele>
        <time>2011-10-09T09:49:23Z</time>
      </trkpt>
      <trkpt lat="44.04154" lon="6.93406">
        <ele>1798</ele>
        <time>2011-10-09T09:49:34Z</time>
      </trkpt>
      <trkpt lat="44.04154" lon="6.93391">
        <ele>1798.599976</ele>
        <time>2011-10-09T09:49:42Z</time>
      </trkpt>
      <trkpt lat="44.04152" lon="6.93381">
        <ele>1799.199951</ele>
        <time>2011-10-09T09:49:49Z</time>
      </trkpt>
      <trkpt lat="44.04147" lon="6.9337">
        <ele>1800.599976</ele>
        <time>2011-10-09T09:49:57Z</time>
      </trkpt>
      <trkpt lat="44.04143" lon="6.93364">
        <ele>1801.400024</ele>
        <time>2011-10-09T09:50:02Z</time>
      </trkpt>
      <trkpt lat="44.04139" lon="6.93355">
        <ele>1802.800049</ele>
        <time>2011-10-09T09:50:09Z</time>
      </trkpt>
      <trkpt lat="44.04134" lon="6.93352">
        <ele>1803.800049</ele>
        <time>2011-10-09T09:50:13Z</time>
      </trkpt>
      <trkpt lat="44.04128" lon="6.93351">
        <ele>1805</ele>
        <time>2011-10-09T09:50:17Z</time>
      </trkpt>
      <trkpt lat="44.0412" lon="6.93353">
        <ele>1806.400024</ele>
        <time>2011-10-09T09:50:23Z</time>
      </trkpt>
      <trkpt lat="44.04115" lon="6.93355">
        <ele>1807.199951</ele>
        <time>2011-10-09T09:50:27Z</time>
      </trkpt>
      <trkpt lat="44.04107" lon="6.9336">
        <ele>1808</ele>
        <time>2011-10-09T09:50:35Z</time>
      </trkpt>
      <trkpt lat="44.04103" lon="6.93364">
        <ele>1808.199951</ele>
        <time>2011-10-09T09:50:39Z</time>
      </trkpt>
      <trkpt lat="44.04098" lon="6.93368">
        <ele>1808.199951</ele>
        <time>2011-10-09T09:50:43Z</time>
      </trkpt>
      <trkpt lat="44.04091" lon="6.9337">
        <ele>1809</ele>
        <time>2011-10-09T09:50:50Z</time>
      </trkpt>
      <trkpt lat="44.04085" lon="6.9337">
        <ele>1810</ele>
        <time>2011-10-09T09:50:54Z</time>
      </trkpt>
      <trkpt lat="44.04081" lon="6.93367">
        <ele>1811.199951</ele>
        <time>2011-10-09T09:50:58Z</time>
      </trkpt>
      <trkpt lat="44.04077" lon="6.93362">
        <ele>1812.800049</ele>
        <time>2011-10-09T09:51:02Z</time>
      </trkpt>
      <trkpt lat="44.04073" lon="6.93355">
        <ele>1815</ele>
        <time>2011-10-09T09:51:07Z</time>
      </trkpt>
      <trkpt lat="44.0407" lon="6.93348">
        <ele>1816.800049</ele>
        <time>2011-10-09T09:51:12Z</time>
      </trkpt>
      <trkpt lat="44.0407" lon="6.93338">
        <ele>1819.199951</ele>
        <time>2011-10-09T09:51:18Z</time>
      </trkpt>
      <trkpt lat="44.04069" lon="6.93328">
        <ele>1820.599976</ele>
        <time>2011-10-09T09:51:24Z</time>
      </trkpt>
      <trkpt lat="44.04069" lon="6.93315">
        <ele>1821.199951</ele>
        <time>2011-10-09T09:51:32Z</time>
      </trkpt>
      <trkpt lat="44.04068" lon="6.93308">
        <ele>1821.599976</ele>
        <time>2011-10-09T09:51:36Z</time>
      </trkpt>
      <trkpt lat="44.04067" lon="6.93298">
        <ele>1822.400024</ele>
        <time>2011-10-09T09:51:51Z</time>
      </trkpt>
      <trkpt lat="44.04065" lon="6.93288">
        <ele>1823.599976</ele>
        <time>2011-10-09T09:51:56Z</time>
      </trkpt>
      <trkpt lat="44.04063" lon="6.93281">
        <ele>1824.599976</ele>
        <time>2011-10-09T09:52:00Z</time>
      </trkpt>
      <trkpt lat="44.04061" lon="6.93273">
        <ele>1825.800049</ele>
        <time>2011-10-09T09:52:04Z</time>
      </trkpt>
      <trkpt lat="44.04059" lon="6.93267">
        <ele>1827</ele>
        <time>2011-10-09T09:52:08Z</time>
      </trkpt>
      <trkpt lat="44.04057" lon="6.9326">
        <ele>1828.199951</ele>
        <time>2011-10-09T09:52:12Z</time>
      </trkpt>
      <trkpt lat="44.04052" lon="6.93248">
        <ele>1830.800049</ele>
        <time>2011-10-09T09:52:21Z</time>
      </trkpt>
      <trkpt lat="44.0405" lon="6.93242">
        <ele>1831.599976</ele>
        <time>2011-10-09T09:52:25Z</time>
      </trkpt>
      <trkpt lat="44.04044" lon="6.93228">
        <ele>1833.800049</ele>
        <time>2011-10-09T09:52:35Z</time>
      </trkpt>
      <trkpt lat="44.04041" lon="6.93222">
        <ele>1834.800049</ele>
        <time>2011-10-09T09:52:39Z</time>
      </trkpt>
      <trkpt lat="44.04038" lon="6.93216">
        <ele>1835.800049</ele>
        <time>2011-10-09T09:52:43Z</time>
      </trkpt>
      <trkpt lat="44.04034" lon="6.93208">
        <ele>1837.400024</ele>
        <time>2011-10-09T09:52:49Z</time>
      </trkpt>
      <trkpt lat="44.0403" lon="6.932">
        <ele>1838.800049</ele>
        <time>2011-10-09T09:52:55Z</time>
      </trkpt>
      <trkpt lat="44.04024" lon="6.93189">
        <ele>1841.400024</ele>
        <time>2011-10-09T09:53:03Z</time>
      </trkpt>
      <trkpt lat="44.04021" lon="6.93182">
        <ele>1842.599976</ele>
        <time>2011-10-09T09:53:09Z</time>
      </trkpt>
      <trkpt lat="44.04018" lon="6.93173">
        <ele>1844.199951</ele>
        <time>2011-10-09T09:53:16Z</time>
      </trkpt>
      <trkpt lat="44.04016" lon="6.93165">
        <ele>1845</ele>
        <time>2011-10-09T09:53:22Z</time>
      </trkpt>
      <trkpt lat="44.04013" lon="6.93157">
        <ele>1845.400024</ele>
        <time>2011-10-09T09:53:29Z</time>
      </trkpt>
      <trkpt lat="44.04011" lon="6.9315">
        <ele>1845.800049</ele>
        <time>2011-10-09T09:53:35Z</time>
      </trkpt>
      <trkpt lat="44.04006" lon="6.93135">
        <ele>1846.800049</ele>
        <time>2011-10-09T09:53:47Z</time>
      </trkpt>
      <trkpt lat="44.04005" lon="6.93128">
        <ele>1846.800049</ele>
        <time>2011-10-09T09:53:53Z</time>
      </trkpt>
      <trkpt lat="44.04008" lon="6.93122">
        <ele>1844.599976</ele>
        <time>2011-10-09T09:54:00Z</time>
      </trkpt>
      <trkpt lat="44.04006" lon="6.93114">
        <ele>1845.199951</ele>
        <time>2011-10-09T09:54:06Z</time>
      </trkpt>
      <trkpt lat="44.03999" lon="6.93105">
        <ele>1847.599976</ele>
        <time>2011-10-09T09:54:15Z</time>
      </trkpt>
      <trkpt lat="44.03995" lon="6.93101">
        <ele>1848.599976</ele>
        <time>2011-10-09T09:54:20Z</time>
      </trkpt>
      <trkpt lat="44.03991" lon="6.93097">
        <ele>1849.599976</ele>
        <time>2011-10-09T09:54:24Z</time>
      </trkpt>
      <trkpt lat="44.03986" lon="6.9309">
        <ele>1850.800049</ele>
        <time>2011-10-09T09:54:30Z</time>
      </trkpt>
      <trkpt lat="44.03983" lon="6.93086">
        <ele>1851.599976</ele>
        <time>2011-10-09T09:54:34Z</time>
      </trkpt>
      <trkpt lat="44.03979" lon="6.93081">
        <ele>1852.400024</ele>
        <time>2011-10-09T09:54:38Z</time>
      </trkpt>
      <trkpt lat="44.03974" lon="6.93075">
        <ele>1853.199951</ele>
        <time>2011-10-09T09:54:44Z</time>
      </trkpt>
      <trkpt lat="44.03969" lon="6.93068">
        <ele>1854.199951</ele>
        <time>2011-10-09T09:54:50Z</time>
      </trkpt>
      <trkpt lat="44.03963" lon="6.93057">
        <ele>1855</ele>
        <time>2011-10-09T09:54:59Z</time>
      </trkpt>
      <trkpt lat="44.03961" lon="6.93051">
        <ele>1855</ele>
        <time>2011-10-09T09:55:05Z</time>
      </trkpt>
      <trkpt lat="44.03957" lon="6.93044">
        <ele>1855.400024</ele>
        <time>2011-10-09T09:55:11Z</time>
      </trkpt>
      <trkpt lat="44.03952" lon="6.93038">
        <ele>1856.599976</ele>
        <time>2011-10-09T09:55:17Z</time>
      </trkpt>
      <trkpt lat="44.0395" lon="6.9303">
        <ele>1856.199951</ele>
        <time>2011-10-09T09:55:24Z</time>
      </trkpt>
      <trkpt lat="44.03947" lon="6.93023">
        <ele>1856.400024</ele>
        <time>2011-10-09T09:55:30Z</time>
      </trkpt>
      <trkpt lat="44.03944" lon="6.93017">
        <ele>1856.800049</ele>
        <time>2011-10-09T09:55:37Z</time>
      </trkpt>
      <trkpt lat="44.03938" lon="6.93014">
        <ele>1858.599976</ele>
        <time>2011-10-09T09:55:41Z</time>
      </trkpt>
      <trkpt lat="44.03933" lon="6.93011">
        <ele>1860.199951</ele>
        <time>2011-10-09T09:55:44Z</time>
      </trkpt>
      <trkpt lat="44.03926" lon="6.9301">
        <ele>1862.599976</ele>
        <time>2011-10-09T09:55:48Z</time>
      </trkpt>
      <trkpt lat="44.03921" lon="6.9301">
        <ele>1864.599976</ele>
        <time>2011-10-09T09:56:23Z</time>
      </trkpt>
      <trkpt lat="44.03915" lon="6.93008">
        <ele>1866.400024</ele>
        <time>2011-10-09T09:56:33Z</time>
      </trkpt>
      <trkpt lat="44.0391" lon="6.93006">
        <ele>1867.199951</ele>
        <time>2011-10-09T09:56:36Z</time>
      </trkpt>
      <trkpt lat="44.03905" lon="6.93005">
        <ele>1868</ele>
        <time>2011-10-09T09:56:39Z</time>
      </trkpt>
      <trkpt lat="44.039" lon="6.93007">
        <ele>1869.400024</ele>
        <time>2011-10-09T09:56:44Z</time>
      </trkpt>
      <trkpt lat="44.039" lon="6.93014">
        <ele>1870</ele>
        <time>2011-10-09T09:56:48Z</time>
      </trkpt>
      <trkpt lat="44.03906" lon="6.93018">
        <ele>1869.199951</ele>
        <time>2011-10-09T09:56:53Z</time>
      </trkpt>
      <trkpt lat="44.03916" lon="6.93026">
        <ele>1868.400024</ele>
        <time>2011-10-09T09:57:02Z</time>
      </trkpt>
      <trkpt lat="44.03918" lon="6.93032">
        <ele>1868.599976</ele>
        <time>2011-10-09T09:57:06Z</time>
      </trkpt>
      <trkpt lat="44.03919" lon="6.9304">
        <ele>1869</ele>
        <time>2011-10-09T09:57:10Z</time>
      </trkpt>
      <trkpt lat="44.03921" lon="6.93052">
        <ele>1870</ele>
        <time>2011-10-09T09:57:17Z</time>
      </trkpt>
      <trkpt lat="44.03923" lon="6.9306">
        <ele>1870.400024</ele>
        <time>2011-10-09T09:57:21Z</time>
      </trkpt>
      <trkpt lat="44.03924" lon="6.93067">
        <ele>1871</ele>
        <time>2011-10-09T09:57:25Z</time>
      </trkpt>
      <trkpt lat="44.03925" lon="6.93074">
        <ele>1871.400024</ele>
        <time>2011-10-09T09:57:30Z</time>
      </trkpt>
      <trkpt lat="44.03927" lon="6.93083">
        <ele>1872</ele>
        <time>2011-10-09T09:57:36Z</time>
      </trkpt>
      <trkpt lat="44.03928" lon="6.9309">
        <ele>1872.400024</ele>
        <time>2011-10-09T09:57:43Z</time>
      </trkpt>
      <trkpt lat="44.03928" lon="6.93099">
        <ele>1873.400024</ele>
        <time>2011-10-09T09:58:03Z</time>
      </trkpt>
      <trkpt lat="44.03931" lon="6.9311">
        <ele>1873.599976</ele>
        <time>2011-10-09T09:58:09Z</time>
      </trkpt>
      <trkpt lat="44.03932" lon="6.93117">
        <ele>1873.800049</ele>
        <time>2011-10-09T09:58:14Z</time>
      </trkpt>
      <trkpt lat="44.03927" lon="6.93118">
        <ele>1876</ele>
        <time>2011-10-09T09:58:38Z</time>
      </trkpt>
      <trkpt lat="44.03924" lon="6.93113">
        <ele>1876.599976</ele>
        <time>2011-10-09T09:58:42Z</time>
      </trkpt>
      <trkpt lat="44.03921" lon="6.93107">
        <ele>1877</ele>
        <time>2011-10-09T09:58:46Z</time>
      </trkpt>
      <trkpt lat="44.03917" lon="6.93103">
        <ele>1878.199951</ele>
        <time>2011-10-09T09:58:50Z</time>
      </trkpt>
      <trkpt lat="44.03909" lon="6.93099">
        <ele>1878.599976</ele>
        <time>2011-10-09T09:58:56Z</time>
      </trkpt>
      <trkpt lat="44.03903" lon="6.93097">
        <ele>1879</ele>
        <time>2011-10-09T09:59:01Z</time>
      </trkpt>
      <trkpt lat="44.03896" lon="6.93096">
        <ele>1879.599976</ele>
        <time>2011-10-09T09:59:07Z</time>
      </trkpt>
      <trkpt lat="44.0389" lon="6.93095">
        <ele>1880</ele>
        <time>2011-10-09T09:59:12Z</time>
      </trkpt>
      <trkpt lat="44.03885" lon="6.93096">
        <ele>1880.599976</ele>
        <time>2011-10-09T09:59:16Z</time>
      </trkpt>
      <trkpt lat="44.03879" lon="6.93098">
        <ele>1881.400024</ele>
        <time>2011-10-09T09:59:21Z</time>
      </trkpt>
      <trkpt lat="44.03874" lon="6.93101">
        <ele>1882.199951</ele>
        <time>2011-10-09T09:59:26Z</time>
      </trkpt>
      <trkpt lat="44.03869" lon="6.93106">
        <ele>1883.400024</ele>
        <time>2011-10-09T09:59:31Z</time>
      </trkpt>
      <trkpt lat="44.03861" lon="6.93115">
        <ele>1885</ele>
        <time>2011-10-09T09:59:39Z</time>
      </trkpt>
      <trkpt lat="44.03857" lon="6.9312">
        <ele>1885.800049</ele>
        <time>2011-10-09T09:59:43Z</time>
      </trkpt>
      <trkpt lat="44.03851" lon="6.93125">
        <ele>1886.800049</ele>
        <time>2011-10-09T09:59:48Z</time>
      </trkpt>
      <trkpt lat="44.03836" lon="6.93133">
        <ele>1888.800049</ele>
        <time>2011-10-09T09:59:57Z</time>
      </trkpt>
      <trkpt lat="44.03823" lon="6.93135">
        <ele>1890.199951</ele>
        <time>2011-10-09T10:00:05Z</time>
      </trkpt>
      <trkpt lat="44.03815" lon="6.93133">
        <ele>1891</ele>
        <time>2011-10-09T10:00:10Z</time>
      </trkpt>
      <trkpt lat="44.03808" lon="6.9313">
        <ele>1891.599976</ele>
        <time>2011-10-09T10:00:14Z</time>
      </trkpt>
      <trkpt lat="44.03803" lon="6.93127">
        <ele>1892</ele>
        <time>2011-10-09T10:00:18Z</time>
      </trkpt>
      <trkpt lat="44.03798" lon="6.93124">
        <ele>1892.400024</ele>
        <time>2011-10-09T10:00:22Z</time>
      </trkpt>
      <trkpt lat="44.03792" lon="6.93119">
        <ele>1893</ele>
        <time>2011-10-09T10:00:27Z</time>
      </trkpt>
      <trkpt lat="44.03787" lon="6.93117">
        <ele>1893.599976</ele>
        <time>2011-10-09T10:00:31Z</time>
      </trkpt>
      <trkpt lat="44.03783" lon="6.93112">
        <ele>1894.199951</ele>
        <time>2011-10-09T10:00:35Z</time>
      </trkpt>
      <trkpt lat="44.03779" lon="6.93107">
        <ele>1894.599976</ele>
        <time>2011-10-09T10:00:40Z</time>
      </trkpt>
      <trkpt lat="44.03773" lon="6.93101">
        <ele>1895.400024</ele>
        <time>2011-10-09T10:01:05Z</time>
      </trkpt>
      <trkpt lat="44.0377" lon="6.93096">
        <ele>1896.199951</ele>
        <time>2011-10-09T10:01:13Z</time>
      </trkpt>
      <trkpt lat="44.03766" lon="6.93092">
        <ele>1896.800049</ele>
        <time>2011-10-09T10:01:22Z</time>
      </trkpt>
      <trkpt lat="44.03761" lon="6.93087">
        <ele>1897.800049</ele>
        <time>2011-10-09T10:01:30Z</time>
      </trkpt>
      <trkpt lat="44.03757" lon="6.93084">
        <ele>1898.599976</ele>
        <time>2011-10-09T10:01:36Z</time>
      </trkpt>
      <trkpt lat="44.03753" lon="6.9308">
        <ele>1899.800049</ele>
        <time>2011-10-09T10:01:42Z</time>
      </trkpt>
      <trkpt lat="44.03745" lon="6.93075">
        <ele>1902</ele>
        <time>2011-10-09T10:01:54Z</time>
      </trkpt>
      <trkpt lat="44.03741" lon="6.9307">
        <ele>1903.199951</ele>
        <time>2011-10-09T10:02:02Z</time>
      </trkpt>
      <trkpt lat="44.03729" lon="6.93063">
        <ele>1905.800049</ele>
        <time>2011-10-09T10:02:13Z</time>
      </trkpt>
      <trkpt lat="44.03724" lon="6.93059">
        <ele>1906.800049</ele>
        <time>2011-10-09T10:02:17Z</time>
      </trkpt>
      <trkpt lat="44.0372" lon="6.93054">
        <ele>1907.800049</ele>
        <time>2011-10-09T10:02:21Z</time>
      </trkpt>
      <trkpt lat="44.0371" lon="6.93039">
        <ele>1910.199951</ele>
        <time>2011-10-09T10:02:32Z</time>
      </trkpt>
      <trkpt lat="44.03705" lon="6.93032">
        <ele>1911.400024</ele>
        <time>2011-10-09T10:02:37Z</time>
      </trkpt>
      <trkpt lat="44.037" lon="6.93024">
        <ele>1912.400024</ele>
        <time>2011-10-09T10:02:41Z</time>
      </trkpt>
      <trkpt lat="44.03691" lon="6.93011">
        <ele>1913.800049</ele>
        <time>2011-10-09T10:02:45Z</time>
      </trkpt>
      <trkpt lat="44.03685" lon="6.93002">
        <ele>1914.599976</ele>
        <time>2011-10-09T10:02:47Z</time>
      </trkpt>
      <trkpt lat="44.03677" lon="6.92992">
        <ele>1915.400024</ele>
        <time>2011-10-09T10:02:49Z</time>
      </trkpt>
      <trkpt lat="44.0367" lon="6.92983">
        <ele>1916.599976</ele>
        <time>2011-10-09T10:02:51Z</time>
      </trkpt>
      <trkpt lat="44.03664" lon="6.92975">
        <ele>1917.400024</ele>
        <time>2011-10-09T10:02:53Z</time>
      </trkpt>
      <trkpt lat="44.03659" lon="6.9297">
        <ele>1917.800049</ele>
        <time>2011-10-09T10:02:55Z</time>
      </trkpt>
      <trkpt lat="44.03649" lon="6.92954">
        <ele>1919.199951</ele>
        <time>2011-10-09T10:03:03Z</time>
      </trkpt>
      <trkpt lat="44.03644" lon="6.92947">
        <ele>1920</ele>
        <time>2011-10-09T10:03:07Z</time>
      </trkpt>
      <trkpt lat="44.03641" lon="6.92942">
        <ele>1920.400024</ele>
        <time>2011-10-09T10:03:10Z</time>
      </trkpt>
      <trkpt lat="44.03637" lon="6.92937">
        <ele>1920.800049</ele>
        <time>2011-10-09T10:03:14Z</time>
      </trkpt>
      <trkpt lat="44.03634" lon="6.9293">
        <ele>1921.599976</ele>
        <time>2011-10-09T10:03:19Z</time>
      </trkpt>
      <trkpt lat="44.0363" lon="6.92922">
        <ele>1922.400024</ele>
        <time>2011-10-09T10:03:25Z</time>
      </trkpt>
      <trkpt lat="44.03627" lon="6.92911">
        <ele>1923.199951</ele>
        <time>2011-10-09T10:03:33Z</time>
      </trkpt>
      <trkpt lat="44.03624" lon="6.92906">
        <ele>1923.199951</ele>
        <time>2011-10-09T10:03:41Z</time>
      </trkpt>
      <trkpt lat="44.0362" lon="6.929">
        <ele>1923.400024</ele>
        <time>2011-10-09T10:03:48Z</time>
      </trkpt>
      <trkpt lat="44.03615" lon="6.92891">
        <ele>1923.599976</ele>
        <time>2011-10-09T10:03:59Z</time>
      </trkpt>
      <trkpt lat="44.03613" lon="6.92885">
        <ele>1923.800049</ele>
        <time>2011-10-09T10:04:05Z</time>
      </trkpt>
      <trkpt lat="44.0361" lon="6.92879">
        <ele>1924</ele>
        <time>2011-10-09T10:04:11Z</time>
      </trkpt>
      <trkpt lat="44.03606" lon="6.9287">
        <ele>1924.199951</ele>
        <time>2011-10-09T10:04:22Z</time>
      </trkpt>
      <trkpt lat="44.03601" lon="6.92865">
        <ele>1924.400024</ele>
        <time>2011-10-09T10:04:28Z</time>
      </trkpt>
      <trkpt lat="44.03595" lon="6.92859">
        <ele>1924.599976</ele>
        <time>2011-10-09T10:04:39Z</time>
      </trkpt>
      <trkpt lat="44.03588" lon="6.92853">
        <ele>1925</ele>
        <time>2011-10-09T10:04:45Z</time>
      </trkpt>
      <trkpt lat="44.03578" lon="6.92843">
        <ele>1925.599976</ele>
        <time>2011-10-09T10:04:50Z</time>
      </trkpt>
      <trkpt lat="44.03564" lon="6.92829">
        <ele>1927.199951</ele>
        <time>2011-10-09T10:04:54Z</time>
      </trkpt>
      <trkpt lat="44.03555" lon="6.92821">
        <ele>1928.199951</ele>
        <time>2011-10-09T10:04:56Z</time>
      </trkpt>
      <trkpt lat="44.03548" lon="6.92815">
        <ele>1929</ele>
        <time>2011-10-09T10:04:58Z</time>
      </trkpt>
      <trkpt lat="44.03543" lon="6.9281">
        <ele>1929.800049</ele>
        <time>2011-10-09T10:05:00Z</time>
      </trkpt>
      <trkpt lat="44.03537" lon="6.92804">
        <ele>1930.800049</ele>
        <time>2011-10-09T10:05:04Z</time>
      </trkpt>
      <trkpt lat="44.03532" lon="6.92799">
        <ele>1931.599976</ele>
        <time>2011-10-09T10:05:08Z</time>
      </trkpt>
      <trkpt lat="44.03528" lon="6.92795">
        <ele>1932.199951</ele>
        <time>2011-10-09T10:05:12Z</time>
      </trkpt>
      <trkpt lat="44.03523" lon="6.9279">
        <ele>1933.199951</ele>
        <time>2011-10-09T10:05:17Z</time>
      </trkpt>
      <trkpt lat="44.03518" lon="6.92785">
        <ele>1934</ele>
        <time>2011-10-09T10:05:30Z</time>
      </trkpt>
      <trkpt lat="44.03514" lon="6.9278">
        <ele>1935</ele>
        <time>2011-10-09T10:05:38Z</time>
      </trkpt>
      <trkpt lat="44.0351" lon="6.92776">
        <ele>1935.800049</ele>
        <time>2011-10-09T10:05:46Z</time>
      </trkpt>
      <trkpt lat="44.03505" lon="6.92772">
        <ele>1936.800049</ele>
        <time>2011-10-09T10:05:58Z</time>
      </trkpt>
      <trkpt lat="44.03501" lon="6.92767">
        <ele>1937.800049</ele>
        <time>2011-10-09T10:06:06Z</time>
      </trkpt>
      <trkpt lat="44.03489" lon="6.92757">
        <ele>1939.800049</ele>
        <time>2011-10-09T10:06:25Z</time>
      </trkpt>
      <trkpt lat="44.03484" lon="6.92754">
        <ele>1940.599976</ele>
        <time>2011-10-09T10:06:32Z</time>
      </trkpt>
      <trkpt lat="44.03479" lon="6.92749">
        <ele>1941.400024</ele>
        <time>2011-10-09T10:06:40Z</time>
      </trkpt>
      <trkpt lat="44.03472" lon="6.92745">
        <ele>1942</ele>
        <time>2011-10-09T10:06:54Z</time>
      </trkpt>
      <trkpt lat="44.0346" lon="6.92737">
        <ele>1943.199951</ele>
        <time>2011-10-09T10:07:23Z</time>
      </trkpt>
      <trkpt lat="44.03455" lon="6.92734">
        <ele>1943.599976</ele>
        <time>2011-10-09T10:07:27Z</time>
      </trkpt>
      <trkpt lat="44.0345" lon="6.9273">
        <ele>1944.199951</ele>
        <time>2011-10-09T10:07:33Z</time>
      </trkpt>
      <trkpt lat="44.03445" lon="6.92726">
        <ele>1944.800049</ele>
        <time>2011-10-09T10:07:39Z</time>
      </trkpt>
      <trkpt lat="44.03436" lon="6.92721">
        <ele>1945.800049</ele>
        <time>2011-10-09T10:07:48Z</time>
      </trkpt>
      <trkpt lat="44.03431" lon="6.92717">
        <ele>1946.400024</ele>
        <time>2011-10-09T10:07:53Z</time>
      </trkpt>
      <trkpt lat="44.03426" lon="6.92712">
        <ele>1947.199951</ele>
        <time>2011-10-09T10:07:59Z</time>
      </trkpt>
      <trkpt lat="44.03416" lon="6.92703">
        <ele>1948.800049</ele>
        <time>2011-10-09T10:08:10Z</time>
      </trkpt>
      <trkpt lat="44.0341" lon="6.92698">
        <ele>1949.400024</ele>
        <time>2011-10-09T10:08:16Z</time>
      </trkpt>
      <trkpt lat="44.03402" lon="6.92692">
        <ele>1950.400024</ele>
        <time>2011-10-09T10:08:25Z</time>
      </trkpt>
      <trkpt lat="44.03396" lon="6.92688">
        <ele>1951.199951</ele>
        <time>2011-10-09T10:08:31Z</time>
      </trkpt>
      <trkpt lat="44.03383" lon="6.92682">
        <ele>1952.400024</ele>
        <time>2011-10-09T10:08:42Z</time>
      </trkpt>
      <trkpt lat="44.03377" lon="6.92682">
        <ele>1953</ele>
        <time>2011-10-09T10:08:48Z</time>
      </trkpt>
      <trkpt lat="44.03374" lon="6.92676">
        <ele>1953.800049</ele>
        <time>2011-10-09T10:08:54Z</time>
      </trkpt>
      <trkpt lat="44.03375" lon="6.92668">
        <ele>1954.400024</ele>
        <time>2011-10-09T10:08:59Z</time>
      </trkpt>
      <trkpt lat="44.03373" lon="6.92661">
        <ele>1954.599976</ele>
        <time>2011-10-09T10:09:04Z</time>
      </trkpt>
      <trkpt lat="44.0337" lon="6.92657">
        <ele>1954.800049</ele>
        <time>2011-10-09T10:09:08Z</time>
      </trkpt>
      <trkpt lat="44.03364" lon="6.92652">
        <ele>1955.400024</ele>
        <time>2011-10-09T10:09:14Z</time>
      </trkpt>
      <trkpt lat="44.03357" lon="6.92638">
        <ele>1956.400024</ele>
        <time>2011-10-09T10:09:23Z</time>
      </trkpt>
      <trkpt lat="44.03354" lon="6.92624">
        <ele>1957</ele>
        <time>2011-10-09T10:09:27Z</time>
      </trkpt>
      <trkpt lat="44.03352" lon="6.92605">
        <ele>1957.599976</ele>
        <time>2011-10-09T10:09:34Z</time>
      </trkpt>
      <trkpt lat="44.03349" lon="6.92593">
        <ele>1958.199951</ele>
        <time>2011-10-09T10:09:40Z</time>
      </trkpt>
      <trkpt lat="44.03347" lon="6.92574">
        <ele>1959.199951</ele>
        <time>2011-10-09T10:09:49Z</time>
      </trkpt>
      <trkpt lat="44.03346" lon="6.92556">
        <ele>1960</ele>
        <time>2011-10-09T10:09:57Z</time>
      </trkpt>
      <trkpt lat="44.03346" lon="6.92545">
        <ele>1960.400024</ele>
        <time>2011-10-09T10:10:03Z</time>
      </trkpt>
      <trkpt lat="44.03345" lon="6.92538">
        <ele>1960.800049</ele>
        <time>2011-10-09T10:10:07Z</time>
      </trkpt>
      <trkpt lat="44.03342" lon="6.92533">
        <ele>1961.400024</ele>
        <time>2011-10-09T10:10:11Z</time>
      </trkpt>
      <trkpt lat="44.03339" lon="6.92527">
        <ele>1961.800049</ele>
        <time>2011-10-09T10:10:18Z</time>
      </trkpt>
      <trkpt lat="44.03335" lon="6.92511">
        <ele>1962.599976</ele>
        <time>2011-10-09T10:42:17Z</time>
      </trkpt>
      <trkpt lat="44.03329" lon="6.92499">
        <ele>1961.800049</ele>
        <time>2011-10-09T10:42:26Z</time>
      </trkpt>
      <trkpt lat="44.03326" lon="6.92487">
        <ele>1961.800049</ele>
        <time>2011-10-09T10:42:32Z</time>
      </trkpt>
      <trkpt lat="44.03321" lon="6.9247">
        <ele>1961.199951</ele>
        <time>2011-10-09T10:42:38Z</time>
      </trkpt>
      <trkpt lat="44.03318" lon="6.92463">
        <ele>1960.800049</ele>
        <time>2011-10-09T10:42:40Z</time>
      </trkpt>
      <trkpt lat="44.03316" lon="6.92453">
        <ele>1960.599976</ele>
        <time>2011-10-09T10:42:43Z</time>
      </trkpt>
      <trkpt lat="44.03315" lon="6.92447">
        <ele>1960.599976</ele>
        <time>2011-10-09T10:42:45Z</time>
      </trkpt>
      <trkpt lat="44.03315" lon="6.9244">
        <ele>1960.800049</ele>
        <time>2011-10-09T10:42:47Z</time>
      </trkpt>
      <trkpt lat="44.03314" lon="6.92429">
        <ele>1961.199951</ele>
        <time>2011-10-09T10:42:51Z</time>
      </trkpt>
      <trkpt lat="44.03313" lon="6.92422">
        <ele>1961.199951</ele>
        <time>2011-10-09T10:42:54Z</time>
      </trkpt>
      <trkpt lat="44.03313" lon="6.92413">
        <ele>1962</ele>
        <time>2011-10-09T10:42:58Z</time>
      </trkpt>
      <trkpt lat="44.03312" lon="6.92406">
        <ele>1963.199951</ele>
        <time>2011-10-09T10:43:01Z</time>
      </trkpt>
      <trkpt lat="44.03309" lon="6.924">
        <ele>1963.400024</ele>
        <time>2011-10-09T10:43:03Z</time>
      </trkpt>
      <trkpt lat="44.03304" lon="6.92395">
        <ele>1962.800049</ele>
        <time>2011-10-09T10:43:06Z</time>
      </trkpt>
      <trkpt lat="44.03299" lon="6.92394">
        <ele>1961.199951</ele>
        <time>2011-10-09T10:45:01Z</time>
      </trkpt>
      <trkpt lat="44.03295" lon="6.92391">
        <ele>1960</ele>
        <time>2011-10-09T10:45:33Z</time>
      </trkpt>
      <trkpt lat="44.03273" lon="6.92377">
        <ele>1954.800049</ele>
        <time>2011-10-09T10:45:41Z</time>
      </trkpt>
      <trkpt lat="44.03266" lon="6.92371">
        <ele>1953.400024</ele>
        <time>2011-10-09T10:45:43Z</time>
      </trkpt>
      <trkpt lat="44.0326" lon="6.92364">
        <ele>1952.199951</ele>
        <time>2011-10-09T10:45:45Z</time>
      </trkpt>
      <trkpt lat="44.03254" lon="6.92358">
        <ele>1951.400024</ele>
        <time>2011-10-09T10:45:47Z</time>
      </trkpt>
      <trkpt lat="44.03249" lon="6.92351">
        <ele>1950.599976</ele>
        <time>2011-10-09T10:45:49Z</time>
      </trkpt>
      <trkpt lat="44.03244" lon="6.92345">
        <ele>1950.400024</ele>
        <time>2011-10-09T10:45:51Z</time>
      </trkpt>
      <trkpt lat="44.03241" lon="6.92339">
        <ele>1950</ele>
        <time>2011-10-09T10:45:53Z</time>
      </trkpt>
      <trkpt lat="44.03237" lon="6.92329">
        <ele>1950.599976</ele>
        <time>2011-10-09T10:45:57Z</time>
      </trkpt>
      <trkpt lat="44.03235" lon="6.92324">
        <ele>1950.599976</ele>
        <time>2011-10-09T10:45:59Z</time>
      </trkpt>
      <trkpt lat="44.03232" lon="6.92316">
        <ele>1950</ele>
        <time>2011-10-09T10:46:01Z</time>
      </trkpt>
      <trkpt lat="44.03226" lon="6.92307">
        <ele>1949</ele>
        <time>2011-10-09T10:46:03Z</time>
      </trkpt>
      <trkpt lat="44.03217" lon="6.92295">
        <ele>1946.800049</ele>
        <time>2011-10-09T10:46:05Z</time>
      </trkpt>
      <trkpt lat="44.03207" lon="6.92283">
        <ele>1944.400024</ele>
        <time>2011-10-09T10:46:07Z</time>
      </trkpt>
      <trkpt lat="44.03203" lon="6.92279">
        <ele>1943.199951</ele>
        <time>2011-10-09T10:46:08Z</time>
      </trkpt>
      <trkpt lat="44.03192" lon="6.92272">
        <ele>1939.800049</ele>
        <time>2011-10-09T10:46:11Z</time>
      </trkpt>
      <trkpt lat="44.03185" lon="6.92267">
        <ele>1937.400024</ele>
        <time>2011-10-09T10:46:13Z</time>
      </trkpt>
      <trkpt lat="44.03176" lon="6.92256">
        <ele>1935</ele>
        <time>2011-10-09T10:46:17Z</time>
      </trkpt>
      <trkpt lat="44.03167" lon="6.92233">
        <ele>1930.400024</ele>
        <time>2011-10-09T10:46:22Z</time>
      </trkpt>
      <trkpt lat="44.03163" lon="6.92223">
        <ele>1928.400024</ele>
        <time>2011-10-09T10:46:24Z</time>
      </trkpt>
      <trkpt lat="44.0316" lon="6.92213">
        <ele>1926.599976</ele>
        <time>2011-10-09T10:46:26Z</time>
      </trkpt>
      <trkpt lat="44.03158" lon="6.92203">
        <ele>1925</ele>
        <time>2011-10-09T10:46:28Z</time>
      </trkpt>
      <trkpt lat="44.03157" lon="6.92193">
        <ele>1924</ele>
        <time>2011-10-09T10:46:30Z</time>
      </trkpt>
      <trkpt lat="44.03158" lon="6.92184">
        <ele>1923.800049</ele>
        <time>2011-10-09T10:46:32Z</time>
      </trkpt>
      <trkpt lat="44.03162" lon="6.92175">
        <ele>1924.400024</ele>
        <time>2011-10-09T10:46:35Z</time>
      </trkpt>
      <trkpt lat="44.03165" lon="6.92168">
        <ele>1924.599976</ele>
        <time>2011-10-09T10:46:37Z</time>
      </trkpt>
      <trkpt lat="44.0317" lon="6.9216">
        <ele>1923.800049</ele>
        <time>2011-10-09T10:46:40Z</time>
      </trkpt>
      <trkpt lat="44.03176" lon="6.92154">
        <ele>1924</ele>
        <time>2011-10-09T10:46:45Z</time>
      </trkpt>
      <trkpt lat="44.03176" lon="6.92147">
        <ele>1921.800049</ele>
        <time>2011-10-09T10:47:06Z</time>
      </trkpt>
      <trkpt lat="44.0317" lon="6.92148">
        <ele>1919.599976</ele>
        <time>2011-10-09T10:48:39Z</time>
      </trkpt>
      <trkpt lat="44.03161" lon="6.92142">
        <ele>1914.599976</ele>
        <time>2011-10-09T10:48:46Z</time>
      </trkpt>
      <trkpt lat="44.03149" lon="6.92136">
        <ele>1909.800049</ele>
        <time>2011-10-09T10:48:51Z</time>
      </trkpt>
      <trkpt lat="44.03144" lon="6.92134">
        <ele>1907.800049</ele>
        <time>2011-10-09T10:48:53Z</time>
      </trkpt>
      <trkpt lat="44.03138" lon="6.92131">
        <ele>1905.400024</ele>
        <time>2011-10-09T10:48:55Z</time>
      </trkpt>
      <trkpt lat="44.03132" lon="6.92128">
        <ele>1903.199951</ele>
        <time>2011-10-09T10:48:57Z</time>
      </trkpt>
      <trkpt lat="44.03128" lon="6.92126">
        <ele>1901.400024</ele>
        <time>2011-10-09T10:48:59Z</time>
      </trkpt>
      <trkpt lat="44.03133" lon="6.92121">
        <ele>1901.199951</ele>
        <time>2011-10-09T10:49:10Z</time>
      </trkpt>
      <trkpt lat="44.03142" lon="6.92118">
        <ele>1902.199951</ele>
        <time>2011-10-09T10:49:14Z</time>
      </trkpt>
      <trkpt lat="44.03148" lon="6.92116">
        <ele>1903</ele>
        <time>2011-10-09T10:49:16Z</time>
      </trkpt>
      <trkpt lat="44.03153" lon="6.92114">
        <ele>1903.599976</ele>
        <time>2011-10-09T10:49:18Z</time>
      </trkpt>
      <trkpt lat="44.03161" lon="6.92111">
        <ele>1904.400024</ele>
        <time>2011-10-09T10:49:24Z</time>
      </trkpt>
      <trkpt lat="44.03168" lon="6.9211">
        <ele>1905.599976</ele>
        <time>2011-10-09T10:49:26Z</time>
      </trkpt>
      <trkpt lat="44.03175" lon="6.92108">
        <ele>1909</ele>
        <time>2011-10-09T10:49:28Z</time>
      </trkpt>
      <trkpt lat="44.03186" lon="6.92107">
        <ele>1913.800049</ele>
        <time>2011-10-09T10:49:31Z</time>
      </trkpt>
      <trkpt lat="44.03191" lon="6.92104">
        <ele>1915.400024</ele>
        <time>2011-10-09T10:49:33Z</time>
      </trkpt>
      <trkpt lat="44.03191" lon="6.92096">
        <ele>1913</ele>
        <time>2011-10-09T10:49:36Z</time>
      </trkpt>
      <trkpt lat="44.03195" lon="6.92089">
        <ele>1913</ele>
        <time>2011-10-09T10:49:40Z</time>
      </trkpt>
      <trkpt lat="44.03201" lon="6.92083">
        <ele>1914.599976</ele>
        <time>2011-10-09T10:49:44Z</time>
      </trkpt>
      <trkpt lat="44.03205" lon="6.92077">
        <ele>1916</ele>
        <time>2011-10-09T10:49:47Z</time>
      </trkpt>
      <trkpt lat="44.03205" lon="6.92064">
        <ele>1913.400024</ele>
        <time>2011-10-09T10:49:50Z</time>
      </trkpt>
      <trkpt lat="44.03203" lon="6.92057">
        <ele>1910.599976</ele>
        <time>2011-10-09T10:49:52Z</time>
      </trkpt>
      <trkpt lat="44.032" lon="6.92046">
        <ele>1906.599976</ele>
        <time>2011-10-09T10:49:56Z</time>
      </trkpt>
      <trkpt lat="44.03199" lon="6.92039">
        <ele>1904.800049</ele>
        <time>2011-10-09T10:49:58Z</time>
      </trkpt>
      <trkpt lat="44.03199" lon="6.9203">
        <ele>1903</ele>
        <time>2011-10-09T10:50:02Z</time>
      </trkpt>
      <trkpt lat="44.03201" lon="6.9202">
        <ele>1902</ele>
        <time>2011-10-09T10:50:08Z</time>
      </trkpt>
      <trkpt lat="44.03202" lon="6.92011">
        <ele>1900.800049</ele>
        <time>2011-10-09T10:50:13Z</time>
      </trkpt>
      <trkpt lat="44.03202" lon="6.91999">
        <ele>1898.599976</ele>
        <time>2011-10-09T10:50:19Z</time>
      </trkpt>
      <trkpt lat="44.03202" lon="6.9199">
        <ele>1896.199951</ele>
        <time>2011-10-09T10:50:23Z</time>
      </trkpt>
      <trkpt lat="44.03202" lon="6.91984">
        <ele>1894</ele>
        <time>2011-10-09T10:50:26Z</time>
      </trkpt>
      <trkpt lat="44.03202" lon="6.91972">
        <ele>1891.199951</ele>
        <time>2011-10-09T10:50:30Z</time>
      </trkpt>
      <trkpt lat="44.03205" lon="6.9196">
        <ele>1889.800049</ele>
        <time>2011-10-09T10:50:34Z</time>
      </trkpt>
      <trkpt lat="44.03208" lon="6.91951">
        <ele>1889.199951</ele>
        <time>2011-10-09T10:50:38Z</time>
      </trkpt>
      <trkpt lat="44.03212" lon="6.91944">
        <ele>1889.599976</ele>
        <time>2011-10-09T10:50:42Z</time>
      </trkpt>
      <trkpt lat="44.03216" lon="6.91938">
        <ele>1890.199951</ele>
        <time>2011-10-09T10:50:45Z</time>
      </trkpt>
      <trkpt lat="44.0322" lon="6.9193">
        <ele>1890.599976</ele>
        <time>2011-10-09T10:50:48Z</time>
      </trkpt>
      <trkpt lat="44.03223" lon="6.91925">
        <ele>1891</ele>
        <time>2011-10-09T10:50:50Z</time>
      </trkpt>
      <trkpt lat="44.03227" lon="6.91918">
        <ele>1891.400024</ele>
        <time>2011-10-09T10:50:53Z</time>
      </trkpt>
      <trkpt lat="44.03229" lon="6.9191">
        <ele>1891.800049</ele>
        <time>2011-10-09T10:50:57Z</time>
      </trkpt>
      <trkpt lat="44.0323" lon="6.91899">
        <ele>1891.599976</ele>
        <time>2011-10-09T10:51:01Z</time>
      </trkpt>
      <trkpt lat="44.03229" lon="6.91888">
        <ele>1889.800049</ele>
        <time>2011-10-09T10:51:05Z</time>
      </trkpt>
      <trkpt lat="44.03228" lon="6.91879">
        <ele>1888.599976</ele>
        <time>2011-10-09T10:51:09Z</time>
      </trkpt>
      <trkpt lat="44.03229" lon="6.91871">
        <ele>1888.400024</ele>
        <time>2011-10-09T10:51:13Z</time>
      </trkpt>
      <trkpt lat="44.0323" lon="6.91864">
        <ele>1888.800049</ele>
        <time>2011-10-09T10:51:16Z</time>
      </trkpt>
      <trkpt lat="44.03231" lon="6.91856">
        <ele>1888.599976</ele>
        <time>2011-10-09T10:51:20Z</time>
      </trkpt>
      <trkpt lat="44.03231" lon="6.91847">
        <ele>1888</ele>
        <time>2011-10-09T10:51:30Z</time>
      </trkpt>
      <trkpt lat="44.0323" lon="6.9184">
        <ele>1887</ele>
        <time>2011-10-09T10:51:36Z</time>
      </trkpt>
      <trkpt lat="44.03226" lon="6.91833">
        <ele>1883.800049</ele>
        <time>2011-10-09T10:51:42Z</time>
      </trkpt>
      <trkpt lat="44.03222" lon="6.91829">
        <ele>1881</ele>
        <time>2011-10-09T10:51:48Z</time>
      </trkpt>
      <trkpt lat="44.03221" lon="6.91821">
        <ele>1880</ele>
        <time>2011-10-09T10:51:55Z</time>
      </trkpt>
      <trkpt lat="44.03216" lon="6.91813">
        <ele>1876.400024</ele>
        <time>2011-10-09T10:52:05Z</time>
      </trkpt>
      <trkpt lat="44.0321" lon="6.91809">
        <ele>1872.400024</ele>
        <time>2011-10-09T10:52:12Z</time>
      </trkpt>
      <trkpt lat="44.03205" lon="6.91801">
        <ele>1869.199951</ele>
        <time>2011-10-09T10:52:16Z</time>
      </trkpt>
      <trkpt lat="44.03201" lon="6.91791">
        <ele>1866.400024</ele>
        <time>2011-10-09T10:52:20Z</time>
      </trkpt>
      <trkpt lat="44.03198" lon="6.91779">
        <ele>1864.199951</ele>
        <time>2011-10-09T10:52:24Z</time>
      </trkpt>
      <trkpt lat="44.03198" lon="6.91768">
        <ele>1864</ele>
        <time>2011-10-09T10:52:28Z</time>
      </trkpt>
      <trkpt lat="44.03199" lon="6.91756">
        <ele>1864</ele>
        <time>2011-10-09T10:52:32Z</time>
      </trkpt>
      <trkpt lat="44.03199" lon="6.91749">
        <ele>1863.599976</ele>
        <time>2011-10-09T10:52:34Z</time>
      </trkpt>
      <trkpt lat="44.03199" lon="6.91739">
        <ele>1863.199951</ele>
        <time>2011-10-09T10:52:37Z</time>
      </trkpt>
      <trkpt lat="44.03197" lon="6.91728">
        <ele>1861</ele>
        <time>2011-10-09T10:52:40Z</time>
      </trkpt>
      <trkpt lat="44.03195" lon="6.91722">
        <ele>1859.199951</ele>
        <time>2011-10-09T10:52:42Z</time>
      </trkpt>
      <trkpt lat="44.03194" lon="6.91715">
        <ele>1858</ele>
        <time>2011-10-09T10:52:44Z</time>
      </trkpt>
      <trkpt lat="44.0319" lon="6.91702">
        <ele>1855.199951</ele>
        <time>2011-10-09T10:52:48Z</time>
      </trkpt>
      <trkpt lat="44.03184" lon="6.9169">
        <ele>1851.400024</ele>
        <time>2011-10-09T10:52:51Z</time>
      </trkpt>
      <trkpt lat="44.03178" lon="6.91677">
        <ele>1847.400024</ele>
        <time>2011-10-09T10:52:54Z</time>
      </trkpt>
      <trkpt lat="44.03174" lon="6.9167">
        <ele>1845.599976</ele>
        <time>2011-10-09T10:52:56Z</time>
      </trkpt>
      <trkpt lat="44.03172" lon="6.91664">
        <ele>1843.800049</ele>
        <time>2011-10-09T10:52:58Z</time>
      </trkpt>
      <trkpt lat="44.03172" lon="6.91657">
        <ele>1842.400024</ele>
        <time>2011-10-09T10:53:00Z</time>
      </trkpt>
      <trkpt lat="44.03172" lon="6.9165">
        <ele>1841</ele>
        <time>2011-10-09T10:53:02Z</time>
      </trkpt>
      <trkpt lat="44.03169" lon="6.91639">
        <ele>1838</ele>
        <time>2011-10-09T10:53:05Z</time>
      </trkpt>
      <trkpt lat="44.03166" lon="6.91632">
        <ele>1835.599976</ele>
        <time>2011-10-09T10:53:07Z</time>
      </trkpt>
      <trkpt lat="44.03163" lon="6.91624">
        <ele>1833</ele>
        <time>2011-10-09T10:53:09Z</time>
      </trkpt>
      <trkpt lat="44.03159" lon="6.91615">
        <ele>1830.400024</ele>
        <time>2011-10-09T10:53:11Z</time>
      </trkpt>
      <trkpt lat="44.03155" lon="6.91606">
        <ele>1827.599976</ele>
        <time>2011-10-09T10:53:13Z</time>
      </trkpt>
      <trkpt lat="44.0315" lon="6.91598">
        <ele>1825</ele>
        <time>2011-10-09T10:53:15Z</time>
      </trkpt>
      <trkpt lat="44.03145" lon="6.9159">
        <ele>1822.599976</ele>
        <time>2011-10-09T10:53:17Z</time>
      </trkpt>
      <trkpt lat="44.03141" lon="6.91584">
        <ele>1820.599976</ele>
        <time>2011-10-09T10:53:19Z</time>
      </trkpt>
      <trkpt lat="44.03134" lon="6.91576">
        <ele>1817.199951</ele>
        <time>2011-10-09T10:53:22Z</time>
      </trkpt>
      <trkpt lat="44.03127" lon="6.91568">
        <ele>1813.800049</ele>
        <time>2011-10-09T10:53:25Z</time>
      </trkpt>
      <trkpt lat="44.03124" lon="6.91564">
        <ele>1812.199951</ele>
        <time>2011-10-09T10:53:27Z</time>
      </trkpt>
      <trkpt lat="44.03116" lon="6.91559">
        <ele>1809.599976</ele>
        <time>2011-10-09T10:53:42Z</time>
      </trkpt>
      <trkpt lat="44.03108" lon="6.91558">
        <ele>1807.400024</ele>
        <time>2011-10-09T10:53:45Z</time>
      </trkpt>
      <trkpt lat="44.031" lon="6.9156">
        <ele>1806</ele>
        <time>2011-10-09T10:53:48Z</time>
      </trkpt>
      <trkpt lat="44.03096" lon="6.91564">
        <ele>1805.599976</ele>
        <time>2011-10-09T10:53:50Z</time>
      </trkpt>
      <trkpt lat="44.03089" lon="6.9157">
        <ele>1805</ele>
        <time>2011-10-09T10:53:54Z</time>
      </trkpt>
      <trkpt lat="44.03084" lon="6.91572">
        <ele>1804.199951</ele>
        <time>2011-10-09T10:53:57Z</time>
      </trkpt>
      <trkpt lat="44.03079" lon="6.91573">
        <ele>1802.199951</ele>
        <time>2011-10-09T10:54:14Z</time>
      </trkpt>
      <trkpt lat="44.03074" lon="6.9157">
        <ele>1799.800049</ele>
        <time>2011-10-09T10:54:17Z</time>
      </trkpt>
      <trkpt lat="44.03068" lon="6.91558">
        <ele>1795.599976</ele>
        <time>2011-10-09T10:54:21Z</time>
      </trkpt>
      <trkpt lat="44.03066" lon="6.91546">
        <ele>1793</ele>
        <time>2011-10-09T10:54:25Z</time>
      </trkpt>
      <trkpt lat="44.03064" lon="6.9154">
        <ele>1791.199951</ele>
        <time>2011-10-09T10:54:28Z</time>
      </trkpt>
      <trkpt lat="44.03059" lon="6.9154">
        <ele>1788.800049</ele>
        <time>2011-10-09T10:54:32Z</time>
      </trkpt>
      <trkpt lat="44.03054" lon="6.91541">
        <ele>1787.199951</ele>
        <time>2011-10-09T10:54:35Z</time>
      </trkpt>
      <trkpt lat="44.03046" lon="6.91535">
        <ele>1783.199951</ele>
        <time>2011-10-09T10:54:39Z</time>
      </trkpt>
      <trkpt lat="44.0304" lon="6.91526">
        <ele>1779.599976</ele>
        <time>2011-10-09T10:54:42Z</time>
      </trkpt>
      <trkpt lat="44.03036" lon="6.91523">
        <ele>1777.599976</ele>
        <time>2011-10-09T10:54:44Z</time>
      </trkpt>
      <trkpt lat="44.03031" lon="6.91521">
        <ele>1775.199951</ele>
        <time>2011-10-09T10:54:47Z</time>
      </trkpt>
      <trkpt lat="44.03026" lon="6.91519">
        <ele>1773</ele>
        <time>2011-10-09T10:54:50Z</time>
      </trkpt>
      <trkpt lat="44.03022" lon="6.91514">
        <ele>1770.800049</ele>
        <time>2011-10-09T10:54:53Z</time>
      </trkpt>
      <trkpt lat="44.03018" lon="6.91509">
        <ele>1768.599976</ele>
        <time>2011-10-09T10:54:56Z</time>
      </trkpt>
      <trkpt lat="44.03012" lon="6.91501">
        <ele>1765.800049</ele>
        <time>2011-10-09T10:55:00Z</time>
      </trkpt>
      <trkpt lat="44.03009" lon="6.91494">
        <ele>1763.400024</ele>
        <time>2011-10-09T10:55:03Z</time>
      </trkpt>
      <trkpt lat="44.03006" lon="6.91485">
        <ele>1761.199951</ele>
        <time>2011-10-09T10:55:08Z</time>
      </trkpt>
      <trkpt lat="44.03007" lon="6.91476">
        <ele>1760.400024</ele>
        <time>2011-10-09T10:55:12Z</time>
      </trkpt>
      <trkpt lat="44.03008" lon="6.91466">
        <ele>1759.400024</ele>
        <time>2011-10-09T10:55:16Z</time>
      </trkpt>
      <trkpt lat="44.03007" lon="6.91458">
        <ele>1757.599976</ele>
        <time>2011-10-09T10:55:20Z</time>
      </trkpt>
      <trkpt lat="44.03003" lon="6.91452">
        <ele>1755.599976</ele>
        <time>2011-10-09T10:55:24Z</time>
      </trkpt>
      <trkpt lat="44.03003" lon="6.91444">
        <ele>1754.599976</ele>
        <time>2011-10-09T10:55:27Z</time>
      </trkpt>
      <trkpt lat="44.03005" lon="6.91436">
        <ele>1754</ele>
        <time>2011-10-09T10:55:31Z</time>
      </trkpt>
      <trkpt lat="44.03" lon="6.91434">
        <ele>1752.199951</ele>
        <time>2011-10-09T10:56:00Z</time>
      </trkpt>
      <trkpt lat="44.02995" lon="6.91421">
        <ele>1750.199951</ele>
        <time>2011-10-09T10:56:04Z</time>
      </trkpt>
      <trkpt lat="44.02991" lon="6.91406">
        <ele>1749</ele>
        <time>2011-10-09T10:56:07Z</time>
      </trkpt>
      <trkpt lat="44.02989" lon="6.91392">
        <ele>1748.400024</ele>
        <time>2011-10-09T10:56:10Z</time>
      </trkpt>
      <trkpt lat="44.02991" lon="6.91383">
        <ele>1747.800049</ele>
        <time>2011-10-09T10:56:12Z</time>
      </trkpt>
      <trkpt lat="44.02993" lon="6.91364">
        <ele>1746.599976</ele>
        <time>2011-10-09T10:56:16Z</time>
      </trkpt>
      <trkpt lat="44.02991" lon="6.91358">
        <ele>1746.599976</ele>
        <time>2011-10-09T10:56:18Z</time>
      </trkpt>
      <trkpt lat="44.02986" lon="6.91356">
        <ele>1747.400024</ele>
        <time>2011-10-09T10:56:21Z</time>
      </trkpt>
      <trkpt lat="44.02982" lon="6.91357">
        <ele>1748.199951</ele>
        <time>2011-10-09T10:56:59Z</time>
      </trkpt>
      <trkpt lat="44.02977" lon="6.91355">
        <ele>1749.199951</ele>
        <time>2011-10-09T10:57:11Z</time>
      </trkpt>
      <trkpt lat="44.02973" lon="6.91363">
        <ele>1749.800049</ele>
        <time>2011-10-09T11:02:29Z</time>
      </trkpt>
      <trkpt lat="44.02968" lon="6.91371">
        <ele>1750.199951</ele>
        <time>2011-10-09T11:02:31Z</time>
      </trkpt>
      <trkpt lat="44.02957" lon="6.9138">
        <ele>1750.800049</ele>
        <time>2011-10-09T11:02:34Z</time>
      </trkpt>
      <trkpt lat="44.0295" lon="6.91385">
        <ele>1751</ele>
        <time>2011-10-09T11:02:36Z</time>
      </trkpt>
      <trkpt lat="44.02944" lon="6.91389">
        <ele>1750.800049</ele>
        <time>2011-10-09T11:02:38Z</time>
      </trkpt>
      <trkpt lat="44.02938" lon="6.91394">
        <ele>1750.400024</ele>
        <time>2011-10-09T11:02:40Z</time>
      </trkpt>
      <trkpt lat="44.02931" lon="6.91405">
        <ele>1748.800049</ele>
        <time>2011-10-09T11:02:43Z</time>
      </trkpt>
      <trkpt lat="44.02927" lon="6.91415">
        <ele>1746.800049</ele>
        <time>2011-10-09T11:02:45Z</time>
      </trkpt>
      <trkpt lat="44.02923" lon="6.91425">
        <ele>1744.599976</ele>
        <time>2011-10-09T11:02:47Z</time>
      </trkpt>
      <trkpt lat="44.02921" lon="6.91431">
        <ele>1743</ele>
        <time>2011-10-09T11:02:48Z</time>
      </trkpt>
      <trkpt lat="44.02915" lon="6.91445">
        <ele>1739.800049</ele>
        <time>2011-10-09T11:02:51Z</time>
      </trkpt>
      <trkpt lat="44.02911" lon="6.91452">
        <ele>1739</ele>
        <time>2011-10-09T11:02:53Z</time>
      </trkpt>
      <trkpt lat="44.02905" lon="6.91459">
        <ele>1738.199951</ele>
        <time>2011-10-09T11:02:55Z</time>
      </trkpt>
      <trkpt lat="44.029" lon="6.91465">
        <ele>1738</ele>
        <time>2011-10-09T11:02:57Z</time>
      </trkpt>
      <trkpt lat="44.02894" lon="6.91468">
        <ele>1738</ele>
        <time>2011-10-09T11:03:01Z</time>
      </trkpt>
      <trkpt lat="44.02888" lon="6.91469">
        <ele>1738.800049</ele>
        <time>2011-10-09T11:03:11Z</time>
      </trkpt>
      <trkpt lat="44.02884" lon="6.91475">
        <ele>1737.599976</ele>
        <time>2011-10-09T11:03:17Z</time>
      </trkpt>
      <trkpt lat="44.02878" lon="6.91478">
        <ele>1737.800049</ele>
        <time>2011-10-09T11:03:22Z</time>
      </trkpt>
      <trkpt lat="44.02871" lon="6.91481">
        <ele>1737.800049</ele>
        <time>2011-10-09T11:03:26Z</time>
      </trkpt>
      <trkpt lat="44.02868" lon="6.91497">
        <ele>1733</ele>
        <time>2011-10-09T11:03:34Z</time>
      </trkpt>
      <trkpt lat="44.02868" lon="6.91504">
        <ele>1730.800049</ele>
        <time>2011-10-09T11:03:37Z</time>
      </trkpt>
      <trkpt lat="44.0287" lon="6.91512">
        <ele>1728.400024</ele>
        <time>2011-10-09T11:03:40Z</time>
      </trkpt>
      <trkpt lat="44.02874" lon="6.9152">
        <ele>1726.199951</ele>
        <time>2011-10-09T11:03:43Z</time>
      </trkpt>
      <trkpt lat="44.0287" lon="6.91531">
        <ele>1722.800049</ele>
        <time>2011-10-09T11:03:49Z</time>
      </trkpt>
      <trkpt lat="44.02862" lon="6.91539">
        <ele>1720.199951</ele>
        <time>2011-10-09T11:03:52Z</time>
      </trkpt>
      <trkpt lat="44.02857" lon="6.91546">
        <ele>1717.800049</ele>
        <time>2011-10-09T11:03:54Z</time>
      </trkpt>
      <trkpt lat="44.02851" lon="6.91551">
        <ele>1715.400024</ele>
        <time>2011-10-09T11:03:56Z</time>
      </trkpt>
      <trkpt lat="44.02845" lon="6.91558">
        <ele>1712.199951</ele>
        <time>2011-10-09T11:03:58Z</time>
      </trkpt>
      <trkpt lat="44.02839" lon="6.91564">
        <ele>1709</ele>
        <time>2011-10-09T11:04:00Z</time>
      </trkpt>
      <trkpt lat="44.02833" lon="6.91569">
        <ele>1706</ele>
        <time>2011-10-09T11:04:02Z</time>
      </trkpt>
      <trkpt lat="44.02827" lon="6.91574">
        <ele>1704.199951</ele>
        <time>2011-10-09T11:04:04Z</time>
      </trkpt>
      <trkpt lat="44.02819" lon="6.91579">
        <ele>1702.400024</ele>
        <time>2011-10-09T11:04:06Z</time>
      </trkpt>
      <trkpt lat="44.02811" lon="6.91585">
        <ele>1700.800049</ele>
        <time>2011-10-09T11:04:08Z</time>
      </trkpt>
      <trkpt lat="44.02799" lon="6.91591">
        <ele>1699</ele>
        <time>2011-10-09T11:04:11Z</time>
      </trkpt>
      <trkpt lat="44.02788" lon="6.91591">
        <ele>1699.400024</ele>
        <time>2011-10-09T11:04:15Z</time>
      </trkpt>
      <trkpt lat="44.02783" lon="6.91589">
        <ele>1700.599976</ele>
        <time>2011-10-09T11:04:19Z</time>
      </trkpt>
      <trkpt lat="44.02778" lon="6.91582">
        <ele>1703.599976</ele>
        <time>2011-10-09T11:04:23Z</time>
      </trkpt>
      <trkpt lat="44.02774" lon="6.91581">
        <ele>1704.400024</ele>
        <time>2011-10-09T11:04:25Z</time>
      </trkpt>
      <trkpt lat="44.02767" lon="6.91581">
        <ele>1705</ele>
        <time>2011-10-09T11:04:27Z</time>
      </trkpt>
      <trkpt lat="44.02761" lon="6.91583">
        <ele>1704.400024</ele>
        <time>2011-10-09T11:04:29Z</time>
      </trkpt>
      <trkpt lat="44.02756" lon="6.91585">
        <ele>1703.800049</ele>
        <time>2011-10-09T11:04:31Z</time>
      </trkpt>
      <trkpt lat="44.02751" lon="6.91589">
        <ele>1702</ele>
        <time>2011-10-09T11:04:34Z</time>
      </trkpt>
      <trkpt lat="44.02745" lon="6.91591">
        <ele>1700</ele>
        <time>2011-10-09T11:04:40Z</time>
      </trkpt>
      <trkpt lat="44.0274" lon="6.91592">
        <ele>1698.599976</ele>
        <time>2011-10-09T11:04:44Z</time>
      </trkpt>
      <trkpt lat="44.02735" lon="6.9159">
        <ele>1698.599976</ele>
        <time>2011-10-09T11:04:53Z</time>
      </trkpt>
      <trkpt lat="44.02727" lon="6.9159">
        <ele>1696.599976</ele>
        <time>2011-10-09T11:04:57Z</time>
      </trkpt>
      <trkpt lat="44.0272" lon="6.91591">
        <ele>1694.599976</ele>
        <time>2011-10-09T11:05:01Z</time>
      </trkpt>
      <trkpt lat="44.02712" lon="6.91591">
        <ele>1693.199951</ele>
        <time>2011-10-09T11:05:04Z</time>
      </trkpt>
      <trkpt lat="44.02705" lon="6.91588">
        <ele>1692.800049</ele>
        <time>2011-10-09T11:05:06Z</time>
      </trkpt>
      <trkpt lat="44.02699" lon="6.91584">
        <ele>1693.400024</ele>
        <time>2011-10-09T11:05:08Z</time>
      </trkpt>
      <trkpt lat="44.02684" lon="6.91574">
        <ele>1694.400024</ele>
        <time>2011-10-09T11:05:13Z</time>
      </trkpt>
      <trkpt lat="44.02672" lon="6.91558">
        <ele>1697.599976</ele>
        <time>2011-10-09T11:05:18Z</time>
      </trkpt>
      <trkpt lat="44.02665" lon="6.91545">
        <ele>1700.199951</ele>
        <time>2011-10-09T11:05:22Z</time>
      </trkpt>
      <trkpt lat="44.02665" lon="6.91539">
        <ele>1702.599976</ele>
        <time>2011-10-09T11:05:29Z</time>
      </trkpt>
      <trkpt lat="44.0266" lon="6.91538">
        <ele>1701.400024</ele>
        <time>2011-10-09T11:05:42Z</time>
      </trkpt>
      <trkpt lat="44.02653" lon="6.91543">
        <ele>1697.400024</ele>
        <time>2011-10-09T11:05:52Z</time>
      </trkpt>
      <trkpt lat="44.02643" lon="6.91546">
        <ele>1693.400024</ele>
        <time>2011-10-09T11:06:00Z</time>
      </trkpt>
      <trkpt lat="44.02636" lon="6.91541">
        <ele>1693.199951</ele>
        <time>2011-10-09T11:06:06Z</time>
      </trkpt>
      <trkpt lat="44.02624" lon="6.91528">
        <ele>1694.199951</ele>
        <time>2011-10-09T11:06:12Z</time>
      </trkpt>
      <trkpt lat="44.02621" lon="6.91521">
        <ele>1696</ele>
        <time>2011-10-09T11:06:15Z</time>
      </trkpt>
      <trkpt lat="44.0262" lon="6.9151">
        <ele>1699.599976</ele>
        <time>2011-10-09T11:06:19Z</time>
      </trkpt>
      <trkpt lat="44.02615" lon="6.91506">
        <ele>1699.599976</ele>
        <time>2011-10-09T11:06:23Z</time>
      </trkpt>
      <trkpt lat="44.02605" lon="6.91511">
        <ele>1695</ele>
        <time>2011-10-09T11:06:27Z</time>
      </trkpt>
      <trkpt lat="44.02601" lon="6.91516">
        <ele>1692.199951</ele>
        <time>2011-10-09T11:06:29Z</time>
      </trkpt>
      <trkpt lat="44.02596" lon="6.91521">
        <ele>1689</ele>
        <time>2011-10-09T11:06:31Z</time>
      </trkpt>
      <trkpt lat="44.02591" lon="6.91525">
        <ele>1685.800049</ele>
        <time>2011-10-09T11:06:33Z</time>
      </trkpt>
      <trkpt lat="44.02586" lon="6.91531">
        <ele>1682.199951</ele>
        <time>2011-10-09T11:06:35Z</time>
      </trkpt>
      <trkpt lat="44.02577" lon="6.91536">
        <ele>1678.599976</ele>
        <time>2011-10-09T11:06:38Z</time>
      </trkpt>
      <trkpt lat="44.02568" lon="6.91539">
        <ele>1676.199951</ele>
        <time>2011-10-09T11:06:41Z</time>
      </trkpt>
      <trkpt lat="44.02564" lon="6.9154">
        <ele>1674.800049</ele>
        <time>2011-10-09T11:06:43Z</time>
      </trkpt>
      <trkpt lat="44.02557" lon="6.91542">
        <ele>1673.199951</ele>
        <time>2011-10-09T11:06:46Z</time>
      </trkpt>
      <trkpt lat="44.02551" lon="6.91545">
        <ele>1671.400024</ele>
        <time>2011-10-09T11:06:49Z</time>
      </trkpt>
      <trkpt lat="44.02544" lon="6.91547">
        <ele>1669.599976</ele>
        <time>2011-10-09T11:06:52Z</time>
      </trkpt>
      <trkpt lat="44.02538" lon="6.91549">
        <ele>1668</ele>
        <time>2011-10-09T11:06:54Z</time>
      </trkpt>
      <trkpt lat="44.02528" lon="6.91556">
        <ele>1664.199951</ele>
        <time>2011-10-09T11:06:57Z</time>
      </trkpt>
      <trkpt lat="44.02524" lon="6.91559">
        <ele>1663</ele>
        <time>2011-10-09T11:06:58Z</time>
      </trkpt>
      <trkpt lat="44.02516" lon="6.91562">
        <ele>1660.800049</ele>
        <time>2011-10-09T11:07:00Z</time>
      </trkpt>
      <trkpt lat="44.02507" lon="6.91565">
        <ele>1659</ele>
        <time>2011-10-09T11:07:02Z</time>
      </trkpt>
      <trkpt lat="44.02495" lon="6.91564">
        <ele>1657.199951</ele>
        <time>2011-10-09T11:07:05Z</time>
      </trkpt>
      <trkpt lat="44.02483" lon="6.91562">
        <ele>1655.400024</ele>
        <time>2011-10-09T11:07:07Z</time>
      </trkpt>
      <trkpt lat="44.02478" lon="6.9156">
        <ele>1654.800049</ele>
        <time>2011-10-09T11:07:08Z</time>
      </trkpt>
      <trkpt lat="44.02473" lon="6.91558">
        <ele>1654</ele>
        <time>2011-10-09T11:07:09Z</time>
      </trkpt>
      <trkpt lat="44.02461" lon="6.91556">
        <ele>1652</ele>
        <time>2011-10-09T11:07:12Z</time>
      </trkpt>
      <trkpt lat="44.02449" lon="6.91547">
        <ele>1651.599976</ele>
        <time>2011-10-09T11:07:16Z</time>
      </trkpt>
      <trkpt lat="44.02444" lon="6.91541">
        <ele>1652.199951</ele>
        <time>2011-10-09T11:07:18Z</time>
      </trkpt>
      <trkpt lat="44.02435" lon="6.9153">
        <ele>1653</ele>
        <time>2011-10-09T11:07:21Z</time>
      </trkpt>
      <trkpt lat="44.02428" lon="6.91525">
        <ele>1652.599976</ele>
        <time>2011-10-09T11:07:23Z</time>
      </trkpt>
      <trkpt lat="44.02422" lon="6.91518">
        <ele>1652.800049</ele>
        <time>2011-10-09T11:07:25Z</time>
      </trkpt>
      <trkpt lat="44.02416" lon="6.91515">
        <ele>1652.199951</ele>
        <time>2011-10-09T11:07:27Z</time>
      </trkpt>
      <trkpt lat="44.02407" lon="6.91515">
        <ele>1649.400024</ele>
        <time>2011-10-09T11:07:29Z</time>
      </trkpt>
      <trkpt lat="44.02401" lon="6.91516">
        <ele>1647.199951</ele>
        <time>2011-10-09T11:07:30Z</time>
      </trkpt>
      <trkpt lat="44.02391" lon="6.91517">
        <ele>1644</ele>
        <time>2011-10-09T11:07:32Z</time>
      </trkpt>
      <trkpt lat="44.02386" lon="6.91517">
        <ele>1642.599976</ele>
        <time>2011-10-09T11:07:33Z</time>
      </trkpt>
      <trkpt lat="44.02378" lon="6.91514">
        <ele>1640.800049</ele>
        <time>2011-10-09T11:07:35Z</time>
      </trkpt>
      <trkpt lat="44.02373" lon="6.9151">
        <ele>1640.400024</ele>
        <time>2011-10-09T11:07:36Z</time>
      </trkpt>
      <trkpt lat="44.02362" lon="6.91506">
        <ele>1637.800049</ele>
        <time>2011-10-09T11:07:39Z</time>
      </trkpt>
      <trkpt lat="44.02356" lon="6.91505">
        <ele>1636.599976</ele>
        <time>2011-10-09T11:07:41Z</time>
      </trkpt>
      <trkpt lat="44.0235" lon="6.91504">
        <ele>1634.599976</ele>
        <time>2011-10-09T11:07:43Z</time>
      </trkpt>
      <trkpt lat="44.02342" lon="6.91504">
        <ele>1632.400024</ele>
        <time>2011-10-09T11:07:45Z</time>
      </trkpt>
      <trkpt lat="44.0233" lon="6.91507">
        <ele>1628.199951</ele>
        <time>2011-10-09T11:07:48Z</time>
      </trkpt>
      <trkpt lat="44.02324" lon="6.91514">
        <ele>1624.400024</ele>
        <time>2011-10-09T11:07:50Z</time>
      </trkpt>
      <trkpt lat="44.02314" lon="6.91524">
        <ele>1619.400024</ele>
        <time>2011-10-09T11:07:53Z</time>
      </trkpt>
      <trkpt lat="44.02307" lon="6.91524">
        <ele>1617.599976</ele>
        <time>2011-10-09T11:07:55Z</time>
      </trkpt>
      <trkpt lat="44.02298" lon="6.91517">
        <ele>1616</ele>
        <time>2011-10-09T11:07:58Z</time>
      </trkpt>
      <trkpt lat="44.02291" lon="6.91513">
        <ele>1614.800049</ele>
        <time>2011-10-09T11:08:02Z</time>
      </trkpt>
      <trkpt lat="44.02283" lon="6.9151">
        <ele>1612.599976</ele>
        <time>2011-10-09T11:08:04Z</time>
      </trkpt>
      <trkpt lat="44.02274" lon="6.91506">
        <ele>1610.199951</ele>
        <time>2011-10-09T11:08:06Z</time>
      </trkpt>
      <trkpt lat="44.02267" lon="6.91505">
        <ele>1608.199951</ele>
        <time>2011-10-09T11:08:07Z</time>
      </trkpt>
      <trkpt lat="44.0225" lon="6.91504">
        <ele>1602.800049</ele>
        <time>2011-10-09T11:08:10Z</time>
      </trkpt>
      <trkpt lat="44.02244" lon="6.91503">
        <ele>1602.199951</ele>
        <time>2011-10-09T11:08:11Z</time>
      </trkpt>
      <trkpt lat="44.02235" lon="6.91511">
        <ele>1600.800049</ele>
        <time>2011-10-09T11:08:14Z</time>
      </trkpt>
      <trkpt lat="44.0223" lon="6.91524">
        <ele>1599.599976</ele>
        <time>2011-10-09T11:08:16Z</time>
      </trkpt>
      <trkpt lat="44.02226" lon="6.91528">
        <ele>1598.800049</ele>
        <time>2011-10-09T11:08:17Z</time>
      </trkpt>
      <trkpt lat="44.0222" lon="6.91531">
        <ele>1597.800049</ele>
        <time>2011-10-09T11:08:18Z</time>
      </trkpt>
      <trkpt lat="44.02205" lon="6.91535">
        <ele>1595.400024</ele>
        <time>2011-10-09T11:08:20Z</time>
      </trkpt>
      <trkpt lat="44.02198" lon="6.91539">
        <ele>1594.199951</ele>
        <time>2011-10-09T11:08:21Z</time>
      </trkpt>
      <trkpt lat="44.02191" lon="6.91542">
        <ele>1593</ele>
        <time>2011-10-09T11:08:22Z</time>
      </trkpt>
      <trkpt lat="44.02181" lon="6.91547">
        <ele>1591</ele>
        <time>2011-10-09T11:08:24Z</time>
      </trkpt>
      <trkpt lat="44.02174" lon="6.91549">
        <ele>1589.800049</ele>
        <time>2011-10-09T11:08:28Z</time>
      </trkpt>
      <trkpt lat="44.0217" lon="6.91558">
        <ele>1588.199951</ele>
        <time>2011-10-09T11:12:42Z</time>
      </trkpt>
      <trkpt lat="44.02164" lon="6.91561">
        <ele>1587.400024</ele>
        <time>2011-10-09T11:12:44Z</time>
      </trkpt>
      <trkpt lat="44.02159" lon="6.91563">
        <ele>1587.400024</ele>
        <time>2011-10-09T11:12:46Z</time>
      </trkpt>
      <trkpt lat="44.02153" lon="6.91567">
        <ele>1587</ele>
        <time>2011-10-09T11:12:51Z</time>
      </trkpt>
      <trkpt lat="44.0214" lon="6.91572">
        <ele>1586.199951</ele>
        <time>2011-10-09T11:12:58Z</time>
      </trkpt>
      <trkpt lat="44.02131" lon="6.91574">
        <ele>1585.800049</ele>
        <time>2011-10-09T11:13:04Z</time>
      </trkpt>
      <trkpt lat="44.02124" lon="6.91575">
        <ele>1585.599976</ele>
        <time>2011-10-09T11:13:10Z</time>
      </trkpt>
      <trkpt lat="44.02118" lon="6.91576">
        <ele>1585.599976</ele>
        <time>2011-10-09T11:13:14Z</time>
      </trkpt>
      <trkpt lat="44.02113" lon="6.91576">
        <ele>1585.400024</ele>
        <time>2011-10-09T11:13:16Z</time>
      </trkpt>
      <trkpt lat="44.02104" lon="6.91575">
        <ele>1585.800049</ele>
        <time>2011-10-09T11:13:20Z</time>
      </trkpt>
      <trkpt lat="44.02101" lon="6.9157">
        <ele>1587.199951</ele>
        <time>2011-10-09T11:13:26Z</time>
      </trkpt>
      <trkpt lat="44.02095" lon="6.91563">
        <ele>1589.400024</ele>
        <time>2011-10-09T11:13:38Z</time>
      </trkpt>
      <trkpt lat="44.02089" lon="6.91566">
        <ele>1588.599976</ele>
        <time>2011-10-09T11:13:44Z</time>
      </trkpt>
      <trkpt lat="44.0208" lon="6.9157">
        <ele>1587.599976</ele>
        <time>2011-10-09T11:13:51Z</time>
      </trkpt>
      <trkpt lat="44.02072" lon="6.91573">
        <ele>1586.800049</ele>
        <time>2011-10-09T11:13:59Z</time>
      </trkpt>
      <trkpt lat="44.02067" lon="6.91577">
        <ele>1585.800049</ele>
        <time>2011-10-09T11:14:03Z</time>
      </trkpt>
      <trkpt lat="44.02053" lon="6.91586">
        <ele>1583</ele>
        <time>2011-10-09T11:14:10Z</time>
      </trkpt>
      <trkpt lat="44.02038" lon="6.91588">
        <ele>1582.800049</ele>
        <time>2011-10-09T11:14:15Z</time>
      </trkpt>
      <trkpt lat="44.02025" lon="6.91591">
        <ele>1582.400024</ele>
        <time>2011-10-09T11:14:20Z</time>
      </trkpt>
      <trkpt lat="44.02018" lon="6.91596">
        <ele>1581</ele>
        <time>2011-10-09T11:14:23Z</time>
      </trkpt>
      <trkpt lat="44.02012" lon="6.916">
        <ele>1579.800049</ele>
        <time>2011-10-09T11:14:25Z</time>
      </trkpt>
      <trkpt lat="44.02008" lon="6.91603">
        <ele>1579</ele>
        <time>2011-10-09T11:14:27Z</time>
      </trkpt>
      <trkpt lat="44.02001" lon="6.916">
        <ele>1580.199951</ele>
        <time>2011-10-09T11:14:35Z</time>
      </trkpt>
      <trkpt lat="44.02001" lon="6.91593">
        <ele>1582.400024</ele>
        <time>2011-10-09T11:14:39Z</time>
      </trkpt>
      <trkpt lat="44.02" lon="6.91585">
        <ele>1585.400024</ele>
        <time>2011-10-09T11:14:42Z</time>
      </trkpt>
      <trkpt lat="44.01997" lon="6.91578">
        <ele>1588.400024</ele>
        <time>2011-10-09T11:14:45Z</time>
      </trkpt>
      <trkpt lat="44.01988" lon="6.91576">
        <ele>1589.599976</ele>
        <time>2011-10-09T11:14:53Z</time>
      </trkpt>
      <trkpt lat="44.01983" lon="6.9158">
        <ele>1588.199951</ele>
        <time>2011-10-09T11:14:58Z</time>
      </trkpt>
      <trkpt lat="44.01977" lon="6.91586">
        <ele>1586.400024</ele>
        <time>2011-10-09T11:15:04Z</time>
      </trkpt>
      <trkpt lat="44.0197" lon="6.91592">
        <ele>1584.400024</ele>
        <time>2011-10-09T11:15:10Z</time>
      </trkpt>
      <trkpt lat="44.01963" lon="6.91598">
        <ele>1582.599976</ele>
        <time>2011-10-09T11:15:15Z</time>
      </trkpt>
      <trkpt lat="44.01954" lon="6.91604">
        <ele>1581.199951</ele>
        <time>2011-10-09T11:15:19Z</time>
      </trkpt>
      <trkpt lat="44.01946" lon="6.91608">
        <ele>1580</ele>
        <time>2011-10-09T11:15:22Z</time>
      </trkpt>
      <trkpt lat="44.01937" lon="6.91611">
        <ele>1579.199951</ele>
        <time>2011-10-09T11:15:25Z</time>
      </trkpt>
      <trkpt lat="44.01922" lon="6.91619">
        <ele>1576.400024</ele>
        <time>2011-10-09T11:15:29Z</time>
      </trkpt>
      <trkpt lat="44.01914" lon="6.91625">
        <ele>1574.800049</ele>
        <time>2011-10-09T11:15:31Z</time>
      </trkpt>
      <trkpt lat="44.01908" lon="6.91629">
        <ele>1574.199951</ele>
        <time>2011-10-09T11:15:33Z</time>
      </trkpt>
      <trkpt lat="44.01903" lon="6.91631">
        <ele>1574.199951</ele>
        <time>2011-10-09T11:15:35Z</time>
      </trkpt>
      <trkpt lat="44.01894" lon="6.91633">
        <ele>1574.800049</ele>
        <time>2011-10-09T11:15:39Z</time>
      </trkpt>
      <trkpt lat="44.01888" lon="6.91632">
        <ele>1576</ele>
        <time>2011-10-09T11:15:42Z</time>
      </trkpt>
      <trkpt lat="44.01881" lon="6.91626">
        <ele>1579.199951</ele>
        <time>2011-10-09T11:15:46Z</time>
      </trkpt>
      <trkpt lat="44.01875" lon="6.91619">
        <ele>1582.400024</ele>
        <time>2011-10-09T11:15:52Z</time>
      </trkpt>
      <trkpt lat="44.01865" lon="6.91626">
        <ele>1581.599976</ele>
        <time>2011-10-09T11:16:00Z</time>
      </trkpt>
      <trkpt lat="44.01858" lon="6.91631">
        <ele>1581</ele>
        <time>2011-10-09T11:16:04Z</time>
      </trkpt>
      <trkpt lat="44.01856" lon="6.91636">
        <ele>1579.800049</ele>
        <time>2011-10-09T11:16:06Z</time>
      </trkpt>
      <trkpt lat="44.01855" lon="6.91644">
        <ele>1577.599976</ele>
        <time>2011-10-09T11:16:08Z</time>
      </trkpt>
      <trkpt lat="44.01854" lon="6.91651">
        <ele>1575.400024</ele>
        <time>2011-10-09T11:16:10Z</time>
      </trkpt>
      <trkpt lat="44.01854" lon="6.91659">
        <ele>1573</ele>
        <time>2011-10-09T11:16:12Z</time>
      </trkpt>
      <trkpt lat="44.01853" lon="6.91666">
        <ele>1571.199951</ele>
        <time>2011-10-09T11:16:14Z</time>
      </trkpt>
      <trkpt lat="44.01849" lon="6.91673">
        <ele>1569.800049</ele>
        <time>2011-10-09T11:16:17Z</time>
      </trkpt>
      <trkpt lat="44.01846" lon="6.91684">
        <ele>1567.199951</ele>
        <time>2011-10-09T11:16:21Z</time>
      </trkpt>
      <trkpt lat="44.01838" lon="6.91692">
        <ele>1566.400024</ele>
        <time>2011-10-09T11:16:27Z</time>
      </trkpt>
      <trkpt lat="44.01833" lon="6.91695">
        <ele>1566.800049</ele>
        <time>2011-10-09T11:16:33Z</time>
      </trkpt>
      <trkpt lat="44.01834" lon="6.91703">
        <ele>1564.199951</ele>
        <time>2011-10-09T11:16:41Z</time>
      </trkpt>
      <trkpt lat="44.01828" lon="6.9172">
        <ele>1562</ele>
        <time>2011-10-09T11:16:49Z</time>
      </trkpt>
      <trkpt lat="44.0182" lon="6.91729">
        <ele>1563.599976</ele>
        <time>2011-10-09T11:16:53Z</time>
      </trkpt>
      <trkpt lat="44.01811" lon="6.91731">
        <ele>1567.400024</ele>
        <time>2011-10-09T11:16:57Z</time>
      </trkpt>
      <trkpt lat="44.01806" lon="6.9173">
        <ele>1570.400024</ele>
        <time>2011-10-09T11:17:00Z</time>
      </trkpt>
      <trkpt lat="44.01799" lon="6.91729">
        <ele>1574</ele>
        <time>2011-10-09T11:17:04Z</time>
      </trkpt>
      <trkpt lat="44.01792" lon="6.91731">
        <ele>1577</ele>
        <time>2011-10-09T11:17:08Z</time>
      </trkpt>
      <trkpt lat="44.01791" lon="6.91741">
        <ele>1575</ele>
        <time>2011-10-09T11:17:16Z</time>
      </trkpt>
      <trkpt lat="44.01792" lon="6.91748">
        <ele>1572.800049</ele>
        <time>2011-10-09T11:17:21Z</time>
      </trkpt>
      <trkpt lat="44.01792" lon="6.91755">
        <ele>1572</ele>
        <time>2011-10-09T11:17:24Z</time>
      </trkpt>
      <trkpt lat="44.01798" lon="6.9177">
        <ele>1567.400024</ele>
        <time>2011-10-09T11:17:32Z</time>
      </trkpt>
      <trkpt lat="44.01805" lon="6.91787">
        <ele>1563.400024</ele>
        <time>2011-10-09T11:17:37Z</time>
      </trkpt>
      <trkpt lat="44.01804" lon="6.91824">
        <ele>1561.199951</ele>
        <time>2011-10-09T11:17:42Z</time>
      </trkpt>
      <trkpt lat="44.01803" lon="6.91834">
        <ele>1561.199951</ele>
        <time>2011-10-09T11:17:43Z</time>
      </trkpt>
      <trkpt lat="44.01801" lon="6.91851">
        <ele>1559.400024</ele>
        <time>2011-10-09T11:17:45Z</time>
      </trkpt>
      <trkpt lat="44.01798" lon="6.91863">
        <ele>1558.599976</ele>
        <time>2011-10-09T11:17:48Z</time>
      </trkpt>
      <trkpt lat="44.01791" lon="6.91878">
        <ele>1559.400024</ele>
        <time>2011-10-09T11:17:52Z</time>
      </trkpt>
      <trkpt lat="44.01786" lon="6.91896">
        <ele>1558.599976</ele>
        <time>2011-10-09T11:17:58Z</time>
      </trkpt>
      <trkpt lat="44.01781" lon="6.91906">
        <ele>1559</ele>
        <time>2011-10-09T11:18:02Z</time>
      </trkpt>
      <trkpt lat="44.01776" lon="6.91917">
        <ele>1559.400024</ele>
        <time>2011-10-09T11:18:06Z</time>
      </trkpt>
      <trkpt lat="44.01773" lon="6.91923">
        <ele>1559.800049</ele>
        <time>2011-10-09T11:18:08Z</time>
      </trkpt>
      <trkpt lat="44.01769" lon="6.91928">
        <ele>1560.599976</ele>
        <time>2011-10-09T11:18:10Z</time>
      </trkpt>
      <trkpt lat="44.01755" lon="6.91944">
        <ele>1563.599976</ele>
        <time>2011-10-09T11:18:15Z</time>
      </trkpt>
      <trkpt lat="44.01742" lon="6.91957">
        <ele>1566.400024</ele>
        <time>2011-10-09T11:18:21Z</time>
      </trkpt>
      <trkpt lat="44.01738" lon="6.91963">
        <ele>1566.599976</ele>
        <time>2011-10-09T11:18:24Z</time>
      </trkpt>
      <trkpt lat="44.01733" lon="6.91974">
        <ele>1566.199951</ele>
        <time>2011-10-09T11:18:28Z</time>
      </trkpt>
      <trkpt lat="44.01728" lon="6.91983">
        <ele>1566</ele>
        <time>2011-10-09T11:18:32Z</time>
      </trkpt>
      <trkpt lat="44.01716" lon="6.91995">
        <ele>1567.400024</ele>
        <time>2011-10-09T11:18:39Z</time>
      </trkpt>
      <trkpt lat="44.01709" lon="6.92001">
        <ele>1568.400024</ele>
        <time>2011-10-09T11:18:43Z</time>
      </trkpt>
      <trkpt lat="44.01704" lon="6.92006">
        <ele>1569.400024</ele>
        <time>2011-10-09T11:18:47Z</time>
      </trkpt>
      <trkpt lat="44.01697" lon="6.92013">
        <ele>1570.400024</ele>
        <time>2011-10-09T11:18:51Z</time>
      </trkpt>
      <trkpt lat="44.01694" lon="6.92018">
        <ele>1570.800049</ele>
        <time>2011-10-09T11:18:53Z</time>
      </trkpt>
      <trkpt lat="44.0169" lon="6.92023">
        <ele>1571.400024</ele>
        <time>2011-10-09T11:18:55Z</time>
      </trkpt>
      <trkpt lat="44.01684" lon="6.92026">
        <ele>1572.599976</ele>
        <time>2011-10-09T11:18:59Z</time>
      </trkpt>
      <trkpt lat="44.01679" lon="6.92032">
        <ele>1573.199951</ele>
        <time>2011-10-09T11:19:02Z</time>
      </trkpt>
      <trkpt lat="44.01675" lon="6.92039">
        <ele>1573.400024</ele>
        <time>2011-10-09T11:19:06Z</time>
      </trkpt>
      <trkpt lat="44.01668" lon="6.92048">
        <ele>1573.800049</ele>
        <time>2011-10-09T11:19:19Z</time>
      </trkpt>
      <trkpt lat="44.01663" lon="6.92051">
        <ele>1574.400024</ele>
        <time>2011-10-09T11:19:26Z</time>
      </trkpt>
      <trkpt lat="44.01654" lon="6.92052">
        <ele>1575.400024</ele>
        <time>2011-10-09T11:19:40Z</time>
      </trkpt>
      <trkpt lat="44.0165" lon="6.92052">
        <ele>1576.199951</ele>
        <time>2011-10-09T11:19:44Z</time>
      </trkpt>
      <trkpt lat="44.01645" lon="6.92054">
        <ele>1576.400024</ele>
        <time>2011-10-09T11:19:49Z</time>
      </trkpt>
      <trkpt lat="44.01638" lon="6.92052">
        <ele>1577.800049</ele>
        <time>2011-10-09T11:19:56Z</time>
      </trkpt>
      <trkpt lat="44.01627" lon="6.92055">
        <ele>1578.800049</ele>
        <time>2011-10-09T11:20:05Z</time>
      </trkpt>
      <trkpt lat="44.01622" lon="6.92057">
        <ele>1579</ele>
        <time>2011-10-09T11:20:08Z</time>
      </trkpt>
      <trkpt lat="44.01614" lon="6.9206">
        <ele>1579</ele>
        <time>2011-10-09T11:20:12Z</time>
      </trkpt>
      <trkpt lat="44.01602" lon="6.92067">
        <ele>1578.599976</ele>
        <time>2011-10-09T11:20:19Z</time>
      </trkpt>
      <trkpt lat="44.01594" lon="6.92068">
        <ele>1579.199951</ele>
        <time>2011-10-09T11:20:23Z</time>
      </trkpt>
      <trkpt lat="44.01586" lon="6.92068">
        <ele>1580</ele>
        <time>2011-10-09T11:20:27Z</time>
      </trkpt>
      <trkpt lat="44.0158" lon="6.92067">
        <ele>1580.400024</ele>
        <time>2011-10-09T11:20:30Z</time>
      </trkpt>
      <trkpt lat="44.01575" lon="6.92059">
        <ele>1582.800049</ele>
        <time>2011-10-09T11:20:34Z</time>
      </trkpt>
      <trkpt lat="44.01574" lon="6.92051">
        <ele>1585.599976</ele>
        <time>2011-10-09T11:20:38Z</time>
      </trkpt>
      <trkpt lat="44.01569" lon="6.92049">
        <ele>1586.199951</ele>
        <time>2011-10-09T11:20:41Z</time>
      </trkpt>
      <trkpt lat="44.01561" lon="6.92048">
        <ele>1585.800049</ele>
        <time>2011-10-09T11:20:45Z</time>
      </trkpt>
      <trkpt lat="44.01556" lon="6.92048">
        <ele>1585.400024</ele>
        <time>2011-10-09T11:20:47Z</time>
      </trkpt>
      <trkpt lat="44.01537" lon="6.92051">
        <ele>1582.599976</ele>
        <time>2011-10-09T11:20:55Z</time>
      </trkpt>
      <trkpt lat="44.01515" lon="6.92055">
        <ele>1579</ele>
        <time>2011-10-09T11:21:03Z</time>
      </trkpt>
      <trkpt lat="44.01507" lon="6.92055">
        <ele>1578</ele>
        <time>2011-10-09T11:21:05Z</time>
      </trkpt>
      <trkpt lat="44.01498" lon="6.92053">
        <ele>1577.800049</ele>
        <time>2011-10-09T11:21:06Z</time>
      </trkpt>
      <trkpt lat="44.01469" lon="6.92035">
        <ele>1577.800049</ele>
        <time>2011-10-09T11:21:13Z</time>
      </trkpt>
      <trkpt lat="44.01457" lon="6.92027">
        <ele>1577.599976</ele>
        <time>2011-10-09T11:21:16Z</time>
      </trkpt>
      <trkpt lat="44.01453" lon="6.92023">
        <ele>1577.800049</ele>
        <time>2011-10-09T11:21:17Z</time>
      </trkpt>
      <trkpt lat="44.01449" lon="6.92019">
        <ele>1578</ele>
        <time>2011-10-09T11:21:18Z</time>
      </trkpt>
      <trkpt lat="44.01441" lon="6.9201">
        <ele>1578.199951</ele>
        <time>2011-10-09T11:21:20Z</time>
      </trkpt>
      <trkpt lat="44.01437" lon="6.92005">
        <ele>1578.800049</ele>
        <time>2011-10-09T11:21:21Z</time>
      </trkpt>
      <trkpt lat="44.01434" lon="6.92">
        <ele>1579.400024</ele>
        <time>2011-10-09T11:21:22Z</time>
      </trkpt>
      <trkpt lat="44.01428" lon="6.91987">
        <ele>1582.400024</ele>
        <time>2011-10-09T11:21:24Z</time>
      </trkpt>
      <trkpt lat="44.01424" lon="6.91974">
        <ele>1585.800049</ele>
        <time>2011-10-09T11:21:26Z</time>
      </trkpt>
      <trkpt lat="44.0141" lon="6.91953">
        <ele>1589</ele>
        <time>2011-10-09T11:21:30Z</time>
      </trkpt>
      <trkpt lat="44.01402" lon="6.91944">
        <ele>1590.400024</ele>
        <time>2011-10-09T11:21:32Z</time>
      </trkpt>
      <trkpt lat="44.01395" lon="6.91934">
        <ele>1592.400024</ele>
        <time>2011-10-09T11:21:34Z</time>
      </trkpt>
      <trkpt lat="44.01388" lon="6.91925">
        <ele>1594.199951</ele>
        <time>2011-10-09T11:21:36Z</time>
      </trkpt>
      <trkpt lat="44.01384" lon="6.91921">
        <ele>1594.400024</ele>
        <time>2011-10-09T11:21:37Z</time>
      </trkpt>
      <trkpt lat="44.01379" lon="6.91919">
        <ele>1594</ele>
        <time>2011-10-09T11:21:38Z</time>
      </trkpt>
      <trkpt lat="44.01369" lon="6.9192">
        <ele>1590.800049</ele>
        <time>2011-10-09T11:21:41Z</time>
      </trkpt>
      <trkpt lat="44.01359" lon="6.91924">
        <ele>1586.599976</ele>
        <time>2011-10-09T11:21:42Z</time>
      </trkpt>
      <trkpt lat="44.01346" lon="6.91918">
        <ele>1585.400024</ele>
        <time>2011-10-09T11:21:45Z</time>
      </trkpt>
      <trkpt lat="44.01341" lon="6.91914">
        <ele>1586.199951</ele>
        <time>2011-10-09T11:21:46Z</time>
      </trkpt>
      <trkpt lat="44.01332" lon="6.91908">
        <ele>1586.800049</ele>
        <time>2011-10-09T11:21:48Z</time>
      </trkpt>
      <trkpt lat="44.01318" lon="6.91905">
        <ele>1589.599976</ele>
        <time>2011-10-09T11:21:51Z</time>
      </trkpt>
      <trkpt lat="44.01308" lon="6.91905">
        <ele>1590.599976</ele>
        <time>2011-10-09T11:21:53Z</time>
      </trkpt>
      <trkpt lat="44.01299" lon="6.91907">
        <ele>1590.400024</ele>
        <time>2011-10-09T11:21:55Z</time>
      </trkpt>
      <trkpt lat="44.01292" lon="6.91909">
        <ele>1589.800049</ele>
        <time>2011-10-09T11:21:57Z</time>
      </trkpt>
      <trkpt lat="44.01286" lon="6.91911">
        <ele>1589.599976</ele>
        <time>2011-10-09T11:21:59Z</time>
      </trkpt>
      <trkpt lat="44.01278" lon="6.91911">
        <ele>1590.199951</ele>
        <time>2011-10-09T11:22:01Z</time>
      </trkpt>
      <trkpt lat="44.01259" lon="6.9191">
        <ele>1592.400024</ele>
        <time>2011-10-09T11:22:06Z</time>
      </trkpt>
      <trkpt lat="44.01244" lon="6.91927">
        <ele>1587.599976</ele>
        <time>2011-10-09T11:22:12Z</time>
      </trkpt>
      <trkpt lat="44.0123" lon="6.91944">
        <ele>1585</ele>
        <time>2011-10-09T11:22:18Z</time>
      </trkpt>
      <trkpt lat="44.01222" lon="6.91954">
        <ele>1583.800049</ele>
        <time>2011-10-09T11:22:21Z</time>
      </trkpt>
      <trkpt lat="44.01216" lon="6.91961">
        <ele>1582.599976</ele>
        <time>2011-10-09T11:22:23Z</time>
      </trkpt>
      <trkpt lat="44.01211" lon="6.91969">
        <ele>1581.199951</ele>
        <time>2011-10-09T11:22:25Z</time>
      </trkpt>
      <trkpt lat="44.01207" lon="6.91976">
        <ele>1579.400024</ele>
        <time>2011-10-09T11:22:27Z</time>
      </trkpt>
      <trkpt lat="44.01198" lon="6.91998">
        <ele>1572.599976</ele>
        <time>2011-10-09T11:22:33Z</time>
      </trkpt>
      <trkpt lat="44.0119" lon="6.92014">
        <ele>1567.800049</ele>
        <time>2011-10-09T11:22:38Z</time>
      </trkpt>
      <trkpt lat="44.01174" lon="6.92015">
        <ele>1572.800049</ele>
        <time>2011-10-09T11:22:43Z</time>
      </trkpt>
      <trkpt lat="44.01158" lon="6.92016">
        <ele>1575.599976</ele>
        <time>2011-10-09T11:22:48Z</time>
      </trkpt>
      <trkpt lat="44.01139" lon="6.92028">
        <ele>1570.199951</ele>
        <time>2011-10-09T11:22:56Z</time>
      </trkpt>
      <trkpt lat="44.01132" lon="6.92039">
        <ele>1564.599976</ele>
        <time>2011-10-09T11:22:58Z</time>
      </trkpt>
      <trkpt lat="44.01108" lon="6.92033">
        <ele>1569.400024</ele>
        <time>2011-10-09T11:23:04Z</time>
      </trkpt>
      <trkpt lat="44.01096" lon="6.92025">
        <ele>1574.599976</ele>
        <time>2011-10-09T11:23:08Z</time>
      </trkpt>
      <trkpt lat="44.0109" lon="6.92021">
        <ele>1577.400024</ele>
        <time>2011-10-09T11:23:10Z</time>
      </trkpt>
      <trkpt lat="44.01083" lon="6.92015">
        <ele>1581.199951</ele>
        <time>2011-10-09T11:23:11Z</time>
      </trkpt>
      <trkpt lat="44.01076" lon="6.92009">
        <ele>1582.800049</ele>
        <time>2011-10-09T11:23:13Z</time>
      </trkpt>
      <trkpt lat="44.01059" lon="6.92008">
        <ele>1579.800049</ele>
        <time>2011-10-09T11:23:17Z</time>
      </trkpt>
      <trkpt lat="44.01032" lon="6.92002">
        <ele>1576.400024</ele>
        <time>2011-10-09T11:23:23Z</time>
      </trkpt>
      <trkpt lat="44.01022" lon="6.92002">
        <ele>1574.400024</ele>
        <time>2011-10-09T11:23:25Z</time>
      </trkpt>
      <trkpt lat="44.01012" lon="6.92001">
        <ele>1572</ele>
        <time>2011-10-09T11:23:28Z</time>
      </trkpt>
      <trkpt lat="44.01002" lon="6.92">
        <ele>1570.199951</ele>
        <time>2011-10-09T11:23:29Z</time>
      </trkpt>
      <trkpt lat="44.00992" lon="6.91999">
        <ele>1568</ele>
        <time>2011-10-09T11:23:32Z</time>
      </trkpt>
      <trkpt lat="44.00981" lon="6.91996">
        <ele>1565.800049</ele>
        <time>2011-10-09T11:23:33Z</time>
      </trkpt>
      <trkpt lat="44.00976" lon="6.91994">
        <ele>1565</ele>
        <time>2011-10-09T11:23:34Z</time>
      </trkpt>
      <trkpt lat="44.00968" lon="6.91987">
        <ele>1564.199951</ele>
        <time>2011-10-09T11:23:36Z</time>
      </trkpt>
      <trkpt lat="44.00962" lon="6.91978">
        <ele>1564.800049</ele>
        <time>2011-10-09T11:23:38Z</time>
      </trkpt>
      <trkpt lat="44.00958" lon="6.91966">
        <ele>1566.400024</ele>
        <time>2011-10-09T11:23:40Z</time>
      </trkpt>
      <trkpt lat="44.00954" lon="6.91949">
        <ele>1568.800049</ele>
        <time>2011-10-09T11:23:43Z</time>
      </trkpt>
      <trkpt lat="44.00951" lon="6.91924">
        <ele>1573.599976</ele>
        <time>2011-10-09T11:23:47Z</time>
      </trkpt>
      <trkpt lat="44.00942" lon="6.91892">
        <ele>1574.400024</ele>
        <time>2011-10-09T11:23:53Z</time>
      </trkpt>
      <trkpt lat="44.00937" lon="6.91881">
        <ele>1574</ele>
        <time>2011-10-09T11:23:55Z</time>
      </trkpt>
      <trkpt lat="44.00933" lon="6.91867">
        <ele>1574</ele>
        <time>2011-10-09T11:23:57Z</time>
      </trkpt>
      <trkpt lat="44.00932" lon="6.9186">
        <ele>1574.400024</ele>
        <time>2011-10-09T11:23:58Z</time>
      </trkpt>
      <trkpt lat="44.00926" lon="6.9184">
        <ele>1574.599976</ele>
        <time>2011-10-09T11:24:01Z</time>
      </trkpt>
      <trkpt lat="44.0092" lon="6.91821">
        <ele>1576</ele>
        <time>2011-10-09T11:24:04Z</time>
      </trkpt>
      <trkpt lat="44.00912" lon="6.91802">
        <ele>1578</ele>
        <time>2011-10-09T11:24:07Z</time>
      </trkpt>
      <trkpt lat="44.00902" lon="6.91792">
        <ele>1577.800049</ele>
        <time>2011-10-09T11:24:09Z</time>
      </trkpt>
      <trkpt lat="44.00897" lon="6.91787">
        <ele>1577.800049</ele>
        <time>2011-10-09T11:24:10Z</time>
      </trkpt>
      <trkpt lat="44.00892" lon="6.91782">
        <ele>1577.800049</ele>
        <time>2011-10-09T11:24:11Z</time>
      </trkpt>
      <trkpt lat="44.00881" lon="6.91772">
        <ele>1578.199951</ele>
        <time>2011-10-09T11:24:13Z</time>
      </trkpt>
      <trkpt lat="44.00876" lon="6.9177">
        <ele>1577.199951</ele>
        <time>2011-10-09T11:24:14Z</time>
      </trkpt>
      <trkpt lat="44.00869" lon="6.91768">
        <ele>1576.199951</ele>
        <time>2011-10-09T11:24:16Z</time>
      </trkpt>
      <trkpt lat="44.00857" lon="6.91768">
        <ele>1573.199951</ele>
        <time>2011-10-09T11:24:17Z</time>
      </trkpt>
      <trkpt lat="44.00846" lon="6.91767">
        <ele>1570.400024</ele>
        <time>2011-10-09T11:24:20Z</time>
      </trkpt>
      <trkpt lat="44.0084" lon="6.91766">
        <ele>1569.199951</ele>
        <time>2011-10-09T11:24:21Z</time>
      </trkpt>
      <trkpt lat="44.00824" lon="6.91766">
        <ele>1566</ele>
        <time>2011-10-09T11:24:23Z</time>
      </trkpt>
      <trkpt lat="44.00813" lon="6.91767">
        <ele>1564</ele>
        <time>2011-10-09T11:24:26Z</time>
      </trkpt>
      <trkpt lat="44.00796" lon="6.91767">
        <ele>1561.599976</ele>
        <time>2011-10-09T11:24:29Z</time>
      </trkpt>
      <trkpt lat="44.00786" lon="6.91765">
        <ele>1561</ele>
        <time>2011-10-09T11:24:30Z</time>
      </trkpt>
      <trkpt lat="44.00776" lon="6.91761">
        <ele>1561.199951</ele>
        <time>2011-10-09T11:24:32Z</time>
      </trkpt>
      <trkpt lat="44.00767" lon="6.91756">
        <ele>1561.800049</ele>
        <time>2011-10-09T11:24:34Z</time>
      </trkpt>
      <trkpt lat="44.00756" lon="6.91752">
        <ele>1562</ele>
        <time>2011-10-09T11:24:36Z</time>
      </trkpt>
      <trkpt lat="44.00733" lon="6.91745">
        <ele>1560.599976</ele>
        <time>2011-10-09T11:24:41Z</time>
      </trkpt>
      <trkpt lat="44.00723" lon="6.91741">
        <ele>1560</ele>
        <time>2011-10-09T11:24:42Z</time>
      </trkpt>
      <trkpt lat="44.00714" lon="6.91737">
        <ele>1559.599976</ele>
        <time>2011-10-09T11:24:45Z</time>
      </trkpt>
      <trkpt lat="44.00704" lon="6.91733">
        <ele>1559.199951</ele>
        <time>2011-10-09T11:24:47Z</time>
      </trkpt>
      <trkpt lat="44.00695" lon="6.9173">
        <ele>1558.599976</ele>
        <time>2011-10-09T11:24:48Z</time>
      </trkpt>
      <trkpt lat="44.00678" lon="6.91725">
        <ele>1557</ele>
        <time>2011-10-09T11:24:52Z</time>
      </trkpt>
      <trkpt lat="44.0065" lon="6.9171">
        <ele>1554.800049</ele>
        <time>2011-10-09T11:24:58Z</time>
      </trkpt>
      <trkpt lat="44.00637" lon="6.91706">
        <ele>1552</ele>
        <time>2011-10-09T11:25:01Z</time>
      </trkpt>
      <trkpt lat="44.00617" lon="6.91706">
        <ele>1546</ele>
        <time>2011-10-09T11:25:03Z</time>
      </trkpt>
      <trkpt lat="44.00612" lon="6.91704">
        <ele>1545</ele>
        <time>2011-10-09T11:25:04Z</time>
      </trkpt>
      <trkpt lat="44.00604" lon="6.91694">
        <ele>1545</ele>
        <time>2011-10-09T11:25:06Z</time>
      </trkpt>
      <trkpt lat="44.006" lon="6.91679">
        <ele>1547.199951</ele>
        <time>2011-10-09T11:25:08Z</time>
      </trkpt>
      <trkpt lat="44.00596" lon="6.91661">
        <ele>1548.400024</ele>
        <time>2011-10-09T11:25:10Z</time>
      </trkpt>
      <trkpt lat="44.00591" lon="6.91644">
        <ele>1546.400024</ele>
        <time>2011-10-09T11:25:12Z</time>
      </trkpt>
      <trkpt lat="44.00589" lon="6.91626">
        <ele>1545</ele>
        <time>2011-10-09T11:25:14Z</time>
      </trkpt>
      <trkpt lat="44.00588" lon="6.91616">
        <ele>1544.599976</ele>
        <time>2011-10-09T11:25:15Z</time>
      </trkpt>
      <trkpt lat="44.00588" lon="6.91606">
        <ele>1544.199951</ele>
        <time>2011-10-09T11:25:16Z</time>
      </trkpt>
      <trkpt lat="44.00587" lon="6.91595">
        <ele>1544</ele>
        <time>2011-10-09T11:25:17Z</time>
      </trkpt>
      <trkpt lat="44.00588" lon="6.91585">
        <ele>1544</ele>
        <time>2011-10-09T11:25:18Z</time>
      </trkpt>
      <trkpt lat="44.00593" lon="6.91566">
        <ele>1547.199951</ele>
        <time>2011-10-09T11:25:20Z</time>
      </trkpt>
      <trkpt lat="44.00595" lon="6.91557">
        <ele>1549</ele>
        <time>2011-10-09T11:25:21Z</time>
      </trkpt>
      <trkpt lat="44.00597" lon="6.91547">
        <ele>1550.400024</ele>
        <time>2011-10-09T11:25:22Z</time>
      </trkpt>
      <trkpt lat="44.00593" lon="6.91527">
        <ele>1549.599976</ele>
        <time>2011-10-09T11:25:24Z</time>
      </trkpt>
      <trkpt lat="44.00581" lon="6.91509">
        <ele>1546.599976</ele>
        <time>2011-10-09T11:25:27Z</time>
      </trkpt>
      <trkpt lat="44.00574" lon="6.915">
        <ele>1545.400024</ele>
        <time>2011-10-09T11:25:28Z</time>
      </trkpt>
      <trkpt lat="44.00552" lon="6.91481">
        <ele>1541</ele>
        <time>2011-10-09T11:25:30Z</time>
      </trkpt>
      <trkpt lat="44.00535" lon="6.91471">
        <ele>1537.599976</ele>
        <time>2011-10-09T11:25:32Z</time>
      </trkpt>
      <trkpt lat="44.00526" lon="6.91467">
        <ele>1535.599976</ele>
        <time>2011-10-09T11:25:33Z</time>
      </trkpt>
      <trkpt lat="44.00509" lon="6.91464">
        <ele>1531.199951</ele>
        <time>2011-10-09T11:25:35Z</time>
      </trkpt>
      <trkpt lat="44.005" lon="6.91462">
        <ele>1529</ele>
        <time>2011-10-09T11:25:36Z</time>
      </trkpt>
      <trkpt lat="44.00493" lon="6.91461">
        <ele>1528.400024</ele>
        <time>2011-10-09T11:25:37Z</time>
      </trkpt>
      <trkpt lat="44.0048" lon="6.91455">
        <ele>1528</ele>
        <time>2011-10-09T11:25:39Z</time>
      </trkpt>
      <trkpt lat="44.00476" lon="6.91452">
        <ele>1527.800049</ele>
        <time>2011-10-09T11:25:40Z</time>
      </trkpt>
      <trkpt lat="44.00465" lon="6.91448">
        <ele>1527</ele>
        <time>2011-10-09T11:25:43Z</time>
      </trkpt>
      <trkpt lat="44.00459" lon="6.91448">
        <ele>1526.400024</ele>
        <time>2011-10-09T11:25:46Z</time>
      </trkpt>
      <trkpt lat="44.00467" lon="6.91442">
        <ele>1527.599976</ele>
        <time>2011-10-09T11:25:57Z</time>
      </trkpt>
      <trkpt lat="44.00461" lon="6.91439">
        <ele>1527</ele>
        <time>2011-10-09T11:26:07Z</time>
      </trkpt>
      <trkpt lat="44.00457" lon="6.91429">
        <ele>1527</ele>
        <time>2011-10-09T11:28:41Z</time>
      </trkpt>
      <trkpt lat="44.00446" lon="6.91422">
        <ele>1525.599976</ele>
        <time>2011-10-09T11:33:48Z</time>
      </trkpt>
      <trkpt lat="44.00436" lon="6.91419">
        <ele>1524.199951</ele>
        <time>2011-10-09T11:33:54Z</time>
      </trkpt>
      <trkpt lat="44.00421" lon="6.91421">
        <ele>1521.800049</ele>
        <time>2011-10-09T11:34:01Z</time>
      </trkpt>
      <trkpt lat="44.0041" lon="6.91425">
        <ele>1519.800049</ele>
        <time>2011-10-09T11:34:05Z</time>
      </trkpt>
      <trkpt lat="44.00398" lon="6.91432">
        <ele>1517.599976</ele>
        <time>2011-10-09T11:34:10Z</time>
      </trkpt>
      <trkpt lat="44.00388" lon="6.91441">
        <ele>1516.400024</ele>
        <time>2011-10-09T11:34:14Z</time>
      </trkpt>
      <trkpt lat="44.0038" lon="6.91448">
        <ele>1515.599976</ele>
        <time>2011-10-09T11:34:15Z</time>
      </trkpt>
      <trkpt lat="44.00376" lon="6.91451">
        <ele>1515.199951</ele>
        <time>2011-10-09T11:34:16Z</time>
      </trkpt>
      <trkpt lat="44.00367" lon="6.91455">
        <ele>1514.199951</ele>
        <time>2011-10-09T11:34:18Z</time>
      </trkpt>
      <trkpt lat="44.00349" lon="6.9146">
        <ele>1512.400024</ele>
        <time>2011-10-09T11:34:22Z</time>
      </trkpt>
      <trkpt lat="44.00336" lon="6.91465">
        <ele>1511.599976</ele>
        <time>2011-10-09T11:34:25Z</time>
      </trkpt>
      <trkpt lat="44.00332" lon="6.91467">
        <ele>1511.599976</ele>
        <time>2011-10-09T11:34:26Z</time>
      </trkpt>
      <trkpt lat="44.00318" lon="6.91473">
        <ele>1512.599976</ele>
        <time>2011-10-09T11:34:29Z</time>
      </trkpt>
      <trkpt lat="44.00309" lon="6.91476">
        <ele>1513.199951</ele>
        <time>2011-10-09T11:34:31Z</time>
      </trkpt>
      <trkpt lat="44.00302" lon="6.91478">
        <ele>1513.400024</ele>
        <time>2011-10-09T11:34:32Z</time>
      </trkpt>
      <trkpt lat="44.00291" lon="6.91479">
        <ele>1513.599976</ele>
        <time>2011-10-09T11:34:34Z</time>
      </trkpt>
      <trkpt lat="44.00285" lon="6.91477">
        <ele>1513</ele>
        <time>2011-10-09T11:34:36Z</time>
      </trkpt>
      <trkpt lat="44.0028" lon="6.91473">
        <ele>1512</ele>
        <time>2011-10-09T11:34:38Z</time>
      </trkpt>
      <trkpt lat="44.00268" lon="6.91462">
        <ele>1509.199951</ele>
        <time>2011-10-09T11:34:43Z</time>
      </trkpt>
      <trkpt lat="44.00263" lon="6.91458">
        <ele>1508</ele>
        <time>2011-10-09T11:34:52Z</time>
      </trkpt>
      <trkpt lat="44.00257" lon="6.91448">
        <ele>1505.599976</ele>
        <time>2011-10-09T11:34:56Z</time>
      </trkpt>
      <trkpt lat="44.00243" lon="6.9143">
        <ele>1501</ele>
        <time>2011-10-09T11:35:04Z</time>
      </trkpt>
      <trkpt lat="44.00237" lon="6.91416">
        <ele>1497.599976</ele>
        <time>2011-10-09T11:35:06Z</time>
      </trkpt>
      <trkpt lat="44.00234" lon="6.9141">
        <ele>1495.400024</ele>
        <time>2011-10-09T11:35:09Z</time>
      </trkpt>
      <trkpt lat="44.00227" lon="6.91403">
        <ele>1493.400024</ele>
        <time>2011-10-09T11:35:10Z</time>
      </trkpt>
      <trkpt lat="44.00222" lon="6.91397">
        <ele>1491.599976</ele>
        <time>2011-10-09T11:35:13Z</time>
      </trkpt>
      <trkpt lat="44.00215" lon="6.91394">
        <ele>1491</ele>
        <time>2011-10-09T11:35:14Z</time>
      </trkpt>
      <trkpt lat="44.00205" lon="6.91388">
        <ele>1489.400024</ele>
        <time>2011-10-09T11:35:17Z</time>
      </trkpt>
      <trkpt lat="44.00201" lon="6.91386">
        <ele>1489</ele>
        <time>2011-10-09T11:35:19Z</time>
      </trkpt>
      <trkpt lat="44.0019" lon="6.91382">
        <ele>1488.400024</ele>
        <time>2011-10-09T11:35:20Z</time>
      </trkpt>
      <trkpt lat="44.00185" lon="6.91378">
        <ele>1487.599976</ele>
        <time>2011-10-09T11:35:22Z</time>
      </trkpt>
      <trkpt lat="44.00176" lon="6.91374">
        <ele>1486.800049</ele>
        <time>2011-10-09T11:35:23Z</time>
      </trkpt>
      <trkpt lat="44.00165" lon="6.91371">
        <ele>1486.400024</ele>
        <time>2011-10-09T11:35:27Z</time>
      </trkpt>
      <trkpt lat="44.00157" lon="6.91372">
        <ele>1485.800049</ele>
        <time>2011-10-09T11:35:28Z</time>
      </trkpt>
      <trkpt lat="44.00144" lon="6.9137">
        <ele>1484.199951</ele>
        <time>2011-10-09T11:35:31Z</time>
      </trkpt>
      <trkpt lat="44.00136" lon="6.91368">
        <ele>1482.599976</ele>
        <time>2011-10-09T11:35:34Z</time>
      </trkpt>
      <trkpt lat="44.00129" lon="6.91367">
        <ele>1481.800049</ele>
        <time>2011-10-09T11:35:36Z</time>
      </trkpt>
      <trkpt lat="44.0012" lon="6.91366">
        <ele>1480.400024</ele>
        <time>2011-10-09T11:35:39Z</time>
      </trkpt>
      <trkpt lat="44.00113" lon="6.91363">
        <ele>1478.599976</ele>
        <time>2011-10-09T11:35:41Z</time>
      </trkpt>
      <trkpt lat="44.00105" lon="6.9136">
        <ele>1477</ele>
        <time>2011-10-09T11:35:43Z</time>
      </trkpt>
      <trkpt lat="44.00097" lon="6.91361">
        <ele>1476.400024</ele>
        <time>2011-10-09T11:35:45Z</time>
      </trkpt>
      <trkpt lat="44.00088" lon="6.9136">
        <ele>1475.199951</ele>
        <time>2011-10-09T11:35:46Z</time>
      </trkpt>
      <trkpt lat="44.00078" lon="6.91359">
        <ele>1474.199951</ele>
        <time>2011-10-09T11:35:49Z</time>
      </trkpt>
      <trkpt lat="44.00072" lon="6.91358">
        <ele>1473.599976</ele>
        <time>2011-10-09T11:35:50Z</time>
      </trkpt>
      <trkpt lat="44.00061" lon="6.91356">
        <ele>1472.199951</ele>
        <time>2011-10-09T11:35:52Z</time>
      </trkpt>
      <trkpt lat="44.00049" lon="6.91354">
        <ele>1471</ele>
        <time>2011-10-09T11:35:53Z</time>
      </trkpt>
      <trkpt lat="44.00043" lon="6.91353">
        <ele>1470.400024</ele>
        <time>2011-10-09T11:35:55Z</time>
      </trkpt>
      <trkpt lat="44.00027" lon="6.91347">
        <ele>1467.599976</ele>
        <time>2011-10-09T11:35:58Z</time>
      </trkpt>
      <trkpt lat="44.00016" lon="6.91341">
        <ele>1465</ele>
        <time>2011-10-09T11:36:00Z</time>
      </trkpt>
      <trkpt lat="44.0001" lon="6.91337">
        <ele>1463.599976</ele>
        <time>2011-10-09T11:36:01Z</time>
      </trkpt>
      <trkpt lat="43.99995" lon="6.91332">
        <ele>1461.400024</ele>
        <time>2011-10-09T11:36:03Z</time>
      </trkpt>
      <trkpt lat="43.9999" lon="6.91331">
        <ele>1461.199951</ele>
        <time>2011-10-09T11:36:05Z</time>
      </trkpt>
      <trkpt lat="43.99986" lon="6.91331">
        <ele>1461</ele>
        <time>2011-10-09T11:36:06Z</time>
      </trkpt>
      <trkpt lat="43.99976" lon="6.91328">
        <ele>1459.800049</ele>
        <time>2011-10-09T11:36:08Z</time>
      </trkpt>
      <trkpt lat="43.9997" lon="6.91332">
        <ele>1461.599976</ele>
        <time>2011-10-09T11:36:11Z</time>
      </trkpt>
      <trkpt lat="43.99963" lon="6.91341">
        <ele>1464.400024</ele>
        <time>2011-10-09T11:36:14Z</time>
      </trkpt>
      <trkpt lat="43.99956" lon="6.91347">
        <ele>1459</ele>
        <time>2011-10-09T11:36:16Z</time>
      </trkpt>
      <trkpt lat="43.99952" lon="6.91351">
        <ele>1459.800049</ele>
        <time>2011-10-09T11:36:18Z</time>
      </trkpt>
      <trkpt lat="43.99947" lon="6.91349">
        <ele>1458.400024</ele>
        <time>2011-10-09T11:36:20Z</time>
      </trkpt>
      <trkpt lat="43.99941" lon="6.91345">
        <ele>1456.199951</ele>
        <time>2011-10-09T11:36:22Z</time>
      </trkpt>
      <trkpt lat="43.99934" lon="6.9134">
        <ele>1453.400024</ele>
        <time>2011-10-09T11:36:24Z</time>
      </trkpt>
      <trkpt lat="43.99929" lon="6.91338">
        <ele>1452.199951</ele>
        <time>2011-10-09T11:36:25Z</time>
      </trkpt>
      <trkpt lat="43.99913" lon="6.91337">
        <ele>1449.199951</ele>
        <time>2011-10-09T11:36:27Z</time>
      </trkpt>
      <trkpt lat="43.99905" lon="6.91341">
        <ele>1448.400024</ele>
        <time>2011-10-09T11:36:29Z</time>
      </trkpt>
      <trkpt lat="43.99899" lon="6.91344">
        <ele>1448.199951</ele>
        <time>2011-10-09T11:36:32Z</time>
      </trkpt>
      <trkpt lat="43.99894" lon="6.91342">
        <ele>1446.400024</ele>
        <time>2011-10-09T11:36:33Z</time>
      </trkpt>
      <trkpt lat="43.99885" lon="6.91337">
        <ele>1442.199951</ele>
        <time>2011-10-09T11:36:37Z</time>
      </trkpt>
      <trkpt lat="43.99878" lon="6.91336">
        <ele>1439.800049</ele>
        <time>2011-10-09T11:36:39Z</time>
      </trkpt>
      <trkpt lat="43.9987" lon="6.91336">
        <ele>1438</ele>
        <time>2011-10-09T11:36:41Z</time>
      </trkpt>
      <trkpt lat="43.99859" lon="6.91338">
        <ele>1436.400024</ele>
        <time>2011-10-09T11:36:44Z</time>
      </trkpt>
      <trkpt lat="43.99845" lon="6.91342">
        <ele>1434.400024</ele>
        <time>2011-10-09T11:36:46Z</time>
      </trkpt>
      <trkpt lat="43.99834" lon="6.91341">
        <ele>1431.199951</ele>
        <time>2011-10-09T11:36:49Z</time>
      </trkpt>
      <trkpt lat="43.99826" lon="6.91337">
        <ele>1427.599976</ele>
        <time>2011-10-09T11:36:53Z</time>
      </trkpt>
      <trkpt lat="43.9982" lon="6.91336">
        <ele>1425.800049</ele>
        <time>2011-10-09T11:36:55Z</time>
      </trkpt>
      <trkpt lat="43.99815" lon="6.91336">
        <ele>1424.599976</ele>
        <time>2011-10-09T11:36:58Z</time>
      </trkpt>
      <trkpt lat="43.99807" lon="6.91335">
        <ele>1422.400024</ele>
        <time>2011-10-09T11:37:01Z</time>
      </trkpt>
      <trkpt lat="43.99802" lon="6.91336">
        <ele>1421.199951</ele>
        <time>2011-10-09T11:37:04Z</time>
      </trkpt>
      <trkpt lat="43.99793" lon="6.91333">
        <ele>1418.199951</ele>
        <time>2011-10-09T11:37:09Z</time>
      </trkpt>
      <trkpt lat="43.99786" lon="6.91329">
        <ele>1415.199951</ele>
        <time>2011-10-09T11:37:15Z</time>
      </trkpt>
      <trkpt lat="43.99782" lon="6.9133">
        <ele>1414.400024</ele>
        <time>2011-10-09T11:37:43Z</time>
      </trkpt>
      <trkpt lat="43.99774" lon="6.91328">
        <ele>1411.800049</ele>
        <time>2011-10-09T11:37:46Z</time>
      </trkpt>
      <trkpt lat="43.99768" lon="6.91327">
        <ele>1409.800049</ele>
        <time>2011-10-09T11:37:50Z</time>
      </trkpt>
      <trkpt lat="43.99761" lon="6.91326">
        <ele>1407.599976</ele>
        <time>2011-10-09T11:37:54Z</time>
      </trkpt>
      <trkpt lat="43.99755" lon="6.91323">
        <ele>1405.199951</ele>
        <time>2011-10-09T11:37:58Z</time>
      </trkpt>
      <trkpt lat="43.99749" lon="6.91324">
        <ele>1404.199951</ele>
        <time>2011-10-09T11:38:10Z</time>
      </trkpt>
      <trkpt lat="43.9974" lon="6.91326">
        <ele>1403</ele>
        <time>2011-10-09T11:38:14Z</time>
      </trkpt>
      <trkpt lat="43.99734" lon="6.91328">
        <ele>1402.400024</ele>
        <time>2011-10-09T11:38:16Z</time>
      </trkpt>
      <trkpt lat="43.99728" lon="6.91326">
        <ele>1400.199951</ele>
        <time>2011-10-09T11:38:20Z</time>
      </trkpt>
      <trkpt lat="43.99724" lon="6.91323">
        <ele>1398</ele>
        <time>2011-10-09T11:38:22Z</time>
      </trkpt>
      <trkpt lat="43.9972" lon="6.91319">
        <ele>1395.800049</ele>
        <time>2011-10-09T11:38:24Z</time>
      </trkpt>
      <trkpt lat="43.99715" lon="6.91317">
        <ele>1394</ele>
        <time>2011-10-09T11:38:30Z</time>
      </trkpt>
      <trkpt lat="43.99711" lon="6.9131">
        <ele>1390.199951</ele>
        <time>2011-10-09T11:38:42Z</time>
      </trkpt>
      <trkpt lat="43.99712" lon="6.91299">
        <ele>1386.800049</ele>
        <time>2011-10-09T11:38:46Z</time>
      </trkpt>
      <trkpt lat="43.99707" lon="6.91296">
        <ele>1384.400024</ele>
        <time>2011-10-09T11:38:49Z</time>
      </trkpt>
      <trkpt lat="43.99701" lon="6.91297">
        <ele>1383.800049</ele>
        <time>2011-10-09T11:38:51Z</time>
      </trkpt>
      <trkpt lat="43.99696" lon="6.91299">
        <ele>1383.400024</ele>
        <time>2011-10-09T11:38:53Z</time>
      </trkpt>
      <trkpt lat="43.99689" lon="6.9129">
        <ele>1379</ele>
        <time>2011-10-09T11:38:58Z</time>
      </trkpt>
      <trkpt lat="43.99689" lon="6.91282">
        <ele>1376.199951</ele>
        <time>2011-10-09T11:39:00Z</time>
      </trkpt>
      <trkpt lat="43.99686" lon="6.91273">
        <ele>1372.599976</ele>
        <time>2011-10-09T11:39:03Z</time>
      </trkpt>
      <trkpt lat="43.9968" lon="6.91265">
        <ele>1368.400024</ele>
        <time>2011-10-09T11:39:06Z</time>
      </trkpt>
      <trkpt lat="43.99675" lon="6.9126">
        <ele>1366</ele>
        <time>2011-10-09T11:39:08Z</time>
      </trkpt>
      <trkpt lat="43.99672" lon="6.91254">
        <ele>1363.199951</ele>
        <time>2011-10-09T11:39:10Z</time>
      </trkpt>
      <trkpt lat="43.99673" lon="6.91243">
        <ele>1360.800049</ele>
        <time>2011-10-09T11:39:13Z</time>
      </trkpt>
      <trkpt lat="43.99673" lon="6.91235">
        <ele>1359.400024</ele>
        <time>2011-10-09T11:39:15Z</time>
      </trkpt>
      <trkpt lat="43.99669" lon="6.91219">
        <ele>1356</ele>
        <time>2011-10-09T11:39:17Z</time>
      </trkpt>
      <trkpt lat="43.99666" lon="6.91213">
        <ele>1354.800049</ele>
        <time>2011-10-09T11:39:18Z</time>
      </trkpt>
      <trkpt lat="43.99662" lon="6.91206">
        <ele>1352.400024</ele>
        <time>2011-10-09T11:39:21Z</time>
      </trkpt>
      <trkpt lat="43.99655" lon="6.912">
        <ele>1349.800049</ele>
        <time>2011-10-09T11:39:24Z</time>
      </trkpt>
      <trkpt lat="43.9965" lon="6.91196">
        <ele>1348</ele>
        <time>2011-10-09T11:44:45Z</time>
      </trkpt>
      <trkpt lat="43.99641" lon="6.91187">
        <ele>1344.400024</ele>
        <time>2011-10-09T11:44:48Z</time>
      </trkpt>
      <trkpt lat="43.99634" lon="6.9118">
        <ele>1341.599976</ele>
        <time>2011-10-09T11:44:50Z</time>
      </trkpt>
      <trkpt lat="43.99627" lon="6.91173">
        <ele>1338.599976</ele>
        <time>2011-10-09T11:44:52Z</time>
      </trkpt>
      <trkpt lat="43.9962" lon="6.91167">
        <ele>1335.800049</ele>
        <time>2011-10-09T11:44:54Z</time>
      </trkpt>
      <trkpt lat="43.99614" lon="6.91161">
        <ele>1334.800049</ele>
        <time>2011-10-09T11:44:56Z</time>
      </trkpt>
      <trkpt lat="43.99609" lon="6.91155">
        <ele>1334.199951</ele>
        <time>2011-10-09T11:44:58Z</time>
      </trkpt>
      <trkpt lat="43.99604" lon="6.91149">
        <ele>1333.599976</ele>
        <time>2011-10-09T11:45:00Z</time>
      </trkpt>
      <trkpt lat="43.99598" lon="6.91142">
        <ele>1333</ele>
        <time>2011-10-09T11:45:03Z</time>
      </trkpt>
      <trkpt lat="43.99592" lon="6.91136">
        <ele>1332</ele>
        <time>2011-10-09T11:45:06Z</time>
      </trkpt>
      <trkpt lat="43.99587" lon="6.91131">
        <ele>1331.199951</ele>
        <time>2011-10-09T11:45:08Z</time>
      </trkpt>
      <trkpt lat="43.99583" lon="6.91127">
        <ele>1330.400024</ele>
        <time>2011-10-09T11:45:10Z</time>
      </trkpt>
      <trkpt lat="43.99578" lon="6.91121">
        <ele>1329</ele>
        <time>2011-10-09T11:45:12Z</time>
      </trkpt>
      <trkpt lat="43.99574" lon="6.91116">
        <ele>1327.599976</ele>
        <time>2011-10-09T11:45:14Z</time>
      </trkpt>
      <trkpt lat="43.99569" lon="6.91112">
        <ele>1326</ele>
        <time>2011-10-09T11:45:16Z</time>
      </trkpt>
      <trkpt lat="43.99564" lon="6.9111">
        <ele>1323.800049</ele>
        <time>2011-10-09T11:45:21Z</time>
      </trkpt>
      <trkpt lat="43.9956" lon="6.91115">
        <ele>1321.800049</ele>
        <time>2011-10-09T11:45:33Z</time>
      </trkpt>
      <trkpt lat="43.99554" lon="6.91112">
        <ele>1319.400024</ele>
        <time>2011-10-09T11:45:38Z</time>
      </trkpt>
      <trkpt lat="43.99548" lon="6.91106">
        <ele>1317</ele>
        <time>2011-10-09T11:45:41Z</time>
      </trkpt>
      <trkpt lat="43.99541" lon="6.91098">
        <ele>1314</ele>
        <time>2011-10-09T11:45:44Z</time>
      </trkpt>
      <trkpt lat="43.99536" lon="6.91092">
        <ele>1311.400024</ele>
        <time>2011-10-09T11:45:46Z</time>
      </trkpt>
      <trkpt lat="43.99529" lon="6.91086">
        <ele>1308.199951</ele>
        <time>2011-10-09T11:45:48Z</time>
      </trkpt>
      <trkpt lat="43.9952" lon="6.91079">
        <ele>1304.400024</ele>
        <time>2011-10-09T11:45:51Z</time>
      </trkpt>
      <trkpt lat="43.99515" lon="6.91076">
        <ele>1302.800049</ele>
        <time>2011-10-09T11:45:53Z</time>
      </trkpt>
      <trkpt lat="43.9951" lon="6.91077">
        <ele>1300</ele>
        <time>2011-10-09T11:46:07Z</time>
      </trkpt>
      <trkpt lat="43.99502" lon="6.91072">
        <ele>1297.199951</ele>
        <time>2011-10-09T11:46:11Z</time>
      </trkpt>
      <trkpt lat="43.99497" lon="6.91067">
        <ele>1295.800049</ele>
        <time>2011-10-09T11:46:14Z</time>
      </trkpt>
      <trkpt lat="43.99493" lon="6.91063">
        <ele>1295</ele>
        <time>2011-10-09T11:46:16Z</time>
      </trkpt>
      <trkpt lat="43.99488" lon="6.91061">
        <ele>1293.400024</ele>
        <time>2011-10-09T11:46:19Z</time>
      </trkpt>
      <trkpt lat="43.99483" lon="6.91065">
        <ele>1290.599976</ele>
        <time>2011-10-09T11:46:22Z</time>
      </trkpt>
      <trkpt lat="43.99478" lon="6.91074">
        <ele>1287</ele>
        <time>2011-10-09T11:46:26Z</time>
      </trkpt>
      <trkpt lat="43.9947" lon="6.91071">
        <ele>1284.400024</ele>
        <time>2011-10-09T11:46:30Z</time>
      </trkpt>
      <trkpt lat="43.99464" lon="6.9107">
        <ele>1281.800049</ele>
        <time>2011-10-09T11:46:34Z</time>
      </trkpt>
      <trkpt lat="43.99461" lon="6.91077">
        <ele>1279.599976</ele>
        <time>2011-10-09T11:46:37Z</time>
      </trkpt>
      <trkpt lat="43.99458" lon="6.91082">
        <ele>1277.199951</ele>
        <time>2011-10-09T11:46:39Z</time>
      </trkpt>
      <trkpt lat="43.99452" lon="6.9109">
        <ele>1275.800049</ele>
        <time>2011-10-09T11:46:42Z</time>
      </trkpt>
      <trkpt lat="43.99446" lon="6.91093">
        <ele>1273.800049</ele>
        <time>2011-10-09T11:46:45Z</time>
      </trkpt>
      <trkpt lat="43.9944" lon="6.91092">
        <ele>1271.199951</ele>
        <time>2011-10-09T11:46:48Z</time>
      </trkpt>
      <trkpt lat="43.99437" lon="6.91087">
        <ele>1269.199951</ele>
        <time>2011-10-09T11:46:56Z</time>
      </trkpt>
      <trkpt lat="43.99431" lon="6.91088">
        <ele>1267.199951</ele>
        <time>2011-10-09T11:47:03Z</time>
      </trkpt>
      <trkpt lat="43.99429" lon="6.91096">
        <ele>1267.800049</ele>
        <time>2011-10-09T11:47:06Z</time>
      </trkpt>
      <trkpt lat="43.99428" lon="6.91103">
        <ele>1268.400024</ele>
        <time>2011-10-09T11:47:10Z</time>
      </trkpt>
      <trkpt lat="43.99424" lon="6.91099">
        <ele>1266.199951</ele>
        <time>2011-10-09T11:47:16Z</time>
      </trkpt>
      <trkpt lat="43.99422" lon="6.91105">
        <ele>1266.800049</ele>
        <time>2011-10-09T11:47:25Z</time>
      </trkpt>
      <trkpt lat="43.99422" lon="6.91115">
        <ele>1268</ele>
        <time>2011-10-09T11:47:29Z</time>
      </trkpt>
      <trkpt lat="43.99416" lon="6.91117">
        <ele>1266.400024</ele>
        <time>2011-10-09T11:47:34Z</time>
      </trkpt>
      <trkpt lat="43.99413" lon="6.91111">
        <ele>1264.599976</ele>
        <time>2011-10-09T11:47:37Z</time>
      </trkpt>
      <trkpt lat="43.9941" lon="6.91106">
        <ele>1263</ele>
        <time>2011-10-09T11:47:41Z</time>
      </trkpt>
      <trkpt lat="43.99408" lon="6.91099">
        <ele>1261</ele>
        <time>2011-10-09T11:47:51Z</time>
      </trkpt>
      <trkpt lat="43.99402" lon="6.91092">
        <ele>1258.199951</ele>
        <time>2011-10-09T11:47:55Z</time>
      </trkpt>
      <trkpt lat="43.99396" lon="6.91089">
        <ele>1255.400024</ele>
        <time>2011-10-09T11:47:59Z</time>
      </trkpt>
      <trkpt lat="43.99391" lon="6.91085">
        <ele>1252.800049</ele>
        <time>2011-10-09T11:48:04Z</time>
      </trkpt>
      <trkpt lat="43.99388" lon="6.91075">
        <ele>1252.400024</ele>
        <time>2011-10-09T11:48:15Z</time>
      </trkpt>
      <trkpt lat="43.99384" lon="6.91073">
        <ele>1251</ele>
        <time>2011-10-09T11:48:19Z</time>
      </trkpt>
      <trkpt lat="43.99379" lon="6.91077">
        <ele>1249</ele>
        <time>2011-10-09T11:48:23Z</time>
      </trkpt>
      <trkpt lat="43.99374" lon="6.91074">
        <ele>1247.400024</ele>
        <time>2011-10-09T11:48:28Z</time>
      </trkpt>
      <trkpt lat="43.99372" lon="6.91068">
        <ele>1247</ele>
        <time>2011-10-09T11:48:33Z</time>
      </trkpt>
      <trkpt lat="43.99371" lon="6.9106">
        <ele>1247</ele>
        <time>2011-10-09T11:48:37Z</time>
      </trkpt>
      <trkpt lat="43.9937" lon="6.91053">
        <ele>1246.800049</ele>
        <time>2011-10-09T11:48:41Z</time>
      </trkpt>
      <trkpt lat="43.99364" lon="6.91055">
        <ele>1244.400024</ele>
        <time>2011-10-09T11:48:55Z</time>
      </trkpt>
      <trkpt lat="43.9936" lon="6.91047">
        <ele>1243</ele>
        <time>2011-10-09T11:49:00Z</time>
      </trkpt>
      <trkpt lat="43.99356" lon="6.91042">
        <ele>1241.400024</ele>
        <time>2011-10-09T11:49:04Z</time>
      </trkpt>
      <trkpt lat="43.99354" lon="6.91051">
        <ele>1240.400024</ele>
        <time>2011-10-09T11:49:08Z</time>
      </trkpt>
      <trkpt lat="43.99354" lon="6.91061">
        <ele>1240.400024</ele>
        <time>2011-10-09T11:49:11Z</time>
      </trkpt>
      <trkpt lat="43.99353" lon="6.91069">
        <ele>1240.400024</ele>
        <time>2011-10-09T11:49:14Z</time>
      </trkpt>
      <trkpt lat="43.99349" lon="6.91077">
        <ele>1238.800049</ele>
        <time>2011-10-09T11:49:18Z</time>
      </trkpt>
      <trkpt lat="43.99343" lon="6.91073">
        <ele>1236.800049</ele>
        <time>2011-10-09T11:49:23Z</time>
      </trkpt>
      <trkpt lat="43.99338" lon="6.91062">
        <ele>1234.800049</ele>
        <time>2011-10-09T11:49:27Z</time>
      </trkpt>
      <trkpt lat="43.99334" lon="6.91057">
        <ele>1233</ele>
        <time>2011-10-09T11:49:29Z</time>
      </trkpt>
      <trkpt lat="43.9933" lon="6.91054">
        <ele>1231.199951</ele>
        <time>2011-10-09T11:49:31Z</time>
      </trkpt>
      <trkpt lat="43.99318" lon="6.91049">
        <ele>1227.199951</ele>
        <time>2011-10-09T11:49:35Z</time>
      </trkpt>
      <trkpt lat="43.99308" lon="6.91046">
        <ele>1223.800049</ele>
        <time>2011-10-09T11:49:38Z</time>
      </trkpt>
      <trkpt lat="43.993" lon="6.91046">
        <ele>1221</ele>
        <time>2011-10-09T11:49:41Z</time>
      </trkpt>
      <trkpt lat="43.99295" lon="6.91047">
        <ele>1219.599976</ele>
        <time>2011-10-09T11:49:44Z</time>
      </trkpt>
      <trkpt lat="43.99291" lon="6.91051">
        <ele>1218.800049</ele>
        <time>2011-10-09T11:49:48Z</time>
      </trkpt>
      <trkpt lat="43.99281" lon="6.91044">
        <ele>1214.400024</ele>
        <time>2011-10-09T11:49:54Z</time>
      </trkpt>
      <trkpt lat="43.99276" lon="6.91039">
        <ele>1211.599976</ele>
        <time>2011-10-09T11:49:56Z</time>
      </trkpt>
      <trkpt lat="43.99268" lon="6.91031">
        <ele>1206.400024</ele>
        <time>2011-10-09T11:49:59Z</time>
      </trkpt>
      <trkpt lat="43.99262" lon="6.91028">
        <ele>1203.800049</ele>
        <time>2011-10-09T11:50:01Z</time>
      </trkpt>
      <trkpt lat="43.99258" lon="6.91029">
        <ele>1202</ele>
        <time>2011-10-09T11:50:04Z</time>
      </trkpt>
      <trkpt lat="43.99253" lon="6.91035">
        <ele>1202.199951</ele>
        <time>2011-10-09T11:50:07Z</time>
      </trkpt>
      <trkpt lat="43.99248" lon="6.91041">
        <ele>1202</ele>
        <time>2011-10-09T11:50:11Z</time>
      </trkpt>
      <trkpt lat="43.99243" lon="6.91043">
        <ele>1200.599976</ele>
        <time>2011-10-09T11:50:14Z</time>
      </trkpt>
      <trkpt lat="43.99238" lon="6.91043">
        <ele>1198.800049</ele>
        <time>2011-10-09T11:50:25Z</time>
      </trkpt>
      <trkpt lat="43.99233" lon="6.91044">
        <ele>1197.199951</ele>
        <time>2011-10-09T11:50:46Z</time>
      </trkpt>
      <trkpt lat="43.99228" lon="6.91049">
        <ele>1196.800049</ele>
        <time>2011-10-09T11:50:50Z</time>
      </trkpt>
      <trkpt lat="43.99222" lon="6.91051">
        <ele>1195.400024</ele>
        <time>2011-10-09T11:50:54Z</time>
      </trkpt>
      <trkpt lat="43.99217" lon="6.91052">
        <ele>1193.400024</ele>
        <time>2011-10-09T11:50:57Z</time>
      </trkpt>
      <trkpt lat="43.99212" lon="6.91056">
        <ele>1192.800049</ele>
        <time>2011-10-09T11:51:03Z</time>
      </trkpt>
      <trkpt lat="43.99206" lon="6.91057">
        <ele>1190.800049</ele>
        <time>2011-10-09T11:51:14Z</time>
      </trkpt>
      <trkpt lat="43.99201" lon="6.91054">
        <ele>1188</ele>
        <time>2011-10-09T11:51:17Z</time>
      </trkpt>
      <trkpt lat="43.99196" lon="6.91051">
        <ele>1185.400024</ele>
        <time>2011-10-09T11:51:19Z</time>
      </trkpt>
      <trkpt lat="43.9919" lon="6.91046">
        <ele>1181.800049</ele>
        <time>2011-10-09T11:51:22Z</time>
      </trkpt>
      <trkpt lat="43.99184" lon="6.91041">
        <ele>1178</ele>
        <time>2011-10-09T11:51:26Z</time>
      </trkpt>
      <trkpt lat="43.99176" lon="6.91036">
        <ele>1173.800049</ele>
        <time>2011-10-09T11:51:30Z</time>
      </trkpt>
      <trkpt lat="43.99169" lon="6.91032">
        <ele>1170.400024</ele>
        <time>2011-10-09T11:51:32Z</time>
      </trkpt>
      <trkpt lat="43.9916" lon="6.91024">
        <ele>1164.599976</ele>
        <time>2011-10-09T11:51:36Z</time>
      </trkpt>
      <trkpt lat="43.99156" lon="6.9102">
        <ele>1162.199951</ele>
        <time>2011-10-09T11:51:38Z</time>
      </trkpt>
      <trkpt lat="43.99153" lon="6.91016">
        <ele>1159.800049</ele>
        <time>2011-10-09T11:51:42Z</time>
      </trkpt>
      <trkpt lat="43.99148" lon="6.91017">
        <ele>1158.400024</ele>
        <time>2011-10-09T11:51:47Z</time>
      </trkpt>
      <trkpt lat="43.99144" lon="6.91022">
        <ele>1157.800049</ele>
        <time>2011-10-09T11:51:50Z</time>
      </trkpt>
      <trkpt lat="43.99139" lon="6.91032">
        <ele>1157.800049</ele>
        <time>2011-10-09T11:51:56Z</time>
      </trkpt>
      <trkpt lat="43.99135" lon="6.91037">
        <ele>1157.199951</ele>
        <time>2011-10-09T11:52:00Z</time>
      </trkpt>
      <trkpt lat="43.99133" lon="6.91027">
        <ele>1154.599976</ele>
        <time>2011-10-09T11:52:08Z</time>
      </trkpt>
      <trkpt lat="43.99132" lon="6.91019">
        <ele>1152.800049</ele>
        <time>2011-10-09T11:52:11Z</time>
      </trkpt>
      <trkpt lat="43.99128" lon="6.91018">
        <ele>1150.800049</ele>
        <time>2011-10-09T11:52:16Z</time>
      </trkpt>
      <trkpt lat="43.99124" lon="6.91027">
        <ele>1150.800049</ele>
        <time>2011-10-09T11:52:20Z</time>
      </trkpt>
      <trkpt lat="43.99121" lon="6.91032">
        <ele>1150.199951</ele>
        <time>2011-10-09T11:52:24Z</time>
      </trkpt>
      <trkpt lat="43.99117" lon="6.91037">
        <ele>1149.199951</ele>
        <time>2011-10-09T11:52:32Z</time>
      </trkpt>
      <trkpt lat="43.99111" lon="6.9103">
        <ele>1146</ele>
        <time>2011-10-09T11:53:07Z</time>
      </trkpt>
      <trkpt lat="43.99109" lon="6.91036">
        <ele>1145.800049</ele>
        <time>2011-10-09T11:53:11Z</time>
      </trkpt>
      <trkpt lat="43.99105" lon="6.91035">
        <ele>1143.599976</ele>
        <time>2011-10-09T11:53:17Z</time>
      </trkpt>
      <trkpt lat="43.99104" lon="6.91026">
        <ele>1142.400024</ele>
        <time>2011-10-09T11:53:21Z</time>
      </trkpt>
      <trkpt lat="43.99103" lon="6.91017">
        <ele>1141.199951</ele>
        <time>2011-10-09T11:53:35Z</time>
      </trkpt>
      <trkpt lat="43.99101" lon="6.9101">
        <ele>1139.599976</ele>
        <time>2011-10-09T11:53:48Z</time>
      </trkpt>
      <trkpt lat="43.99101" lon="6.91002">
        <ele>1139</ele>
        <time>2011-10-09T11:53:52Z</time>
      </trkpt>
      <trkpt lat="43.99105" lon="6.90989">
        <ele>1138.800049</ele>
        <time>2011-10-09T11:54:00Z</time>
      </trkpt>
      <trkpt lat="43.9911" lon="6.90979">
        <ele>1139</ele>
        <time>2011-10-09T11:54:04Z</time>
      </trkpt>
      <trkpt lat="43.99113" lon="6.90974">
        <ele>1139.400024</ele>
        <time>2011-10-09T11:54:07Z</time>
      </trkpt>
      <trkpt lat="43.99117" lon="6.90968">
        <ele>1140</ele>
        <time>2011-10-09T11:54:18Z</time>
      </trkpt>
      <trkpt lat="43.99113" lon="6.90959">
        <ele>1137.599976</ele>
        <time>2011-10-09T11:54:32Z</time>
      </trkpt>
      <trkpt lat="43.9911" lon="6.9095">
        <ele>1135.400024</ele>
        <time>2011-10-09T11:54:43Z</time>
      </trkpt>
      <trkpt lat="43.99106" lon="6.90945">
        <ele>1133.400024</ele>
        <time>2011-10-09T11:54:47Z</time>
      </trkpt>
      <trkpt lat="43.99101" lon="6.90941">
        <ele>1131</ele>
        <time>2011-10-09T11:54:51Z</time>
      </trkpt>
      <trkpt lat="43.99093" lon="6.90942">
        <ele>1128.599976</ele>
        <time>2011-10-09T11:55:13Z</time>
      </trkpt>
      <trkpt lat="43.99093" lon="6.90935">
        <ele>1127.599976</ele>
        <time>2011-10-09T11:55:24Z</time>
      </trkpt>
      <trkpt lat="43.99088" lon="6.90942">
        <ele>1126.800049</ele>
        <time>2011-10-09T11:55:30Z</time>
      </trkpt>
      <trkpt lat="43.99084" lon="6.90947">
        <ele>1126.199951</ele>
        <time>2011-10-09T11:55:35Z</time>
      </trkpt>
      <trkpt lat="43.99078" lon="6.90951">
        <ele>1125.400024</ele>
        <time>2011-10-09T11:55:40Z</time>
      </trkpt>
      <trkpt lat="43.99071" lon="6.90945">
        <ele>1123.400024</ele>
        <time>2011-10-09T11:55:53Z</time>
      </trkpt>
      <trkpt lat="43.99061" lon="6.90943">
        <ele>1121.400024</ele>
        <time>2011-10-09T11:55:56Z</time>
      </trkpt>
      <trkpt lat="43.99055" lon="6.90942">
        <ele>1120.400024</ele>
        <time>2011-10-09T11:55:59Z</time>
      </trkpt>
      <trkpt lat="43.9905" lon="6.90947">
        <ele>1119.800049</ele>
        <time>2011-10-09T12:04:24Z</time>
      </trkpt>
      <trkpt lat="43.99038" lon="6.90955">
        <ele>1117.400024</ele>
        <time>2011-10-09T12:04:28Z</time>
      </trkpt>
      <trkpt lat="43.99029" lon="6.90961">
        <ele>1115.599976</ele>
        <time>2011-10-09T12:04:30Z</time>
      </trkpt>
      <trkpt lat="43.99019" lon="6.90968">
        <ele>1113</ele>
        <time>2011-10-09T12:04:32Z</time>
      </trkpt>
      <trkpt lat="43.99013" lon="6.90969">
        <ele>1111.800049</ele>
        <time>2011-10-09T12:04:33Z</time>
      </trkpt>
      <trkpt lat="43.99005" lon="6.90972">
        <ele>1109.400024</ele>
        <time>2011-10-09T12:04:35Z</time>
      </trkpt>
      <trkpt lat="43.98998" lon="6.90973">
        <ele>1107.800049</ele>
        <time>2011-10-09T12:04:37Z</time>
      </trkpt>
      <trkpt lat="43.98992" lon="6.90973">
        <ele>1106.599976</ele>
        <time>2011-10-09T12:04:39Z</time>
      </trkpt>
      <trkpt lat="43.98986" lon="6.90974">
        <ele>1105.400024</ele>
        <time>2011-10-09T12:04:42Z</time>
      </trkpt>
      <trkpt lat="43.9898" lon="6.90972">
        <ele>1104.199951</ele>
        <time>2011-10-09T12:04:45Z</time>
      </trkpt>
      <trkpt lat="43.98974" lon="6.90969">
        <ele>1103.599976</ele>
        <time>2011-10-09T12:04:48Z</time>
      </trkpt>
      <trkpt lat="43.9897" lon="6.90965">
        <ele>1103</ele>
        <time>2011-10-09T12:04:51Z</time>
      </trkpt>
      <trkpt lat="43.98964" lon="6.90961">
        <ele>1102</ele>
        <time>2011-10-09T12:04:54Z</time>
      </trkpt>
      <trkpt lat="43.98958" lon="6.90959">
        <ele>1100.800049</ele>
        <time>2011-10-09T12:04:56Z</time>
      </trkpt>
      <trkpt lat="43.9895" lon="6.90955">
        <ele>1099.400024</ele>
        <time>2011-10-09T12:04:59Z</time>
      </trkpt>
      <trkpt lat="43.98947" lon="6.90949">
        <ele>1098.800049</ele>
        <time>2011-10-09T12:05:01Z</time>
      </trkpt>
      <trkpt lat="43.98945" lon="6.90942">
        <ele>1098.800049</ele>
        <time>2011-10-09T12:05:03Z</time>
      </trkpt>
      <trkpt lat="43.98941" lon="6.90936">
        <ele>1098.199951</ele>
        <time>2011-10-09T12:05:05Z</time>
      </trkpt>
      <trkpt lat="43.98936" lon="6.90932">
        <ele>1097.199951</ele>
        <time>2011-10-09T12:05:07Z</time>
      </trkpt>
      <trkpt lat="43.98929" lon="6.90928">
        <ele>1095.800049</ele>
        <time>2011-10-09T12:05:09Z</time>
      </trkpt>
      <trkpt lat="43.98922" lon="6.90928">
        <ele>1094</ele>
        <time>2011-10-09T12:05:11Z</time>
      </trkpt>
      <trkpt lat="43.98915" lon="6.90925">
        <ele>1092.800049</ele>
        <time>2011-10-09T12:05:13Z</time>
      </trkpt>
      <trkpt lat="43.98909" lon="6.90921">
        <ele>1092.599976</ele>
        <time>2011-10-09T12:05:15Z</time>
      </trkpt>
      <trkpt lat="43.98897" lon="6.90914">
        <ele>1092.199951</ele>
        <time>2011-10-09T12:05:18Z</time>
      </trkpt>
      <trkpt lat="43.98892" lon="6.90911">
        <ele>1092.199951</ele>
        <time>2011-10-09T12:05:19Z</time>
      </trkpt>
      <trkpt lat="43.98877" lon="6.90904">
        <ele>1092</ele>
        <time>2011-10-09T12:05:21Z</time>
      </trkpt>
      <trkpt lat="43.9887" lon="6.90904">
        <ele>1091.800049</ele>
        <time>2011-10-09T12:05:22Z</time>
      </trkpt>
      <trkpt lat="43.98863" lon="6.90904">
        <ele>1091.599976</ele>
        <time>2011-10-09T12:05:23Z</time>
      </trkpt>
      <trkpt lat="43.98851" lon="6.90908">
        <ele>1091</ele>
        <time>2011-10-09T12:05:25Z</time>
      </trkpt>
      <trkpt lat="43.98844" lon="6.90909">
        <ele>1090.800049</ele>
        <time>2011-10-09T12:05:26Z</time>
      </trkpt>
      <trkpt lat="43.9883" lon="6.90908">
        <ele>1089.599976</ele>
        <time>2011-10-09T12:05:28Z</time>
      </trkpt>
      <trkpt lat="43.98824" lon="6.90898">
        <ele>1088.599976</ele>
        <time>2011-10-09T12:05:30Z</time>
      </trkpt>
      <trkpt lat="43.9882" lon="6.90902">
        <ele>1087.199951</ele>
        <time>2011-10-09T12:05:37Z</time>
      </trkpt>
      <trkpt lat="43.98812" lon="6.90906">
        <ele>1084.400024</ele>
        <time>2011-10-09T12:06:06Z</time>
      </trkpt>
      <trkpt lat="43.98797" lon="6.90911">
        <ele>1080</ele>
        <time>2011-10-09T12:06:11Z</time>
      </trkpt>
      <trkpt lat="43.98785" lon="6.9092">
        <ele>1077.199951</ele>
        <time>2011-10-09T12:06:15Z</time>
      </trkpt>
      <trkpt lat="43.9878" lon="6.90927">
        <ele>1077</ele>
        <time>2011-10-09T12:06:17Z</time>
      </trkpt>
      <trkpt lat="43.98776" lon="6.90935">
        <ele>1077.400024</ele>
        <time>2011-10-09T12:06:19Z</time>
      </trkpt>
      <trkpt lat="43.9877" lon="6.90943">
        <ele>1077.199951</ele>
        <time>2011-10-09T12:06:21Z</time>
      </trkpt>
      <trkpt lat="43.98765" lon="6.90946">
        <ele>1076.800049</ele>
        <time>2011-10-09T12:06:23Z</time>
      </trkpt>
      <trkpt lat="43.98755" lon="6.90948">
        <ele>1075</ele>
        <time>2011-10-09T12:06:26Z</time>
      </trkpt>
      <trkpt lat="43.98747" lon="6.90948">
        <ele>1073</ele>
        <time>2011-10-09T12:06:28Z</time>
      </trkpt>
      <trkpt lat="43.98733" lon="6.90954">
        <ele>1071.599976</ele>
        <time>2011-10-09T12:06:31Z</time>
      </trkpt>
      <trkpt lat="43.98727" lon="6.9096">
        <ele>1071.599976</ele>
        <time>2011-10-09T12:06:32Z</time>
      </trkpt>
      <trkpt lat="43.98719" lon="6.90969">
        <ele>1072</ele>
        <time>2011-10-09T12:06:34Z</time>
      </trkpt>
      <trkpt lat="43.98711" lon="6.90975">
        <ele>1071.599976</ele>
        <time>2011-10-09T12:06:36Z</time>
      </trkpt>
      <trkpt lat="43.98702" lon="6.90971">
        <ele>1069</ele>
        <time>2011-10-09T12:06:39Z</time>
      </trkpt>
      <trkpt lat="43.98691" lon="6.90962">
        <ele>1064.800049</ele>
        <time>2011-10-09T12:06:43Z</time>
      </trkpt>
      <trkpt lat="43.98685" lon="6.90957">
        <ele>1062.400024</ele>
        <time>2011-10-09T12:06:46Z</time>
      </trkpt>
      <trkpt lat="43.98676" lon="6.90958">
        <ele>1060.599976</ele>
        <time>2011-10-09T12:06:50Z</time>
      </trkpt>
      <trkpt lat="43.98668" lon="6.90963">
        <ele>1060.199951</ele>
        <time>2011-10-09T12:06:52Z</time>
      </trkpt>
      <trkpt lat="43.98661" lon="6.90967">
        <ele>1059.800049</ele>
        <time>2011-10-09T12:06:54Z</time>
      </trkpt>
      <trkpt lat="43.98652" lon="6.90966">
        <ele>1058.199951</ele>
        <time>2011-10-09T12:06:56Z</time>
      </trkpt>
      <trkpt lat="43.98643" lon="6.90965">
        <ele>1056.599976</ele>
        <time>2011-10-09T12:06:59Z</time>
      </trkpt>
      <trkpt lat="43.98623" lon="6.9099">
        <ele>1058.599976</ele>
        <time>2011-10-09T12:07:06Z</time>
      </trkpt>
      <trkpt lat="43.98616" lon="6.90998">
        <ele>1059</ele>
        <time>2011-10-09T12:07:10Z</time>
      </trkpt>
      <trkpt lat="43.9861" lon="6.91008">
        <ele>1060</ele>
        <time>2011-10-09T12:07:13Z</time>
      </trkpt>
      <trkpt lat="43.98605" lon="6.91016">
        <ele>1060.599976</ele>
        <time>2011-10-09T12:07:15Z</time>
      </trkpt>
      <trkpt lat="43.98599" lon="6.91025">
        <ele>1061</ele>
        <time>2011-10-09T12:07:17Z</time>
      </trkpt>
      <trkpt lat="43.98592" lon="6.91035">
        <ele>1061.599976</ele>
        <time>2011-10-09T12:07:19Z</time>
      </trkpt>
      <trkpt lat="43.98586" lon="6.91045">
        <ele>1062</ele>
        <time>2011-10-09T12:07:21Z</time>
      </trkpt>
      <trkpt lat="43.98578" lon="6.91055">
        <ele>1062.400024</ele>
        <time>2011-10-09T12:07:23Z</time>
      </trkpt>
      <trkpt lat="43.98574" lon="6.9106">
        <ele>1062.599976</ele>
        <time>2011-10-09T12:07:24Z</time>
      </trkpt>
      <trkpt lat="43.98564" lon="6.91068">
        <ele>1062.800049</ele>
        <time>2011-10-09T12:07:26Z</time>
      </trkpt>
      <trkpt lat="43.98553" lon="6.91075">
        <ele>1062.400024</ele>
        <time>2011-10-09T12:07:28Z</time>
      </trkpt>
      <trkpt lat="43.98549" lon="6.91079">
        <ele>1062.599976</ele>
        <time>2011-10-09T12:07:29Z</time>
      </trkpt>
      <trkpt lat="43.98544" lon="6.91083">
        <ele>1062.599976</ele>
        <time>2011-10-09T12:07:30Z</time>
      </trkpt>
      <trkpt lat="43.9854" lon="6.91087">
        <ele>1062.800049</ele>
        <time>2011-10-09T12:07:31Z</time>
      </trkpt>
      <trkpt lat="43.98534" lon="6.91095">
        <ele>1063.599976</ele>
        <time>2011-10-09T12:07:33Z</time>
      </trkpt>
      <trkpt lat="43.98523" lon="6.91106">
        <ele>1064</ele>
        <time>2011-10-09T12:07:37Z</time>
      </trkpt>
      <trkpt lat="43.98519" lon="6.9111">
        <ele>1064.199951</ele>
        <time>2011-10-09T12:07:39Z</time>
      </trkpt>
      <trkpt lat="43.98508" lon="6.91116">
        <ele>1063.599976</ele>
        <time>2011-10-09T12:07:44Z</time>
      </trkpt>
      <trkpt lat="43.98502" lon="6.91119">
        <ele>1063.199951</ele>
        <time>2011-10-09T12:07:46Z</time>
      </trkpt>
      <trkpt lat="43.98498" lon="6.91121">
        <ele>1062.599976</ele>
        <time>2011-10-09T12:07:48Z</time>
      </trkpt>
      <trkpt lat="43.98491" lon="6.91122">
        <ele>1061</ele>
        <time>2011-10-09T12:07:50Z</time>
      </trkpt>
      <trkpt lat="43.98483" lon="6.91124">
        <ele>1059</ele>
        <time>2011-10-09T12:07:52Z</time>
      </trkpt>
      <trkpt lat="43.98464" lon="6.9113">
        <ele>1054.400024</ele>
        <time>2011-10-09T12:07:56Z</time>
      </trkpt>
      <trkpt lat="43.9845" lon="6.91142">
        <ele>1051.199951</ele>
        <time>2011-10-09T12:08:01Z</time>
      </trkpt>
      <trkpt lat="43.98444" lon="6.9115">
        <ele>1049.800049</ele>
        <time>2011-10-09T12:08:04Z</time>
      </trkpt>
      <trkpt lat="43.98438" lon="6.91146">
        <ele>1047.599976</ele>
        <time>2011-10-09T12:08:08Z</time>
      </trkpt>
      <trkpt lat="43.98432" lon="6.91143">
        <ele>1045.800049</ele>
        <time>2011-10-09T12:08:12Z</time>
      </trkpt>
      <trkpt lat="43.98428" lon="6.91148">
        <ele>1044.400024</ele>
        <time>2011-10-09T12:08:20Z</time>
      </trkpt>
      <trkpt lat="43.98424" lon="6.91155">
        <ele>1043.199951</ele>
        <time>2011-10-09T12:08:23Z</time>
      </trkpt>
      <trkpt lat="43.98419" lon="6.91162">
        <ele>1041.800049</ele>
        <time>2011-10-09T12:08:27Z</time>
      </trkpt>
      <trkpt lat="43.98417" lon="6.91171">
        <ele>1041.599976</ele>
        <time>2011-10-09T12:08:30Z</time>
      </trkpt>
      <trkpt lat="43.98418" lon="6.91185">
        <ele>1043.400024</ele>
        <time>2011-10-09T12:08:33Z</time>
      </trkpt>
      <trkpt lat="43.98418" lon="6.91195">
        <ele>1044.599976</ele>
        <time>2011-10-09T12:08:35Z</time>
      </trkpt>
      <trkpt lat="43.98418" lon="6.91208">
        <ele>1046.199951</ele>
        <time>2011-10-09T12:08:37Z</time>
      </trkpt>
      <trkpt lat="43.98418" lon="6.91215">
        <ele>1047.199951</ele>
        <time>2011-10-09T12:08:39Z</time>
      </trkpt>
      <trkpt lat="43.98411" lon="6.91217">
        <ele>1045</ele>
        <time>2011-10-09T12:08:43Z</time>
      </trkpt>
      <trkpt lat="43.98405" lon="6.91223">
        <ele>1043.199951</ele>
        <time>2011-10-09T12:08:46Z</time>
      </trkpt>
      <trkpt lat="43.98399" lon="6.91229">
        <ele>1041.599976</ele>
        <time>2011-10-09T12:08:48Z</time>
      </trkpt>
      <trkpt lat="43.9839" lon="6.91231">
        <ele>1038.400024</ele>
        <time>2011-10-09T12:08:51Z</time>
      </trkpt>
      <trkpt lat="43.98381" lon="6.91229">
        <ele>1035</ele>
        <time>2011-10-09T12:08:53Z</time>
      </trkpt>
      <trkpt lat="43.98371" lon="6.91228">
        <ele>1031.199951</ele>
        <time>2011-10-09T12:08:55Z</time>
      </trkpt>
      <trkpt lat="43.98363" lon="6.91232">
        <ele>1028.400024</ele>
        <time>2011-10-09T12:08:57Z</time>
      </trkpt>
      <trkpt lat="43.98355" lon="6.91238">
        <ele>1026.199951</ele>
        <time>2011-10-09T12:08:59Z</time>
      </trkpt>
      <trkpt lat="43.98348" lon="6.91244">
        <ele>1023.799988</ele>
        <time>2011-10-09T12:09:01Z</time>
      </trkpt>
      <trkpt lat="43.98341" lon="6.91249">
        <ele>1021.599976</ele>
        <time>2011-10-09T12:09:03Z</time>
      </trkpt>
      <trkpt lat="43.98332" lon="6.91256">
        <ele>1019.599976</ele>
        <time>2011-10-09T12:09:05Z</time>
      </trkpt>
      <trkpt lat="43.98323" lon="6.91263">
        <ele>1018</ele>
        <time>2011-10-09T12:09:07Z</time>
      </trkpt>
      <trkpt lat="43.98314" lon="6.91272">
        <ele>1016.799988</ele>
        <time>2011-10-09T12:09:09Z</time>
      </trkpt>
      <trkpt lat="43.9831" lon="6.91277">
        <ele>1016.200012</ele>
        <time>2011-10-09T12:09:10Z</time>
      </trkpt>
      <trkpt lat="43.98307" lon="6.91282">
        <ele>1015.799988</ele>
        <time>2011-10-09T12:09:11Z</time>
      </trkpt>
      <trkpt lat="43.983" lon="6.91292">
        <ele>1015</ele>
        <time>2011-10-09T12:09:13Z</time>
      </trkpt>
      <trkpt lat="43.98296" lon="6.91299">
        <ele>1014.599976</ele>
        <time>2011-10-09T12:09:15Z</time>
      </trkpt>
      <trkpt lat="43.98291" lon="6.91304">
        <ele>1013.599976</ele>
        <time>2011-10-09T12:09:17Z</time>
      </trkpt>
      <trkpt lat="43.98287" lon="6.9131">
        <ele>1012.799988</ele>
        <time>2011-10-09T12:09:19Z</time>
      </trkpt>
      <trkpt lat="43.98283" lon="6.91317">
        <ele>1012</ele>
        <time>2011-10-09T12:09:21Z</time>
      </trkpt>
      <trkpt lat="43.98281" lon="6.91324">
        <ele>1012</ele>
        <time>2011-10-09T12:09:23Z</time>
      </trkpt>
      <trkpt lat="43.98279" lon="6.9133">
        <ele>1012</ele>
        <time>2011-10-09T12:09:27Z</time>
      </trkpt>
      <trkpt lat="43.98274" lon="6.91338">
        <ele>1010.799988</ele>
        <time>2011-10-09T12:09:31Z</time>
      </trkpt>
      <trkpt lat="43.9826" lon="6.91343">
        <ele>1006.400024</ele>
        <time>2011-10-09T12:09:34Z</time>
      </trkpt>
      <trkpt lat="43.98254" lon="6.91346">
        <ele>1004.400024</ele>
        <time>2011-10-09T12:09:35Z</time>
      </trkpt>
      <trkpt lat="43.98243" lon="6.91353">
        <ele>1002</ele>
        <time>2011-10-09T12:09:37Z</time>
      </trkpt>
      <trkpt lat="43.98237" lon="6.91354">
        <ele>1000.599976</ele>
        <time>2011-10-09T12:09:38Z</time>
      </trkpt>
      <trkpt lat="43.98232" lon="6.91356">
        <ele>999.400024</ele>
        <time>2011-10-09T12:09:39Z</time>
      </trkpt>
      <trkpt lat="43.98225" lon="6.91358">
        <ele>997.799988</ele>
        <time>2011-10-09T12:09:40Z</time>
      </trkpt>
      <trkpt lat="43.98214" lon="6.91365">
        <ele>995.799988</ele>
        <time>2011-10-09T12:09:42Z</time>
      </trkpt>
      <trkpt lat="43.98208" lon="6.91373">
        <ele>995.400024</ele>
        <time>2011-10-09T12:09:45Z</time>
      </trkpt>
      <trkpt lat="43.98208" lon="6.91382">
        <ele>996.400024</ele>
        <time>2011-10-09T12:09:51Z</time>
      </trkpt>
      <trkpt lat="43.98201" lon="6.91371">
        <ele>993.400024</ele>
        <time>2011-10-09T12:10:07Z</time>
      </trkpt>
      <trkpt lat="43.98197" lon="6.91375">
        <ele>993</ele>
        <time>2011-10-09T12:10:15Z</time>
      </trkpt>
      <trkpt lat="43.98192" lon="6.91376">
        <ele>991.799988</ele>
        <time>2011-10-09T12:10:18Z</time>
      </trkpt>
      <trkpt lat="43.98187" lon="6.91373">
        <ele>990.200012</ele>
        <time>2011-10-09T12:10:20Z</time>
      </trkpt>
      <trkpt lat="43.98181" lon="6.91369">
        <ele>988.200012</ele>
        <time>2011-10-09T12:10:22Z</time>
      </trkpt>
      <trkpt lat="43.98177" lon="6.91367">
        <ele>986.599976</ele>
        <time>2011-10-09T12:10:24Z</time>
      </trkpt>
      <trkpt lat="43.9817" lon="6.91362">
        <ele>984.200012</ele>
        <time>2011-10-09T12:10:27Z</time>
      </trkpt>
      <trkpt lat="43.98164" lon="6.91364">
        <ele>982.799988</ele>
        <time>2011-10-09T12:10:29Z</time>
      </trkpt>
      <trkpt lat="43.98158" lon="6.91368">
        <ele>981.799988</ele>
        <time>2011-10-09T12:10:31Z</time>
      </trkpt>
      <trkpt lat="43.98153" lon="6.91374">
        <ele>981</ele>
        <time>2011-10-09T12:10:33Z</time>
      </trkpt>
      <trkpt lat="43.98147" lon="6.91383">
        <ele>980.400024</ele>
        <time>2011-10-09T12:10:35Z</time>
      </trkpt>
      <trkpt lat="43.98143" lon="6.91386">
        <ele>979.599976</ele>
        <time>2011-10-09T12:10:37Z</time>
      </trkpt>
      <trkpt lat="43.98137" lon="6.91384">
        <ele>977.400024</ele>
        <time>2011-10-09T12:10:39Z</time>
      </trkpt>
      <trkpt lat="43.98125" lon="6.91388">
        <ele>974.200012</ele>
        <time>2011-10-09T12:10:41Z</time>
      </trkpt>
      <trkpt lat="43.98116" lon="6.91394">
        <ele>972.400024</ele>
        <time>2011-10-09T12:10:43Z</time>
      </trkpt>
      <trkpt lat="43.981" lon="6.91407">
        <ele>969.599976</ele>
        <time>2011-10-09T12:10:45Z</time>
      </trkpt>
      <trkpt lat="43.98084" lon="6.9142">
        <ele>966.599976</ele>
        <time>2011-10-09T12:10:47Z</time>
      </trkpt>
      <trkpt lat="43.98069" lon="6.91429">
        <ele>963.400024</ele>
        <time>2011-10-09T12:10:49Z</time>
      </trkpt>
      <trkpt lat="43.98064" lon="6.91432">
        <ele>962</ele>
        <time>2011-10-09T12:10:50Z</time>
      </trkpt>
      <trkpt lat="43.98057" lon="6.91434">
        <ele>960.200012</ele>
        <time>2011-10-09T12:10:51Z</time>
      </trkpt>
      <trkpt lat="43.98051" lon="6.91436">
        <ele>958.599976</ele>
        <time>2011-10-09T12:10:52Z</time>
      </trkpt>
      <trkpt lat="43.98045" lon="6.91441">
        <ele>957.599976</ele>
        <time>2011-10-09T12:10:53Z</time>
      </trkpt>
      <trkpt lat="43.98035" lon="6.91454">
        <ele>956.799988</ele>
        <time>2011-10-09T12:10:56Z</time>
      </trkpt>
      <trkpt lat="43.98031" lon="6.91468">
        <ele>958</ele>
        <time>2011-10-09T12:11:00Z</time>
      </trkpt>
      <trkpt lat="43.9803" lon="6.91481">
        <ele>960.200012</ele>
        <time>2011-10-09T12:11:03Z</time>
      </trkpt>
      <trkpt lat="43.98024" lon="6.91493">
        <ele>960.400024</ele>
        <time>2011-10-09T12:11:06Z</time>
      </trkpt>
      <trkpt lat="43.98014" lon="6.915">
        <ele>958.400024</ele>
        <time>2011-10-09T12:11:09Z</time>
      </trkpt>
      <trkpt lat="43.97998" lon="6.91509">
        <ele>953.599976</ele>
        <time>2011-10-09T12:11:13Z</time>
      </trkpt>
      <trkpt lat="43.97993" lon="6.91511">
        <ele>951.599976</ele>
        <time>2011-10-09T12:11:14Z</time>
      </trkpt>
      <trkpt lat="43.97989" lon="6.91515">
        <ele>949.799988</ele>
        <time>2011-10-09T12:11:15Z</time>
      </trkpt>
      <trkpt lat="43.97982" lon="6.91525">
        <ele>947.599976</ele>
        <time>2011-10-09T12:11:17Z</time>
      </trkpt>
      <trkpt lat="43.97976" lon="6.91537">
        <ele>946.400024</ele>
        <time>2011-10-09T12:11:19Z</time>
      </trkpt>
      <trkpt lat="43.97968" lon="6.91558">
        <ele>945.799988</ele>
        <time>2011-10-09T12:11:22Z</time>
      </trkpt>
      <trkpt lat="43.97965" lon="6.91565">
        <ele>945.599976</ele>
        <time>2011-10-09T12:11:23Z</time>
      </trkpt>
      <trkpt lat="43.97953" lon="6.9159">
        <ele>944.400024</ele>
        <time>2011-10-09T12:11:28Z</time>
      </trkpt>
      <trkpt lat="43.9795" lon="6.91605">
        <ele>943.599976</ele>
        <time>2011-10-09T12:11:30Z</time>
      </trkpt>
      <trkpt lat="43.97947" lon="6.91616">
        <ele>942.799988</ele>
        <time>2011-10-09T12:11:31Z</time>
      </trkpt>
      <trkpt lat="43.97944" lon="6.91624">
        <ele>942</ele>
        <time>2011-10-09T12:11:32Z</time>
      </trkpt>
      <trkpt lat="43.97938" lon="6.9164">
        <ele>940.599976</ele>
        <time>2011-10-09T12:11:34Z</time>
      </trkpt>
      <trkpt lat="43.97933" lon="6.91655">
        <ele>939.599976</ele>
        <time>2011-10-09T12:11:36Z</time>
      </trkpt>
      <trkpt lat="43.97929" lon="6.91666">
        <ele>938.400024</ele>
        <time>2011-10-09T12:11:38Z</time>
      </trkpt>
      <trkpt lat="43.9792" lon="6.91679">
        <ele>935.400024</ele>
        <time>2011-10-09T12:11:41Z</time>
      </trkpt>
      <trkpt lat="43.97911" lon="6.91691">
        <ele>931</ele>
        <time>2011-10-09T12:11:44Z</time>
      </trkpt>
      <trkpt lat="43.97908" lon="6.91705">
        <ele>929.400024</ele>
        <time>2011-10-09T12:11:47Z</time>
      </trkpt>
      <trkpt lat="43.97908" lon="6.91715">
        <ele>929.200012</ele>
        <time>2011-10-09T12:11:49Z</time>
      </trkpt>
      <trkpt lat="43.97908" lon="6.91724">
        <ele>929.599976</ele>
        <time>2011-10-09T12:11:51Z</time>
      </trkpt>
      <trkpt lat="43.97909" lon="6.91734">
        <ele>930</ele>
        <time>2011-10-09T12:11:53Z</time>
      </trkpt>
      <trkpt lat="43.9791" lon="6.91746">
        <ele>930.799988</ele>
        <time>2011-10-09T12:11:55Z</time>
      </trkpt>
      <trkpt lat="43.9791" lon="6.91753">
        <ele>931</ele>
        <time>2011-10-09T12:11:56Z</time>
      </trkpt>
      <trkpt lat="43.9791" lon="6.91765">
        <ele>931.599976</ele>
        <time>2011-10-09T12:11:58Z</time>
      </trkpt>
      <trkpt lat="43.97906" lon="6.91774">
        <ele>930.200012</ele>
        <time>2011-10-09T12:12:00Z</time>
      </trkpt>
      <trkpt lat="43.979" lon="6.91784">
        <ele>927.200012</ele>
        <time>2011-10-09T12:12:02Z</time>
      </trkpt>
      <trkpt lat="43.97893" lon="6.91795">
        <ele>923.400024</ele>
        <time>2011-10-09T12:12:04Z</time>
      </trkpt>
      <trkpt lat="43.97888" lon="6.91799">
        <ele>921.200012</ele>
        <time>2011-10-09T12:12:05Z</time>
      </trkpt>
      <trkpt lat="43.97884" lon="6.91803">
        <ele>919</ele>
        <time>2011-10-09T12:12:06Z</time>
      </trkpt>
      <trkpt lat="43.97879" lon="6.91809">
        <ele>916.400024</ele>
        <time>2011-10-09T12:12:08Z</time>
      </trkpt>
      <trkpt lat="43.97876" lon="6.91814">
        <ele>914.599976</ele>
        <time>2011-10-09T12:12:10Z</time>
      </trkpt>
      <trkpt lat="43.97872" lon="6.91822">
        <ele>913.200012</ele>
        <time>2011-10-09T12:12:12Z</time>
      </trkpt>
      <trkpt lat="43.97868" lon="6.91832">
        <ele>911.599976</ele>
        <time>2011-10-09T12:12:14Z</time>
      </trkpt>
      <trkpt lat="43.97864" lon="6.91843">
        <ele>909.599976</ele>
        <time>2011-10-09T12:12:16Z</time>
      </trkpt>
      <trkpt lat="43.97864" lon="6.91852">
        <ele>909.799988</ele>
        <time>2011-10-09T12:12:18Z</time>
      </trkpt>
      <trkpt lat="43.97864" lon="6.91868">
        <ele>910.200012</ele>
        <time>2011-10-09T12:12:28Z</time>
      </trkpt>
      <trkpt lat="43.9786" lon="6.91882">
        <ele>908.200012</ele>
        <time>2011-10-09T12:12:34Z</time>
      </trkpt>
      <trkpt lat="43.97858" lon="6.91889">
        <ele>907.799988</ele>
        <time>2011-10-09T12:12:36Z</time>
      </trkpt>
      <trkpt lat="43.9786" lon="6.91899">
        <ele>909.200012</ele>
        <time>2011-10-09T12:12:38Z</time>
      </trkpt>
      <trkpt lat="43.97861" lon="6.9191">
        <ele>910</ele>
        <time>2011-10-09T12:12:40Z</time>
      </trkpt>
      <trkpt lat="43.97863" lon="6.91919">
        <ele>911</ele>
        <time>2011-10-09T12:12:42Z</time>
      </trkpt>
      <trkpt lat="43.97863" lon="6.91927">
        <ele>910.799988</ele>
        <time>2011-10-09T12:12:44Z</time>
      </trkpt>
      <trkpt lat="43.97863" lon="6.91935">
        <ele>909.799988</ele>
        <time>2011-10-09T12:12:46Z</time>
      </trkpt>
      <trkpt lat="43.97862" lon="6.91947">
        <ele>908.599976</ele>
        <time>2011-10-09T12:12:48Z</time>
      </trkpt>
      <trkpt lat="43.97861" lon="6.91966">
        <ele>907.200012</ele>
        <time>2011-10-09T12:12:52Z</time>
      </trkpt>
      <trkpt lat="43.97863" lon="6.91981">
        <ele>907</ele>
        <time>2011-10-09T12:12:57Z</time>
      </trkpt>
      <trkpt lat="43.9787" lon="6.9199">
        <ele>910.599976</ele>
        <time>2011-10-09T12:13:02Z</time>
      </trkpt>
      <trkpt lat="43.97875" lon="6.91993">
        <ele>912.799988</ele>
        <time>2011-10-09T12:13:08Z</time>
      </trkpt>
      <trkpt lat="43.97879" lon="6.91998">
        <ele>914.599976</ele>
        <time>2011-10-09T12:13:14Z</time>
      </trkpt>
      <trkpt lat="43.97883" lon="6.91999">
        <ele>917</ele>
        <time>2011-10-09T12:13:20Z</time>
      </trkpt>
      <trkpt lat="43.97888" lon="6.92003">
        <ele>919.799988</ele>
        <time>2011-10-09T12:13:26Z</time>
      </trkpt>
      <trkpt lat="43.97891" lon="6.92008">
        <ele>922.200012</ele>
        <time>2011-10-09T12:13:30Z</time>
      </trkpt>
      <trkpt lat="43.97895" lon="6.92014">
        <ele>924.599976</ele>
        <time>2011-10-09T12:13:35Z</time>
      </trkpt>
      <trkpt lat="43.97901" lon="6.92028">
        <ele>929.599976</ele>
        <time>2011-10-09T12:13:45Z</time>
      </trkpt>
      <trkpt lat="43.979" lon="6.92042">
        <ele>930.200012</ele>
        <time>2011-10-09T12:13:50Z</time>
      </trkpt>
      <trkpt lat="43.97886" lon="6.9205">
        <ele>924.200012</ele>
        <time>2011-10-09T12:13:55Z</time>
      </trkpt>
      <trkpt lat="43.97873" lon="6.92051">
        <ele>917.599976</ele>
        <time>2011-10-09T12:14:00Z</time>
      </trkpt>
      <trkpt lat="43.97864" lon="6.92057">
        <ele>913.599976</ele>
        <time>2011-10-09T12:14:04Z</time>
      </trkpt>
      <trkpt lat="43.97848" lon="6.92066">
        <ele>906.799988</ele>
        <time>2011-10-09T12:14:09Z</time>
      </trkpt>
      <trkpt lat="43.97846" lon="6.92072">
        <ele>906.799988</ele>
        <time>2011-10-09T12:14:11Z</time>
      </trkpt>
      <trkpt lat="43.97841" lon="6.92083">
        <ele>905.799988</ele>
        <time>2011-10-09T12:14:15Z</time>
      </trkpt>
      <trkpt lat="43.97839" lon="6.92091">
        <ele>906.400024</ele>
        <time>2011-10-09T12:14:18Z</time>
      </trkpt>
      <trkpt lat="43.97837" lon="6.921">
        <ele>907</ele>
        <time>2011-10-09T12:14:31Z</time>
      </trkpt>
      <trkpt lat="43.97835" lon="6.92107">
        <ele>907.799988</ele>
        <time>2011-10-09T12:14:33Z</time>
      </trkpt>
      <trkpt lat="43.97832" lon="6.9212">
        <ele>908.599976</ele>
        <time>2011-10-09T12:14:35Z</time>
      </trkpt>
      <trkpt lat="43.97829" lon="6.92127">
        <ele>908.599976</ele>
        <time>2011-10-09T12:14:36Z</time>
      </trkpt>
      <trkpt lat="43.97826" lon="6.92135">
        <ele>908.599976</ele>
        <time>2011-10-09T12:14:37Z</time>
      </trkpt>
      <trkpt lat="43.97822" lon="6.92141">
        <ele>907.799988</ele>
        <time>2011-10-09T12:14:38Z</time>
      </trkpt>
      <trkpt lat="43.9782" lon="6.92148">
        <ele>908</ele>
        <time>2011-10-09T12:14:39Z</time>
      </trkpt>
      <trkpt lat="43.97817" lon="6.92153">
        <ele>907.599976</ele>
        <time>2011-10-09T12:14:41Z</time>
      </trkpt>
      <trkpt lat="43.97817" lon="6.92161">
        <ele>908.799988</ele>
        <time>2011-10-09T12:14:49Z</time>
      </trkpt>
      <trkpt lat="43.97813" lon="6.9217">
        <ele>908.400024</ele>
        <time>2011-10-09T12:14:52Z</time>
      </trkpt>
      <trkpt lat="43.97813" lon="6.92189">
        <ele>910.799988</ele>
        <time>2011-10-09T12:14:58Z</time>
      </trkpt>
      <trkpt lat="43.97807" lon="6.92196">
        <ele>908.599976</ele>
        <time>2011-10-09T12:15:03Z</time>
      </trkpt>
      <trkpt lat="43.97803" lon="6.92202">
        <ele>907.400024</ele>
        <time>2011-10-09T12:15:05Z</time>
      </trkpt>
      <trkpt lat="43.9779" lon="6.92216">
        <ele>902.400024</ele>
        <time>2011-10-09T12:15:09Z</time>
      </trkpt>
      <trkpt lat="43.97785" lon="6.92223">
        <ele>901.200012</ele>
        <time>2011-10-09T12:15:11Z</time>
      </trkpt>
      <trkpt lat="43.97783" lon="6.92228">
        <ele>900.599976</ele>
        <time>2011-10-09T12:15:14Z</time>
      </trkpt>
      <trkpt lat="43.97778" lon="6.92224">
        <ele>897.400024</ele>
        <time>2011-10-09T12:15:18Z</time>
      </trkpt>
      <trkpt lat="43.97774" lon="6.92232">
        <ele>896.599976</ele>
        <time>2011-10-09T12:15:22Z</time>
      </trkpt>
      <trkpt lat="43.97765" lon="6.92245">
        <ele>894.200012</ele>
        <time>2011-10-09T12:15:25Z</time>
      </trkpt>
      <trkpt lat="43.97762" lon="6.92251">
        <ele>893.599976</ele>
        <time>2011-10-09T12:15:27Z</time>
      </trkpt>
      <trkpt lat="43.97756" lon="6.9225">
        <ele>891</ele>
        <time>2011-10-09T12:15:43Z</time>
      </trkpt>
      <trkpt lat="43.97747" lon="6.9226">
        <ele>888</ele>
        <time>2011-10-09T12:27:27Z</time>
      </trkpt>
      <trkpt lat="43.97737" lon="6.92265">
        <ele>885.599976</ele>
        <time>2011-10-09T12:27:29Z</time>
      </trkpt>
      <trkpt lat="43.97724" lon="6.92268">
        <ele>881.599976</ele>
        <time>2011-10-09T12:27:32Z</time>
      </trkpt>
      <trkpt lat="43.97715" lon="6.92269">
        <ele>879</ele>
        <time>2011-10-09T12:27:34Z</time>
      </trkpt>
      <trkpt lat="43.97708" lon="6.92268">
        <ele>876.799988</ele>
        <time>2011-10-09T12:27:36Z</time>
      </trkpt>
      <trkpt lat="43.97703" lon="6.92269">
        <ele>875.400024</ele>
        <time>2011-10-09T12:27:38Z</time>
      </trkpt>
      <trkpt lat="43.977" lon="6.92263">
        <ele>874.200012</ele>
        <time>2011-10-09T12:27:42Z</time>
      </trkpt>
      <trkpt lat="43.97695" lon="6.92263">
        <ele>872.599976</ele>
        <time>2011-10-09T12:28:04Z</time>
      </trkpt>
      <trkpt lat="43.9769" lon="6.92265">
        <ele>871.200012</ele>
        <time>2011-10-09T12:28:07Z</time>
      </trkpt>
      <trkpt lat="43.97685" lon="6.92259">
        <ele>869.599976</ele>
        <time>2011-10-09T12:28:11Z</time>
      </trkpt>
      <trkpt lat="43.97685" lon="6.92249">
        <ele>869</ele>
        <time>2011-10-09T12:28:14Z</time>
      </trkpt>
      <trkpt lat="43.97684" lon="6.92241">
        <ele>867</ele>
        <time>2011-10-09T12:28:17Z</time>
      </trkpt>
      <trkpt lat="43.97682" lon="6.92232">
        <ele>864.599976</ele>
        <time>2011-10-09T12:28:29Z</time>
      </trkpt>
      <trkpt lat="43.97674" lon="6.9224">
        <ele>863.599976</ele>
        <time>2011-10-09T12:28:35Z</time>
      </trkpt>
      <trkpt lat="43.9767" lon="6.92245">
        <ele>863.799988</ele>
        <time>2011-10-09T12:28:37Z</time>
      </trkpt>
      <trkpt lat="43.97662" lon="6.92247">
        <ele>861</ele>
        <time>2011-10-09T12:28:41Z</time>
      </trkpt>
      <trkpt lat="43.97663" lon="6.92236">
        <ele>859.200012</ele>
        <time>2011-10-09T12:28:44Z</time>
      </trkpt>
      <trkpt lat="43.97678" lon="6.92212">
        <ele>858.799988</ele>
        <time>2011-10-09T12:28:47Z</time>
      </trkpt>
      <trkpt lat="43.97674" lon="6.92206">
        <ele>856.400024</ele>
        <time>2011-10-09T12:28:50Z</time>
      </trkpt>
      <trkpt lat="43.97663" lon="6.92211">
        <ele>853.400024</ele>
        <time>2011-10-09T12:28:53Z</time>
      </trkpt>
      <trkpt lat="43.97658" lon="6.92216">
        <ele>852.599976</ele>
        <time>2011-10-09T12:28:54Z</time>
      </trkpt>
      <trkpt lat="43.97645" lon="6.92231">
        <ele>850.599976</ele>
        <time>2011-10-09T12:28:57Z</time>
      </trkpt>
      <trkpt lat="43.97638" lon="6.92232">
        <ele>847.400024</ele>
        <time>2011-10-09T12:29:01Z</time>
      </trkpt>
      <trkpt lat="43.97637" lon="6.92225">
        <ele>845.599976</ele>
        <time>2011-10-09T12:29:03Z</time>
      </trkpt>
      <trkpt lat="43.97639" lon="6.92213">
        <ele>844.599976</ele>
        <time>2011-10-09T12:29:07Z</time>
      </trkpt>
      <trkpt lat="43.97641" lon="6.92207">
        <ele>844.200012</ele>
        <time>2011-10-09T12:29:09Z</time>
      </trkpt>
      <trkpt lat="43.97644" lon="6.922">
        <ele>844</ele>
        <time>2011-10-09T12:29:11Z</time>
      </trkpt>
      <trkpt lat="43.97649" lon="6.92186">
        <ele>843</ele>
        <time>2011-10-09T12:29:14Z</time>
      </trkpt>
      <trkpt lat="43.97652" lon="6.92179">
        <ele>842.599976</ele>
        <time>2011-10-09T12:29:17Z</time>
      </trkpt>
      <trkpt lat="43.97645" lon="6.92178">
        <ele>840.400024</ele>
        <time>2011-10-09T12:29:21Z</time>
      </trkpt>
      <trkpt lat="43.97637" lon="6.92182">
        <ele>837.799988</ele>
        <time>2011-10-09T12:29:24Z</time>
      </trkpt>
      <trkpt lat="43.97628" lon="6.92183">
        <ele>835.200012</ele>
        <time>2011-10-09T12:29:26Z</time>
      </trkpt>
      <trkpt lat="43.9762" lon="6.92185">
        <ele>832.599976</ele>
        <time>2011-10-09T12:29:29Z</time>
      </trkpt>
      <trkpt lat="43.9763" lon="6.92176">
        <ele>834.599976</ele>
        <time>2011-10-09T12:29:51Z</time>
      </trkpt>
      <trkpt lat="43.97635" lon="6.92171">
        <ele>835.400024</ele>
        <time>2011-10-09T12:30:00Z</time>
      </trkpt>
      <trkpt lat="43.97634" lon="6.92159">
        <ele>831.799988</ele>
        <time>2011-10-09T12:30:05Z</time>
      </trkpt>
      <trkpt lat="43.97633" lon="6.92152">
        <ele>829.599976</ele>
        <time>2011-10-09T12:30:16Z</time>
      </trkpt>
      <trkpt lat="43.97627" lon="6.92156">
        <ele>829</ele>
        <time>2011-10-09T12:30:22Z</time>
      </trkpt>
      <trkpt lat="43.97619" lon="6.92161">
        <ele>828</ele>
        <time>2011-10-09T12:30:25Z</time>
      </trkpt>
      <trkpt lat="43.97615" lon="6.92164">
        <ele>827.200012</ele>
        <time>2011-10-09T12:30:27Z</time>
      </trkpt>
      <trkpt lat="43.97611" lon="6.92169">
        <ele>827.200012</ele>
        <time>2011-10-09T12:30:36Z</time>
      </trkpt>
      <trkpt lat="43.97604" lon="6.92176">
        <ele>826</ele>
        <time>2011-10-09T12:30:42Z</time>
      </trkpt>
      <trkpt lat="43.97599" lon="6.92181">
        <ele>824.599976</ele>
        <time>2011-10-09T12:30:45Z</time>
      </trkpt>
      <trkpt lat="43.97592" lon="6.92185">
        <ele>822.599976</ele>
        <time>2011-10-09T12:30:49Z</time>
      </trkpt>
      <trkpt lat="43.97584" lon="6.92189">
        <ele>820.400024</ele>
        <time>2011-10-09T12:30:53Z</time>
      </trkpt>
      <trkpt lat="43.97578" lon="6.9218">
        <ele>817</ele>
        <time>2011-10-09T12:31:00Z</time>
      </trkpt>
      <trkpt lat="43.97576" lon="6.92191">
        <ele>817.200012</ele>
        <time>2011-10-09T12:31:05Z</time>
      </trkpt>
      <trkpt lat="43.9757" lon="6.92184">
        <ele>814.200012</ele>
        <time>2011-10-09T12:31:11Z</time>
      </trkpt>
      <trkpt lat="43.97568" lon="6.92174">
        <ele>812.400024</ele>
        <time>2011-10-09T12:31:15Z</time>
      </trkpt>
      <trkpt lat="43.97569" lon="6.92167">
        <ele>812.200012</ele>
        <time>2011-10-09T12:31:17Z</time>
      </trkpt>
      <trkpt lat="43.97572" lon="6.92159">
        <ele>811.799988</ele>
        <time>2011-10-09T12:31:19Z</time>
      </trkpt>
      <trkpt lat="43.97575" lon="6.92152">
        <ele>810.799988</ele>
        <time>2011-10-09T12:31:21Z</time>
      </trkpt>
      <trkpt lat="43.97579" lon="6.92146">
        <ele>811</ele>
        <time>2011-10-09T12:31:23Z</time>
      </trkpt>
      <trkpt lat="43.97583" lon="6.92141">
        <ele>811.400024</ele>
        <time>2011-10-09T12:31:25Z</time>
      </trkpt>
      <trkpt lat="43.97583" lon="6.92128">
        <ele>808.200012</ele>
        <time>2011-10-09T12:31:30Z</time>
      </trkpt>
      <trkpt lat="43.97587" lon="6.92115">
        <ele>806</ele>
        <time>2011-10-09T12:31:35Z</time>
      </trkpt>
      <trkpt lat="43.97591" lon="6.92107">
        <ele>805</ele>
        <time>2011-10-09T12:31:37Z</time>
      </trkpt>
      <trkpt lat="43.97594" lon="6.92098">
        <ele>803.400024</ele>
        <time>2011-10-09T12:31:40Z</time>
      </trkpt>
      <trkpt lat="43.97586" lon="6.92095">
        <ele>800.599976</ele>
        <time>2011-10-09T12:31:45Z</time>
      </trkpt>
      <trkpt lat="43.97581" lon="6.92095">
        <ele>799.200012</ele>
        <time>2011-10-09T12:31:46Z</time>
      </trkpt>
      <trkpt lat="43.97577" lon="6.92091">
        <ele>796.799988</ele>
        <time>2011-10-09T12:31:49Z</time>
      </trkpt>
      <trkpt lat="43.9758" lon="6.92081">
        <ele>795.200012</ele>
        <time>2011-10-09T12:31:53Z</time>
      </trkpt>
      <trkpt lat="43.97582" lon="6.9207">
        <ele>792.599976</ele>
        <time>2011-10-09T12:31:57Z</time>
      </trkpt>
      <trkpt lat="43.97583" lon="6.92061">
        <ele>790.200012</ele>
        <time>2011-10-09T12:32:01Z</time>
      </trkpt>
      <trkpt lat="43.97585" lon="6.92053">
        <ele>788.599976</ele>
        <time>2011-10-09T12:32:04Z</time>
      </trkpt>
      <trkpt lat="43.97588" lon="6.92047">
        <ele>787.599976</ele>
        <time>2011-10-09T12:32:07Z</time>
      </trkpt>
      <trkpt lat="43.97591" lon="6.92038">
        <ele>786.200012</ele>
        <time>2011-10-09T12:32:10Z</time>
      </trkpt>
      <trkpt lat="43.97594" lon="6.92032">
        <ele>785.400024</ele>
        <time>2011-10-09T12:32:12Z</time>
      </trkpt>
      <trkpt lat="43.97597" lon="6.92023">
        <ele>783.599976</ele>
        <time>2011-10-09T12:32:15Z</time>
      </trkpt>
      <trkpt lat="43.97599" lon="6.92016">
        <ele>782.400024</ele>
        <time>2011-10-09T12:32:18Z</time>
      </trkpt>
      <trkpt lat="43.97596" lon="6.92008">
        <ele>779</ele>
        <time>2011-10-09T12:32:24Z</time>
      </trkpt>
      <trkpt lat="43.97587" lon="6.92008">
        <ele>776.400024</ele>
        <time>2011-10-09T12:32:28Z</time>
      </trkpt>
      <trkpt lat="43.97576" lon="6.92006">
        <ele>772.799988</ele>
        <time>2011-10-09T12:32:32Z</time>
      </trkpt>
      <trkpt lat="43.9757" lon="6.92">
        <ele>769.799988</ele>
        <time>2011-10-09T12:32:36Z</time>
      </trkpt>
      <trkpt lat="43.97565" lon="6.92">
        <ele>768.599976</ele>
        <time>2011-10-09T12:32:44Z</time>
      </trkpt>
      <trkpt lat="43.97558" lon="6.92002">
        <ele>767.400024</ele>
        <time>2011-10-09T12:32:47Z</time>
      </trkpt>
      <trkpt lat="43.97552" lon="6.92001">
        <ele>765.400024</ele>
        <time>2011-10-09T12:32:49Z</time>
      </trkpt>
      <trkpt lat="43.97546" lon="6.91999">
        <ele>763.799988</ele>
        <time>2011-10-09T12:32:51Z</time>
      </trkpt>
      <trkpt lat="43.97546" lon="6.91991">
        <ele>761.799988</ele>
        <time>2011-10-09T12:32:55Z</time>
      </trkpt>
      <trkpt lat="43.97555" lon="6.91985">
        <ele>762.400024</ele>
        <time>2011-10-09T12:32:58Z</time>
      </trkpt>
      <trkpt lat="43.97561" lon="6.9198">
        <ele>762.799988</ele>
        <time>2011-10-09T12:33:00Z</time>
      </trkpt>
      <trkpt lat="43.97547" lon="6.91983">
        <ele>760</ele>
        <time>2011-10-09T12:33:07Z</time>
      </trkpt>
      <trkpt lat="43.97541" lon="6.91981">
        <ele>758.400024</ele>
        <time>2011-10-09T12:33:10Z</time>
      </trkpt>
      <trkpt lat="43.97535" lon="6.91967">
        <ele>753.400024</ele>
        <time>2011-10-09T12:33:15Z</time>
      </trkpt>
      <trkpt lat="43.97532" lon="6.9196">
        <ele>751.200012</ele>
        <time>2011-10-09T12:33:17Z</time>
      </trkpt>
      <trkpt lat="43.97528" lon="6.91954">
        <ele>749</ele>
        <time>2011-10-09T12:33:19Z</time>
      </trkpt>
      <trkpt lat="43.97525" lon="6.91949">
        <ele>747</ele>
        <time>2011-10-09T12:33:21Z</time>
      </trkpt>
      <trkpt lat="43.97521" lon="6.91942">
        <ele>744.599976</ele>
        <time>2011-10-09T12:33:23Z</time>
      </trkpt>
      <trkpt lat="43.97514" lon="6.91935">
        <ele>741.400024</ele>
        <time>2011-10-09T12:33:25Z</time>
      </trkpt>
      <trkpt lat="43.97509" lon="6.9193">
        <ele>739.200012</ele>
        <time>2011-10-09T12:33:27Z</time>
      </trkpt>
      <trkpt lat="43.97505" lon="6.91924">
        <ele>736.799988</ele>
        <time>2011-10-09T12:33:30Z</time>
      </trkpt>
      <trkpt lat="43.97505" lon="6.91915">
        <ele>735</ele>
        <time>2011-10-09T12:33:33Z</time>
      </trkpt>
      <trkpt lat="43.975" lon="6.9191">
        <ele>733.400024</ele>
        <time>2011-10-09T12:33:38Z</time>
      </trkpt>
      <trkpt lat="43.97491" lon="6.91901">
        <ele>731.599976</ele>
        <time>2011-10-09T12:33:44Z</time>
      </trkpt>
      <trkpt lat="43.97487" lon="6.91895">
        <ele>730.599976</ele>
        <time>2011-10-09T12:33:46Z</time>
      </trkpt>
      <trkpt lat="43.97481" lon="6.91883">
        <ele>729.200012</ele>
        <time>2011-10-09T12:33:49Z</time>
      </trkpt>
      <trkpt lat="43.97477" lon="6.91877">
        <ele>728.400024</ele>
        <time>2011-10-09T12:33:51Z</time>
      </trkpt>
      <trkpt lat="43.97471" lon="6.91868">
        <ele>727.400024</ele>
        <time>2011-10-09T12:33:55Z</time>
      </trkpt>
      <trkpt lat="43.97466" lon="6.91863">
        <ele>726.799988</ele>
        <time>2011-10-09T12:33:59Z</time>
      </trkpt>
      <trkpt lat="43.9746" lon="6.91865">
        <ele>726.400024</ele>
        <time>2011-10-09T12:34:01Z</time>
      </trkpt>
      <trkpt lat="43.97454" lon="6.91869">
        <ele>726</ele>
        <time>2011-10-09T12:34:03Z</time>
      </trkpt>
      <trkpt lat="43.97449" lon="6.91875">
        <ele>725.799988</ele>
        <time>2011-10-09T12:34:05Z</time>
      </trkpt>
      <trkpt lat="43.97446" lon="6.91883">
        <ele>725.599976</ele>
        <time>2011-10-09T12:34:09Z</time>
      </trkpt>
      <trkpt lat="43.97439" lon="6.9188">
        <ele>725</ele>
        <time>2011-10-09T12:34:35Z</time>
      </trkpt>
      <trkpt lat="43.97434" lon="6.91877">
        <ele>724.599976</ele>
        <time>2011-10-09T12:34:39Z</time>
      </trkpt>
      <trkpt lat="43.97428" lon="6.91878">
        <ele>724</ele>
        <time>2011-10-09T12:34:43Z</time>
      </trkpt>
      <trkpt lat="43.97422" lon="6.91881">
        <ele>723.200012</ele>
        <time>2011-10-09T12:34:49Z</time>
      </trkpt>
      <trkpt lat="43.97416" lon="6.91884">
        <ele>722.599976</ele>
        <time>2011-10-09T12:34:53Z</time>
      </trkpt>
      <trkpt lat="43.97409" lon="6.91888">
        <ele>721</ele>
        <time>2011-10-09T12:34:55Z</time>
      </trkpt>
      <trkpt lat="43.97404" lon="6.91892">
        <ele>719.599976</ele>
        <time>2011-10-09T12:34:57Z</time>
      </trkpt>
      <trkpt lat="43.97399" lon="6.91894">
        <ele>718.400024</ele>
        <time>2011-10-09T12:34:59Z</time>
      </trkpt>
      <trkpt lat="43.97393" lon="6.91897">
        <ele>717</ele>
        <time>2011-10-09T12:35:03Z</time>
      </trkpt>
      <trkpt lat="43.97388" lon="6.91886">
        <ele>716.200012</ele>
        <time>2011-10-09T12:35:41Z</time>
      </trkpt>
      <trkpt lat="43.97385" lon="6.91893">
        <ele>715.200012</ele>
        <time>2011-10-09T12:36:47Z</time>
      </trkpt>
      <trkpt lat="43.97393" lon="6.91906">
        <ele>717</ele>
        <time>2011-10-09T12:50:53Z</time>
      </trkpt>
      <trkpt lat="43.97395" lon="6.91928">
        <ele>717.599976</ele>
        <time>2011-10-09T12:50:58Z</time>
      </trkpt>
      <trkpt lat="43.97397" lon="6.91965">
        <ele>719.599976</ele>
        <time>2011-10-09T12:51:01Z</time>
      </trkpt>
      <trkpt lat="43.97398" lon="6.91975">
        <ele>720.200012</ele>
        <time>2011-10-09T12:51:02Z</time>
      </trkpt>
      <trkpt lat="43.97395" lon="6.91985">
        <ele>720.200012</ele>
        <time>2011-10-09T12:51:03Z</time>
      </trkpt>
      <trkpt lat="43.97387" lon="6.91998">
        <ele>719.599976</ele>
        <time>2011-10-09T12:51:05Z</time>
      </trkpt>
      <trkpt lat="43.97381" lon="6.9201">
        <ele>719.799988</ele>
        <time>2011-10-09T12:51:07Z</time>
      </trkpt>
      <trkpt lat="43.97373" lon="6.92011">
        <ele>718.799988</ele>
        <time>2011-10-09T12:51:09Z</time>
      </trkpt>
      <trkpt lat="43.97364" lon="6.92013">
        <ele>717.799988</ele>
        <time>2011-10-09T12:51:11Z</time>
      </trkpt>
      <trkpt lat="43.97359" lon="6.92014">
        <ele>717.200012</ele>
        <time>2011-10-09T12:51:14Z</time>
      </trkpt>
      <trkpt lat="43.9736" lon="6.92025">
        <ele>718.599976</ele>
        <time>2011-10-09T12:51:20Z</time>
      </trkpt>
      <trkpt lat="43.97359" lon="6.92035">
        <ele>719.599976</ele>
        <time>2011-10-09T12:51:26Z</time>
      </trkpt>
      <trkpt lat="43.97355" lon="6.92031">
        <ele>718.599976</ele>
        <time>2011-10-09T12:51:34Z</time>
      </trkpt>
      <trkpt lat="43.97349" lon="6.92017">
        <ele>716.200012</ele>
        <time>2011-10-09T12:51:41Z</time>
      </trkpt>
      <trkpt lat="43.97346" lon="6.92011">
        <ele>715</ele>
        <time>2011-10-09T12:51:45Z</time>
      </trkpt>
      <trkpt lat="43.97343" lon="6.92001">
        <ele>713.400024</ele>
        <time>2011-10-09T12:51:49Z</time>
      </trkpt>
      <trkpt lat="43.97339" lon="6.91994">
        <ele>712.200012</ele>
        <time>2011-10-09T12:51:51Z</time>
      </trkpt>
      <trkpt lat="43.97331" lon="6.91979">
        <ele>710.799988</ele>
        <time>2011-10-09T12:51:57Z</time>
      </trkpt>
      <trkpt lat="43.97326" lon="6.9197">
        <ele>711.400024</ele>
        <time>2011-10-09T12:52:03Z</time>
      </trkpt>
      <trkpt lat="43.97329" lon="6.91959">
        <ele>709.400024</ele>
        <time>2011-10-09T12:52:10Z</time>
      </trkpt>
      <trkpt lat="43.97336" lon="6.91951">
        <ele>707.599976</ele>
        <time>2011-10-09T12:52:16Z</time>
      </trkpt>
      <trkpt lat="43.97331" lon="6.9195">
        <ele>707.599976</ele>
        <time>2011-10-09T12:52:22Z</time>
      </trkpt>
      <trkpt lat="43.97325" lon="6.91943">
        <ele>708.400024</ele>
        <time>2011-10-09T12:52:30Z</time>
      </trkpt>
      <trkpt lat="43.97317" lon="6.91938">
        <ele>709.799988</ele>
        <time>2011-10-09T12:52:33Z</time>
      </trkpt>
      <trkpt lat="43.97317" lon="6.91947">
        <ele>710.799988</ele>
        <time>2011-10-09T12:52:43Z</time>
      </trkpt>
      <trkpt lat="43.97318" lon="6.91953">
        <ele>711.400024</ele>
        <time>2011-10-09T12:52:49Z</time>
      </trkpt>
      <trkpt lat="43.97314" lon="6.9196">
        <ele>713.400024</ele>
        <time>2011-10-09T12:52:56Z</time>
      </trkpt>
      <trkpt lat="43.9731" lon="6.91968">
        <ele>715.799988</ele>
        <time>2011-10-09T12:53:02Z</time>
      </trkpt>
      <trkpt lat="43.97309" lon="6.91975">
        <ele>717.400024</ele>
        <time>2011-10-09T12:53:07Z</time>
      </trkpt>
      <trkpt lat="43.97304" lon="6.9198">
        <ele>719.599976</ele>
        <time>2011-10-09T12:53:11Z</time>
      </trkpt>
      <trkpt lat="43.97308" lon="6.91984">
        <ele>719.200012</ele>
        <time>2011-10-09T12:53:16Z</time>
      </trkpt>
      <trkpt lat="43.97313" lon="6.91987">
        <ele>718</ele>
        <time>2011-10-09T12:53:21Z</time>
      </trkpt>
      <trkpt lat="43.97315" lon="6.91994">
        <ele>718</ele>
        <time>2011-10-09T12:53:29Z</time>
      </trkpt>
      <trkpt lat="43.97326" lon="6.92">
        <ele>714.799988</ele>
        <time>2011-10-09T12:53:35Z</time>
      </trkpt>
      <trkpt lat="43.97322" lon="6.92006">
        <ele>717.200012</ele>
        <time>2011-10-09T12:53:39Z</time>
      </trkpt>
      <trkpt lat="43.97314" lon="6.92011">
        <ele>721</ele>
        <time>2011-10-09T12:53:44Z</time>
      </trkpt>
      <trkpt lat="43.97309" lon="6.92005">
        <ele>722</ele>
        <time>2011-10-09T12:53:49Z</time>
      </trkpt>
      <trkpt lat="43.97303" lon="6.91997">
        <ele>723.200012</ele>
        <time>2011-10-09T12:53:55Z</time>
      </trkpt>
      <trkpt lat="43.97294" lon="6.91994">
        <ele>726</ele>
        <time>2011-10-09T12:53:58Z</time>
      </trkpt>
      <trkpt lat="43.97287" lon="6.91992">
        <ele>728</ele>
        <time>2011-10-09T12:54:02Z</time>
      </trkpt>
      <trkpt lat="43.97283" lon="6.91987">
        <ele>728.400024</ele>
        <time>2011-10-09T12:54:11Z</time>
      </trkpt>
      <trkpt lat="43.97275" lon="6.91984">
        <ele>730.400024</ele>
        <time>2011-10-09T12:54:17Z</time>
      </trkpt>
      <trkpt lat="43.97269" lon="6.91983">
        <ele>732</ele>
        <time>2011-10-09T12:54:24Z</time>
      </trkpt>
      <trkpt lat="43.97263" lon="6.9198">
        <ele>733.400024</ele>
        <time>2011-10-09T12:54:30Z</time>
      </trkpt>
      <trkpt lat="43.97256" lon="6.91978">
        <ele>735</ele>
        <time>2011-10-09T12:54:36Z</time>
      </trkpt>
      <trkpt lat="43.9725" lon="6.91978">
        <ele>737.200012</ele>
        <time>2011-10-09T12:54:46Z</time>
      </trkpt>
      <trkpt lat="43.97244" lon="6.91974">
        <ele>737.799988</ele>
        <time>2011-10-09T12:54:50Z</time>
      </trkpt>
      <trkpt lat="43.97238" lon="6.91969">
        <ele>738</ele>
        <time>2011-10-09T12:55:00Z</time>
      </trkpt>
      <trkpt lat="43.97233" lon="6.91969">
        <ele>739.400024</ele>
        <time>2011-10-09T12:55:04Z</time>
      </trkpt>
      <trkpt lat="43.97226" lon="6.91973">
        <ele>743</ele>
        <time>2011-10-09T12:55:13Z</time>
      </trkpt>
      <trkpt lat="43.9722" lon="6.91972">
        <ele>744.400024</ele>
        <time>2011-10-09T12:55:20Z</time>
      </trkpt>
      <trkpt lat="43.97215" lon="6.9197">
        <ele>745.400024</ele>
        <time>2011-10-09T12:55:28Z</time>
      </trkpt>
      <trkpt lat="43.9721" lon="6.91968">
        <ele>746.200012</ele>
        <time>2011-10-09T12:55:32Z</time>
      </trkpt>
      <trkpt lat="43.97207" lon="6.91963">
        <ele>745.599976</ele>
        <time>2011-10-09T12:55:39Z</time>
      </trkpt>
      <trkpt lat="43.9721" lon="6.91958">
        <ele>742.799988</ele>
        <time>2011-10-09T12:55:46Z</time>
      </trkpt>
      <trkpt lat="43.97217" lon="6.91955">
        <ele>739.799988</ele>
        <time>2011-10-09T12:55:52Z</time>
      </trkpt>
      <trkpt lat="43.97207" lon="6.91951">
        <ele>741</ele>
        <time>2011-10-09T12:55:56Z</time>
      </trkpt>
      <trkpt lat="43.97203" lon="6.91949">
        <ele>741.799988</ele>
        <time>2011-10-09T12:55:58Z</time>
      </trkpt>
      <trkpt lat="43.97192" lon="6.91945">
        <ele>743.599976</ele>
        <time>2011-10-09T12:56:06Z</time>
      </trkpt>
      <trkpt lat="43.97186" lon="6.91943">
        <ele>744.599976</ele>
        <time>2011-10-09T12:56:12Z</time>
      </trkpt>
      <trkpt lat="43.9718" lon="6.91942">
        <ele>746</ele>
        <time>2011-10-09T12:56:18Z</time>
      </trkpt>
      <trkpt lat="43.97173" lon="6.9195">
        <ele>751</ele>
        <time>2011-10-09T12:56:32Z</time>
      </trkpt>
      <trkpt lat="43.97173" lon="6.91958">
        <ele>753.799988</ele>
        <time>2011-10-09T12:56:38Z</time>
      </trkpt>
      <trkpt lat="43.97178" lon="6.91963">
        <ele>754</ele>
        <time>2011-10-09T12:56:48Z</time>
      </trkpt>
      <trkpt lat="43.97183" lon="6.91967">
        <ele>754.200012</ele>
        <time>2011-10-09T12:56:56Z</time>
      </trkpt>
      <trkpt lat="43.97186" lon="6.91972">
        <ele>755.200012</ele>
        <time>2011-10-09T12:57:04Z</time>
      </trkpt>
      <trkpt lat="43.97188" lon="6.91979">
        <ele>757.200012</ele>
        <time>2011-10-09T12:57:11Z</time>
      </trkpt>
      <trkpt lat="43.97191" lon="6.91989">
        <ele>759.799988</ele>
        <time>2011-10-09T12:57:21Z</time>
      </trkpt>
      <trkpt lat="43.97195" lon="6.91995">
        <ele>760.799988</ele>
        <time>2011-10-09T12:57:27Z</time>
      </trkpt>
      <trkpt lat="43.97201" lon="6.92004">
        <ele>761.599976</ele>
        <time>2011-10-09T12:57:35Z</time>
      </trkpt>
      <trkpt lat="43.97206" lon="6.9201">
        <ele>761.799988</ele>
        <time>2011-10-09T12:57:41Z</time>
      </trkpt>
      <trkpt lat="43.97212" lon="6.92017">
        <ele>761.799988</ele>
        <time>2011-10-09T12:57:51Z</time>
      </trkpt>
      <trkpt lat="43.97221" lon="6.92018">
        <ele>758.599976</ele>
        <time>2011-10-09T12:57:55Z</time>
      </trkpt>
      <trkpt lat="43.97226" lon="6.92018">
        <ele>756.799988</ele>
        <time>2011-10-09T12:57:58Z</time>
      </trkpt>
      <trkpt lat="43.97234" lon="6.92023">
        <ele>755</ele>
        <time>2011-10-09T12:58:02Z</time>
      </trkpt>
      <trkpt lat="43.97239" lon="6.92032">
        <ele>755.799988</ele>
        <time>2011-10-09T12:58:06Z</time>
      </trkpt>
      <trkpt lat="43.97235" lon="6.92039">
        <ele>759.200012</ele>
        <time>2011-10-09T12:58:11Z</time>
      </trkpt>
      <trkpt lat="43.9723" lon="6.92043">
        <ele>761.799988</ele>
        <time>2011-10-09T12:58:16Z</time>
      </trkpt>
      <trkpt lat="43.97233" lon="6.9205">
        <ele>762.400024</ele>
        <time>2011-10-09T12:58:27Z</time>
      </trkpt>
      <trkpt lat="43.97238" lon="6.92055">
        <ele>761.799988</ele>
        <time>2011-10-09T12:58:31Z</time>
      </trkpt>
      <trkpt lat="43.97243" lon="6.92058">
        <ele>761</ele>
        <time>2011-10-09T12:58:35Z</time>
      </trkpt>
      <trkpt lat="43.9725" lon="6.9207">
        <ele>760.599976</ele>
        <time>2011-10-09T12:58:47Z</time>
      </trkpt>
      <trkpt lat="43.97257" lon="6.92075">
        <ele>758.599976</ele>
        <time>2011-10-09T12:58:52Z</time>
      </trkpt>
      <trkpt lat="43.97258" lon="6.92068">
        <ele>756.599976</ele>
        <time>2011-10-09T12:59:02Z</time>
      </trkpt>
      <trkpt lat="43.97252" lon="6.92062">
        <ele>758.200012</ele>
        <time>2011-10-09T12:59:08Z</time>
      </trkpt>
      <trkpt lat="43.97215" lon="6.92044">
        <ele>768</ele>
        <time>2011-10-09T12:59:28Z</time>
      </trkpt>
      <trkpt lat="43.9721" lon="6.92042">
        <ele>769.599976</ele>
        <time>2011-10-09T12:59:30Z</time>
      </trkpt>
      <trkpt lat="43.97202" lon="6.92038">
        <ele>771.400024</ele>
        <time>2011-10-09T12:59:34Z</time>
      </trkpt>
      <trkpt lat="43.97197" lon="6.92033">
        <ele>771.799988</ele>
        <time>2011-10-09T12:59:41Z</time>
      </trkpt>
      <trkpt lat="43.97192" lon="6.92035">
        <ele>774.400024</ele>
        <time>2011-10-09T12:59:47Z</time>
      </trkpt>
      <trkpt lat="43.97188" lon="6.9204">
        <ele>777.599976</ele>
        <time>2011-10-09T12:59:53Z</time>
      </trkpt>
      <trkpt lat="43.97185" lon="6.92047">
        <ele>781</ele>
        <time>2011-10-09T12:59:59Z</time>
      </trkpt>
      <trkpt lat="43.97182" lon="6.92061">
        <ele>786.599976</ele>
        <time>2011-10-09T13:00:07Z</time>
      </trkpt>
      <trkpt lat="43.97181" lon="6.92074">
        <ele>791.400024</ele>
        <time>2011-10-09T13:00:14Z</time>
      </trkpt>
      <trkpt lat="43.9718" lon="6.92081">
        <ele>794.200012</ele>
        <time>2011-10-09T13:00:20Z</time>
      </trkpt>
      <trkpt lat="43.97174" lon="6.92083">
        <ele>797.400024</ele>
        <time>2011-10-09T13:00:26Z</time>
      </trkpt>
      <trkpt lat="43.97171" lon="6.92077">
        <ele>796.799988</ele>
        <time>2011-10-09T13:00:32Z</time>
      </trkpt>
      <trkpt lat="43.97191" lon="6.92069">
        <ele>785.799988</ele>
        <time>2011-10-09T13:00:40Z</time>
      </trkpt>
      <trkpt lat="43.97177" lon="6.92062">
        <ele>789</ele>
        <time>2011-10-09T13:00:46Z</time>
      </trkpt>
      <trkpt lat="43.97172" lon="6.9206">
        <ele>790.599976</ele>
        <time>2011-10-09T13:00:48Z</time>
      </trkpt>
      <trkpt lat="43.97167" lon="6.92057">
        <ele>791.799988</ele>
        <time>2011-10-09T13:00:54Z</time>
      </trkpt>
      <trkpt lat="43.97162" lon="6.92055">
        <ele>792</ele>
        <time>2011-10-09T13:01:01Z</time>
      </trkpt>
      <trkpt lat="43.97156" lon="6.92052">
        <ele>792.799988</ele>
        <time>2011-10-09T13:01:10Z</time>
      </trkpt>
      <trkpt lat="43.9715" lon="6.92052">
        <ele>793.799988</ele>
        <time>2011-10-09T13:01:18Z</time>
      </trkpt>
      <trkpt lat="43.97146" lon="6.92056">
        <ele>796.200012</ele>
        <time>2011-10-09T13:01:24Z</time>
      </trkpt>
      <trkpt lat="43.97142" lon="6.92061">
        <ele>798.799988</ele>
        <time>2011-10-09T13:01:29Z</time>
      </trkpt>
      <trkpt lat="43.97134" lon="6.92063">
        <ele>801.599976</ele>
        <time>2011-10-09T13:01:33Z</time>
      </trkpt>
      <trkpt lat="43.97127" lon="6.92063">
        <ele>803.599976</ele>
        <time>2011-10-09T13:01:37Z</time>
      </trkpt>
      <trkpt lat="43.97117" lon="6.92064">
        <ele>806</ele>
        <time>2011-10-09T13:01:43Z</time>
      </trkpt>
      <trkpt lat="43.97112" lon="6.92065">
        <ele>807.799988</ele>
        <time>2011-10-09T13:01:46Z</time>
      </trkpt>
      <trkpt lat="43.97106" lon="6.92068">
        <ele>810.200012</ele>
        <time>2011-10-09T13:01:50Z</time>
      </trkpt>
      <trkpt lat="43.97101" lon="6.9207">
        <ele>812.400024</ele>
        <time>2011-10-09T13:01:54Z</time>
      </trkpt>
      <trkpt lat="43.97093" lon="6.92074">
        <ele>815.799988</ele>
        <time>2011-10-09T13:02:04Z</time>
      </trkpt>
      <trkpt lat="43.97088" lon="6.92075">
        <ele>817.200012</ele>
        <time>2011-10-09T13:02:08Z</time>
      </trkpt>
      <trkpt lat="43.97084" lon="6.92075">
        <ele>818.599976</ele>
        <time>2011-10-09T13:02:12Z</time>
      </trkpt>
      <trkpt lat="43.97079" lon="6.92077">
        <ele>820.799988</ele>
        <time>2011-10-09T13:02:20Z</time>
      </trkpt>
      <trkpt lat="43.9708" lon="6.92061">
        <ele>814.200012</ele>
        <time>2011-10-09T13:02:38Z</time>
      </trkpt>
      <trkpt lat="43.97084" lon="6.92055">
        <ele>810.400024</ele>
        <time>2011-10-09T13:02:44Z</time>
      </trkpt>
      <trkpt lat="43.97077" lon="6.92045">
        <ele>808.799988</ele>
        <time>2011-10-09T13:02:57Z</time>
      </trkpt>
      <trkpt lat="43.97075" lon="6.92039">
        <ele>807.200012</ele>
        <time>2011-10-09T13:03:03Z</time>
      </trkpt>
      <trkpt lat="43.97072" lon="6.92034">
        <ele>806</ele>
        <time>2011-10-09T13:03:07Z</time>
      </trkpt>
      <trkpt lat="43.97067" lon="6.92027">
        <ele>805.400024</ele>
        <time>2011-10-09T13:03:11Z</time>
      </trkpt>
      <trkpt lat="43.9706" lon="6.92021">
        <ele>805.400024</ele>
        <time>2011-10-09T13:03:15Z</time>
      </trkpt>
      <trkpt lat="43.97056" lon="6.92017">
        <ele>805.200012</ele>
        <time>2011-10-09T13:03:19Z</time>
      </trkpt>
      <trkpt lat="43.97031" lon="6.9201">
        <ele>811.599976</ele>
        <time>2011-10-09T13:03:28Z</time>
      </trkpt>
      <trkpt lat="43.97024" lon="6.92009">
        <ele>813.599976</ele>
        <time>2011-10-09T13:03:30Z</time>
      </trkpt>
      <trkpt lat="43.97018" lon="6.92009">
        <ele>815.599976</ele>
        <time>2011-10-09T13:03:32Z</time>
      </trkpt>
      <trkpt lat="43.9701" lon="6.92009">
        <ele>818.799988</ele>
        <time>2011-10-09T13:03:36Z</time>
      </trkpt>
      <trkpt lat="43.96986" lon="6.9201">
        <ele>833.200012</ele>
        <time>2011-10-09T13:03:49Z</time>
      </trkpt>
      <trkpt lat="43.96976" lon="6.92011">
        <ele>840.200012</ele>
        <time>2011-10-09T13:03:53Z</time>
      </trkpt>
      <trkpt lat="43.96968" lon="6.92011">
        <ele>846</ele>
        <time>2011-10-09T13:03:57Z</time>
      </trkpt>
      <trkpt lat="43.96956" lon="6.9201">
        <ele>854.599976</ele>
        <time>2011-10-09T13:04:04Z</time>
      </trkpt>
      <trkpt lat="43.96951" lon="6.92009">
        <ele>858.200012</ele>
        <time>2011-10-09T13:04:08Z</time>
      </trkpt>
      <trkpt lat="43.96944" lon="6.92008">
        <ele>862.599976</ele>
        <time>2011-10-09T13:04:12Z</time>
      </trkpt>
      <trkpt lat="43.96935" lon="6.92005">
        <ele>868.400024</ele>
        <time>2011-10-09T13:04:17Z</time>
      </trkpt>
      <trkpt lat="43.96931" lon="6.92002">
        <ele>870.400024</ele>
        <time>2011-10-09T13:04:20Z</time>
      </trkpt>
      <trkpt lat="43.9693" lon="6.91993">
        <ele>869.599976</ele>
        <time>2011-10-09T13:04:31Z</time>
      </trkpt>
      <trkpt lat="43.96926" lon="6.91989">
        <ele>872</ele>
        <time>2011-10-09T13:04:40Z</time>
      </trkpt>
      <trkpt lat="43.9693" lon="6.91983">
        <ele>868.799988</ele>
        <time>2011-10-09T13:04:50Z</time>
      </trkpt>
      <trkpt lat="43.96952" lon="6.91972">
        <ele>850.200012</ele>
        <time>2011-10-09T13:04:59Z</time>
      </trkpt>
      <trkpt lat="43.96958" lon="6.91969">
        <ele>845.599976</ele>
        <time>2011-10-09T13:05:01Z</time>
      </trkpt>
      <trkpt lat="43.96963" lon="6.91963">
        <ele>840.799988</ele>
        <time>2011-10-09T13:05:05Z</time>
      </trkpt>
      <trkpt lat="43.96977" lon="6.9195">
        <ele>827.400024</ele>
        <time>2011-10-09T13:05:12Z</time>
      </trkpt>
      <trkpt lat="43.9698" lon="6.91939">
        <ele>822.799988</ele>
        <time>2011-10-09T13:05:17Z</time>
      </trkpt>
      <trkpt lat="43.96987" lon="6.91933">
        <ele>816.400024</ele>
        <time>2011-10-09T13:05:21Z</time>
      </trkpt>
      <trkpt lat="43.96983" lon="6.91928">
        <ele>818.599976</ele>
        <time>2011-10-09T13:05:24Z</time>
      </trkpt>
      <trkpt lat="43.96988" lon="6.9192">
        <ele>813.200012</ele>
        <time>2011-10-09T13:05:30Z</time>
      </trkpt>
      <trkpt lat="43.96971" lon="6.91912">
        <ele>826.400024</ele>
        <time>2011-10-09T13:05:35Z</time>
      </trkpt>
      <trkpt lat="43.96965" lon="6.91909">
        <ele>832.200012</ele>
        <time>2011-10-09T13:05:36Z</time>
      </trkpt>
      <trkpt lat="43.96951" lon="6.91904">
        <ele>844.200012</ele>
        <time>2011-10-09T13:05:39Z</time>
      </trkpt>
      <trkpt lat="43.9694" lon="6.91898">
        <ele>853.599976</ele>
        <time>2011-10-09T13:05:43Z</time>
      </trkpt>
      <trkpt lat="43.9693" lon="6.91889">
        <ele>862.200012</ele>
        <time>2011-10-09T13:05:49Z</time>
      </trkpt>
      <trkpt lat="43.9693" lon="6.91882">
        <ele>861.799988</ele>
        <time>2011-10-09T13:05:55Z</time>
      </trkpt>
      <trkpt lat="43.96933" lon="6.91877">
        <ele>859.200012</ele>
        <time>2011-10-09T13:06:00Z</time>
      </trkpt>
      <trkpt lat="43.96937" lon="6.91872">
        <ele>856</ele>
        <time>2011-10-09T13:06:04Z</time>
      </trkpt>
      <trkpt lat="43.96938" lon="6.91865">
        <ele>854.799988</ele>
        <time>2011-10-09T13:06:09Z</time>
      </trkpt>
      <trkpt lat="43.96936" lon="6.91859">
        <ele>857</ele>
        <time>2011-10-09T13:06:13Z</time>
      </trkpt>
      <trkpt lat="43.96931" lon="6.91852">
        <ele>861.200012</ele>
        <time>2011-10-09T13:06:17Z</time>
      </trkpt>
      <trkpt lat="43.96927" lon="6.91847">
        <ele>864.400024</ele>
        <time>2011-10-09T13:06:21Z</time>
      </trkpt>
      <trkpt lat="43.96921" lon="6.91843">
        <ele>869.599976</ele>
        <time>2011-10-09T13:06:25Z</time>
      </trkpt>
      <trkpt lat="43.96913" lon="6.91841">
        <ele>876.799988</ele>
        <time>2011-10-09T13:06:30Z</time>
      </trkpt>
      <trkpt lat="43.96908" lon="6.91835">
        <ele>880.599976</ele>
        <time>2011-10-09T13:06:34Z</time>
      </trkpt>
      <trkpt lat="43.96906" lon="6.91823">
        <ele>881.200012</ele>
        <time>2011-10-09T13:06:40Z</time>
      </trkpt>
      <trkpt lat="43.96898" lon="6.91807">
        <ele>885.200012</ele>
        <time>2011-10-09T13:06:45Z</time>
      </trkpt>
      <trkpt lat="43.96895" lon="6.918">
        <ele>886.599976</ele>
        <time>2011-10-09T13:06:47Z</time>
      </trkpt>
      <trkpt lat="43.96891" lon="6.91791">
        <ele>887.799988</ele>
        <time>2011-10-09T13:06:51Z</time>
      </trkpt>
      <trkpt lat="43.96892" lon="6.91783">
        <ele>886</ele>
        <time>2011-10-09T13:06:56Z</time>
      </trkpt>
      <trkpt lat="43.96895" lon="6.91774">
        <ele>883</ele>
        <time>2011-10-09T13:07:02Z</time>
      </trkpt>
      <trkpt lat="43.96894" lon="6.91765">
        <ele>882.400024</ele>
        <time>2011-10-09T13:07:07Z</time>
      </trkpt>
      <trkpt lat="43.96891" lon="6.91758">
        <ele>883.400024</ele>
        <time>2011-10-09T13:07:11Z</time>
      </trkpt>
      <trkpt lat="43.96896" lon="6.9179">
        <ele>884</ele>
        <time>2011-10-09T13:07:42Z</time>
      </trkpt>
      <trkpt lat="43.969" lon="6.91787">
        <ele>880.200012</ele>
        <time>2011-10-09T13:08:02Z</time>
      </trkpt>
      <trkpt lat="43.96899" lon="6.9177">
        <ele>878.599976</ele>
        <time>2011-10-09T13:08:29Z</time>
      </trkpt>
      <trkpt lat="43.96899" lon="6.91763">
        <ele>878.200012</ele>
        <time>2011-10-09T13:08:51Z</time>
      </trkpt>
      <trkpt lat="43.96887" lon="6.91755">
        <ele>886.400024</ele>
        <time>2011-10-09T13:09:20Z</time>
      </trkpt>
      <trkpt lat="43.96885" lon="6.91763">
        <ele>888.400024</ele>
        <time>2011-10-09T13:09:28Z</time>
      </trkpt>
      <trkpt lat="43.96889" lon="6.91775">
        <ele>887.200012</ele>
        <time>2011-10-09T13:09:46Z</time>
      </trkpt>
      <trkpt lat="43.96884" lon="6.91771">
        <ele>891</ele>
        <time>2011-10-09T13:10:00Z</time>
      </trkpt>
      <trkpt lat="43.96881" lon="6.91753">
        <ele>890.599976</ele>
        <time>2011-10-09T13:10:34Z</time>
      </trkpt>
      <trkpt lat="43.96875" lon="6.91752">
        <ele>894.599976</ele>
        <time>2011-10-09T13:10:38Z</time>
      </trkpt>
      <trkpt lat="43.96873" lon="6.91745">
        <ele>894.200012</ele>
        <time>2011-10-09T13:10:50Z</time>
      </trkpt>
      <trkpt lat="43.96868" lon="6.91744">
        <ele>897.599976</ele>
        <time>2011-10-09T13:10:56Z</time>
      </trkpt>
      <trkpt lat="43.96859" lon="6.91736">
        <ele>901.599976</ele>
        <time>2011-10-09T13:11:08Z</time>
      </trkpt>
      <trkpt lat="43.96855" lon="6.91732">
        <ele>903.200012</ele>
        <time>2011-10-09T13:11:16Z</time>
      </trkpt>
      <trkpt lat="43.96851" lon="6.91729">
        <ele>905.599976</ele>
        <time>2011-10-09T13:11:22Z</time>
      </trkpt>
      <trkpt lat="43.96846" lon="6.91722">
        <ele>906.799988</ele>
        <time>2011-10-09T13:11:35Z</time>
      </trkpt>
      <trkpt lat="43.96842" lon="6.91719">
        <ele>909.599976</ele>
        <time>2011-10-09T13:11:41Z</time>
      </trkpt>
      <trkpt lat="43.96835" lon="6.91715">
        <ele>914</ele>
        <time>2011-10-09T13:11:53Z</time>
      </trkpt>
      <trkpt lat="43.9683" lon="6.91711">
        <ele>916.200012</ele>
        <time>2011-10-09T13:12:01Z</time>
      </trkpt>
      <trkpt lat="43.96827" lon="6.91706">
        <ele>916.200012</ele>
        <time>2011-10-09T13:12:26Z</time>
      </trkpt>
      <trkpt lat="43.96823" lon="6.91701">
        <ele>917</ele>
        <time>2011-10-09T13:12:34Z</time>
      </trkpt>
      <trkpt lat="43.9682" lon="6.91695">
        <ele>917.200012</ele>
        <time>2011-10-09T13:12:46Z</time>
      </trkpt>
      <trkpt lat="43.96817" lon="6.9169">
        <ele>917.799988</ele>
        <time>2011-10-09T13:12:52Z</time>
      </trkpt>
      <trkpt lat="43.96819" lon="6.91683">
        <ele>914</ele>
        <time>2011-10-09T13:13:01Z</time>
      </trkpt>
      <trkpt lat="43.96818" lon="6.91672">
        <ele>912.200012</ele>
        <time>2011-10-09T13:13:16Z</time>
      </trkpt>
      <trkpt lat="43.96811" lon="6.91666">
        <ele>914.599976</ele>
        <time>2011-10-09T13:13:22Z</time>
      </trkpt>
      <trkpt lat="43.968" lon="6.91655">
        <ele>920.599976</ele>
        <time>2011-10-09T13:13:36Z</time>
      </trkpt>
      <trkpt lat="43.96797" lon="6.91649">
        <ele>921.599976</ele>
        <time>2011-10-09T13:13:42Z</time>
      </trkpt>
      <trkpt lat="43.96791" lon="6.91641">
        <ele>924.599976</ele>
        <time>2011-10-09T13:13:50Z</time>
      </trkpt>
      <trkpt lat="43.96787" lon="6.91635">
        <ele>926.599976</ele>
        <time>2011-10-09T13:13:56Z</time>
      </trkpt>
      <trkpt lat="43.96782" lon="6.9163">
        <ele>929</ele>
        <time>2011-10-09T13:14:05Z</time>
      </trkpt>
      <trkpt lat="43.96773" lon="6.91618">
        <ele>933.599976</ele>
        <time>2011-10-09T13:14:19Z</time>
      </trkpt>
      <trkpt lat="43.96768" lon="6.91615">
        <ele>935.799988</ele>
        <time>2011-10-09T13:14:23Z</time>
      </trkpt>
      <trkpt lat="43.96765" lon="6.91607">
        <ele>936.799988</ele>
        <time>2011-10-09T13:14:32Z</time>
      </trkpt>
      <trkpt lat="43.96764" lon="6.916">
        <ele>936.599976</ele>
        <time>2011-10-09T13:14:38Z</time>
      </trkpt>
      <trkpt lat="43.96759" lon="6.91594">
        <ele>938.400024</ele>
        <time>2011-10-09T13:14:46Z</time>
      </trkpt>
      <trkpt lat="43.96756" lon="6.91589">
        <ele>940</ele>
        <time>2011-10-09T13:14:50Z</time>
      </trkpt>
      <trkpt lat="43.96751" lon="6.9158">
        <ele>942</ele>
        <time>2011-10-09T13:14:58Z</time>
      </trkpt>
      <trkpt lat="43.96747" lon="6.91575">
        <ele>943</ele>
        <time>2011-10-09T13:15:04Z</time>
      </trkpt>
      <trkpt lat="43.96744" lon="6.91567">
        <ele>943.400024</ele>
        <time>2011-10-09T13:15:13Z</time>
      </trkpt>
      <trkpt lat="43.96741" lon="6.91553">
        <ele>943.400024</ele>
        <time>2011-10-09T13:15:30Z</time>
      </trkpt>
      <trkpt lat="43.96737" lon="6.91549">
        <ele>943.799988</ele>
        <time>2011-10-09T13:15:37Z</time>
      </trkpt>
      <trkpt lat="43.96731" lon="6.91541">
        <ele>944.400024</ele>
        <time>2011-10-09T13:15:45Z</time>
      </trkpt>
      <trkpt lat="43.96727" lon="6.91535">
        <ele>944.599976</ele>
        <time>2011-10-09T13:15:51Z</time>
      </trkpt>
      <trkpt lat="43.96724" lon="6.91527">
        <ele>944.599976</ele>
        <time>2011-10-09T13:16:01Z</time>
      </trkpt>
      <trkpt lat="43.96721" lon="6.91518">
        <ele>944.599976</ele>
        <time>2011-10-09T13:16:09Z</time>
      </trkpt>
      <trkpt lat="43.96716" lon="6.91509">
        <ele>944.599976</ele>
        <time>2011-10-09T13:16:18Z</time>
      </trkpt>
      <trkpt lat="43.96713" lon="6.91504">
        <ele>944.599976</ele>
        <time>2011-10-09T13:16:24Z</time>
      </trkpt>
      <trkpt lat="43.96712" lon="6.91498">
        <ele>944.200012</ele>
        <time>2011-10-09T13:16:30Z</time>
      </trkpt>
      <trkpt lat="43.96711" lon="6.91489">
        <ele>943</ele>
        <time>2011-10-09T13:16:38Z</time>
      </trkpt>
      <trkpt lat="43.96708" lon="6.91484">
        <ele>942.599976</ele>
        <time>2011-10-09T13:16:46Z</time>
      </trkpt>
      <trkpt lat="43.96704" lon="6.91476">
        <ele>942</ele>
        <time>2011-10-09T13:16:56Z</time>
      </trkpt>
      <trkpt lat="43.96701" lon="6.9147">
        <ele>941.400024</ele>
        <time>2011-10-09T13:17:04Z</time>
      </trkpt>
      <trkpt lat="43.96697" lon="6.91463">
        <ele>941</ele>
        <time>2011-10-09T13:17:10Z</time>
      </trkpt>
      <trkpt lat="43.96695" lon="6.91458">
        <ele>940.599976</ele>
        <time>2011-10-09T13:17:16Z</time>
      </trkpt>
      <trkpt lat="43.9669" lon="6.91455">
        <ele>940.799988</ele>
        <time>2011-10-09T13:17:26Z</time>
      </trkpt>
      <trkpt lat="43.96686" lon="6.91459">
        <ele>942</ele>
        <time>2011-10-09T13:17:36Z</time>
      </trkpt>
      <trkpt lat="43.96676" lon="6.91469">
        <ele>944.599976</ele>
        <time>2011-10-09T13:17:53Z</time>
      </trkpt>
      <trkpt lat="43.96677" lon="6.91479">
        <ele>945.799988</ele>
        <time>2011-10-09T13:17:58Z</time>
      </trkpt>
      <trkpt lat="43.96679" lon="6.91487">
        <ele>946.599976</ele>
        <time>2011-10-09T13:18:02Z</time>
      </trkpt>
      <trkpt lat="43.96683" lon="6.91494">
        <ele>947.200012</ele>
        <time>2011-10-09T13:18:07Z</time>
      </trkpt>
      <trkpt lat="43.96683" lon="6.91503">
        <ele>948.200012</ele>
        <time>2011-10-09T13:18:15Z</time>
      </trkpt>
      <trkpt lat="43.96684" lon="6.91514">
        <ele>949.200012</ele>
        <time>2011-10-09T13:18:24Z</time>
      </trkpt>
      <trkpt lat="43.96684" lon="6.91522">
        <ele>949.799988</ele>
        <time>2011-10-09T13:18:30Z</time>
      </trkpt>
      <trkpt lat="43.96684" lon="6.91536">
        <ele>951.200012</ele>
        <time>2011-10-09T13:18:41Z</time>
      </trkpt>
      <trkpt lat="43.96688" lon="6.91545">
        <ele>951.400024</ele>
        <time>2011-10-09T13:18:50Z</time>
      </trkpt>
      <trkpt lat="43.96695" lon="6.91545">
        <ele>950.200012</ele>
        <time>2011-10-09T13:21:33Z</time>
      </trkpt>
      <trkpt lat="43.96707" lon="6.91547">
        <ele>948.599976</ele>
        <time>2011-10-09T13:21:46Z</time>
      </trkpt>
      <trkpt lat="43.96711" lon="6.91554">
        <ele>948.400024</ele>
        <time>2011-10-09T13:22:10Z</time>
      </trkpt>
      <trkpt lat="43.96705" lon="6.91557">
        <ele>949.599976</ele>
        <time>2011-10-09T13:23:33Z</time>
      </trkpt>
      <trkpt lat="43.96702" lon="6.91562">
        <ele>950.400024</ele>
        <time>2011-10-09T13:24:09Z</time>
      </trkpt>
      <trkpt lat="43.96697" lon="6.91561">
        <ele>951.200012</ele>
        <time>2011-10-09T13:24:34Z</time>
      </trkpt>
      <trkpt lat="43.96694" lon="6.91535">
        <ele>949.599976</ele>
        <time>2011-10-09T13:27:19Z</time>
      </trkpt>
      <trkpt lat="43.96693" lon="6.91522">
        <ele>948.599976</ele>
        <time>2011-10-09T13:27:26Z</time>
      </trkpt>
      <trkpt lat="43.96689" lon="6.91515">
        <ele>948.599976</ele>
        <time>2011-10-09T13:27:30Z</time>
      </trkpt>
      <trkpt lat="43.96678" lon="6.91514">
        <ele>949.799988</ele>
        <time>2011-10-09T13:27:37Z</time>
      </trkpt>
      <trkpt lat="43.96678" lon="6.91504">
        <ele>949</ele>
        <time>2011-10-09T13:27:40Z</time>
      </trkpt>
      <trkpt lat="43.96677" lon="6.91495">
        <ele>948</ele>
        <time>2011-10-09T13:27:42Z</time>
      </trkpt>
      <trkpt lat="43.9668" lon="6.91455">
        <ele>942.200012</ele>
        <time>2011-10-09T13:27:49Z</time>
      </trkpt>
      <trkpt lat="43.9668" lon="6.91447">
        <ele>941</ele>
        <time>2011-10-09T13:27:50Z</time>
      </trkpt>
      <trkpt lat="43.9668" lon="6.91439">
        <ele>940</ele>
        <time>2011-10-09T13:27:51Z</time>
      </trkpt>
      <trkpt lat="43.96679" lon="6.91422">
        <ele>937.799988</ele>
        <time>2011-10-09T13:27:53Z</time>
      </trkpt>
      <trkpt lat="43.9668" lon="6.91416">
        <ele>936.799988</ele>
        <time>2011-10-09T13:27:54Z</time>
      </trkpt>
      <trkpt lat="43.96682" lon="6.914">
        <ele>932.400024</ele>
        <time>2011-10-09T13:27:56Z</time>
      </trkpt>
      <trkpt lat="43.96685" lon="6.91392">
        <ele>930.200012</ele>
        <time>2011-10-09T13:27:58Z</time>
      </trkpt>
      <trkpt lat="43.96688" lon="6.91383">
        <ele>927.400024</ele>
        <time>2011-10-09T13:28:00Z</time>
      </trkpt>
      <trkpt lat="43.96689" lon="6.91368">
        <ele>923.400024</ele>
        <time>2011-10-09T13:28:02Z</time>
      </trkpt>
      <trkpt lat="43.96689" lon="6.9136">
        <ele>921.599976</ele>
        <time>2011-10-09T13:28:03Z</time>
      </trkpt>
      <trkpt lat="43.96684" lon="6.91325">
        <ele>914.400024</ele>
        <time>2011-10-09T13:28:06Z</time>
      </trkpt>
      <trkpt lat="43.96683" lon="6.91313">
        <ele>913</ele>
        <time>2011-10-09T13:28:07Z</time>
      </trkpt>
      <trkpt lat="43.9668" lon="6.91285">
        <ele>909.799988</ele>
        <time>2011-10-09T13:28:10Z</time>
      </trkpt>
      <trkpt lat="43.96678" lon="6.91275">
        <ele>908.599976</ele>
        <time>2011-10-09T13:28:12Z</time>
      </trkpt>
      <trkpt lat="43.96675" lon="6.91252">
        <ele>905.799988</ele>
        <time>2011-10-09T13:28:14Z</time>
      </trkpt>
      <trkpt lat="43.96672" lon="6.91232">
        <ele>905.799988</ele>
        <time>2011-10-09T13:28:16Z</time>
      </trkpt>
      <trkpt lat="43.96667" lon="6.91202">
        <ele>906</ele>
        <time>2011-10-09T13:28:18Z</time>
      </trkpt>
      <trkpt lat="43.96664" lon="6.9119">
        <ele>904.200012</ele>
        <time>2011-10-09T13:28:19Z</time>
      </trkpt>
      <trkpt lat="43.96661" lon="6.91179">
        <ele>901.799988</ele>
        <time>2011-10-09T13:28:20Z</time>
      </trkpt>
      <trkpt lat="43.96654" lon="6.91161">
        <ele>896.799988</ele>
        <time>2011-10-09T13:28:22Z</time>
      </trkpt>
      <trkpt lat="43.96657" lon="6.91144">
        <ele>898</ele>
        <time>2011-10-09T13:28:26Z</time>
      </trkpt>
      <trkpt lat="43.96655" lon="6.91124">
        <ele>895.400024</ele>
        <time>2011-10-09T13:28:29Z</time>
      </trkpt>
      <trkpt lat="43.96654" lon="6.91118">
        <ele>894.599976</ele>
        <time>2011-10-09T13:28:30Z</time>
      </trkpt>
      <trkpt lat="43.96655" lon="6.91104">
        <ele>894.400024</ele>
        <time>2011-10-09T13:28:32Z</time>
      </trkpt>
      <trkpt lat="43.96653" lon="6.91086">
        <ele>892.400024</ele>
        <time>2011-10-09T13:28:35Z</time>
      </trkpt>
      <trkpt lat="43.96646" lon="6.91079">
        <ele>886.200012</ele>
        <time>2011-10-09T13:28:38Z</time>
      </trkpt>
      <trkpt lat="43.96646" lon="6.91086">
        <ele>887.200012</ele>
        <time>2011-10-09T13:28:40Z</time>
      </trkpt>
      <trkpt lat="43.96645" lon="6.91094">
        <ele>887</ele>
        <time>2011-10-09T13:28:42Z</time>
      </trkpt>
      <trkpt lat="43.96648" lon="6.91067">
        <ele>884.799988</ele>
        <time>2011-10-09T13:28:54Z</time>
      </trkpt>
      <trkpt lat="43.96648" lon="6.91054">
        <ele>881.799988</ele>
        <time>2011-10-09T13:28:56Z</time>
      </trkpt>
      <trkpt lat="43.96649" lon="6.91047">
        <ele>880.599976</ele>
        <time>2011-10-09T13:28:57Z</time>
      </trkpt>
      <trkpt lat="43.96649" lon="6.91037">
        <ele>878.599976</ele>
        <time>2011-10-09T13:28:59Z</time>
      </trkpt>
      <trkpt lat="43.96652" lon="6.9103">
        <ele>878.799988</ele>
        <time>2011-10-09T13:29:02Z</time>
      </trkpt>
      <trkpt lat="43.96654" lon="6.91024">
        <ele>879.200012</ele>
        <time>2011-10-09T13:29:05Z</time>
      </trkpt>
      <trkpt lat="43.96655" lon="6.91015">
        <ele>877.599976</ele>
        <time>2011-10-09T13:29:08Z</time>
      </trkpt>
      <trkpt lat="43.96655" lon="6.91006">
        <ele>875.799988</ele>
        <time>2011-10-09T13:29:10Z</time>
      </trkpt>
      <trkpt lat="43.96652" lon="6.9099">
        <ele>871</ele>
        <time>2011-10-09T13:29:12Z</time>
      </trkpt>
      <trkpt lat="43.96651" lon="6.90979">
        <ele>869.200012</ele>
        <time>2011-10-09T13:29:15Z</time>
      </trkpt>
      <trkpt lat="43.96652" lon="6.90971">
        <ele>869</ele>
        <time>2011-10-09T13:29:17Z</time>
      </trkpt>
      <trkpt lat="43.9665" lon="6.90958">
        <ele>866</ele>
        <time>2011-10-09T13:29:19Z</time>
      </trkpt>
      <trkpt lat="43.96649" lon="6.90951">
        <ele>865</ele>
        <time>2011-10-09T13:29:21Z</time>
      </trkpt>
      <trkpt lat="43.96648" lon="6.90943">
        <ele>863.400024</ele>
        <time>2011-10-09T13:29:23Z</time>
      </trkpt>
      <trkpt lat="43.96647" lon="6.90934">
        <ele>862.200012</ele>
        <time>2011-10-09T13:29:25Z</time>
      </trkpt>
      <trkpt lat="43.96643" lon="6.90915">
        <ele>857.200012</ele>
        <time>2011-10-09T13:29:27Z</time>
      </trkpt>
      <trkpt lat="43.96637" lon="6.90899">
        <ele>850.200012</ele>
        <time>2011-10-09T13:29:29Z</time>
      </trkpt>
      <trkpt lat="43.96635" lon="6.90892">
        <ele>847.400024</ele>
        <time>2011-10-09T13:29:30Z</time>
      </trkpt>
      <trkpt lat="43.96632" lon="6.90884">
        <ele>844.400024</ele>
        <time>2011-10-09T13:29:32Z</time>
      </trkpt>
      <trkpt lat="43.96629" lon="6.9087">
        <ele>840.599976</ele>
        <time>2011-10-09T13:29:34Z</time>
      </trkpt>
      <trkpt lat="43.96626" lon="6.90855">
        <ele>836.599976</ele>
        <time>2011-10-09T13:29:36Z</time>
      </trkpt>
      <trkpt lat="43.96623" lon="6.90848">
        <ele>834.400024</ele>
        <time>2011-10-09T13:29:37Z</time>
      </trkpt>
      <trkpt lat="43.9662" lon="6.90831">
        <ele>830.400024</ele>
        <time>2011-10-09T13:29:39Z</time>
      </trkpt>
      <trkpt lat="43.9662" lon="6.90822">
        <ele>828.599976</ele>
        <time>2011-10-09T13:29:41Z</time>
      </trkpt>
      <trkpt lat="43.9662" lon="6.90808">
        <ele>825.599976</ele>
        <time>2011-10-09T13:29:45Z</time>
      </trkpt>
      <trkpt lat="43.9662" lon="6.90789">
        <ele>822</ele>
        <time>2011-10-09T13:29:47Z</time>
      </trkpt>
      <trkpt lat="43.96622" lon="6.90768">
        <ele>818.200012</ele>
        <time>2011-10-09T13:29:49Z</time>
      </trkpt>
      <trkpt lat="43.96625" lon="6.90754">
        <ele>815.799988</ele>
        <time>2011-10-09T13:29:51Z</time>
      </trkpt>
      <trkpt lat="43.96627" lon="6.90744">
        <ele>815</ele>
        <time>2011-10-09T13:29:53Z</time>
      </trkpt>
      <trkpt lat="43.96625" lon="6.90737">
        <ele>814.599976</ele>
        <time>2011-10-09T13:29:54Z</time>
      </trkpt>
      <trkpt lat="43.96623" lon="6.90726">
        <ele>814.200012</ele>
        <time>2011-10-09T13:29:55Z</time>
      </trkpt>
      <trkpt lat="43.96617" lon="6.90704">
        <ele>814</ele>
        <time>2011-10-09T13:29:57Z</time>
      </trkpt>
      <trkpt lat="43.96611" lon="6.90694">
        <ele>814.200012</ele>
        <time>2011-10-09T13:29:58Z</time>
      </trkpt>
      <trkpt lat="43.96603" lon="6.90681">
        <ele>815.400024</ele>
        <time>2011-10-09T13:30:01Z</time>
      </trkpt>
      <trkpt lat="43.96597" lon="6.90673">
        <ele>816.400024</ele>
        <time>2011-10-09T13:30:15Z</time>
      </trkpt>
      <trkpt lat="43.96591" lon="6.90668">
        <ele>817.599976</ele>
        <time>2011-10-09T13:30:20Z</time>
      </trkpt>
      <trkpt lat="43.96581" lon="6.90663">
        <ele>819.400024</ele>
        <time>2011-10-09T13:30:25Z</time>
      </trkpt>
      <trkpt lat="43.96576" lon="6.90657">
        <ele>818.599976</ele>
        <time>2011-10-09T13:30:31Z</time>
      </trkpt>
      <trkpt lat="43.96565" lon="6.90651">
        <ele>816.200012</ele>
        <time>2011-10-09T13:30:35Z</time>
      </trkpt>
      <trkpt lat="43.96559" lon="6.90649">
        <ele>814.200012</ele>
        <time>2011-10-09T13:30:37Z</time>
      </trkpt>
      <trkpt lat="43.96544" lon="6.90642">
        <ele>810</ele>
        <time>2011-10-09T13:30:42Z</time>
      </trkpt>
      <trkpt lat="43.96536" lon="6.9063">
        <ele>809.200012</ele>
        <time>2011-10-09T13:30:45Z</time>
      </trkpt>
      <trkpt lat="43.96529" lon="6.90614">
        <ele>810</ele>
        <time>2011-10-09T13:30:48Z</time>
      </trkpt>
      <trkpt lat="43.96525" lon="6.90603">
        <ele>810.599976</ele>
        <time>2011-10-09T13:30:50Z</time>
      </trkpt>
      <trkpt lat="43.96522" lon="6.90591">
        <ele>812</ele>
        <time>2011-10-09T13:30:52Z</time>
      </trkpt>
      <trkpt lat="43.9652" lon="6.90579">
        <ele>813</ele>
        <time>2011-10-09T13:30:54Z</time>
      </trkpt>
      <trkpt lat="43.96518" lon="6.90567">
        <ele>813.200012</ele>
        <time>2011-10-09T13:30:56Z</time>
      </trkpt>
      <trkpt lat="43.96516" lon="6.90555">
        <ele>813</ele>
        <time>2011-10-09T13:30:58Z</time>
      </trkpt>
      <trkpt lat="43.96514" lon="6.90545">
        <ele>812.799988</ele>
        <time>2011-10-09T13:31:00Z</time>
      </trkpt>
      <trkpt lat="43.96509" lon="6.90534">
        <ele>811.400024</ele>
        <time>2011-10-09T13:31:02Z</time>
      </trkpt>
      <trkpt lat="43.96505" lon="6.90524">
        <ele>810</ele>
        <time>2011-10-09T13:31:04Z</time>
      </trkpt>
      <trkpt lat="43.965" lon="6.90513">
        <ele>808</ele>
        <time>2011-10-09T13:31:06Z</time>
      </trkpt>
      <trkpt lat="43.96491" lon="6.90492">
        <ele>803.200012</ele>
        <time>2011-10-09T13:31:10Z</time>
      </trkpt>
      <trkpt lat="43.96488" lon="6.90485">
        <ele>801.400024</ele>
        <time>2011-10-09T13:31:11Z</time>
      </trkpt>
      <trkpt lat="43.96484" lon="6.9047">
        <ele>798.400024</ele>
        <time>2011-10-09T13:31:13Z</time>
      </trkpt>
      <trkpt lat="43.96477" lon="6.90453">
        <ele>794</ele>
        <time>2011-10-09T13:31:16Z</time>
      </trkpt>
      <trkpt lat="43.96474" lon="6.90444">
        <ele>791.799988</ele>
        <time>2011-10-09T13:31:18Z</time>
      </trkpt>
      <trkpt lat="43.96472" lon="6.90434">
        <ele>790.599976</ele>
        <time>2011-10-09T13:31:20Z</time>
      </trkpt>
      <trkpt lat="43.96471" lon="6.9042">
        <ele>789.599976</ele>
        <time>2011-10-09T13:31:22Z</time>
      </trkpt>
      <trkpt lat="43.9647" lon="6.90413">
        <ele>788</ele>
        <time>2011-10-09T13:31:23Z</time>
      </trkpt>
      <trkpt lat="43.96469" lon="6.90398">
        <ele>785.400024</ele>
        <time>2011-10-09T13:31:25Z</time>
      </trkpt>
      <trkpt lat="43.96469" lon="6.90391">
        <ele>784.799988</ele>
        <time>2011-10-09T13:31:26Z</time>
      </trkpt>
      <trkpt lat="43.9647" lon="6.90372">
        <ele>782.599976</ele>
        <time>2011-10-09T13:31:29Z</time>
      </trkpt>
      <trkpt lat="43.96471" lon="6.90353">
        <ele>780.400024</ele>
        <time>2011-10-09T13:31:32Z</time>
      </trkpt>
      <trkpt lat="43.96471" lon="6.90345">
        <ele>779</ele>
        <time>2011-10-09T13:31:33Z</time>
      </trkpt>
      <trkpt lat="43.9647" lon="6.90338">
        <ele>777.799988</ele>
        <time>2011-10-09T13:31:34Z</time>
      </trkpt>
      <trkpt lat="43.96468" lon="6.90314">
        <ele>773.400024</ele>
        <time>2011-10-09T13:31:37Z</time>
      </trkpt>
      <trkpt lat="43.96469" lon="6.90297">
        <ele>772</ele>
        <time>2011-10-09T13:31:39Z</time>
      </trkpt>
      <trkpt lat="43.9647" lon="6.90289">
        <ele>772</ele>
        <time>2011-10-09T13:31:40Z</time>
      </trkpt>
      <trkpt lat="43.96474" lon="6.90275">
        <ele>772.799988</ele>
        <time>2011-10-09T13:31:42Z</time>
      </trkpt>
      <trkpt lat="43.96477" lon="6.90264">
        <ele>774</ele>
        <time>2011-10-09T13:31:44Z</time>
      </trkpt>
      <trkpt lat="43.96479" lon="6.90258">
        <ele>774.400024</ele>
        <time>2011-10-09T13:31:45Z</time>
      </trkpt>
      <trkpt lat="43.96482" lon="6.90243">
        <ele>777</ele>
        <time>2011-10-09T13:31:48Z</time>
      </trkpt>
      <trkpt lat="43.96472" lon="6.90221">
        <ele>773.799988</ele>
        <time>2011-10-09T13:31:52Z</time>
      </trkpt>
      <trkpt lat="43.96467" lon="6.90215">
        <ele>772</ele>
        <time>2011-10-09T13:31:53Z</time>
      </trkpt>
      <trkpt lat="43.96452" lon="6.902">
        <ele>765.400024</ele>
        <time>2011-10-09T13:31:56Z</time>
      </trkpt>
      <trkpt lat="43.96443" lon="6.9019">
        <ele>762</ele>
        <time>2011-10-09T13:31:58Z</time>
      </trkpt>
      <trkpt lat="43.96434" lon="6.90181">
        <ele>759.400024</ele>
        <time>2011-10-09T13:32:00Z</time>
      </trkpt>
      <trkpt lat="43.96422" lon="6.90171">
        <ele>754.799988</ele>
        <time>2011-10-09T13:32:03Z</time>
      </trkpt>
      <trkpt lat="43.96415" lon="6.90165">
        <ele>752.599976</ele>
        <time>2011-10-09T13:32:05Z</time>
      </trkpt>
      <trkpt lat="43.96412" lon="6.90161">
        <ele>751.599976</ele>
        <time>2011-10-09T13:32:06Z</time>
      </trkpt>
      <trkpt lat="43.96408" lon="6.90156">
        <ele>751</ele>
        <time>2011-10-09T13:32:07Z</time>
      </trkpt>
      <trkpt lat="43.96405" lon="6.9015">
        <ele>750.599976</ele>
        <time>2011-10-09T13:32:08Z</time>
      </trkpt>
      <trkpt lat="43.96397" lon="6.90139">
        <ele>749.200012</ele>
        <time>2011-10-09T13:32:10Z</time>
      </trkpt>
      <trkpt lat="43.96392" lon="6.90135">
        <ele>747</ele>
        <time>2011-10-09T13:32:11Z</time>
      </trkpt>
      <trkpt lat="43.9638" lon="6.90127">
        <ele>742</ele>
        <time>2011-10-09T13:32:14Z</time>
      </trkpt>
      <trkpt lat="43.96373" lon="6.90124">
        <ele>738.200012</ele>
        <time>2011-10-09T13:32:16Z</time>
      </trkpt>
      <trkpt lat="43.96363" lon="6.90121">
        <ele>732.799988</ele>
        <time>2011-10-09T13:32:18Z</time>
      </trkpt>
      <trkpt lat="43.96352" lon="6.90117">
        <ele>727</ele>
        <time>2011-10-09T13:32:20Z</time>
      </trkpt>
      <trkpt lat="43.96344" lon="6.90112">
        <ele>722.799988</ele>
        <time>2011-10-09T13:32:22Z</time>
      </trkpt>
      <trkpt lat="43.96339" lon="6.90107">
        <ele>721.400024</ele>
        <time>2011-10-09T13:32:24Z</time>
      </trkpt>
      <trkpt lat="43.96336" lon="6.90098">
        <ele>722</ele>
        <time>2011-10-09T13:33:57Z</time>
      </trkpt>
      <trkpt lat="43.96332" lon="6.90089">
        <ele>721.599976</ele>
        <time>2011-10-09T13:34:11Z</time>
      </trkpt>
      <trkpt lat="43.96328" lon="6.90083">
        <ele>720.200012</ele>
        <time>2011-10-09T13:34:16Z</time>
      </trkpt>
      <trkpt lat="43.96324" lon="6.90079">
        <ele>718</ele>
        <time>2011-10-09T13:34:34Z</time>
      </trkpt>
      <trkpt lat="43.96321" lon="6.90069">
        <ele>716.400024</ele>
        <time>2011-10-09T13:34:40Z</time>
      </trkpt>
      <trkpt lat="43.96319" lon="6.90059">
        <ele>715.200012</ele>
        <time>2011-10-09T13:34:44Z</time>
      </trkpt>
      <trkpt lat="43.96318" lon="6.90052">
        <ele>715.400024</ele>
        <time>2011-10-09T13:34:55Z</time>
      </trkpt>
      <trkpt lat="43.96316" lon="6.90045">
        <ele>714.599976</ele>
        <time>2011-10-09T13:34:59Z</time>
      </trkpt>
      <trkpt lat="43.96313" lon="6.90051">
        <ele>712</ele>
        <time>2011-10-09T13:35:11Z</time>
      </trkpt>
      <trkpt lat="43.96311" lon="6.9006">
        <ele>710.200012</ele>
        <time>2011-10-09T13:35:15Z</time>
      </trkpt>
      <trkpt lat="43.96305" lon="6.90064">
        <ele>706.799988</ele>
        <time>2011-10-09T13:35:48Z</time>
      </trkpt>
      <trkpt lat="43.96304" lon="6.90075">
        <ele>705.599976</ele>
        <time>2011-10-09T13:35:51Z</time>
      </trkpt>
      <trkpt lat="43.963" lon="6.90057">
        <ele>703.799988</ele>
        <time>2011-10-09T13:36:03Z</time>
      </trkpt>
      <trkpt lat="43.96296" lon="6.90065">
        <ele>701.200012</ele>
        <time>2011-10-09T13:36:12Z</time>
      </trkpt>
      <trkpt lat="43.96293" lon="6.90075">
        <ele>698.400024</ele>
        <time>2011-10-09T13:36:16Z</time>
      </trkpt>
      <trkpt lat="43.96288" lon="6.90073">
        <ele>695.599976</ele>
        <time>2011-10-09T13:36:22Z</time>
      </trkpt>
      <trkpt lat="43.96284" lon="6.90071">
        <ele>692.599976</ele>
        <time>2011-10-09T13:36:25Z</time>
      </trkpt>
      <trkpt lat="43.96281" lon="6.90064">
        <ele>691.599976</ele>
        <time>2011-10-09T13:36:31Z</time>
      </trkpt>
      <trkpt lat="43.9628" lon="6.90057">
        <ele>691.400024</ele>
        <time>2011-10-09T13:36:35Z</time>
      </trkpt>
      <trkpt lat="43.9628" lon="6.9005">
        <ele>692.200012</ele>
        <time>2011-10-09T13:36:37Z</time>
      </trkpt>
      <trkpt lat="43.96281" lon="6.90038">
        <ele>693.599976</ele>
        <time>2011-10-09T13:36:40Z</time>
      </trkpt>
      <trkpt lat="43.96283" lon="6.90027">
        <ele>695.400024</ele>
        <time>2011-10-09T13:36:42Z</time>
      </trkpt>
      <trkpt lat="43.96281" lon="6.9">
        <ele>696.400024</ele>
        <time>2011-10-09T13:36:46Z</time>
      </trkpt>
      <trkpt lat="43.96278" lon="6.89986">
        <ele>696.200012</ele>
        <time>2011-10-09T13:36:48Z</time>
      </trkpt>
      <trkpt lat="43.96275" lon="6.89977">
        <ele>695.400024</ele>
        <time>2011-10-09T13:36:50Z</time>
      </trkpt>
      <trkpt lat="43.96269" lon="6.89971">
        <ele>693.400024</ele>
        <time>2011-10-09T13:36:53Z</time>
      </trkpt>
      <trkpt lat="43.96264" lon="6.89969">
        <ele>690.799988</ele>
        <time>2011-10-09T13:36:56Z</time>
      </trkpt>
      <trkpt lat="43.96257" lon="6.89966">
        <ele>688.200012</ele>
        <time>2011-10-09T13:36:59Z</time>
      </trkpt>
      <trkpt lat="43.96252" lon="6.89962">
        <ele>686.200012</ele>
        <time>2011-10-09T13:37:01Z</time>
      </trkpt>
      <trkpt lat="43.96242" lon="6.89955">
        <ele>682</ele>
        <time>2011-10-09T13:37:04Z</time>
      </trkpt>
      <trkpt lat="43.96236" lon="6.8995">
        <ele>679.200012</ele>
        <time>2011-10-09T13:37:06Z</time>
      </trkpt>
      <trkpt lat="43.96227" lon="6.89945">
        <ele>675.400024</ele>
        <time>2011-10-09T13:37:09Z</time>
      </trkpt>
      <trkpt lat="43.9622" lon="6.89941">
        <ele>672.400024</ele>
        <time>2011-10-09T13:37:12Z</time>
      </trkpt>
      <trkpt lat="43.96212" lon="6.89935">
        <ele>669.400024</ele>
        <time>2011-10-09T13:37:16Z</time>
      </trkpt>
      <trkpt lat="43.96209" lon="6.89928">
        <ele>669</ele>
        <time>2011-10-09T13:37:19Z</time>
      </trkpt>
      <trkpt lat="43.96208" lon="6.89921">
        <ele>669.799988</ele>
        <time>2011-10-09T13:37:21Z</time>
      </trkpt>
      <trkpt lat="43.96207" lon="6.89913">
        <ele>670.200012</ele>
        <time>2011-10-09T13:37:25Z</time>
      </trkpt>
      <trkpt lat="43.96206" lon="6.89904">
        <ele>668.799988</ele>
        <time>2011-10-09T13:37:31Z</time>
      </trkpt>
      <trkpt lat="43.96203" lon="6.89898">
        <ele>667</ele>
        <time>2011-10-09T13:37:36Z</time>
      </trkpt>
      <trkpt lat="43.96199" lon="6.89904">
        <ele>665.400024</ele>
        <time>2011-10-09T13:38:02Z</time>
      </trkpt>
      <trkpt lat="43.96193" lon="6.89899">
        <ele>662.599976</ele>
        <time>2011-10-09T13:38:16Z</time>
      </trkpt>
      <trkpt lat="43.96188" lon="6.89893">
        <ele>660.200012</ele>
        <time>2011-10-09T13:38:22Z</time>
      </trkpt>
      <trkpt lat="43.96184" lon="6.89882">
        <ele>658</ele>
        <time>2011-10-09T13:38:26Z</time>
      </trkpt>
      <trkpt lat="43.96181" lon="6.89877">
        <ele>657</ele>
        <time>2011-10-09T13:38:28Z</time>
      </trkpt>
      <trkpt lat="43.96177" lon="6.89868">
        <ele>655.200012</ele>
        <time>2011-10-09T13:38:31Z</time>
      </trkpt>
      <trkpt lat="43.96172" lon="6.89861">
        <ele>653.799988</ele>
        <time>2011-10-09T13:38:33Z</time>
      </trkpt>
      <trkpt lat="43.96168" lon="6.89856">
        <ele>652.400024</ele>
        <time>2011-10-09T13:38:35Z</time>
      </trkpt>
      <trkpt lat="43.96164" lon="6.8985">
        <ele>651</ele>
        <time>2011-10-09T13:38:37Z</time>
      </trkpt>
      <trkpt lat="43.96159" lon="6.89845">
        <ele>649.799988</ele>
        <time>2011-10-09T13:38:39Z</time>
      </trkpt>
      <trkpt lat="43.96155" lon="6.8984">
        <ele>648.599976</ele>
        <time>2011-10-09T13:38:41Z</time>
      </trkpt>
      <trkpt lat="43.96152" lon="6.89832">
        <ele>647.400024</ele>
        <time>2011-10-09T13:38:43Z</time>
      </trkpt>
      <trkpt lat="43.96147" lon="6.89827">
        <ele>644.599976</ele>
        <time>2011-10-09T13:38:45Z</time>
      </trkpt>
      <trkpt lat="43.96146" lon="6.89833">
        <ele>645.599976</ele>
        <time>2011-10-09T13:38:50Z</time>
      </trkpt>
      <trkpt lat="43.96146" lon="6.89845">
        <ele>645.200012</ele>
        <time>2011-10-09T13:38:54Z</time>
      </trkpt>
      <trkpt lat="43.96144" lon="6.89855">
        <ele>644.200012</ele>
        <time>2011-10-09T13:38:58Z</time>
      </trkpt>
      <trkpt lat="43.96145" lon="6.89865">
        <ele>644</ele>
        <time>2011-10-09T13:39:02Z</time>
      </trkpt>
      <trkpt lat="43.96149" lon="6.89875">
        <ele>644.599976</ele>
        <time>2011-10-09T13:39:05Z</time>
      </trkpt>
      <trkpt lat="43.96151" lon="6.89881">
        <ele>645.200012</ele>
        <time>2011-10-09T13:39:07Z</time>
      </trkpt>
      <trkpt lat="43.9615" lon="6.89892">
        <ele>644.400024</ele>
        <time>2011-10-09T13:39:11Z</time>
      </trkpt>
      <trkpt lat="43.96148" lon="6.89899">
        <ele>643.200012</ele>
        <time>2011-10-09T13:39:14Z</time>
      </trkpt>
      <trkpt lat="43.96145" lon="6.89905">
        <ele>642</ele>
        <time>2011-10-09T13:39:16Z</time>
      </trkpt>
      <trkpt lat="43.96141" lon="6.8991">
        <ele>640.200012</ele>
        <time>2011-10-09T13:39:19Z</time>
      </trkpt>
      <trkpt lat="43.96136" lon="6.89916">
        <ele>638.400024</ele>
        <time>2011-10-09T13:39:21Z</time>
      </trkpt>
      <trkpt lat="43.96126" lon="6.89924">
        <ele>633</ele>
        <time>2011-10-09T13:39:25Z</time>
      </trkpt>
      <trkpt lat="43.96121" lon="6.89923">
        <ele>631</ele>
        <time>2011-10-09T13:39:27Z</time>
      </trkpt>
      <trkpt lat="43.96115" lon="6.89923">
        <ele>629</ele>
        <time>2011-10-09T13:39:29Z</time>
      </trkpt>
      <trkpt lat="43.96109" lon="6.89923">
        <ele>626.799988</ele>
        <time>2011-10-09T13:39:33Z</time>
      </trkpt>
      <trkpt lat="43.9611" lon="6.8993">
        <ele>625.400024</ele>
        <time>2011-10-09T13:39:48Z</time>
      </trkpt>
      <trkpt lat="43.96103" lon="6.89923">
        <ele>625</ele>
        <time>2011-10-09T13:39:58Z</time>
      </trkpt>
      <trkpt lat="43.96099" lon="6.89916">
        <ele>625.599976</ele>
        <time>2011-10-09T13:40:00Z</time>
      </trkpt>
      <trkpt lat="43.96096" lon="6.89908">
        <ele>624.799988</ele>
        <time>2011-10-09T13:40:02Z</time>
      </trkpt>
      <trkpt lat="43.96093" lon="6.89899">
        <ele>624.200012</ele>
        <time>2011-10-09T13:40:04Z</time>
      </trkpt>
      <trkpt lat="43.96086" lon="6.8989">
        <ele>622.200012</ele>
        <time>2011-10-09T13:40:08Z</time>
      </trkpt>
      <trkpt lat="43.96081" lon="6.89887">
        <ele>620.400024</ele>
        <time>2011-10-09T13:40:11Z</time>
      </trkpt>
      <trkpt lat="43.96076" lon="6.89884">
        <ele>618.799988</ele>
        <time>2011-10-09T13:40:13Z</time>
      </trkpt>
      <trkpt lat="43.96069" lon="6.89878">
        <ele>616.599976</ele>
        <time>2011-10-09T13:40:16Z</time>
      </trkpt>
      <trkpt lat="43.96063" lon="6.8987">
        <ele>614.599976</ele>
        <time>2011-10-09T13:40:18Z</time>
      </trkpt>
      <trkpt lat="43.96058" lon="6.89863">
        <ele>612.400024</ele>
        <time>2011-10-09T13:40:20Z</time>
      </trkpt>
      <trkpt lat="43.96052" lon="6.89857">
        <ele>610.200012</ele>
        <time>2011-10-09T13:40:22Z</time>
      </trkpt>
      <trkpt lat="43.96046" lon="6.89852">
        <ele>607.799988</ele>
        <time>2011-10-09T13:40:24Z</time>
      </trkpt>
      <trkpt lat="43.9604" lon="6.89849">
        <ele>605.400024</ele>
        <time>2011-10-09T13:40:26Z</time>
      </trkpt>
      <trkpt lat="43.96031" lon="6.89847">
        <ele>601.799988</ele>
        <time>2011-10-09T13:40:29Z</time>
      </trkpt>
      <trkpt lat="43.96024" lon="6.89852">
        <ele>599</ele>
        <time>2011-10-09T13:40:33Z</time>
      </trkpt>
      <trkpt lat="43.96021" lon="6.89858">
        <ele>598</ele>
        <time>2011-10-09T13:40:36Z</time>
      </trkpt>
      <trkpt lat="43.96019" lon="6.89865">
        <ele>597.400024</ele>
        <time>2011-10-09T13:40:39Z</time>
      </trkpt>
      <trkpt lat="43.96018" lon="6.89873">
        <ele>597.400024</ele>
        <time>2011-10-09T13:40:41Z</time>
      </trkpt>
      <trkpt lat="43.96014" lon="6.89886">
        <ele>596.799988</ele>
        <time>2011-10-09T13:40:44Z</time>
      </trkpt>
      <trkpt lat="43.96012" lon="6.89893">
        <ele>596.400024</ele>
        <time>2011-10-09T13:40:46Z</time>
      </trkpt>
      <trkpt lat="43.96009" lon="6.89903">
        <ele>596</ele>
        <time>2011-10-09T13:40:50Z</time>
      </trkpt>
      <trkpt lat="43.96005" lon="6.89911">
        <ele>595</ele>
        <time>2011-10-09T13:40:54Z</time>
      </trkpt>
      <trkpt lat="43.95998" lon="6.89919">
        <ele>593.400024</ele>
        <time>2011-10-09T13:41:34Z</time>
      </trkpt>
      <trkpt lat="43.95994" lon="6.89923">
        <ele>591.799988</ele>
        <time>2011-10-09T13:41:38Z</time>
      </trkpt>
      <trkpt lat="43.95994" lon="6.89929">
        <ele>590.799988</ele>
        <time>2011-10-09T13:41:43Z</time>
      </trkpt>
      <trkpt lat="43.96002" lon="6.89935">
        <ele>591.400024</ele>
        <time>2011-10-09T13:41:48Z</time>
      </trkpt>
      <trkpt lat="43.96007" lon="6.89939">
        <ele>592.200012</ele>
        <time>2011-10-09T13:41:51Z</time>
      </trkpt>
      <trkpt lat="43.96011" lon="6.89943">
        <ele>592.799988</ele>
        <time>2011-10-09T13:41:53Z</time>
      </trkpt>
      <trkpt lat="43.96016" lon="6.89949">
        <ele>593</ele>
        <time>2011-10-09T13:41:55Z</time>
      </trkpt>
      <trkpt lat="43.9602" lon="6.89954">
        <ele>592.799988</ele>
        <time>2011-10-09T13:41:57Z</time>
      </trkpt>
      <trkpt lat="43.96023" lon="6.8996">
        <ele>592.400024</ele>
        <time>2011-10-09T13:41:59Z</time>
      </trkpt>
      <trkpt lat="43.96025" lon="6.89971">
        <ele>590.799988</ele>
        <time>2011-10-09T13:42:03Z</time>
      </trkpt>
      <trkpt lat="43.96026" lon="6.89978">
        <ele>589.400024</ele>
        <time>2011-10-09T13:42:05Z</time>
      </trkpt>
      <trkpt lat="43.96023" lon="6.89992">
        <ele>586.200012</ele>
        <time>2011-10-09T13:42:08Z</time>
      </trkpt>
      <trkpt lat="43.96023" lon="6.90002">
        <ele>583.799988</ele>
        <time>2011-10-09T13:42:10Z</time>
      </trkpt>
      <trkpt lat="43.96019" lon="6.9002">
        <ele>579</ele>
        <time>2011-10-09T13:42:14Z</time>
      </trkpt>
      <trkpt lat="43.9602" lon="6.90026">
        <ele>577.599976</ele>
        <time>2011-10-09T13:42:16Z</time>
      </trkpt>
      <trkpt lat="43.96013" lon="6.9004">
        <ele>573.799988</ele>
        <time>2011-10-09T13:42:21Z</time>
      </trkpt>
      <trkpt lat="43.96005" lon="6.90051">
        <ele>571.200012</ele>
        <time>2011-10-09T13:42:24Z</time>
      </trkpt>
      <trkpt lat="43.96" lon="6.90055">
        <ele>570.200012</ele>
        <time>2011-10-09T13:42:26Z</time>
      </trkpt>
      <trkpt lat="43.95996" lon="6.90069">
        <ele>567.599976</ele>
        <time>2011-10-09T13:42:30Z</time>
      </trkpt>
      <trkpt lat="43.95992" lon="6.90077">
        <ele>566</ele>
        <time>2011-10-09T13:42:32Z</time>
      </trkpt>
      <trkpt lat="43.95988" lon="6.90082">
        <ele>564.799988</ele>
        <time>2011-10-09T13:42:34Z</time>
      </trkpt>
      <trkpt lat="43.95981" lon="6.90087">
        <ele>563.200012</ele>
        <time>2011-10-09T13:42:36Z</time>
      </trkpt>
      <trkpt lat="43.95973" lon="6.9009">
        <ele>561.599976</ele>
        <time>2011-10-09T13:42:38Z</time>
      </trkpt>
      <trkpt lat="43.95968" lon="6.90091">
        <ele>561.200012</ele>
        <time>2011-10-09T13:42:39Z</time>
      </trkpt>
      <trkpt lat="43.95961" lon="6.90091">
        <ele>561.200012</ele>
        <time>2011-10-09T13:42:40Z</time>
      </trkpt>
      <trkpt lat="43.95949" lon="6.9009">
        <ele>561.599976</ele>
        <time>2011-10-09T13:42:42Z</time>
      </trkpt>
      <trkpt lat="43.95943" lon="6.90091">
        <ele>561</ele>
        <time>2011-10-09T13:42:44Z</time>
      </trkpt>
      <trkpt lat="43.95936" lon="6.90096">
        <ele>559.599976</ele>
        <time>2011-10-09T13:42:46Z</time>
      </trkpt>
      <trkpt lat="43.95929" lon="6.901">
        <ele>558.400024</ele>
        <time>2011-10-09T13:42:48Z</time>
      </trkpt>
      <trkpt lat="43.95918" lon="6.90104">
        <ele>557.400024</ele>
        <time>2011-10-09T13:42:50Z</time>
      </trkpt>
      <trkpt lat="43.95912" lon="6.90104">
        <ele>557</ele>
        <time>2011-10-09T13:42:51Z</time>
      </trkpt>
      <trkpt lat="43.95904" lon="6.9011">
        <ele>555</ele>
        <time>2011-10-09T13:42:53Z</time>
      </trkpt>
      <trkpt lat="43.95897" lon="6.90118">
        <ele>553</ele>
        <time>2011-10-09T13:42:56Z</time>
      </trkpt>
      <trkpt lat="43.95886" lon="6.90121">
        <ele>551.599976</ele>
        <time>2011-10-09T13:42:59Z</time>
      </trkpt>
      <trkpt lat="43.95881" lon="6.90124">
        <ele>551</ele>
        <time>2011-10-09T13:43:00Z</time>
      </trkpt>
      <trkpt lat="43.95874" lon="6.90127">
        <ele>550.200012</ele>
        <time>2011-10-09T13:43:01Z</time>
      </trkpt>
      <trkpt lat="43.95869" lon="6.90133">
        <ele>549.200012</ele>
        <time>2011-10-09T13:43:02Z</time>
      </trkpt>
      <trkpt lat="43.95863" lon="6.90136">
        <ele>548.599976</ele>
        <time>2011-10-09T13:43:03Z</time>
      </trkpt>
      <trkpt lat="43.95858" lon="6.90139">
        <ele>548.200012</ele>
        <time>2011-10-09T13:43:04Z</time>
      </trkpt>
      <trkpt lat="43.95851" lon="6.90142">
        <ele>547.799988</ele>
        <time>2011-10-09T13:43:06Z</time>
      </trkpt>
      <trkpt lat="43.95844" lon="6.90142">
        <ele>547.799988</ele>
        <time>2011-10-09T13:43:08Z</time>
      </trkpt>
      <trkpt lat="43.95834" lon="6.90147">
        <ele>547.599976</ele>
        <time>2011-10-09T13:43:11Z</time>
      </trkpt>
      <trkpt lat="43.95824" lon="6.90146">
        <ele>545</ele>
        <time>2011-10-09T13:43:14Z</time>
      </trkpt>
      <trkpt lat="43.95816" lon="6.90147">
        <ele>542.599976</ele>
        <time>2011-10-09T13:43:16Z</time>
      </trkpt>
      <trkpt lat="43.95808" lon="6.9015">
        <ele>540.200012</ele>
        <time>2011-10-09T13:43:18Z</time>
      </trkpt>
      <trkpt lat="43.958" lon="6.90153">
        <ele>537.799988</ele>
        <time>2011-10-09T13:43:21Z</time>
      </trkpt>
      <trkpt lat="43.95796" lon="6.90156">
        <ele>536.400024</ele>
        <time>2011-10-09T13:43:23Z</time>
      </trkpt>
      <trkpt lat="43.95791" lon="6.90163">
        <ele>534.400024</ele>
        <time>2011-10-09T13:43:27Z</time>
      </trkpt>
      <trkpt lat="43.95785" lon="6.90162">
        <ele>533</ele>
        <time>2011-10-09T13:43:30Z</time>
      </trkpt>
      <trkpt lat="43.95776" lon="6.90158">
        <ele>530.799988</ele>
        <time>2011-10-09T13:43:34Z</time>
      </trkpt>
      <trkpt lat="43.95772" lon="6.90162">
        <ele>529.400024</ele>
        <time>2011-10-09T13:43:37Z</time>
      </trkpt>
      <trkpt lat="43.95769" lon="6.90171">
        <ele>527.799988</ele>
        <time>2011-10-09T13:43:40Z</time>
      </trkpt>
      <trkpt lat="43.95762" lon="6.90181">
        <ele>525.599976</ele>
        <time>2011-10-09T13:44:03Z</time>
      </trkpt>
      <trkpt lat="43.95758" lon="6.90183">
        <ele>524.400024</ele>
        <time>2011-10-09T13:44:06Z</time>
      </trkpt>
      <trkpt lat="43.95751" lon="6.90187">
        <ele>523</ele>
        <time>2011-10-09T13:44:17Z</time>
      </trkpt>
      <trkpt lat="43.95747" lon="6.9019">
        <ele>521.400024</ele>
        <time>2011-10-09T13:44:22Z</time>
      </trkpt>
      <trkpt lat="43.95743" lon="6.90198">
        <ele>519.599976</ele>
        <time>2011-10-09T13:44:33Z</time>
      </trkpt>
      <trkpt lat="43.95737" lon="6.90203">
        <ele>517</ele>
        <time>2011-10-09T13:44:36Z</time>
      </trkpt>
      <trkpt lat="43.95732" lon="6.90206">
        <ele>514.799988</ele>
        <time>2011-10-09T13:44:56Z</time>
      </trkpt>
      <trkpt lat="43.95728" lon="6.90203">
        <ele>513</ele>
        <time>2011-10-09T13:45:00Z</time>
      </trkpt>
      <trkpt lat="43.95722" lon="6.90206">
        <ele>510.399994</ele>
        <time>2011-10-09T13:45:03Z</time>
      </trkpt>
      <trkpt lat="43.95718" lon="6.90214">
        <ele>509</ele>
        <time>2011-10-09T13:45:05Z</time>
      </trkpt>
      <trkpt lat="43.95716" lon="6.90221">
        <ele>508.600006</ele>
        <time>2011-10-09T13:45:07Z</time>
      </trkpt>
      <trkpt lat="43.95715" lon="6.90228">
        <ele>508.600006</ele>
        <time>2011-10-09T13:45:09Z</time>
      </trkpt>
      <trkpt lat="43.95712" lon="6.9024">
        <ele>508.200012</ele>
        <time>2011-10-09T13:45:13Z</time>
      </trkpt>
      <trkpt lat="43.9571" lon="6.90249">
        <ele>508.200012</ele>
        <time>2011-10-09T13:45:16Z</time>
      </trkpt>
      <trkpt lat="43.95709" lon="6.90256">
        <ele>506.600006</ele>
        <time>2011-10-09T13:45:18Z</time>
      </trkpt>
      <trkpt lat="43.95706" lon="6.90261">
        <ele>504.399994</ele>
        <time>2011-10-09T13:45:28Z</time>
      </trkpt>
      <trkpt lat="43.95701" lon="6.90263">
        <ele>502.600006</ele>
        <time>2011-10-09T13:45:42Z</time>
      </trkpt>
      <trkpt lat="43.95701" lon="6.90278">
        <ele>500.200012</ele>
        <time>2011-10-09T13:45:48Z</time>
      </trkpt>
      <trkpt lat="43.95701" lon="6.9029">
        <ele>498</ele>
        <time>2011-10-09T13:45:51Z</time>
      </trkpt>
      <trkpt lat="43.95699" lon="6.90297">
        <ele>496.399994</ele>
        <time>2011-10-09T13:45:54Z</time>
      </trkpt>
      <trkpt lat="43.95694" lon="6.90281">
        <ele>497.399994</ele>
        <time>2011-10-09T13:46:01Z</time>
      </trkpt>
      <trkpt lat="43.95687" lon="6.90275">
        <ele>496.600006</ele>
        <time>2011-10-09T13:46:05Z</time>
      </trkpt>
      <trkpt lat="43.95683" lon="6.90271">
        <ele>495.799988</ele>
        <time>2011-10-09T13:46:13Z</time>
      </trkpt>
      <trkpt lat="43.9568" lon="6.90265">
        <ele>495.799988</ele>
        <time>2011-10-09T13:46:20Z</time>
      </trkpt>
      <trkpt lat="43.95683" lon="6.90254">
        <ele>498</ele>
        <time>2011-10-09T13:46:28Z</time>
      </trkpt>
      <trkpt lat="43.95679" lon="6.90248">
        <ele>497.200012</ele>
        <time>2011-10-09T13:46:34Z</time>
      </trkpt>
      <trkpt lat="43.95678" lon="6.90255">
        <ele>496.200012</ele>
        <time>2011-10-09T13:46:42Z</time>
      </trkpt>
      <trkpt lat="43.95675" lon="6.90266">
        <ele>494.200012</ele>
        <time>2011-10-09T13:46:46Z</time>
      </trkpt>
      <trkpt lat="43.9567" lon="6.90265">
        <ele>492.600006</ele>
        <time>2011-10-09T13:46:48Z</time>
      </trkpt>
      <trkpt lat="43.95669" lon="6.90258">
        <ele>492.799988</ele>
        <time>2011-10-09T13:46:50Z</time>
      </trkpt>
      <trkpt lat="43.95675" lon="6.90236">
        <ele>494</ele>
        <time>2011-10-09T13:46:54Z</time>
      </trkpt>
      <trkpt lat="43.95679" lon="6.90226">
        <ele>494</ele>
        <time>2011-10-09T13:46:56Z</time>
      </trkpt>
      <trkpt lat="43.95687" lon="6.90203">
        <ele>495.200012</ele>
        <time>2011-10-09T13:47:00Z</time>
      </trkpt>
      <trkpt lat="43.95697" lon="6.90182">
        <ele>497.600006</ele>
        <time>2011-10-09T13:47:04Z</time>
      </trkpt>
      <trkpt lat="43.95707" lon="6.90169">
        <ele>501.200012</ele>
        <time>2011-10-09T13:47:07Z</time>
      </trkpt>
      <trkpt lat="43.95714" lon="6.90163">
        <ele>504.799988</ele>
        <time>2011-10-09T13:47:09Z</time>
      </trkpt>
      <trkpt lat="43.95723" lon="6.90146">
        <ele>510.399994</ele>
        <time>2011-10-09T13:47:12Z</time>
      </trkpt>
      <trkpt lat="43.95726" lon="6.90137">
        <ele>512.599976</ele>
        <time>2011-10-09T13:47:14Z</time>
      </trkpt>
      <trkpt lat="43.95728" lon="6.9013">
        <ele>514</ele>
        <time>2011-10-09T13:47:16Z</time>
      </trkpt>
      <trkpt lat="43.95729" lon="6.90124">
        <ele>515.200012</ele>
        <time>2011-10-09T13:47:18Z</time>
      </trkpt>
      <trkpt lat="43.95727" lon="6.90116">
        <ele>514.200012</ele>
        <time>2011-10-09T13:47:21Z</time>
      </trkpt>
      <trkpt lat="43.95721" lon="6.90109">
        <ele>511.799988</ele>
        <time>2011-10-09T13:47:24Z</time>
      </trkpt>
      <trkpt lat="43.95717" lon="6.90105">
        <ele>509.799988</ele>
        <time>2011-10-09T13:47:26Z</time>
      </trkpt>
      <trkpt lat="43.95712" lon="6.90101">
        <ele>507.600006</ele>
        <time>2011-10-09T13:47:28Z</time>
      </trkpt>
      <trkpt lat="43.95702" lon="6.90089">
        <ele>502.399994</ele>
        <time>2011-10-09T13:47:33Z</time>
      </trkpt>
      <trkpt lat="43.95695" lon="6.90085">
        <ele>499.200012</ele>
        <time>2011-10-09T13:47:35Z</time>
      </trkpt>
      <trkpt lat="43.95689" lon="6.9008">
        <ele>496</ele>
        <time>2011-10-09T13:47:37Z</time>
      </trkpt>
      <trkpt lat="43.95683" lon="6.90068">
        <ele>493.399994</ele>
        <time>2011-10-09T13:47:41Z</time>
      </trkpt>
      <trkpt lat="43.95684" lon="6.90051">
        <ele>494.399994</ele>
        <time>2011-10-09T13:47:45Z</time>
      </trkpt>
      <trkpt lat="43.95681" lon="6.9004">
        <ele>492.600006</ele>
        <time>2011-10-09T13:47:47Z</time>
      </trkpt>
      <trkpt lat="43.95676" lon="6.90024">
        <ele>489.799988</ele>
        <time>2011-10-09T13:47:50Z</time>
      </trkpt>
      <trkpt lat="43.95675" lon="6.90011">
        <ele>489</ele>
        <time>2011-10-09T13:47:52Z</time>
      </trkpt>
      <trkpt lat="43.95673" lon="6.90004">
        <ele>487.600006</ele>
        <time>2011-10-09T13:47:53Z</time>
      </trkpt>
      <trkpt lat="43.9567" lon="6.89988">
        <ele>483.200012</ele>
        <time>2011-10-09T13:47:55Z</time>
      </trkpt>
      <trkpt lat="43.95668" lon="6.89981">
        <ele>480.600006</ele>
        <time>2011-10-09T13:47:56Z</time>
      </trkpt>
      <trkpt lat="43.9567" lon="6.89961">
        <ele>479.200012</ele>
        <time>2011-10-09T13:47:59Z</time>
      </trkpt>
      <trkpt lat="43.95672" lon="6.89949">
        <ele>479</ele>
        <time>2011-10-09T13:48:01Z</time>
      </trkpt>
      <trkpt lat="43.95674" lon="6.89942">
        <ele>478.600006</ele>
        <time>2011-10-09T13:48:03Z</time>
      </trkpt>
      <trkpt lat="43.95671" lon="6.89935">
        <ele>475</ele>
        <time>2011-10-09T13:48:08Z</time>
      </trkpt>
      <trkpt lat="43.95674" lon="6.89928">
        <ele>476.399994</ele>
        <time>2011-10-09T13:48:10Z</time>
      </trkpt>
      <trkpt lat="43.95679" lon="6.89923">
        <ele>480.200012</ele>
        <time>2011-10-09T13:48:12Z</time>
      </trkpt>
      <trkpt lat="43.95685" lon="6.89912">
        <ele>482.799988</ele>
        <time>2011-10-09T13:48:15Z</time>
      </trkpt>
      <trkpt lat="43.95687" lon="6.89901">
        <ele>481.200012</ele>
        <time>2011-10-09T13:48:17Z</time>
      </trkpt>
      <trkpt lat="43.95688" lon="6.89891">
        <ele>479.200012</ele>
        <time>2011-10-09T13:48:19Z</time>
      </trkpt>
      <trkpt lat="43.95685" lon="6.89881">
        <ele>473.799988</ele>
        <time>2011-10-09T13:48:21Z</time>
      </trkpt>
      <trkpt lat="43.95682" lon="6.89873">
        <ele>470</ele>
        <time>2011-10-09T13:48:23Z</time>
      </trkpt>
      <trkpt lat="43.95678" lon="6.89865">
        <ele>465.200012</ele>
        <time>2011-10-09T13:48:25Z</time>
      </trkpt>
      <trkpt lat="43.95679" lon="6.89851">
        <ele>461.799988</ele>
        <time>2011-10-09T13:48:28Z</time>
      </trkpt>
      <trkpt lat="43.95683" lon="6.89844">
        <ele>463</ele>
        <time>2011-10-09T13:48:30Z</time>
      </trkpt>
      <trkpt lat="43.95687" lon="6.89833">
        <ele>462.399994</ele>
        <time>2011-10-09T13:48:32Z</time>
      </trkpt>
      <trkpt lat="43.9569" lon="6.8982">
        <ele>461.600006</ele>
        <time>2011-10-09T13:48:34Z</time>
      </trkpt>
      <trkpt lat="43.95692" lon="6.89809">
        <ele>460.799988</ele>
        <time>2011-10-09T13:48:36Z</time>
      </trkpt>
      <trkpt lat="43.95693" lon="6.89802">
        <ele>459.200012</ele>
        <time>2011-10-09T13:48:37Z</time>
      </trkpt>
      <trkpt lat="43.95695" lon="6.89786">
        <ele>456.799988</ele>
        <time>2011-10-09T13:48:39Z</time>
      </trkpt>
      <trkpt lat="43.95698" lon="6.89779">
        <ele>456.399994</ele>
        <time>2011-10-09T13:48:40Z</time>
      </trkpt>
      <trkpt lat="43.95702" lon="6.89763">
        <ele>454.200012</ele>
        <time>2011-10-09T13:48:42Z</time>
      </trkpt>
      <trkpt lat="43.95704" lon="6.89754">
        <ele>452.600006</ele>
        <time>2011-10-09T13:48:43Z</time>
      </trkpt>
      <trkpt lat="43.95714" lon="6.89734">
        <ele>451</ele>
        <time>2011-10-09T13:48:46Z</time>
      </trkpt>
      <trkpt lat="43.95721" lon="6.89723">
        <ele>450</ele>
        <time>2011-10-09T13:48:48Z</time>
      </trkpt>
      <trkpt lat="43.95726" lon="6.89714">
        <ele>449</ele>
        <time>2011-10-09T13:48:50Z</time>
      </trkpt>
      <trkpt lat="43.95728" lon="6.89707">
        <ele>447.600006</ele>
        <time>2011-10-09T13:48:52Z</time>
      </trkpt>
      <trkpt lat="43.9573" lon="6.89698">
        <ele>445.600006</ele>
        <time>2011-10-09T13:48:55Z</time>
      </trkpt>
      <trkpt lat="43.95731" lon="6.89691">
        <ele>443.799988</ele>
        <time>2011-10-09T13:48:57Z</time>
      </trkpt>
      <trkpt lat="43.95731" lon="6.89681">
        <ele>441</ele>
        <time>2011-10-09T13:49:00Z</time>
      </trkpt>
      <trkpt lat="43.9573" lon="6.8967">
        <ele>437.799988</ele>
        <time>2011-10-09T13:49:04Z</time>
      </trkpt>
      <trkpt lat="43.95728" lon="6.89664">
        <ele>436.200012</ele>
        <time>2011-10-09T13:49:06Z</time>
      </trkpt>
      <trkpt lat="43.95724" lon="6.89658">
        <ele>434.399994</ele>
        <time>2011-10-09T13:49:08Z</time>
      </trkpt>
      <trkpt lat="43.95719" lon="6.89654">
        <ele>433.200012</ele>
        <time>2011-10-09T13:49:10Z</time>
      </trkpt>
      <trkpt lat="43.95711" lon="6.8965">
        <ele>431.600006</ele>
        <time>2011-10-09T13:49:13Z</time>
      </trkpt>
      <trkpt lat="43.95707" lon="6.89634">
        <ele>428.399994</ele>
        <time>2011-10-09T13:49:16Z</time>
      </trkpt>
      <trkpt lat="43.95704" lon="6.89623">
        <ele>426.200012</ele>
        <time>2011-10-09T13:49:18Z</time>
      </trkpt>
      <trkpt lat="43.95701" lon="6.89615">
        <ele>424.600006</ele>
        <time>2011-10-09T13:49:20Z</time>
      </trkpt>
      <trkpt lat="43.95696" lon="6.89613">
        <ele>424.399994</ele>
        <time>2011-10-09T13:49:22Z</time>
      </trkpt>
      <trkpt lat="43.95685" lon="6.89608">
        <ele>423.600006</ele>
        <time>2011-10-09T13:49:25Z</time>
      </trkpt>
      <trkpt lat="43.95677" lon="6.89603">
        <ele>423</ele>
        <time>2011-10-09T13:49:27Z</time>
      </trkpt>
      <trkpt lat="43.95673" lon="6.89598">
        <ele>422.399994</ele>
        <time>2011-10-09T13:49:30Z</time>
      </trkpt>
      <trkpt lat="43.95669" lon="6.89592">
        <ele>421.799988</ele>
        <time>2011-10-09T13:49:34Z</time>
      </trkpt>
      <trkpt lat="43.95669" lon="6.89582">
        <ele>420.600006</ele>
        <time>2011-10-09T13:49:39Z</time>
      </trkpt>
      <trkpt lat="43.95662" lon="6.89579">
        <ele>420</ele>
        <time>2011-10-09T13:49:41Z</time>
      </trkpt>
      <trkpt lat="43.95654" lon="6.89579">
        <ele>419.200012</ele>
        <time>2011-10-09T13:49:43Z</time>
      </trkpt>
      <trkpt lat="43.95649" lon="6.89585">
        <ele>419.200012</ele>
        <time>2011-10-09T13:49:45Z</time>
      </trkpt>
      <trkpt lat="43.95647" lon="6.89595">
        <ele>419.600006</ele>
        <time>2011-10-09T13:49:48Z</time>
      </trkpt>
      <trkpt lat="43.95648" lon="6.89579">
        <ele>418.600006</ele>
        <time>2011-10-09T13:50:00Z</time>
      </trkpt>
      <trkpt lat="43.95649" lon="6.89571">
        <ele>418</ele>
        <time>2011-10-09T13:50:02Z</time>
      </trkpt>
      <trkpt lat="43.95645" lon="6.89564">
        <ele>417.200012</ele>
        <time>2011-10-09T13:50:05Z</time>
      </trkpt>
      <trkpt lat="43.9564" lon="6.89561">
        <ele>416.399994</ele>
        <time>2011-10-09T13:50:07Z</time>
      </trkpt>
      <trkpt lat="43.95635" lon="6.8956">
        <ele>416</ele>
        <time>2011-10-09T13:50:09Z</time>
      </trkpt>
      <trkpt lat="43.95628" lon="6.89557">
        <ele>415.200012</ele>
        <time>2011-10-09T13:50:12Z</time>
      </trkpt>
      <trkpt lat="43.95622" lon="6.89555">
        <ele>414.600006</ele>
        <time>2011-10-09T13:50:14Z</time>
      </trkpt>
      <trkpt lat="43.95615" lon="6.89554">
        <ele>414</ele>
        <time>2011-10-09T13:50:18Z</time>
      </trkpt>
      <trkpt lat="43.95609" lon="6.89552">
        <ele>413.399994</ele>
        <time>2011-10-09T13:50:21Z</time>
      </trkpt>
      <trkpt lat="43.95604" lon="6.89546">
        <ele>412.799988</ele>
        <time>2011-10-09T13:50:25Z</time>
      </trkpt>
      <trkpt lat="43.95597" lon="6.89542">
        <ele>412.399994</ele>
        <time>2011-10-09T13:50:29Z</time>
      </trkpt>
      <trkpt lat="43.95593" lon="6.89525">
        <ele>411.600006</ele>
        <time>2011-10-09T13:50:32Z</time>
      </trkpt>
      <trkpt lat="43.95595" lon="6.89514">
        <ele>411.399994</ele>
        <time>2011-10-09T13:50:34Z</time>
      </trkpt>
      <trkpt lat="43.95594" lon="6.89502">
        <ele>411.200012</ele>
        <time>2011-10-09T13:50:36Z</time>
      </trkpt>
      <trkpt lat="43.9559" lon="6.8949">
        <ele>410.600006</ele>
        <time>2011-10-09T13:50:38Z</time>
      </trkpt>
      <trkpt lat="43.95585" lon="6.8948">
        <ele>410</ele>
        <time>2011-10-09T13:50:40Z</time>
      </trkpt>
      <trkpt lat="43.9558" lon="6.89477">
        <ele>409.600006</ele>
        <time>2011-10-09T13:50:41Z</time>
      </trkpt>
      <trkpt lat="43.95589" lon="6.8947">
        <ele>409.799988</ele>
        <time>2011-10-09T13:50:47Z</time>
      </trkpt>
      <trkpt lat="43.95594" lon="6.89459">
        <ele>409.600006</ele>
        <time>2011-10-09T13:50:49Z</time>
      </trkpt>
      <trkpt lat="43.95598" lon="6.89444">
        <ele>409.399994</ele>
        <time>2011-10-09T13:50:51Z</time>
      </trkpt>
      <trkpt lat="43.95599" lon="6.89427">
        <ele>409</ele>
        <time>2011-10-09T13:50:54Z</time>
      </trkpt>
      <trkpt lat="43.95581" lon="6.89406">
        <ele>407</ele>
        <time>2011-10-09T13:51:00Z</time>
      </trkpt>
      <trkpt lat="43.95572" lon="6.89402">
        <ele>406.799988</ele>
        <time>2011-10-09T13:51:05Z</time>
      </trkpt>
    </trkseg>
  </trk>
</gpx>